<?xml version="1.0" encoding="UTF-8" standalone="no" ?>
<gpx xmlns="http://www.topografix.com/GPX/1/1" xmlns:xsi="http://www.w3.org/2001/XMLSchema-instance" xsi:schemaLocation="http://www.topografix.com/GPX/1/1 http://www.topografix.com/GPX/1/1/gpx.xsd" version="1.1" creator="VisuGPX - https://www.visugpx.com">
  <metadata>
    <name>Boucle_20_Km_en_cours</name>
  </metadata>
  <trk>
    <name><![CDATA[Boucle_20_Km]]></name>
    <trkseg>
      <trkpt lat="46.50942" lon="0.33292">
        <ele>92.800003051758</ele>
        <time>2020-06-05T14:28:13.000Z</time>
      </trkpt>
      <trkpt lat="46.50937" lon="0.33289">
        <ele>92.400001525879</ele>
        <time>2020-06-05T14:28:14.000Z</time>
      </trkpt>
      <trkpt lat="46.50933" lon="0.33288">
        <ele>92.199996948242</ele>
        <time>2020-06-05T14:28:15.000Z</time>
      </trkpt>
      <trkpt lat="46.50927" lon="0.3329">
        <ele>91.599998474121</ele>
        <time>2020-06-05T14:28:16.000Z</time>
      </trkpt>
      <trkpt lat="46.50919" lon="0.33293">
        <ele>91.599998474121</ele>
        <time>2020-06-05T14:28:17.000Z</time>
      </trkpt>
      <trkpt lat="46.50914" lon="0.33296">
        <ele>91.199996948242</ele>
        <time>2020-06-05T14:28:18.000Z</time>
      </trkpt>
      <trkpt lat="46.50905" lon="0.33298">
        <ele>91.199996948242</ele>
        <time>2020-06-05T14:28:19.000Z</time>
      </trkpt>
      <trkpt lat="46.50899" lon="0.33297">
        <ele>90.599998474121</ele>
        <time>2020-06-05T14:28:20.000Z</time>
      </trkpt>
      <trkpt lat="46.50891" lon="0.33294">
        <ele>90.199996948242</ele>
        <time>2020-06-05T14:28:21.000Z</time>
      </trkpt>
      <trkpt lat="46.50884" lon="0.33291">
        <ele>89.800003051758</ele>
        <time>2020-06-05T14:28:22.000Z</time>
      </trkpt>
      <trkpt lat="46.50876" lon="0.33287">
        <ele>88.800003051758</ele>
        <time>2020-06-05T14:28:23.000Z</time>
      </trkpt>
      <trkpt lat="46.5087" lon="0.33281">
        <ele>88.400001525879</ele>
        <time>2020-06-05T14:28:24.000Z</time>
      </trkpt>
      <trkpt lat="46.50865" lon="0.33277">
        <ele>88</ele>
        <time>2020-06-05T14:28:25.000Z</time>
      </trkpt>
      <trkpt lat="46.50858" lon="0.33272">
        <ele>88</ele>
        <time>2020-06-05T14:28:26.000Z</time>
      </trkpt>
      <trkpt lat="46.50851" lon="0.33267">
        <ele>87.599998474121</ele>
        <time>2020-06-05T14:28:27.000Z</time>
      </trkpt>
      <trkpt lat="46.50843" lon="0.33261">
        <ele>87.599998474121</ele>
        <time>2020-06-05T14:28:28.000Z</time>
      </trkpt>
      <trkpt lat="46.5083" lon="0.33253">
        <ele>87.199996948242</ele>
        <time>2020-06-05T14:28:30.000Z</time>
      </trkpt>
      <trkpt lat="46.50823" lon="0.3325">
        <ele>87.199996948242</ele>
        <time>2020-06-05T14:28:31.000Z</time>
      </trkpt>
      <trkpt lat="46.50816" lon="0.33248">
        <ele>87</ele>
        <time>2020-06-05T14:28:32.000Z</time>
      </trkpt>
      <trkpt lat="46.50809" lon="0.33246">
        <ele>86.599998474121</ele>
        <time>2020-06-05T14:28:33.000Z</time>
      </trkpt>
      <trkpt lat="46.50802" lon="0.33244">
        <ele>86.199996948242</ele>
        <time>2020-06-05T14:28:34.000Z</time>
      </trkpt>
      <trkpt lat="46.50796" lon="0.33242">
        <ele>85.199996948242</ele>
        <time>2020-06-05T14:28:35.000Z</time>
      </trkpt>
      <trkpt lat="46.50789" lon="0.33241">
        <ele>85</ele>
        <time>2020-06-05T14:28:36.000Z</time>
      </trkpt>
      <trkpt lat="46.5078" lon="0.33239">
        <ele>84.599998474121</ele>
        <time>2020-06-05T14:28:37.000Z</time>
      </trkpt>
      <trkpt lat="46.50773" lon="0.33237">
        <ele>84.400001525879</ele>
        <time>2020-06-05T14:28:38.000Z</time>
      </trkpt>
      <trkpt lat="46.50768" lon="0.33236">
        <ele>84</ele>
        <time>2020-06-05T14:28:39.000Z</time>
      </trkpt>
      <trkpt lat="46.50761" lon="0.33235">
        <ele>84</ele>
        <time>2020-06-05T14:28:40.000Z</time>
      </trkpt>
      <trkpt lat="46.50754" lon="0.33233">
        <ele>84</ele>
        <time>2020-06-05T14:28:41.000Z</time>
      </trkpt>
      <trkpt lat="46.50746" lon="0.3323">
        <ele>83.800003051758</ele>
        <time>2020-06-05T14:28:42.000Z</time>
      </trkpt>
      <trkpt lat="46.5074" lon="0.33229">
        <ele>83.800003051758</ele>
        <time>2020-06-05T14:28:43.000Z</time>
      </trkpt>
      <trkpt lat="46.50735" lon="0.33229">
        <ele>83.800003051758</ele>
        <time>2020-06-05T14:28:44.000Z</time>
      </trkpt>
      <trkpt lat="46.50729" lon="0.33229">
        <ele>83.800003051758</ele>
        <time>2020-06-05T14:28:45.000Z</time>
      </trkpt>
      <trkpt lat="46.50721" lon="0.33229">
        <ele>84</ele>
        <time>2020-06-05T14:28:46.000Z</time>
      </trkpt>
      <trkpt lat="46.50715" lon="0.3323">
        <ele>84</ele>
        <time>2020-06-05T14:28:47.000Z</time>
      </trkpt>
      <trkpt lat="46.5071" lon="0.33231">
        <ele>84.199996948242</ele>
        <time>2020-06-05T14:28:48.000Z</time>
      </trkpt>
      <trkpt lat="46.50705" lon="0.33231">
        <ele>85</ele>
        <time>2020-06-05T14:28:49.000Z</time>
      </trkpt>
      <trkpt lat="46.507" lon="0.33231">
        <ele>85.400001525879</ele>
        <time>2020-06-05T14:28:50.000Z</time>
      </trkpt>
      <trkpt lat="46.50694" lon="0.33232">
        <ele>86</ele>
        <time>2020-06-05T14:28:51.000Z</time>
      </trkpt>
      <trkpt lat="46.50688" lon="0.33232">
        <ele>86.199996948242</ele>
        <time>2020-06-05T14:28:52.000Z</time>
      </trkpt>
      <trkpt lat="46.50683" lon="0.33233">
        <ele>86.400001525879</ele>
        <time>2020-06-05T14:28:53.000Z</time>
      </trkpt>
      <trkpt lat="46.50679" lon="0.33234">
        <ele>86.800003051758</ele>
        <time>2020-06-05T14:28:54.000Z</time>
      </trkpt>
      <trkpt lat="46.50674" lon="0.33236">
        <ele>87.199996948242</ele>
        <time>2020-06-05T14:28:55.000Z</time>
      </trkpt>
      <trkpt lat="46.50668" lon="0.33238">
        <ele>87.599998474121</ele>
        <time>2020-06-05T14:28:56.000Z</time>
      </trkpt>
      <trkpt lat="46.50662" lon="0.33239">
        <ele>88.199996948242</ele>
        <time>2020-06-05T14:28:57.000Z</time>
      </trkpt>
      <trkpt lat="46.50658" lon="0.33241">
        <ele>88.599998474121</ele>
        <time>2020-06-05T14:28:58.000Z</time>
      </trkpt>
      <trkpt lat="46.50652" lon="0.33242">
        <ele>89</ele>
        <time>2020-06-05T14:28:59.000Z</time>
      </trkpt>
      <trkpt lat="46.50645" lon="0.33242">
        <ele>89.199996948242</ele>
        <time>2020-06-05T14:29:00.000Z</time>
      </trkpt>
      <trkpt lat="46.50641" lon="0.33242">
        <ele>89.800003051758</ele>
        <time>2020-06-05T14:29:01.000Z</time>
      </trkpt>
      <trkpt lat="46.50634" lon="0.33241">
        <ele>90</ele>
        <time>2020-06-05T14:29:02.000Z</time>
      </trkpt>
      <trkpt lat="46.50629" lon="0.33239">
        <ele>90.599998474121</ele>
        <time>2020-06-05T14:29:03.000Z</time>
      </trkpt>
      <trkpt lat="46.50624" lon="0.33237">
        <ele>90.599998474121</ele>
        <time>2020-06-05T14:29:04.000Z</time>
      </trkpt>
      <trkpt lat="46.50618" lon="0.33235">
        <ele>91</ele>
        <time>2020-06-05T14:29:05.000Z</time>
      </trkpt>
      <trkpt lat="46.50611" lon="0.33232">
        <ele>91.199996948242</ele>
        <time>2020-06-05T14:29:06.000Z</time>
      </trkpt>
      <trkpt lat="46.50607" lon="0.3323">
        <ele>91.400001525879</ele>
        <time>2020-06-05T14:29:07.000Z</time>
      </trkpt>
      <trkpt lat="46.50601" lon="0.33228">
        <ele>91.800003051758</ele>
        <time>2020-06-05T14:29:08.000Z</time>
      </trkpt>
      <trkpt lat="46.50595" lon="0.33225">
        <ele>91.800003051758</ele>
        <time>2020-06-05T14:29:09.000Z</time>
      </trkpt>
      <trkpt lat="46.50589" lon="0.33222">
        <ele>92</ele>
        <time>2020-06-05T14:29:10.000Z</time>
      </trkpt>
      <trkpt lat="46.50583" lon="0.33219">
        <ele>92</ele>
        <time>2020-06-05T14:29:11.000Z</time>
      </trkpt>
      <trkpt lat="46.50577" lon="0.33216">
        <ele>92.199996948242</ele>
        <time>2020-06-05T14:29:12.000Z</time>
      </trkpt>
      <trkpt lat="46.50572" lon="0.33213">
        <ele>92.199996948242</ele>
        <time>2020-06-05T14:29:13.000Z</time>
      </trkpt>
      <trkpt lat="46.50566" lon="0.33209">
        <ele>92.199996948242</ele>
        <time>2020-06-05T14:29:14.000Z</time>
      </trkpt>
      <trkpt lat="46.50561" lon="0.33204">
        <ele>92.400001525879</ele>
        <time>2020-06-05T14:29:15.000Z</time>
      </trkpt>
      <trkpt lat="46.50555" lon="0.33198">
        <ele>92.400001525879</ele>
        <time>2020-06-05T14:29:16.000Z</time>
      </trkpt>
      <trkpt lat="46.50551" lon="0.33193">
        <ele>92.599998474121</ele>
        <time>2020-06-05T14:29:17.000Z</time>
      </trkpt>
      <trkpt lat="46.50546" lon="0.33187">
        <ele>92.599998474121</ele>
        <time>2020-06-05T14:29:18.000Z</time>
      </trkpt>
      <trkpt lat="46.5054" lon="0.3318">
        <ele>92.599998474121</ele>
        <time>2020-06-05T14:29:19.000Z</time>
      </trkpt>
      <trkpt lat="46.50535" lon="0.33173">
        <ele>92.800003051758</ele>
        <time>2020-06-05T14:29:20.000Z</time>
      </trkpt>
      <trkpt lat="46.50531" lon="0.33168">
        <ele>92.800003051758</ele>
        <time>2020-06-05T14:29:21.000Z</time>
      </trkpt>
      <trkpt lat="46.50495" lon="0.33129">
        <ele>92.599998474121</ele>
        <time>2020-06-05T14:29:28.000Z</time>
      </trkpt>
      <trkpt lat="46.50491" lon="0.33125">
        <ele>92.400001525879</ele>
        <time>2020-06-05T14:29:29.000Z</time>
      </trkpt>
      <trkpt lat="46.50486" lon="0.33121">
        <ele>92.400001525879</ele>
        <time>2020-06-05T14:29:30.000Z</time>
      </trkpt>
      <trkpt lat="46.50481" lon="0.33117">
        <ele>92.400001525879</ele>
        <time>2020-06-05T14:29:31.000Z</time>
      </trkpt>
      <trkpt lat="46.50475" lon="0.33112">
        <ele>92.400001525879</ele>
        <time>2020-06-05T14:29:32.000Z</time>
      </trkpt>
      <trkpt lat="46.5047" lon="0.33108">
        <ele>92.400001525879</ele>
        <time>2020-06-05T14:29:33.000Z</time>
      </trkpt>
      <trkpt lat="46.50464" lon="0.33102">
        <ele>92.800003051758</ele>
        <time>2020-06-05T14:29:34.000Z</time>
      </trkpt>
      <trkpt lat="46.50458" lon="0.33097">
        <ele>92.800003051758</ele>
        <time>2020-06-05T14:29:35.000Z</time>
      </trkpt>
      <trkpt lat="46.50454" lon="0.33093">
        <ele>93</ele>
        <time>2020-06-05T14:29:36.000Z</time>
      </trkpt>
      <trkpt lat="46.50448" lon="0.33088">
        <ele>93</ele>
        <time>2020-06-05T14:29:37.000Z</time>
      </trkpt>
      <trkpt lat="46.50443" lon="0.33083">
        <ele>93</ele>
        <time>2020-06-05T14:29:38.000Z</time>
      </trkpt>
      <trkpt lat="46.50437" lon="0.33077">
        <ele>93.199996948242</ele>
        <time>2020-06-05T14:29:39.000Z</time>
      </trkpt>
      <trkpt lat="46.50429" lon="0.33068">
        <ele>93.199996948242</ele>
        <time>2020-06-05T14:29:41.000Z</time>
      </trkpt>
      <trkpt lat="46.50424" lon="0.33064">
        <ele>93.199996948242</ele>
        <time>2020-06-05T14:29:42.000Z</time>
      </trkpt>
      <trkpt lat="46.50407" lon="0.3305">
        <ele>93</ele>
        <time>2020-06-05T14:29:45.000Z</time>
      </trkpt>
      <trkpt lat="46.50402" lon="0.33044">
        <ele>93</ele>
        <time>2020-06-05T14:29:46.000Z</time>
      </trkpt>
      <trkpt lat="46.5039" lon="0.33033">
        <ele>93</ele>
        <time>2020-06-05T14:29:48.000Z</time>
      </trkpt>
      <trkpt lat="46.50352" lon="0.32997">
        <ele>93.400001525879</ele>
        <time>2020-06-05T14:29:55.000Z</time>
      </trkpt>
      <trkpt lat="46.50335" lon="0.32982">
        <ele>93.400001525879</ele>
        <time>2020-06-05T14:29:58.000Z</time>
      </trkpt>
      <trkpt lat="46.50329" lon="0.32977">
        <ele>93.400001525879</ele>
        <time>2020-06-05T14:29:59.000Z</time>
      </trkpt>
      <trkpt lat="46.50323" lon="0.32972">
        <ele>93.400001525879</ele>
        <time>2020-06-05T14:30:00.000Z</time>
      </trkpt>
      <trkpt lat="46.50317" lon="0.32967">
        <ele>93.400001525879</ele>
        <time>2020-06-05T14:30:01.000Z</time>
      </trkpt>
      <trkpt lat="46.50305" lon="0.32958">
        <ele>93.400001525879</ele>
        <time>2020-06-05T14:30:03.000Z</time>
      </trkpt>
      <trkpt lat="46.50281" lon="0.32939">
        <ele>93</ele>
        <time>2020-06-05T14:30:07.000Z</time>
      </trkpt>
      <trkpt lat="46.50263" lon="0.32928">
        <ele>92.800003051758</ele>
        <time>2020-06-05T14:30:10.000Z</time>
      </trkpt>
      <trkpt lat="46.50244" lon="0.32918">
        <ele>92.800003051758</ele>
        <time>2020-06-05T14:30:13.000Z</time>
      </trkpt>
      <trkpt lat="46.50239" lon="0.32915">
        <ele>92.800003051758</ele>
        <time>2020-06-05T14:30:14.000Z</time>
      </trkpt>
      <trkpt lat="46.50233" lon="0.32912">
        <ele>92.800003051758</ele>
        <time>2020-06-05T14:30:15.000Z</time>
      </trkpt>
      <trkpt lat="46.50226" lon="0.32908">
        <ele>92.599998474121</ele>
        <time>2020-06-05T14:30:16.000Z</time>
      </trkpt>
      <trkpt lat="46.50207" lon="0.329">
        <ele>92.800003051758</ele>
        <time>2020-06-05T14:30:19.000Z</time>
      </trkpt>
      <trkpt lat="46.50201" lon="0.32896">
        <ele>92.800003051758</ele>
        <time>2020-06-05T14:30:20.000Z</time>
      </trkpt>
      <trkpt lat="46.50194" lon="0.32891">
        <ele>92.599998474121</ele>
        <time>2020-06-05T14:30:21.000Z</time>
      </trkpt>
      <trkpt lat="46.50189" lon="0.32886">
        <ele>92.599998474121</ele>
        <time>2020-06-05T14:30:22.000Z</time>
      </trkpt>
      <trkpt lat="46.50184" lon="0.3288">
        <ele>92.599998474121</ele>
        <time>2020-06-05T14:30:23.000Z</time>
      </trkpt>
      <trkpt lat="46.50173" lon="0.32867">
        <ele>92.400001525879</ele>
        <time>2020-06-05T14:30:25.000Z</time>
      </trkpt>
      <trkpt lat="46.50168" lon="0.32861">
        <ele>92.400001525879</ele>
        <time>2020-06-05T14:30:26.000Z</time>
      </trkpt>
      <trkpt lat="46.50157" lon="0.32855">
        <ele>92.800003051758</ele>
        <time>2020-06-05T14:30:28.000Z</time>
      </trkpt>
      <trkpt lat="46.50151" lon="0.32856">
        <ele>92.800003051758</ele>
        <time>2020-06-05T14:30:29.000Z</time>
      </trkpt>
      <trkpt lat="46.50144" lon="0.3286">
        <ele>93</ele>
        <time>2020-06-05T14:30:30.000Z</time>
      </trkpt>
      <trkpt lat="46.5014" lon="0.32865">
        <ele>93</ele>
        <time>2020-06-05T14:30:31.000Z</time>
      </trkpt>
      <trkpt lat="46.50135" lon="0.3287">
        <ele>93</ele>
        <time>2020-06-05T14:30:32.000Z</time>
      </trkpt>
      <trkpt lat="46.50132" lon="0.32875">
        <ele>93.199996948242</ele>
        <time>2020-06-05T14:30:33.000Z</time>
      </trkpt>
      <trkpt lat="46.50129" lon="0.32882">
        <ele>93.400001525879</ele>
        <time>2020-06-05T14:30:34.000Z</time>
      </trkpt>
      <trkpt lat="46.50126" lon="0.32889">
        <ele>93.800003051758</ele>
        <time>2020-06-05T14:30:35.000Z</time>
      </trkpt>
      <trkpt lat="46.50123" lon="0.32896">
        <ele>94</ele>
        <time>2020-06-05T14:30:36.000Z</time>
      </trkpt>
      <trkpt lat="46.5012" lon="0.32902">
        <ele>94.199996948242</ele>
        <time>2020-06-05T14:30:37.000Z</time>
      </trkpt>
      <trkpt lat="46.50117" lon="0.32909">
        <ele>94.400001525879</ele>
        <time>2020-06-05T14:30:38.000Z</time>
      </trkpt>
      <trkpt lat="46.50113" lon="0.32915">
        <ele>94.800003051758</ele>
        <time>2020-06-05T14:30:39.000Z</time>
      </trkpt>
      <trkpt lat="46.50109" lon="0.32921">
        <ele>95.199996948242</ele>
        <time>2020-06-05T14:30:40.000Z</time>
      </trkpt>
      <trkpt lat="46.50105" lon="0.32927">
        <ele>95.400001525879</ele>
        <time>2020-06-05T14:30:41.000Z</time>
      </trkpt>
      <trkpt lat="46.50101" lon="0.32933">
        <ele>95.599998474121</ele>
        <time>2020-06-05T14:30:42.000Z</time>
      </trkpt>
      <trkpt lat="46.50098" lon="0.32936">
        <ele>95.599998474121</ele>
        <time>2020-06-05T14:30:43.000Z</time>
      </trkpt>
      <trkpt lat="46.50094" lon="0.32941">
        <ele>95.800003051758</ele>
        <time>2020-06-05T14:30:44.000Z</time>
      </trkpt>
      <trkpt lat="46.50088" lon="0.32945">
        <ele>96.199996948242</ele>
        <time>2020-06-05T14:30:45.000Z</time>
      </trkpt>
      <trkpt lat="46.50083" lon="0.32947">
        <ele>96.400001525879</ele>
        <time>2020-06-05T14:30:46.000Z</time>
      </trkpt>
      <trkpt lat="46.50079" lon="0.32949">
        <ele>96.599998474121</ele>
        <time>2020-06-05T14:30:47.000Z</time>
      </trkpt>
      <trkpt lat="46.50074" lon="0.3295">
        <ele>96.800003051758</ele>
        <time>2020-06-05T14:30:48.000Z</time>
      </trkpt>
      <trkpt lat="46.50069" lon="0.32951">
        <ele>96.800003051758</ele>
        <time>2020-06-05T14:30:49.000Z</time>
      </trkpt>
      <trkpt lat="46.50062" lon="0.32953">
        <ele>97</ele>
        <time>2020-06-05T14:30:50.000Z</time>
      </trkpt>
      <trkpt lat="46.50057" lon="0.32955">
        <ele>97.199996948242</ele>
        <time>2020-06-05T14:30:51.000Z</time>
      </trkpt>
      <trkpt lat="46.50054" lon="0.32957">
        <ele>97.599998474121</ele>
        <time>2020-06-05T14:30:52.000Z</time>
      </trkpt>
      <trkpt lat="46.5005" lon="0.32961">
        <ele>98</ele>
        <time>2020-06-05T14:30:53.000Z</time>
      </trkpt>
      <trkpt lat="46.50046" lon="0.32966">
        <ele>98.400001525879</ele>
        <time>2020-06-05T14:30:54.000Z</time>
      </trkpt>
      <trkpt lat="46.50043" lon="0.32971">
        <ele>98.400001525879</ele>
        <time>2020-06-05T14:30:55.000Z</time>
      </trkpt>
      <trkpt lat="46.5004" lon="0.32976">
        <ele>99</ele>
        <time>2020-06-05T14:30:56.000Z</time>
      </trkpt>
      <trkpt lat="46.50038" lon="0.32983">
        <ele>99.599998474121</ele>
        <time>2020-06-05T14:30:57.000Z</time>
      </trkpt>
      <trkpt lat="46.50036" lon="0.32989">
        <ele>100</ele>
        <time>2020-06-05T14:30:58.000Z</time>
      </trkpt>
      <trkpt lat="46.50034" lon="0.32997">
        <ele>100.80000305176</ele>
        <time>2020-06-05T14:30:59.000Z</time>
      </trkpt>
      <trkpt lat="46.50032" lon="0.33004">
        <ele>101.40000152588</ele>
        <time>2020-06-05T14:31:00.000Z</time>
      </trkpt>
      <trkpt lat="46.50031" lon="0.33011">
        <ele>102.40000152588</ele>
        <time>2020-06-05T14:31:01.000Z</time>
      </trkpt>
      <trkpt lat="46.5003" lon="0.33016">
        <ele>102.59999847412</ele>
        <time>2020-06-05T14:31:02.000Z</time>
      </trkpt>
      <trkpt lat="46.50029" lon="0.33023">
        <ele>103.40000152588</ele>
        <time>2020-06-05T14:31:03.000Z</time>
      </trkpt>
      <trkpt lat="46.50027" lon="0.3303">
        <ele>103.80000305176</ele>
        <time>2020-06-05T14:31:04.000Z</time>
      </trkpt>
      <trkpt lat="46.50025" lon="0.33038">
        <ele>104.19999694824</ele>
        <time>2020-06-05T14:31:05.000Z</time>
      </trkpt>
      <trkpt lat="46.50023" lon="0.33043">
        <ele>104.80000305176</ele>
        <time>2020-06-05T14:31:06.000Z</time>
      </trkpt>
      <trkpt lat="46.50021" lon="0.33049">
        <ele>105.19999694824</ele>
        <time>2020-06-05T14:31:07.000Z</time>
      </trkpt>
      <trkpt lat="46.50019" lon="0.33057">
        <ele>105.80000305176</ele>
        <time>2020-06-05T14:31:08.000Z</time>
      </trkpt>
      <trkpt lat="46.50018" lon="0.33062">
        <ele>106</ele>
        <time>2020-06-05T14:31:09.000Z</time>
      </trkpt>
      <trkpt lat="46.50015" lon="0.33069">
        <ele>106.59999847412</ele>
        <time>2020-06-05T14:31:10.000Z</time>
      </trkpt>
      <trkpt lat="46.50012" lon="0.3307">
        <ele>107.19999694824</ele>
        <time>2020-06-05T14:31:11.000Z</time>
      </trkpt>
      <trkpt lat="46.50008" lon="0.3307">
        <ele>107.40000152588</ele>
        <time>2020-06-05T14:31:12.000Z</time>
      </trkpt>
      <trkpt lat="46.50004" lon="0.33069">
        <ele>108</ele>
        <time>2020-06-05T14:31:13.000Z</time>
      </trkpt>
      <trkpt lat="46.49999" lon="0.33068">
        <ele>108.19999694824</ele>
        <time>2020-06-05T14:31:14.000Z</time>
      </trkpt>
      <trkpt lat="46.49996" lon="0.33066">
        <ele>108.59999847412</ele>
        <time>2020-06-05T14:31:15.000Z</time>
      </trkpt>
      <trkpt lat="46.49992" lon="0.33065">
        <ele>108.59999847412</ele>
        <time>2020-06-05T14:31:16.000Z</time>
      </trkpt>
      <trkpt lat="46.49988" lon="0.33063">
        <ele>109</ele>
        <time>2020-06-05T14:31:17.000Z</time>
      </trkpt>
      <trkpt lat="46.49984" lon="0.33061">
        <ele>109.80000305176</ele>
        <time>2020-06-05T14:31:18.000Z</time>
      </trkpt>
      <trkpt lat="46.49979" lon="0.33059">
        <ele>110</ele>
        <time>2020-06-05T14:31:19.000Z</time>
      </trkpt>
      <trkpt lat="46.49975" lon="0.33057">
        <ele>110</ele>
        <time>2020-06-05T14:31:20.000Z</time>
      </trkpt>
      <trkpt lat="46.49972" lon="0.33056">
        <ele>110.59999847412</ele>
        <time>2020-06-05T14:31:21.000Z</time>
      </trkpt>
      <trkpt lat="46.49969" lon="0.33054">
        <ele>111.80000305176</ele>
        <time>2020-06-05T14:31:22.000Z</time>
      </trkpt>
      <trkpt lat="46.49968" lon="0.33054">
        <ele>112</ele>
        <time>2020-06-05T14:31:23.000Z</time>
      </trkpt>
      <trkpt lat="46.49968" lon="0.33054">
        <ele>112.40000152588</ele>
        <time>2020-06-05T14:31:24.000Z</time>
      </trkpt>
      <trkpt lat="46.49968" lon="0.33054">
        <ele>112.59999847412</ele>
        <time>2020-06-05T14:31:25.000Z</time>
      </trkpt>
      <trkpt lat="46.49962" lon="0.33047">
        <ele>112.80000305176</ele>
        <time>2020-06-05T14:31:37.000Z</time>
      </trkpt>
      <trkpt lat="46.49959" lon="0.33046">
        <ele>112.80000305176</ele>
        <time>2020-06-05T14:31:38.000Z</time>
      </trkpt>
      <trkpt lat="46.49955" lon="0.33045">
        <ele>112.80000305176</ele>
        <time>2020-06-05T14:31:39.000Z</time>
      </trkpt>
      <trkpt lat="46.49947" lon="0.33044">
        <ele>112.59999847412</ele>
        <time>2020-06-05T14:31:41.000Z</time>
      </trkpt>
      <trkpt lat="46.49943" lon="0.33044">
        <ele>112.59999847412</ele>
        <time>2020-06-05T14:31:42.000Z</time>
      </trkpt>
      <trkpt lat="46.49939" lon="0.33045">
        <ele>112.59999847412</ele>
        <time>2020-06-05T14:31:43.000Z</time>
      </trkpt>
      <trkpt lat="46.49935" lon="0.33046">
        <ele>112.80000305176</ele>
        <time>2020-06-05T14:31:44.000Z</time>
      </trkpt>
      <trkpt lat="46.49932" lon="0.33046">
        <ele>112.80000305176</ele>
        <time>2020-06-05T14:31:45.000Z</time>
      </trkpt>
      <trkpt lat="46.49932" lon="0.33046">
        <ele>112.80000305176</ele>
        <time>2020-06-05T14:31:46.000Z</time>
      </trkpt>
      <trkpt lat="46.49923" lon="0.33047">
        <ele>113</ele>
        <time>2020-06-05T14:31:47.000Z</time>
      </trkpt>
      <trkpt lat="46.49908" lon="0.33048">
        <ele>113.59999847412</ele>
        <time>2020-06-05T14:31:50.000Z</time>
      </trkpt>
      <trkpt lat="46.49904" lon="0.33047">
        <ele>113.80000305176</ele>
        <time>2020-06-05T14:31:51.000Z</time>
      </trkpt>
      <trkpt lat="46.499" lon="0.33047">
        <ele>114</ele>
        <time>2020-06-05T14:31:52.000Z</time>
      </trkpt>
      <trkpt lat="46.49896" lon="0.33047">
        <ele>114.40000152588</ele>
        <time>2020-06-05T14:31:53.000Z</time>
      </trkpt>
      <trkpt lat="46.49891" lon="0.33047">
        <ele>114.59999847412</ele>
        <time>2020-06-05T14:31:54.000Z</time>
      </trkpt>
      <trkpt lat="46.49886" lon="0.33047">
        <ele>114.80000305176</ele>
        <time>2020-06-05T14:31:55.000Z</time>
      </trkpt>
      <trkpt lat="46.49881" lon="0.33046">
        <ele>115</ele>
        <time>2020-06-05T14:31:56.000Z</time>
      </trkpt>
      <trkpt lat="46.49876" lon="0.33045">
        <ele>115.19999694824</ele>
        <time>2020-06-05T14:31:57.000Z</time>
      </trkpt>
      <trkpt lat="46.49871" lon="0.33044">
        <ele>115.40000152588</ele>
        <time>2020-06-05T14:31:58.000Z</time>
      </trkpt>
      <trkpt lat="46.49865" lon="0.33042">
        <ele>115.19999694824</ele>
        <time>2020-06-05T14:31:59.000Z</time>
      </trkpt>
      <trkpt lat="46.49861" lon="0.3304">
        <ele>115.40000152588</ele>
        <time>2020-06-05T14:32:00.000Z</time>
      </trkpt>
      <trkpt lat="46.49855" lon="0.33039">
        <ele>115.40000152588</ele>
        <time>2020-06-05T14:32:01.000Z</time>
      </trkpt>
      <trkpt lat="46.4985" lon="0.33038">
        <ele>115.59999847412</ele>
        <time>2020-06-05T14:32:02.000Z</time>
      </trkpt>
      <trkpt lat="46.49846" lon="0.33037">
        <ele>115.80000305176</ele>
        <time>2020-06-05T14:32:03.000Z</time>
      </trkpt>
      <trkpt lat="46.49841" lon="0.33036">
        <ele>116</ele>
        <time>2020-06-05T14:32:04.000Z</time>
      </trkpt>
      <trkpt lat="46.49836" lon="0.33035">
        <ele>116</ele>
        <time>2020-06-05T14:32:05.000Z</time>
      </trkpt>
      <trkpt lat="46.49831" lon="0.33034">
        <ele>116</ele>
        <time>2020-06-05T14:32:06.000Z</time>
      </trkpt>
      <trkpt lat="46.49826" lon="0.33033">
        <ele>116</ele>
        <time>2020-06-05T14:32:07.000Z</time>
      </trkpt>
      <trkpt lat="46.4982" lon="0.33031">
        <ele>116</ele>
        <time>2020-06-05T14:32:08.000Z</time>
      </trkpt>
      <trkpt lat="46.49815" lon="0.3303">
        <ele>115.80000305176</ele>
        <time>2020-06-05T14:32:09.000Z</time>
      </trkpt>
      <trkpt lat="46.4981" lon="0.3303">
        <ele>115.59999847412</ele>
        <time>2020-06-05T14:32:10.000Z</time>
      </trkpt>
      <trkpt lat="46.49783" lon="0.33024">
        <ele>114.80000305176</ele>
        <time>2020-06-05T14:32:15.000Z</time>
      </trkpt>
      <trkpt lat="46.49772" lon="0.3302">
        <ele>114.59999847412</ele>
        <time>2020-06-05T14:32:17.000Z</time>
      </trkpt>
      <trkpt lat="46.49766" lon="0.33017">
        <ele>114.40000152588</ele>
        <time>2020-06-05T14:32:18.000Z</time>
      </trkpt>
      <trkpt lat="46.4976" lon="0.33014">
        <ele>114</ele>
        <time>2020-06-05T14:32:19.000Z</time>
      </trkpt>
      <trkpt lat="46.49754" lon="0.33011">
        <ele>113.80000305176</ele>
        <time>2020-06-05T14:32:20.000Z</time>
      </trkpt>
      <trkpt lat="46.49749" lon="0.33008">
        <ele>113.40000152588</ele>
        <time>2020-06-05T14:32:21.000Z</time>
      </trkpt>
      <trkpt lat="46.49738" lon="0.33002">
        <ele>112.40000152588</ele>
        <time>2020-06-05T14:32:23.000Z</time>
      </trkpt>
      <trkpt lat="46.49733" lon="0.33">
        <ele>111.59999847412</ele>
        <time>2020-06-05T14:32:24.000Z</time>
      </trkpt>
      <trkpt lat="46.49728" lon="0.32998">
        <ele>111</ele>
        <time>2020-06-05T14:32:25.000Z</time>
      </trkpt>
      <trkpt lat="46.49723" lon="0.32996">
        <ele>109.59999847412</ele>
        <time>2020-06-05T14:32:26.000Z</time>
      </trkpt>
      <trkpt lat="46.49717" lon="0.32995">
        <ele>108.80000305176</ele>
        <time>2020-06-05T14:32:27.000Z</time>
      </trkpt>
      <trkpt lat="46.49711" lon="0.32995">
        <ele>107.80000305176</ele>
        <time>2020-06-05T14:32:28.000Z</time>
      </trkpt>
      <trkpt lat="46.49704" lon="0.32997">
        <ele>107.59999847412</ele>
        <time>2020-06-05T14:32:29.000Z</time>
      </trkpt>
      <trkpt lat="46.49698" lon="0.32998">
        <ele>106.80000305176</ele>
        <time>2020-06-05T14:32:30.000Z</time>
      </trkpt>
      <trkpt lat="46.49691" lon="0.32998">
        <ele>106.19999694824</ele>
        <time>2020-06-05T14:32:31.000Z</time>
      </trkpt>
      <trkpt lat="46.49686" lon="0.32999">
        <ele>106</ele>
        <time>2020-06-05T14:32:32.000Z</time>
      </trkpt>
      <trkpt lat="46.49681" lon="0.33001">
        <ele>105.80000305176</ele>
        <time>2020-06-05T14:32:33.000Z</time>
      </trkpt>
      <trkpt lat="46.49672" lon="0.33001">
        <ele>105.40000152588</ele>
        <time>2020-06-05T14:32:34.000Z</time>
      </trkpt>
      <trkpt lat="46.49665" lon="0.33001">
        <ele>104.80000305176</ele>
        <time>2020-06-05T14:32:35.000Z</time>
      </trkpt>
      <trkpt lat="46.49646" lon="0.33">
        <ele>103.80000305176</ele>
        <time>2020-06-05T14:32:37.000Z</time>
      </trkpt>
      <trkpt lat="46.49638" lon="0.33">
        <ele>102.59999847412</ele>
        <time>2020-06-05T14:32:38.000Z</time>
      </trkpt>
      <trkpt lat="46.49628" lon="0.33002">
        <ele>102.19999694824</ele>
        <time>2020-06-05T14:32:39.000Z</time>
      </trkpt>
      <trkpt lat="46.49619" lon="0.33004">
        <ele>101.19999694824</ele>
        <time>2020-06-05T14:32:40.000Z</time>
      </trkpt>
      <trkpt lat="46.49602" lon="0.33007">
        <ele>100.19999694824</ele>
        <time>2020-06-05T14:32:42.000Z</time>
      </trkpt>
      <trkpt lat="46.49593" lon="0.33008">
        <ele>99.400001525879</ele>
        <time>2020-06-05T14:32:43.000Z</time>
      </trkpt>
      <trkpt lat="46.49585" lon="0.33009">
        <ele>99.199996948242</ele>
        <time>2020-06-05T14:32:44.000Z</time>
      </trkpt>
      <trkpt lat="46.49569" lon="0.33009">
        <ele>98.400001525879</ele>
        <time>2020-06-05T14:32:46.000Z</time>
      </trkpt>
      <trkpt lat="46.49562" lon="0.33009">
        <ele>98.400001525879</ele>
        <time>2020-06-05T14:32:47.000Z</time>
      </trkpt>
      <trkpt lat="46.49556" lon="0.33011">
        <ele>98.400001525879</ele>
        <time>2020-06-05T14:32:48.000Z</time>
      </trkpt>
      <trkpt lat="46.49549" lon="0.33012">
        <ele>98.199996948242</ele>
        <time>2020-06-05T14:32:49.000Z</time>
      </trkpt>
      <trkpt lat="46.49543" lon="0.33015">
        <ele>98.199996948242</ele>
        <time>2020-06-05T14:32:50.000Z</time>
      </trkpt>
      <trkpt lat="46.49538" lon="0.33017">
        <ele>98.199996948242</ele>
        <time>2020-06-05T14:32:51.000Z</time>
      </trkpt>
      <trkpt lat="46.49532" lon="0.33019">
        <ele>98.400001525879</ele>
        <time>2020-06-05T14:32:52.000Z</time>
      </trkpt>
      <trkpt lat="46.49526" lon="0.33021">
        <ele>98.400001525879</ele>
        <time>2020-06-05T14:32:53.000Z</time>
      </trkpt>
      <trkpt lat="46.49522" lon="0.33024">
        <ele>98.599998474121</ele>
        <time>2020-06-05T14:32:54.000Z</time>
      </trkpt>
      <trkpt lat="46.49515" lon="0.33027">
        <ele>98.599998474121</ele>
        <time>2020-06-05T14:32:55.000Z</time>
      </trkpt>
      <trkpt lat="46.49509" lon="0.33028">
        <ele>99</ele>
        <time>2020-06-05T14:32:56.000Z</time>
      </trkpt>
      <trkpt lat="46.49502" lon="0.33029">
        <ele>99.199996948242</ele>
        <time>2020-06-05T14:32:57.000Z</time>
      </trkpt>
      <trkpt lat="46.49497" lon="0.33031">
        <ele>99.400001525879</ele>
        <time>2020-06-05T14:32:58.000Z</time>
      </trkpt>
      <trkpt lat="46.49491" lon="0.33034">
        <ele>99.599998474121</ele>
        <time>2020-06-05T14:32:59.000Z</time>
      </trkpt>
      <trkpt lat="46.49485" lon="0.33036">
        <ele>99.599998474121</ele>
        <time>2020-06-05T14:33:00.000Z</time>
      </trkpt>
      <trkpt lat="46.4948" lon="0.33038">
        <ele>99.800003051758</ele>
        <time>2020-06-05T14:33:01.000Z</time>
      </trkpt>
      <trkpt lat="46.49475" lon="0.33039">
        <ele>99.800003051758</ele>
        <time>2020-06-05T14:33:02.000Z</time>
      </trkpt>
      <trkpt lat="46.49471" lon="0.3304">
        <ele>100</ele>
        <time>2020-06-05T14:33:03.000Z</time>
      </trkpt>
      <trkpt lat="46.49467" lon="0.33043">
        <ele>100</ele>
        <time>2020-06-05T14:33:04.000Z</time>
      </trkpt>
      <trkpt lat="46.49462" lon="0.33046">
        <ele>100</ele>
        <time>2020-06-05T14:33:05.000Z</time>
      </trkpt>
      <trkpt lat="46.49456" lon="0.33049">
        <ele>100.40000152588</ele>
        <time>2020-06-05T14:33:06.000Z</time>
      </trkpt>
      <trkpt lat="46.49451" lon="0.33051">
        <ele>100.40000152588</ele>
        <time>2020-06-05T14:33:07.000Z</time>
      </trkpt>
      <trkpt lat="46.49445" lon="0.33054">
        <ele>100.59999847412</ele>
        <time>2020-06-05T14:33:08.000Z</time>
      </trkpt>
      <trkpt lat="46.49439" lon="0.33058">
        <ele>100.59999847412</ele>
        <time>2020-06-05T14:33:09.000Z</time>
      </trkpt>
      <trkpt lat="46.49433" lon="0.33062">
        <ele>100.59999847412</ele>
        <time>2020-06-05T14:33:10.000Z</time>
      </trkpt>
      <trkpt lat="46.49427" lon="0.33066">
        <ele>100.59999847412</ele>
        <time>2020-06-05T14:33:11.000Z</time>
      </trkpt>
      <trkpt lat="46.49417" lon="0.33074">
        <ele>100.59999847412</ele>
        <time>2020-06-05T14:33:13.000Z</time>
      </trkpt>
      <trkpt lat="46.49413" lon="0.33079">
        <ele>100.59999847412</ele>
        <time>2020-06-05T14:33:14.000Z</time>
      </trkpt>
      <trkpt lat="46.49409" lon="0.33084">
        <ele>100.59999847412</ele>
        <time>2020-06-05T14:33:15.000Z</time>
      </trkpt>
      <trkpt lat="46.49405" lon="0.33091">
        <ele>100.59999847412</ele>
        <time>2020-06-05T14:33:16.000Z</time>
      </trkpt>
      <trkpt lat="46.49401" lon="0.33099">
        <ele>100.59999847412</ele>
        <time>2020-06-05T14:33:17.000Z</time>
      </trkpt>
      <trkpt lat="46.49397" lon="0.33106">
        <ele>100.40000152588</ele>
        <time>2020-06-05T14:33:18.000Z</time>
      </trkpt>
      <trkpt lat="46.49392" lon="0.33113">
        <ele>100.40000152588</ele>
        <time>2020-06-05T14:33:19.000Z</time>
      </trkpt>
      <trkpt lat="46.49388" lon="0.33119">
        <ele>100.40000152588</ele>
        <time>2020-06-05T14:33:20.000Z</time>
      </trkpt>
      <trkpt lat="46.49384" lon="0.33126">
        <ele>100.40000152588</ele>
        <time>2020-06-05T14:33:21.000Z</time>
      </trkpt>
      <trkpt lat="46.49384" lon="0.33126">
        <ele>100.40000152588</ele>
        <time>2020-06-05T14:33:22.000Z</time>
      </trkpt>
      <trkpt lat="46.49376" lon="0.33139">
        <ele>100.19999694824</ele>
        <time>2020-06-05T14:33:23.000Z</time>
      </trkpt>
      <trkpt lat="46.49371" lon="0.33147">
        <ele>100.19999694824</ele>
        <time>2020-06-05T14:33:24.000Z</time>
      </trkpt>
      <trkpt lat="46.49366" lon="0.33154">
        <ele>100</ele>
        <time>2020-06-05T14:33:25.000Z</time>
      </trkpt>
      <trkpt lat="46.49362" lon="0.33161">
        <ele>100</ele>
        <time>2020-06-05T14:33:26.000Z</time>
      </trkpt>
      <trkpt lat="46.49357" lon="0.33166">
        <ele>99.800003051758</ele>
        <time>2020-06-05T14:33:27.000Z</time>
      </trkpt>
      <trkpt lat="46.49352" lon="0.33171">
        <ele>99.800003051758</ele>
        <time>2020-06-05T14:33:28.000Z</time>
      </trkpt>
      <trkpt lat="46.49348" lon="0.33176">
        <ele>99.599998474121</ele>
        <time>2020-06-05T14:33:29.000Z</time>
      </trkpt>
      <trkpt lat="46.49343" lon="0.33181">
        <ele>99.599998474121</ele>
        <time>2020-06-05T14:33:30.000Z</time>
      </trkpt>
      <trkpt lat="46.49337" lon="0.33186">
        <ele>99.400001525879</ele>
        <time>2020-06-05T14:33:31.000Z</time>
      </trkpt>
      <trkpt lat="46.49329" lon="0.33192">
        <ele>99</ele>
        <time>2020-06-05T14:33:32.000Z</time>
      </trkpt>
      <trkpt lat="46.49326" lon="0.33198">
        <ele>99.199996948242</ele>
        <time>2020-06-05T14:33:33.000Z</time>
      </trkpt>
      <trkpt lat="46.49322" lon="0.33205">
        <ele>99</ele>
        <time>2020-06-05T14:33:34.000Z</time>
      </trkpt>
      <trkpt lat="46.49317" lon="0.33215">
        <ele>98.800003051758</ele>
        <time>2020-06-05T14:33:36.000Z</time>
      </trkpt>
      <trkpt lat="46.49313" lon="0.33216">
        <ele>98.599998474121</ele>
        <time>2020-06-05T14:33:37.000Z</time>
      </trkpt>
      <trkpt lat="46.4931" lon="0.33213">
        <ele>98.599998474121</ele>
        <time>2020-06-05T14:33:38.000Z</time>
      </trkpt>
      <trkpt lat="46.49308" lon="0.33207">
        <ele>98.400001525879</ele>
        <time>2020-06-05T14:33:39.000Z</time>
      </trkpt>
      <trkpt lat="46.49306" lon="0.33204">
        <ele>98.400001525879</ele>
        <time>2020-06-05T14:33:40.000Z</time>
      </trkpt>
      <trkpt lat="46.49304" lon="0.33198">
        <ele>98</ele>
        <time>2020-06-05T14:33:41.000Z</time>
      </trkpt>
      <trkpt lat="46.493" lon="0.33189">
        <ele>97.599998474121</ele>
        <time>2020-06-05T14:33:42.000Z</time>
      </trkpt>
      <trkpt lat="46.49297" lon="0.33181">
        <ele>96.800003051758</ele>
        <time>2020-06-05T14:33:43.000Z</time>
      </trkpt>
      <trkpt lat="46.49294" lon="0.33173">
        <ele>94.800003051758</ele>
        <time>2020-06-05T14:33:44.000Z</time>
      </trkpt>
      <trkpt lat="46.49287" lon="0.33156">
        <ele>93.199996948242</ele>
        <time>2020-06-05T14:33:46.000Z</time>
      </trkpt>
      <trkpt lat="46.49283" lon="0.33146">
        <ele>92.800003051758</ele>
        <time>2020-06-05T14:33:47.000Z</time>
      </trkpt>
      <trkpt lat="46.4928" lon="0.3314">
        <ele>91.400001525879</ele>
        <time>2020-06-05T14:33:48.000Z</time>
      </trkpt>
      <trkpt lat="46.49276" lon="0.33131">
        <ele>89.800003051758</ele>
        <time>2020-06-05T14:33:49.000Z</time>
      </trkpt>
      <trkpt lat="46.49276" lon="0.33131">
        <ele>89</ele>
        <time>2020-06-05T14:33:50.000Z</time>
      </trkpt>
      <trkpt lat="46.49269" lon="0.33113">
        <ele>87.400001525879</ele>
        <time>2020-06-05T14:33:51.000Z</time>
      </trkpt>
      <trkpt lat="46.49265" lon="0.33106">
        <ele>87</ele>
        <time>2020-06-05T14:33:52.000Z</time>
      </trkpt>
      <trkpt lat="46.49259" lon="0.33101">
        <ele>86.199996948242</ele>
        <time>2020-06-05T14:33:53.000Z</time>
      </trkpt>
      <trkpt lat="46.49254" lon="0.331">
        <ele>86</ele>
        <time>2020-06-05T14:33:54.000Z</time>
      </trkpt>
      <trkpt lat="46.49249" lon="0.33101">
        <ele>84.800003051758</ele>
        <time>2020-06-05T14:33:55.000Z</time>
      </trkpt>
      <trkpt lat="46.49249" lon="0.33101">
        <ele>84</ele>
        <time>2020-06-05T14:33:56.000Z</time>
      </trkpt>
      <trkpt lat="46.49239" lon="0.33104">
        <ele>83.800003051758</ele>
        <time>2020-06-05T14:33:57.000Z</time>
      </trkpt>
      <trkpt lat="46.49239" lon="0.33104">
        <ele>83.400001525879</ele>
        <time>2020-06-05T14:33:58.000Z</time>
      </trkpt>
      <trkpt lat="46.49228" lon="0.33106">
        <ele>83.199996948242</ele>
        <time>2020-06-05T14:33:59.000Z</time>
      </trkpt>
      <trkpt lat="46.49223" lon="0.33108">
        <ele>82.800003051758</ele>
        <time>2020-06-05T14:34:00.000Z</time>
      </trkpt>
      <trkpt lat="46.49217" lon="0.33109">
        <ele>82.599998474121</ele>
        <time>2020-06-05T14:34:01.000Z</time>
      </trkpt>
      <trkpt lat="46.49211" lon="0.3311">
        <ele>82.599998474121</ele>
        <time>2020-06-05T14:34:02.000Z</time>
      </trkpt>
      <trkpt lat="46.49206" lon="0.33112">
        <ele>82.400001525879</ele>
        <time>2020-06-05T14:34:03.000Z</time>
      </trkpt>
      <trkpt lat="46.492" lon="0.33114">
        <ele>82.400001525879</ele>
        <time>2020-06-05T14:34:04.000Z</time>
      </trkpt>
      <trkpt lat="46.492" lon="0.33114">
        <ele>82.400001525879</ele>
        <time>2020-06-05T14:34:05.000Z</time>
      </trkpt>
      <trkpt lat="46.49189" lon="0.33118">
        <ele>82.199996948242</ele>
        <time>2020-06-05T14:34:06.000Z</time>
      </trkpt>
      <trkpt lat="46.49172" lon="0.33125">
        <ele>82.199996948242</ele>
        <time>2020-06-05T14:34:09.000Z</time>
      </trkpt>
      <trkpt lat="46.49151" lon="0.33135">
        <ele>82.599998474121</ele>
        <time>2020-06-05T14:34:13.000Z</time>
      </trkpt>
      <trkpt lat="46.49146" lon="0.33138">
        <ele>82.599998474121</ele>
        <time>2020-06-05T14:34:14.000Z</time>
      </trkpt>
      <trkpt lat="46.49142" lon="0.3314">
        <ele>82.599998474121</ele>
        <time>2020-06-05T14:34:15.000Z</time>
      </trkpt>
      <trkpt lat="46.49137" lon="0.33142">
        <ele>82.800003051758</ele>
        <time>2020-06-05T14:34:16.000Z</time>
      </trkpt>
      <trkpt lat="46.49132" lon="0.33144">
        <ele>82.800003051758</ele>
        <time>2020-06-05T14:34:17.000Z</time>
      </trkpt>
      <trkpt lat="46.49127" lon="0.33146">
        <ele>83</ele>
        <time>2020-06-05T14:34:18.000Z</time>
      </trkpt>
      <trkpt lat="46.49122" lon="0.33148">
        <ele>83.400001525879</ele>
        <time>2020-06-05T14:34:19.000Z</time>
      </trkpt>
      <trkpt lat="46.49122" lon="0.33148">
        <ele>83.400001525879</ele>
        <time>2020-06-05T14:34:20.000Z</time>
      </trkpt>
      <trkpt lat="46.49112" lon="0.33152">
        <ele>83.599998474121</ele>
        <time>2020-06-05T14:34:21.000Z</time>
      </trkpt>
      <trkpt lat="46.49107" lon="0.33154">
        <ele>84</ele>
        <time>2020-06-05T14:34:22.000Z</time>
      </trkpt>
      <trkpt lat="46.49102" lon="0.33155">
        <ele>84.199996948242</ele>
        <time>2020-06-05T14:34:23.000Z</time>
      </trkpt>
      <trkpt lat="46.49097" lon="0.33157">
        <ele>84.400001525879</ele>
        <time>2020-06-05T14:34:24.000Z</time>
      </trkpt>
      <trkpt lat="46.49092" lon="0.3316">
        <ele>84.400001525879</ele>
        <time>2020-06-05T14:34:25.000Z</time>
      </trkpt>
      <trkpt lat="46.49087" lon="0.33161">
        <ele>84.400001525879</ele>
        <time>2020-06-05T14:34:26.000Z</time>
      </trkpt>
      <trkpt lat="46.49082" lon="0.33163">
        <ele>84.400001525879</ele>
        <time>2020-06-05T14:34:27.000Z</time>
      </trkpt>
      <trkpt lat="46.49077" lon="0.33163">
        <ele>84.400001525879</ele>
        <time>2020-06-05T14:34:28.000Z</time>
      </trkpt>
      <trkpt lat="46.49077" lon="0.33163">
        <ele>84.400001525879</ele>
        <time>2020-06-05T14:34:29.000Z</time>
      </trkpt>
      <trkpt lat="46.49068" lon="0.33158">
        <ele>84.400001525879</ele>
        <time>2020-06-05T14:34:30.000Z</time>
      </trkpt>
      <trkpt lat="46.49066" lon="0.33153">
        <ele>84.599998474121</ele>
        <time>2020-06-05T14:34:31.000Z</time>
      </trkpt>
      <trkpt lat="46.49066" lon="0.33153">
        <ele>84.599998474121</ele>
        <time>2020-06-05T14:34:32.000Z</time>
      </trkpt>
      <trkpt lat="46.49067" lon="0.3314">
        <ele>84.599998474121</ele>
        <time>2020-06-05T14:34:33.000Z</time>
      </trkpt>
      <trkpt lat="46.49067" lon="0.33133">
        <ele>84.800003051758</ele>
        <time>2020-06-05T14:34:34.000Z</time>
      </trkpt>
      <trkpt lat="46.49067" lon="0.33126">
        <ele>84.800003051758</ele>
        <time>2020-06-05T14:34:35.000Z</time>
      </trkpt>
      <trkpt lat="46.49067" lon="0.33119">
        <ele>85</ele>
        <time>2020-06-05T14:34:36.000Z</time>
      </trkpt>
      <trkpt lat="46.49067" lon="0.33119">
        <ele>85</ele>
        <time>2020-06-05T14:34:37.000Z</time>
      </trkpt>
      <trkpt lat="46.49067" lon="0.33104">
        <ele>85.400001525879</ele>
        <time>2020-06-05T14:34:38.000Z</time>
      </trkpt>
      <trkpt lat="46.49067" lon="0.33096">
        <ele>85.599998474121</ele>
        <time>2020-06-05T14:34:39.000Z</time>
      </trkpt>
      <trkpt lat="46.49067" lon="0.33089">
        <ele>85.599998474121</ele>
        <time>2020-06-05T14:34:40.000Z</time>
      </trkpt>
      <trkpt lat="46.49066" lon="0.33081">
        <ele>85.800003051758</ele>
        <time>2020-06-05T14:34:41.000Z</time>
      </trkpt>
      <trkpt lat="46.49066" lon="0.33081">
        <ele>85.800003051758</ele>
        <time>2020-06-05T14:34:42.000Z</time>
      </trkpt>
      <trkpt lat="46.49065" lon="0.33065">
        <ele>85.800003051758</ele>
        <time>2020-06-05T14:34:43.000Z</time>
      </trkpt>
      <trkpt lat="46.49065" lon="0.33057">
        <ele>85.800003051758</ele>
        <time>2020-06-05T14:34:44.000Z</time>
      </trkpt>
      <trkpt lat="46.49065" lon="0.33049">
        <ele>85.800003051758</ele>
        <time>2020-06-05T14:34:45.000Z</time>
      </trkpt>
      <trkpt lat="46.49064" lon="0.33026">
        <ele>85.800003051758</ele>
        <time>2020-06-05T14:34:48.000Z</time>
      </trkpt>
      <trkpt lat="46.49063" lon="0.33011">
        <ele>85.400001525879</ele>
        <time>2020-06-05T14:34:50.000Z</time>
      </trkpt>
      <trkpt lat="46.49061" lon="0.3298">
        <ele>85.199996948242</ele>
        <time>2020-06-05T14:34:54.000Z</time>
      </trkpt>
      <trkpt lat="46.49059" lon="0.32974">
        <ele>85.400001525879</ele>
        <time>2020-06-05T14:34:55.000Z</time>
      </trkpt>
      <trkpt lat="46.49056" lon="0.32971">
        <ele>85.400001525879</ele>
        <time>2020-06-05T14:34:56.000Z</time>
      </trkpt>
      <trkpt lat="46.49052" lon="0.3297">
        <ele>85.599998474121</ele>
        <time>2020-06-05T14:34:57.000Z</time>
      </trkpt>
      <trkpt lat="46.49047" lon="0.3297">
        <ele>85.599998474121</ele>
        <time>2020-06-05T14:34:58.000Z</time>
      </trkpt>
      <trkpt lat="46.49042" lon="0.3297">
        <ele>85.800003051758</ele>
        <time>2020-06-05T14:34:59.000Z</time>
      </trkpt>
      <trkpt lat="46.4903" lon="0.3297">
        <ele>86.199996948242</ele>
        <time>2020-06-05T14:35:01.000Z</time>
      </trkpt>
      <trkpt lat="46.49019" lon="0.32969">
        <ele>86.400001525879</ele>
        <time>2020-06-05T14:35:03.000Z</time>
      </trkpt>
      <trkpt lat="46.49014" lon="0.32968">
        <ele>86.400001525879</ele>
        <time>2020-06-05T14:35:04.000Z</time>
      </trkpt>
      <trkpt lat="46.49008" lon="0.32968">
        <ele>86.400001525879</ele>
        <time>2020-06-05T14:35:05.000Z</time>
      </trkpt>
      <trkpt lat="46.49002" lon="0.32967">
        <ele>86.400001525879</ele>
        <time>2020-06-05T14:35:06.000Z</time>
      </trkpt>
      <trkpt lat="46.48987" lon="0.32966">
        <ele>86</ele>
        <time>2020-06-05T14:35:09.000Z</time>
      </trkpt>
      <trkpt lat="46.48983" lon="0.32964">
        <ele>85.800003051758</ele>
        <time>2020-06-05T14:35:10.000Z</time>
      </trkpt>
      <trkpt lat="46.4898" lon="0.32961">
        <ele>85.599998474121</ele>
        <time>2020-06-05T14:35:11.000Z</time>
      </trkpt>
      <trkpt lat="46.48979" lon="0.32957">
        <ele>85.599998474121</ele>
        <time>2020-06-05T14:35:12.000Z</time>
      </trkpt>
      <trkpt lat="46.48978" lon="0.32951">
        <ele>85.400001525879</ele>
        <time>2020-06-05T14:35:13.000Z</time>
      </trkpt>
      <trkpt lat="46.48979" lon="0.32944">
        <ele>85.400001525879</ele>
        <time>2020-06-05T14:35:14.000Z</time>
      </trkpt>
      <trkpt lat="46.4898" lon="0.32931">
        <ele>85.199996948242</ele>
        <time>2020-06-05T14:35:16.000Z</time>
      </trkpt>
      <trkpt lat="46.48981" lon="0.32924">
        <ele>85.199996948242</ele>
        <time>2020-06-05T14:35:17.000Z</time>
      </trkpt>
      <trkpt lat="46.4898" lon="0.32907">
        <ele>84.800003051758</ele>
        <time>2020-06-05T14:35:19.000Z</time>
      </trkpt>
      <trkpt lat="46.4898" lon="0.32907">
        <ele>84.599998474121</ele>
        <time>2020-06-05T14:35:20.000Z</time>
      </trkpt>
      <trkpt lat="46.48976" lon="0.3288">
        <ele>84</ele>
        <time>2020-06-05T14:35:22.000Z</time>
      </trkpt>
      <trkpt lat="46.48972" lon="0.32852">
        <ele>83.400001525879</ele>
        <time>2020-06-05T14:35:25.000Z</time>
      </trkpt>
      <trkpt lat="46.48972" lon="0.32852">
        <ele>83.199996948242</ele>
        <time>2020-06-05T14:35:26.000Z</time>
      </trkpt>
      <trkpt lat="46.48968" lon="0.32835">
        <ele>82.800003051758</ele>
        <time>2020-06-05T14:35:27.000Z</time>
      </trkpt>
      <trkpt lat="46.48967" lon="0.32826">
        <ele>82.599998474121</ele>
        <time>2020-06-05T14:35:28.000Z</time>
      </trkpt>
      <trkpt lat="46.48966" lon="0.32818">
        <ele>82.400001525879</ele>
        <time>2020-06-05T14:35:29.000Z</time>
      </trkpt>
      <trkpt lat="46.48964" lon="0.32809">
        <ele>82.400001525879</ele>
        <time>2020-06-05T14:35:30.000Z</time>
      </trkpt>
      <trkpt lat="46.48963" lon="0.328">
        <ele>82.199996948242</ele>
        <time>2020-06-05T14:35:31.000Z</time>
      </trkpt>
      <trkpt lat="46.48962" lon="0.32792">
        <ele>82.199996948242</ele>
        <time>2020-06-05T14:35:32.000Z</time>
      </trkpt>
      <trkpt lat="46.4896" lon="0.32783">
        <ele>82</ele>
        <time>2020-06-05T14:35:33.000Z</time>
      </trkpt>
      <trkpt lat="46.48958" lon="0.32775">
        <ele>82</ele>
        <time>2020-06-05T14:35:34.000Z</time>
      </trkpt>
      <trkpt lat="46.48957" lon="0.32766">
        <ele>81.800003051758</ele>
        <time>2020-06-05T14:35:35.000Z</time>
      </trkpt>
      <trkpt lat="46.48955" lon="0.32757">
        <ele>81.599998474121</ele>
        <time>2020-06-05T14:35:36.000Z</time>
      </trkpt>
      <trkpt lat="46.48953" lon="0.32747">
        <ele>81.400001525879</ele>
        <time>2020-06-05T14:35:37.000Z</time>
      </trkpt>
      <trkpt lat="46.48948" lon="0.3271">
        <ele>81</ele>
        <time>2020-06-05T14:35:41.000Z</time>
      </trkpt>
      <trkpt lat="46.48948" lon="0.32701">
        <ele>80.800003051758</ele>
        <time>2020-06-05T14:35:42.000Z</time>
      </trkpt>
      <trkpt lat="46.48948" lon="0.32683">
        <ele>80.599998474121</ele>
        <time>2020-06-05T14:35:44.000Z</time>
      </trkpt>
      <trkpt lat="46.4895" lon="0.32674">
        <ele>80.599998474121</ele>
        <time>2020-06-05T14:35:45.000Z</time>
      </trkpt>
      <trkpt lat="46.48952" lon="0.32664">
        <ele>80.599998474121</ele>
        <time>2020-06-05T14:35:46.000Z</time>
      </trkpt>
      <trkpt lat="46.48954" lon="0.32656">
        <ele>80.599998474121</ele>
        <time>2020-06-05T14:35:47.000Z</time>
      </trkpt>
      <trkpt lat="46.48956" lon="0.32647">
        <ele>80.599998474121</ele>
        <time>2020-06-05T14:35:48.000Z</time>
      </trkpt>
      <trkpt lat="46.48956" lon="0.32647">
        <ele>80.599998474121</ele>
        <time>2020-06-05T14:35:49.000Z</time>
      </trkpt>
      <trkpt lat="46.48966" lon="0.32623">
        <ele>80.599998474121</ele>
        <time>2020-06-05T14:35:51.000Z</time>
      </trkpt>
      <trkpt lat="46.4897" lon="0.32615">
        <ele>80.800003051758</ele>
        <time>2020-06-05T14:35:52.000Z</time>
      </trkpt>
      <trkpt lat="46.48973" lon="0.32607">
        <ele>80.800003051758</ele>
        <time>2020-06-05T14:35:53.000Z</time>
      </trkpt>
      <trkpt lat="46.48988" lon="0.32555">
        <ele>81.400001525879</ele>
        <time>2020-06-05T14:35:59.000Z</time>
      </trkpt>
      <trkpt lat="46.48999" lon="0.32491">
        <ele>81.400001525879</ele>
        <time>2020-06-05T14:36:06.000Z</time>
      </trkpt>
      <trkpt lat="46.49001" lon="0.32482">
        <ele>81.199996948242</ele>
        <time>2020-06-05T14:36:07.000Z</time>
      </trkpt>
      <trkpt lat="46.49002" lon="0.32473">
        <ele>81</ele>
        <time>2020-06-05T14:36:08.000Z</time>
      </trkpt>
      <trkpt lat="46.49002" lon="0.32473">
        <ele>81</ele>
        <time>2020-06-05T14:36:09.000Z</time>
      </trkpt>
      <trkpt lat="46.49005" lon="0.32456">
        <ele>80.800003051758</ele>
        <time>2020-06-05T14:36:10.000Z</time>
      </trkpt>
      <trkpt lat="46.49007" lon="0.32447">
        <ele>80.800003051758</ele>
        <time>2020-06-05T14:36:11.000Z</time>
      </trkpt>
      <trkpt lat="46.49008" lon="0.32438">
        <ele>80.800003051758</ele>
        <time>2020-06-05T14:36:12.000Z</time>
      </trkpt>
      <trkpt lat="46.4901" lon="0.32429">
        <ele>80.800003051758</ele>
        <time>2020-06-05T14:36:13.000Z</time>
      </trkpt>
      <trkpt lat="46.49011" lon="0.32421">
        <ele>80.800003051758</ele>
        <time>2020-06-05T14:36:14.000Z</time>
      </trkpt>
      <trkpt lat="46.49013" lon="0.32412">
        <ele>81</ele>
        <time>2020-06-05T14:36:15.000Z</time>
      </trkpt>
      <trkpt lat="46.49014" lon="0.32403">
        <ele>81</ele>
        <time>2020-06-05T14:36:16.000Z</time>
      </trkpt>
      <trkpt lat="46.49016" lon="0.32394">
        <ele>80.800003051758</ele>
        <time>2020-06-05T14:36:17.000Z</time>
      </trkpt>
      <trkpt lat="46.49017" lon="0.32385">
        <ele>81</ele>
        <time>2020-06-05T14:36:18.000Z</time>
      </trkpt>
      <trkpt lat="46.49018" lon="0.32376">
        <ele>81.199996948242</ele>
        <time>2020-06-05T14:36:19.000Z</time>
      </trkpt>
      <trkpt lat="46.49018" lon="0.32367">
        <ele>81.199996948242</ele>
        <time>2020-06-05T14:36:20.000Z</time>
      </trkpt>
      <trkpt lat="46.49016" lon="0.3236">
        <ele>81.400001525879</ele>
        <time>2020-06-05T14:36:21.000Z</time>
      </trkpt>
      <trkpt lat="46.49012" lon="0.32353">
        <ele>81.599998474121</ele>
        <time>2020-06-05T14:36:22.000Z</time>
      </trkpt>
      <trkpt lat="46.49007" lon="0.32348">
        <ele>81.599998474121</ele>
        <time>2020-06-05T14:36:23.000Z</time>
      </trkpt>
      <trkpt lat="46.49001" lon="0.32345">
        <ele>81.800003051758</ele>
        <time>2020-06-05T14:36:24.000Z</time>
      </trkpt>
      <trkpt lat="46.48995" lon="0.32342">
        <ele>81.800003051758</ele>
        <time>2020-06-05T14:36:25.000Z</time>
      </trkpt>
      <trkpt lat="46.48983" lon="0.32338">
        <ele>81.800003051758</ele>
        <time>2020-06-05T14:36:27.000Z</time>
      </trkpt>
      <trkpt lat="46.48977" lon="0.32335">
        <ele>81.800003051758</ele>
        <time>2020-06-05T14:36:28.000Z</time>
      </trkpt>
      <trkpt lat="46.48977" lon="0.32335">
        <ele>82</ele>
        <time>2020-06-05T14:36:29.000Z</time>
      </trkpt>
      <trkpt lat="46.48966" lon="0.32328">
        <ele>82</ele>
        <time>2020-06-05T14:36:30.000Z</time>
      </trkpt>
      <trkpt lat="46.4896" lon="0.32324">
        <ele>82</ele>
        <time>2020-06-05T14:36:31.000Z</time>
      </trkpt>
      <trkpt lat="46.48955" lon="0.3232">
        <ele>81.800003051758</ele>
        <time>2020-06-05T14:36:32.000Z</time>
      </trkpt>
      <trkpt lat="46.48914" lon="0.3229">
        <ele>81.800003051758</ele>
        <time>2020-06-05T14:36:39.000Z</time>
      </trkpt>
      <trkpt lat="46.4888" lon="0.32269">
        <ele>82.800003051758</ele>
        <time>2020-06-05T14:36:44.000Z</time>
      </trkpt>
      <trkpt lat="46.48874" lon="0.32265">
        <ele>83</ele>
        <time>2020-06-05T14:36:45.000Z</time>
      </trkpt>
      <trkpt lat="46.48867" lon="0.32261">
        <ele>83</ele>
        <time>2020-06-05T14:36:46.000Z</time>
      </trkpt>
      <trkpt lat="46.48861" lon="0.32257">
        <ele>83</ele>
        <time>2020-06-05T14:36:47.000Z</time>
      </trkpt>
      <trkpt lat="46.48854" lon="0.32253">
        <ele>83.199996948242</ele>
        <time>2020-06-05T14:36:48.000Z</time>
      </trkpt>
      <trkpt lat="46.48848" lon="0.32249">
        <ele>83.400001525879</ele>
        <time>2020-06-05T14:36:49.000Z</time>
      </trkpt>
      <trkpt lat="46.48841" lon="0.32245">
        <ele>83.199996948242</ele>
        <time>2020-06-05T14:36:50.000Z</time>
      </trkpt>
      <trkpt lat="46.48835" lon="0.32241">
        <ele>83.199996948242</ele>
        <time>2020-06-05T14:36:51.000Z</time>
      </trkpt>
      <trkpt lat="46.48828" lon="0.32237">
        <ele>83.199996948242</ele>
        <time>2020-06-05T14:36:52.000Z</time>
      </trkpt>
      <trkpt lat="46.48822" lon="0.32233">
        <ele>83</ele>
        <time>2020-06-05T14:36:53.000Z</time>
      </trkpt>
      <trkpt lat="46.48816" lon="0.32228">
        <ele>83</ele>
        <time>2020-06-05T14:36:54.000Z</time>
      </trkpt>
      <trkpt lat="46.48809" lon="0.32224">
        <ele>83</ele>
        <time>2020-06-05T14:36:55.000Z</time>
      </trkpt>
      <trkpt lat="46.48803" lon="0.32219">
        <ele>83</ele>
        <time>2020-06-05T14:36:56.000Z</time>
      </trkpt>
      <trkpt lat="46.48797" lon="0.32215">
        <ele>83</ele>
        <time>2020-06-05T14:36:57.000Z</time>
      </trkpt>
      <trkpt lat="46.48791" lon="0.32211">
        <ele>83</ele>
        <time>2020-06-05T14:36:58.000Z</time>
      </trkpt>
      <trkpt lat="46.48785" lon="0.32206">
        <ele>83</ele>
        <time>2020-06-05T14:36:59.000Z</time>
      </trkpt>
      <trkpt lat="46.48753" lon="0.32181">
        <ele>83</ele>
        <time>2020-06-05T14:37:04.000Z</time>
      </trkpt>
      <trkpt lat="46.4871" lon="0.32144">
        <ele>82.800003051758</ele>
        <time>2020-06-05T14:37:11.000Z</time>
      </trkpt>
      <trkpt lat="46.48699" lon="0.32134">
        <ele>83</ele>
        <time>2020-06-05T14:37:13.000Z</time>
      </trkpt>
      <trkpt lat="46.48693" lon="0.32128">
        <ele>83</ele>
        <time>2020-06-05T14:37:14.000Z</time>
      </trkpt>
      <trkpt lat="46.48687" lon="0.32122">
        <ele>83</ele>
        <time>2020-06-05T14:37:15.000Z</time>
      </trkpt>
      <trkpt lat="46.48682" lon="0.32117">
        <ele>83</ele>
        <time>2020-06-05T14:37:16.000Z</time>
      </trkpt>
      <trkpt lat="46.48676" lon="0.32111">
        <ele>83</ele>
        <time>2020-06-05T14:37:17.000Z</time>
      </trkpt>
      <trkpt lat="46.48671" lon="0.32105">
        <ele>83</ele>
        <time>2020-06-05T14:37:18.000Z</time>
      </trkpt>
      <trkpt lat="46.48665" lon="0.321">
        <ele>83.199996948242</ele>
        <time>2020-06-05T14:37:19.000Z</time>
      </trkpt>
      <trkpt lat="46.4866" lon="0.32094">
        <ele>83.199996948242</ele>
        <time>2020-06-05T14:37:20.000Z</time>
      </trkpt>
      <trkpt lat="46.48654" lon="0.32088">
        <ele>83</ele>
        <time>2020-06-05T14:37:21.000Z</time>
      </trkpt>
      <trkpt lat="46.48648" lon="0.3208">
        <ele>83</ele>
        <time>2020-06-05T14:37:22.000Z</time>
      </trkpt>
      <trkpt lat="46.48644" lon="0.32076">
        <ele>83</ele>
        <time>2020-06-05T14:37:23.000Z</time>
      </trkpt>
      <trkpt lat="46.48638" lon="0.3207">
        <ele>83</ele>
        <time>2020-06-05T14:37:24.000Z</time>
      </trkpt>
      <trkpt lat="46.48632" lon="0.32062">
        <ele>83</ele>
        <time>2020-06-05T14:37:25.000Z</time>
      </trkpt>
      <trkpt lat="46.48627" lon="0.32057">
        <ele>83</ele>
        <time>2020-06-05T14:37:26.000Z</time>
      </trkpt>
      <trkpt lat="46.48617" lon="0.32044">
        <ele>83</ele>
        <time>2020-06-05T14:37:28.000Z</time>
      </trkpt>
      <trkpt lat="46.48611" lon="0.32037">
        <ele>83</ele>
        <time>2020-06-05T14:37:29.000Z</time>
      </trkpt>
      <trkpt lat="46.48571" lon="0.31983">
        <ele>82.599998474121</ele>
        <time>2020-06-05T14:37:37.000Z</time>
      </trkpt>
      <trkpt lat="46.48545" lon="0.31945">
        <ele>82.599998474121</ele>
        <time>2020-06-05T14:37:42.000Z</time>
      </trkpt>
      <trkpt lat="46.48542" lon="0.3194">
        <ele>82.599998474121</ele>
        <time>2020-06-05T14:37:43.000Z</time>
      </trkpt>
      <trkpt lat="46.48537" lon="0.31933">
        <ele>82.599998474121</ele>
        <time>2020-06-05T14:37:44.000Z</time>
      </trkpt>
      <trkpt lat="46.48532" lon="0.31925">
        <ele>82.599998474121</ele>
        <time>2020-06-05T14:37:45.000Z</time>
      </trkpt>
      <trkpt lat="46.48529" lon="0.31919">
        <ele>82.599998474121</ele>
        <time>2020-06-05T14:37:46.000Z</time>
      </trkpt>
      <trkpt lat="46.48525" lon="0.31912">
        <ele>82.800003051758</ele>
        <time>2020-06-05T14:37:47.000Z</time>
      </trkpt>
      <trkpt lat="46.48521" lon="0.31905">
        <ele>82.800003051758</ele>
        <time>2020-06-05T14:37:48.000Z</time>
      </trkpt>
      <trkpt lat="46.48517" lon="0.31898">
        <ele>82.800003051758</ele>
        <time>2020-06-05T14:37:49.000Z</time>
      </trkpt>
      <trkpt lat="46.48512" lon="0.3189">
        <ele>83</ele>
        <time>2020-06-05T14:37:50.000Z</time>
      </trkpt>
      <trkpt lat="46.48509" lon="0.31884">
        <ele>83</ele>
        <time>2020-06-05T14:37:51.000Z</time>
      </trkpt>
      <trkpt lat="46.48504" lon="0.31876">
        <ele>83</ele>
        <time>2020-06-05T14:37:52.000Z</time>
      </trkpt>
      <trkpt lat="46.48501" lon="0.31871">
        <ele>83.199996948242</ele>
        <time>2020-06-05T14:37:53.000Z</time>
      </trkpt>
      <trkpt lat="46.48497" lon="0.31864">
        <ele>83.199996948242</ele>
        <time>2020-06-05T14:37:54.000Z</time>
      </trkpt>
      <trkpt lat="46.48492" lon="0.31856">
        <ele>83.400001525879</ele>
        <time>2020-06-05T14:37:55.000Z</time>
      </trkpt>
      <trkpt lat="46.48489" lon="0.31851">
        <ele>83.599998474121</ele>
        <time>2020-06-05T14:37:56.000Z</time>
      </trkpt>
      <trkpt lat="46.48485" lon="0.31843">
        <ele>83.599998474121</ele>
        <time>2020-06-05T14:37:57.000Z</time>
      </trkpt>
      <trkpt lat="46.48481" lon="0.31837">
        <ele>83.800003051758</ele>
        <time>2020-06-05T14:37:58.000Z</time>
      </trkpt>
      <trkpt lat="46.48477" lon="0.31831">
        <ele>83.800003051758</ele>
        <time>2020-06-05T14:37:59.000Z</time>
      </trkpt>
      <trkpt lat="46.48473" lon="0.31823">
        <ele>83.800003051758</ele>
        <time>2020-06-05T14:38:00.000Z</time>
      </trkpt>
      <trkpt lat="46.48469" lon="0.31816">
        <ele>83.800003051758</ele>
        <time>2020-06-05T14:38:01.000Z</time>
      </trkpt>
      <trkpt lat="46.48465" lon="0.31808">
        <ele>83.800003051758</ele>
        <time>2020-06-05T14:38:02.000Z</time>
      </trkpt>
      <trkpt lat="46.48462" lon="0.318">
        <ele>83.800003051758</ele>
        <time>2020-06-05T14:38:03.000Z</time>
      </trkpt>
      <trkpt lat="46.48448" lon="0.3177">
        <ele>83.800003051758</ele>
        <time>2020-06-05T14:38:07.000Z</time>
      </trkpt>
      <trkpt lat="46.48446" lon="0.31764">
        <ele>84</ele>
        <time>2020-06-05T14:38:08.000Z</time>
      </trkpt>
      <trkpt lat="46.48442" lon="0.31758">
        <ele>84</ele>
        <time>2020-06-05T14:38:09.000Z</time>
      </trkpt>
      <trkpt lat="46.48438" lon="0.3175">
        <ele>84</ele>
        <time>2020-06-05T14:38:10.000Z</time>
      </trkpt>
      <trkpt lat="46.48424" lon="0.31726">
        <ele>84.199996948242</ele>
        <time>2020-06-05T14:38:14.000Z</time>
      </trkpt>
      <trkpt lat="46.4842" lon="0.31721">
        <ele>84.400001525879</ele>
        <time>2020-06-05T14:38:15.000Z</time>
      </trkpt>
      <trkpt lat="46.48416" lon="0.31715">
        <ele>84.400001525879</ele>
        <time>2020-06-05T14:38:16.000Z</time>
      </trkpt>
      <trkpt lat="46.48411" lon="0.31711">
        <ele>84.599998474121</ele>
        <time>2020-06-05T14:38:17.000Z</time>
      </trkpt>
      <trkpt lat="46.48401" lon="0.31701">
        <ele>85</ele>
        <time>2020-06-05T14:38:19.000Z</time>
      </trkpt>
      <trkpt lat="46.48396" lon="0.31694">
        <ele>85</ele>
        <time>2020-06-05T14:38:20.000Z</time>
      </trkpt>
      <trkpt lat="46.48393" lon="0.31687">
        <ele>85.199996948242</ele>
        <time>2020-06-05T14:38:21.000Z</time>
      </trkpt>
      <trkpt lat="46.48391" lon="0.31682">
        <ele>85.199996948242</ele>
        <time>2020-06-05T14:38:22.000Z</time>
      </trkpt>
      <trkpt lat="46.48388" lon="0.31676">
        <ele>85.199996948242</ele>
        <time>2020-06-05T14:38:23.000Z</time>
      </trkpt>
      <trkpt lat="46.48383" lon="0.31671">
        <ele>85.400001525879</ele>
        <time>2020-06-05T14:38:24.000Z</time>
      </trkpt>
      <trkpt lat="46.48378" lon="0.31671">
        <ele>85.400001525879</ele>
        <time>2020-06-05T14:38:25.000Z</time>
      </trkpt>
      <trkpt lat="46.48374" lon="0.31673">
        <ele>85.599998474121</ele>
        <time>2020-06-05T14:38:26.000Z</time>
      </trkpt>
      <trkpt lat="46.48369" lon="0.31676">
        <ele>85.800003051758</ele>
        <time>2020-06-05T14:38:27.000Z</time>
      </trkpt>
      <trkpt lat="46.48364" lon="0.3168">
        <ele>86</ele>
        <time>2020-06-05T14:38:28.000Z</time>
      </trkpt>
      <trkpt lat="46.48359" lon="0.31682">
        <ele>86.199996948242</ele>
        <time>2020-06-05T14:38:29.000Z</time>
      </trkpt>
      <trkpt lat="46.48353" lon="0.31682">
        <ele>86.199996948242</ele>
        <time>2020-06-05T14:38:30.000Z</time>
      </trkpt>
      <trkpt lat="46.48346" lon="0.3168">
        <ele>86.400001525879</ele>
        <time>2020-06-05T14:38:31.000Z</time>
      </trkpt>
      <trkpt lat="46.48342" lon="0.31677">
        <ele>86.400001525879</ele>
        <time>2020-06-05T14:38:32.000Z</time>
      </trkpt>
      <trkpt lat="46.48338" lon="0.31672">
        <ele>86.400001525879</ele>
        <time>2020-06-05T14:38:33.000Z</time>
      </trkpt>
      <trkpt lat="46.48335" lon="0.31665">
        <ele>86.400001525879</ele>
        <time>2020-06-05T14:38:34.000Z</time>
      </trkpt>
      <trkpt lat="46.48331" lon="0.31659">
        <ele>86.400001525879</ele>
        <time>2020-06-05T14:38:35.000Z</time>
      </trkpt>
      <trkpt lat="46.48315" lon="0.31623">
        <ele>85.599998474121</ele>
        <time>2020-06-05T14:38:40.000Z</time>
      </trkpt>
      <trkpt lat="46.48303" lon="0.31593">
        <ele>85.599998474121</ele>
        <time>2020-06-05T14:38:44.000Z</time>
      </trkpt>
      <trkpt lat="46.48294" lon="0.31573">
        <ele>85.400001525879</ele>
        <time>2020-06-05T14:38:47.000Z</time>
      </trkpt>
      <trkpt lat="46.48291" lon="0.31566">
        <ele>85.400001525879</ele>
        <time>2020-06-05T14:38:48.000Z</time>
      </trkpt>
      <trkpt lat="46.48288" lon="0.31559">
        <ele>85.400001525879</ele>
        <time>2020-06-05T14:38:49.000Z</time>
      </trkpt>
      <trkpt lat="46.48285" lon="0.31552">
        <ele>85.400001525879</ele>
        <time>2020-06-05T14:38:50.000Z</time>
      </trkpt>
      <trkpt lat="46.48281" lon="0.31545">
        <ele>85.400001525879</ele>
        <time>2020-06-05T14:38:51.000Z</time>
      </trkpt>
      <trkpt lat="46.48275" lon="0.31532">
        <ele>85.400001525879</ele>
        <time>2020-06-05T14:38:53.000Z</time>
      </trkpt>
      <trkpt lat="46.48271" lon="0.31527">
        <ele>85.599998474121</ele>
        <time>2020-06-05T14:38:54.000Z</time>
      </trkpt>
      <trkpt lat="46.48266" lon="0.31525">
        <ele>85.800003051758</ele>
        <time>2020-06-05T14:38:55.000Z</time>
      </trkpt>
      <trkpt lat="46.48261" lon="0.31524">
        <ele>85.800003051758</ele>
        <time>2020-06-05T14:38:56.000Z</time>
      </trkpt>
      <trkpt lat="46.48256" lon="0.31527">
        <ele>85.800003051758</ele>
        <time>2020-06-05T14:38:57.000Z</time>
      </trkpt>
      <trkpt lat="46.48251" lon="0.31531">
        <ele>85.800003051758</ele>
        <time>2020-06-05T14:38:58.000Z</time>
      </trkpt>
      <trkpt lat="46.48246" lon="0.31534">
        <ele>85.800003051758</ele>
        <time>2020-06-05T14:38:59.000Z</time>
      </trkpt>
      <trkpt lat="46.4824" lon="0.31534">
        <ele>85.800003051758</ele>
        <time>2020-06-05T14:39:00.000Z</time>
      </trkpt>
      <trkpt lat="46.48235" lon="0.31532">
        <ele>85.800003051758</ele>
        <time>2020-06-05T14:39:01.000Z</time>
      </trkpt>
      <trkpt lat="46.48231" lon="0.31526">
        <ele>85.599998474121</ele>
        <time>2020-06-05T14:39:02.000Z</time>
      </trkpt>
      <trkpt lat="46.48227" lon="0.31519">
        <ele>85.599998474121</ele>
        <time>2020-06-05T14:39:03.000Z</time>
      </trkpt>
      <trkpt lat="46.48224" lon="0.31511">
        <ele>85.599998474121</ele>
        <time>2020-06-05T14:39:04.000Z</time>
      </trkpt>
      <trkpt lat="46.48218" lon="0.31494">
        <ele>85</ele>
        <time>2020-06-05T14:39:06.000Z</time>
      </trkpt>
      <trkpt lat="46.48208" lon="0.31471">
        <ele>84.599998474121</ele>
        <time>2020-06-05T14:39:09.000Z</time>
      </trkpt>
      <trkpt lat="46.48204" lon="0.31466">
        <ele>84.599998474121</ele>
        <time>2020-06-05T14:39:10.000Z</time>
      </trkpt>
      <trkpt lat="46.48198" lon="0.31462">
        <ele>84.599998474121</ele>
        <time>2020-06-05T14:39:11.000Z</time>
      </trkpt>
      <trkpt lat="46.48194" lon="0.31463">
        <ele>84.400001525879</ele>
        <time>2020-06-05T14:39:12.000Z</time>
      </trkpt>
      <trkpt lat="46.48188" lon="0.31466">
        <ele>84.400001525879</ele>
        <time>2020-06-05T14:39:13.000Z</time>
      </trkpt>
      <trkpt lat="46.48183" lon="0.31471">
        <ele>84.400001525879</ele>
        <time>2020-06-05T14:39:14.000Z</time>
      </trkpt>
      <trkpt lat="46.48177" lon="0.31478">
        <ele>84.199996948242</ele>
        <time>2020-06-05T14:39:15.000Z</time>
      </trkpt>
      <trkpt lat="46.48168" lon="0.3149">
        <ele>84</ele>
        <time>2020-06-05T14:39:17.000Z</time>
      </trkpt>
      <trkpt lat="46.48143" lon="0.31524">
        <ele>83.199996948242</ele>
        <time>2020-06-05T14:39:22.000Z</time>
      </trkpt>
      <trkpt lat="46.48137" lon="0.31532">
        <ele>83</ele>
        <time>2020-06-05T14:39:23.000Z</time>
      </trkpt>
      <trkpt lat="46.48119" lon="0.31555">
        <ele>82.599998474121</ele>
        <time>2020-06-05T14:39:27.000Z</time>
      </trkpt>
      <trkpt lat="46.48114" lon="0.31559">
        <ele>82.599998474121</ele>
        <time>2020-06-05T14:39:28.000Z</time>
      </trkpt>
      <trkpt lat="46.4811" lon="0.3156">
        <ele>82.400001525879</ele>
        <time>2020-06-05T14:39:29.000Z</time>
      </trkpt>
      <trkpt lat="46.48105" lon="0.31558">
        <ele>82.400001525879</ele>
        <time>2020-06-05T14:39:30.000Z</time>
      </trkpt>
      <trkpt lat="46.48103" lon="0.31554">
        <ele>82.400001525879</ele>
        <time>2020-06-05T14:39:31.000Z</time>
      </trkpt>
      <trkpt lat="46.48102" lon="0.31547">
        <ele>82.400001525879</ele>
        <time>2020-06-05T14:39:32.000Z</time>
      </trkpt>
      <trkpt lat="46.48102" lon="0.3154">
        <ele>82.199996948242</ele>
        <time>2020-06-05T14:39:33.000Z</time>
      </trkpt>
      <trkpt lat="46.48101" lon="0.3153">
        <ele>82.199996948242</ele>
        <time>2020-06-05T14:39:34.000Z</time>
      </trkpt>
      <trkpt lat="46.48098" lon="0.31515">
        <ele>82</ele>
        <time>2020-06-05T14:39:36.000Z</time>
      </trkpt>
      <trkpt lat="46.48096" lon="0.31507">
        <ele>81.800003051758</ele>
        <time>2020-06-05T14:39:37.000Z</time>
      </trkpt>
      <trkpt lat="46.4809" lon="0.31482">
        <ele>81.800003051758</ele>
        <time>2020-06-05T14:39:40.000Z</time>
      </trkpt>
      <trkpt lat="46.48088" lon="0.31474">
        <ele>81.800003051758</ele>
        <time>2020-06-05T14:39:41.000Z</time>
      </trkpt>
      <trkpt lat="46.48084" lon="0.31456">
        <ele>82</ele>
        <time>2020-06-05T14:39:43.000Z</time>
      </trkpt>
      <trkpt lat="46.48079" lon="0.31403">
        <ele>82.800003051758</ele>
        <time>2020-06-05T14:39:49.000Z</time>
      </trkpt>
      <trkpt lat="46.4808" lon="0.31352">
        <ele>82.599998474121</ele>
        <time>2020-06-05T14:39:55.000Z</time>
      </trkpt>
      <trkpt lat="46.4808" lon="0.31343">
        <ele>82.400001525879</ele>
        <time>2020-06-05T14:39:56.000Z</time>
      </trkpt>
      <trkpt lat="46.4808" lon="0.31335">
        <ele>82.400001525879</ele>
        <time>2020-06-05T14:39:57.000Z</time>
      </trkpt>
      <trkpt lat="46.4808" lon="0.31327">
        <ele>82.400001525879</ele>
        <time>2020-06-05T14:39:58.000Z</time>
      </trkpt>
      <trkpt lat="46.4808" lon="0.31318">
        <ele>82.400001525879</ele>
        <time>2020-06-05T14:39:59.000Z</time>
      </trkpt>
      <trkpt lat="46.4808" lon="0.31309">
        <ele>82.599998474121</ele>
        <time>2020-06-05T14:40:00.000Z</time>
      </trkpt>
      <trkpt lat="46.4808" lon="0.31301">
        <ele>82.599998474121</ele>
        <time>2020-06-05T14:40:01.000Z</time>
      </trkpt>
      <trkpt lat="46.4808" lon="0.31293">
        <ele>82.800003051758</ele>
        <time>2020-06-05T14:40:02.000Z</time>
      </trkpt>
      <trkpt lat="46.4808" lon="0.31282">
        <ele>82.800003051758</ele>
        <time>2020-06-05T14:40:03.000Z</time>
      </trkpt>
      <trkpt lat="46.48081" lon="0.31275">
        <ele>83</ele>
        <time>2020-06-05T14:40:04.000Z</time>
      </trkpt>
      <trkpt lat="46.48081" lon="0.31267">
        <ele>83.199996948242</ele>
        <time>2020-06-05T14:40:05.000Z</time>
      </trkpt>
      <trkpt lat="46.48081" lon="0.31258">
        <ele>83.599998474121</ele>
        <time>2020-06-05T14:40:06.000Z</time>
      </trkpt>
      <trkpt lat="46.48082" lon="0.31249">
        <ele>83.800003051758</ele>
        <time>2020-06-05T14:40:07.000Z</time>
      </trkpt>
      <trkpt lat="46.48082" lon="0.31238">
        <ele>84.199996948242</ele>
        <time>2020-06-05T14:40:08.000Z</time>
      </trkpt>
      <trkpt lat="46.48082" lon="0.31231">
        <ele>84.400001525879</ele>
        <time>2020-06-05T14:40:09.000Z</time>
      </trkpt>
      <trkpt lat="46.48082" lon="0.31221">
        <ele>84.599998474121</ele>
        <time>2020-06-05T14:40:10.000Z</time>
      </trkpt>
      <trkpt lat="46.48082" lon="0.31212">
        <ele>84.599998474121</ele>
        <time>2020-06-05T14:40:11.000Z</time>
      </trkpt>
      <trkpt lat="46.48081" lon="0.31204">
        <ele>84.800003051758</ele>
        <time>2020-06-05T14:40:12.000Z</time>
      </trkpt>
      <trkpt lat="46.48079" lon="0.31195">
        <ele>84.800003051758</ele>
        <time>2020-06-05T14:40:13.000Z</time>
      </trkpt>
      <trkpt lat="46.48077" lon="0.31186">
        <ele>84.800003051758</ele>
        <time>2020-06-05T14:40:14.000Z</time>
      </trkpt>
      <trkpt lat="46.48075" lon="0.31177">
        <ele>84.800003051758</ele>
        <time>2020-06-05T14:40:15.000Z</time>
      </trkpt>
      <trkpt lat="46.48073" lon="0.31168">
        <ele>84.800003051758</ele>
        <time>2020-06-05T14:40:16.000Z</time>
      </trkpt>
      <trkpt lat="46.48071" lon="0.31159">
        <ele>85</ele>
        <time>2020-06-05T14:40:17.000Z</time>
      </trkpt>
      <trkpt lat="46.48058" lon="0.31114">
        <ele>85.199996948242</ele>
        <time>2020-06-05T14:40:22.000Z</time>
      </trkpt>
      <trkpt lat="46.48051" lon="0.31098">
        <ele>85.400001525879</ele>
        <time>2020-06-05T14:40:24.000Z</time>
      </trkpt>
      <trkpt lat="46.48045" lon="0.31081">
        <ele>85.400001525879</ele>
        <time>2020-06-05T14:40:26.000Z</time>
      </trkpt>
      <trkpt lat="46.48037" lon="0.31065">
        <ele>85.400001525879</ele>
        <time>2020-06-05T14:40:28.000Z</time>
      </trkpt>
      <trkpt lat="46.48032" lon="0.31057">
        <ele>85.400001525879</ele>
        <time>2020-06-05T14:40:29.000Z</time>
      </trkpt>
      <trkpt lat="46.48024" lon="0.31042">
        <ele>85.400001525879</ele>
        <time>2020-06-05T14:40:31.000Z</time>
      </trkpt>
      <trkpt lat="46.48013" lon="0.31028">
        <ele>85.400001525879</ele>
        <time>2020-06-05T14:40:33.000Z</time>
      </trkpt>
      <trkpt lat="46.48007" lon="0.31023">
        <ele>85.400001525879</ele>
        <time>2020-06-05T14:40:34.000Z</time>
      </trkpt>
      <trkpt lat="46.48001" lon="0.31018">
        <ele>85.400001525879</ele>
        <time>2020-06-05T14:40:35.000Z</time>
      </trkpt>
      <trkpt lat="46.47993" lon="0.31013">
        <ele>85.400001525879</ele>
        <time>2020-06-05T14:40:36.000Z</time>
      </trkpt>
      <trkpt lat="46.47988" lon="0.31011">
        <ele>85.599998474121</ele>
        <time>2020-06-05T14:40:37.000Z</time>
      </trkpt>
      <trkpt lat="46.47969" lon="0.30997">
        <ele>85.599998474121</ele>
        <time>2020-06-05T14:40:40.000Z</time>
      </trkpt>
      <trkpt lat="46.47964" lon="0.3099">
        <ele>85.599998474121</ele>
        <time>2020-06-05T14:40:41.000Z</time>
      </trkpt>
      <trkpt lat="46.4796" lon="0.30982">
        <ele>85.599998474121</ele>
        <time>2020-06-05T14:40:42.000Z</time>
      </trkpt>
      <trkpt lat="46.47956" lon="0.30975">
        <ele>85.599998474121</ele>
        <time>2020-06-05T14:40:43.000Z</time>
      </trkpt>
      <trkpt lat="46.47953" lon="0.30966">
        <ele>85.599998474121</ele>
        <time>2020-06-05T14:40:44.000Z</time>
      </trkpt>
      <trkpt lat="46.47949" lon="0.30957">
        <ele>85.599998474121</ele>
        <time>2020-06-05T14:40:45.000Z</time>
      </trkpt>
      <trkpt lat="46.47945" lon="0.30948">
        <ele>85.599998474121</ele>
        <time>2020-06-05T14:40:46.000Z</time>
      </trkpt>
      <trkpt lat="46.47941" lon="0.30942">
        <ele>85.800003051758</ele>
        <time>2020-06-05T14:40:47.000Z</time>
      </trkpt>
      <trkpt lat="46.47936" lon="0.30934">
        <ele>85.800003051758</ele>
        <time>2020-06-05T14:40:48.000Z</time>
      </trkpt>
      <trkpt lat="46.47929" lon="0.30926">
        <ele>85.599998474121</ele>
        <time>2020-06-05T14:40:49.000Z</time>
      </trkpt>
      <trkpt lat="46.47924" lon="0.30921">
        <ele>85.599998474121</ele>
        <time>2020-06-05T14:40:50.000Z</time>
      </trkpt>
      <trkpt lat="46.47918" lon="0.30915">
        <ele>85.400001525879</ele>
        <time>2020-06-05T14:40:51.000Z</time>
      </trkpt>
      <trkpt lat="46.47874" lon="0.30871">
        <ele>84.800003051758</ele>
        <time>2020-06-05T14:40:58.000Z</time>
      </trkpt>
      <trkpt lat="46.47856" lon="0.30853">
        <ele>84.199996948242</ele>
        <time>2020-06-05T14:41:01.000Z</time>
      </trkpt>
      <trkpt lat="46.47823" lon="0.30821">
        <ele>83.599998474121</ele>
        <time>2020-06-05T14:41:06.000Z</time>
      </trkpt>
      <trkpt lat="46.47803" lon="0.30803">
        <ele>83.599998474121</ele>
        <time>2020-06-05T14:41:09.000Z</time>
      </trkpt>
      <trkpt lat="46.47797" lon="0.30797">
        <ele>83.599998474121</ele>
        <time>2020-06-05T14:41:10.000Z</time>
      </trkpt>
      <trkpt lat="46.47791" lon="0.30791">
        <ele>83.599998474121</ele>
        <time>2020-06-05T14:41:11.000Z</time>
      </trkpt>
      <trkpt lat="46.47784" lon="0.30785">
        <ele>83.599998474121</ele>
        <time>2020-06-05T14:41:12.000Z</time>
      </trkpt>
      <trkpt lat="46.47778" lon="0.3078">
        <ele>83.599998474121</ele>
        <time>2020-06-05T14:41:13.000Z</time>
      </trkpt>
      <trkpt lat="46.47772" lon="0.30774">
        <ele>84</ele>
        <time>2020-06-05T14:41:14.000Z</time>
      </trkpt>
      <trkpt lat="46.47766" lon="0.30768">
        <ele>84</ele>
        <time>2020-06-05T14:41:15.000Z</time>
      </trkpt>
      <trkpt lat="46.4776" lon="0.30763">
        <ele>84.199996948242</ele>
        <time>2020-06-05T14:41:16.000Z</time>
      </trkpt>
      <trkpt lat="46.47753" lon="0.30757">
        <ele>84.199996948242</ele>
        <time>2020-06-05T14:41:17.000Z</time>
      </trkpt>
      <trkpt lat="46.47747" lon="0.30752">
        <ele>84.199996948242</ele>
        <time>2020-06-05T14:41:18.000Z</time>
      </trkpt>
      <trkpt lat="46.4774" lon="0.30745">
        <ele>84.199996948242</ele>
        <time>2020-06-05T14:41:19.000Z</time>
      </trkpt>
      <trkpt lat="46.47735" lon="0.30741">
        <ele>84.400001525879</ele>
        <time>2020-06-05T14:41:20.000Z</time>
      </trkpt>
      <trkpt lat="46.47729" lon="0.30736">
        <ele>84</ele>
        <time>2020-06-05T14:41:21.000Z</time>
      </trkpt>
      <trkpt lat="46.47723" lon="0.3073">
        <ele>84.400001525879</ele>
        <time>2020-06-05T14:41:22.000Z</time>
      </trkpt>
      <trkpt lat="46.47717" lon="0.30725">
        <ele>84.400001525879</ele>
        <time>2020-06-05T14:41:23.000Z</time>
      </trkpt>
      <trkpt lat="46.47711" lon="0.3072">
        <ele>84.400001525879</ele>
        <time>2020-06-05T14:41:24.000Z</time>
      </trkpt>
      <trkpt lat="46.47705" lon="0.30714">
        <ele>84.400001525879</ele>
        <time>2020-06-05T14:41:25.000Z</time>
      </trkpt>
      <trkpt lat="46.47699" lon="0.30709">
        <ele>84.199996948242</ele>
        <time>2020-06-05T14:41:26.000Z</time>
      </trkpt>
      <trkpt lat="46.47693" lon="0.30705">
        <ele>84.199996948242</ele>
        <time>2020-06-05T14:41:27.000Z</time>
      </trkpt>
      <trkpt lat="46.47688" lon="0.30701">
        <ele>83.800003051758</ele>
        <time>2020-06-05T14:41:28.000Z</time>
      </trkpt>
      <trkpt lat="46.47683" lon="0.30697">
        <ele>83.800003051758</ele>
        <time>2020-06-05T14:41:29.000Z</time>
      </trkpt>
      <trkpt lat="46.47678" lon="0.30693">
        <ele>83.400001525879</ele>
        <time>2020-06-05T14:41:30.000Z</time>
      </trkpt>
      <trkpt lat="46.47674" lon="0.30689">
        <ele>83.199996948242</ele>
        <time>2020-06-05T14:41:31.000Z</time>
      </trkpt>
      <trkpt lat="46.47667" lon="0.30685">
        <ele>82.800003051758</ele>
        <time>2020-06-05T14:41:32.000Z</time>
      </trkpt>
      <trkpt lat="46.47663" lon="0.30681">
        <ele>82.599998474121</ele>
        <time>2020-06-05T14:41:33.000Z</time>
      </trkpt>
      <trkpt lat="46.47655" lon="0.30676">
        <ele>82.599998474121</ele>
        <time>2020-06-05T14:41:34.000Z</time>
      </trkpt>
      <trkpt lat="46.4765" lon="0.30673">
        <ele>82.400001525879</ele>
        <time>2020-06-05T14:41:35.000Z</time>
      </trkpt>
      <trkpt lat="46.47638" lon="0.30665">
        <ele>82.199996948242</ele>
        <time>2020-06-05T14:41:37.000Z</time>
      </trkpt>
      <trkpt lat="46.47631" lon="0.3066">
        <ele>82</ele>
        <time>2020-06-05T14:41:38.000Z</time>
      </trkpt>
      <trkpt lat="46.47626" lon="0.30657">
        <ele>81.800003051758</ele>
        <time>2020-06-05T14:41:39.000Z</time>
      </trkpt>
      <trkpt lat="46.47602" lon="0.30641">
        <ele>81.800003051758</ele>
        <time>2020-06-05T14:41:43.000Z</time>
      </trkpt>
      <trkpt lat="46.4759" lon="0.30634">
        <ele>82</ele>
        <time>2020-06-05T14:41:45.000Z</time>
      </trkpt>
      <trkpt lat="46.47583" lon="0.3063">
        <ele>81.800003051758</ele>
        <time>2020-06-05T14:41:46.000Z</time>
      </trkpt>
      <trkpt lat="46.47577" lon="0.30626">
        <ele>81.599998474121</ele>
        <time>2020-06-05T14:41:47.000Z</time>
      </trkpt>
      <trkpt lat="46.47571" lon="0.30623">
        <ele>81.599998474121</ele>
        <time>2020-06-05T14:41:48.000Z</time>
      </trkpt>
      <trkpt lat="46.47565" lon="0.3062">
        <ele>81.800003051758</ele>
        <time>2020-06-05T14:41:49.000Z</time>
      </trkpt>
      <trkpt lat="46.47559" lon="0.30616">
        <ele>82</ele>
        <time>2020-06-05T14:41:50.000Z</time>
      </trkpt>
      <trkpt lat="46.47553" lon="0.30612">
        <ele>82</ele>
        <time>2020-06-05T14:41:51.000Z</time>
      </trkpt>
      <trkpt lat="46.47546" lon="0.30607">
        <ele>82.199996948242</ele>
        <time>2020-06-05T14:41:52.000Z</time>
      </trkpt>
      <trkpt lat="46.47527" lon="0.30595">
        <ele>82.199996948242</ele>
        <time>2020-06-05T14:41:55.000Z</time>
      </trkpt>
      <trkpt lat="46.4752" lon="0.3059">
        <ele>82.199996948242</ele>
        <time>2020-06-05T14:41:56.000Z</time>
      </trkpt>
      <trkpt lat="46.47514" lon="0.30587">
        <ele>82.199996948242</ele>
        <time>2020-06-05T14:41:57.000Z</time>
      </trkpt>
      <trkpt lat="46.47506" lon="0.30582">
        <ele>82.199996948242</ele>
        <time>2020-06-05T14:41:58.000Z</time>
      </trkpt>
      <trkpt lat="46.47486" lon="0.30569">
        <ele>82</ele>
        <time>2020-06-05T14:42:01.000Z</time>
      </trkpt>
      <trkpt lat="46.4748" lon="0.30566">
        <ele>82</ele>
        <time>2020-06-05T14:42:02.000Z</time>
      </trkpt>
      <trkpt lat="46.47473" lon="0.30562">
        <ele>82</ele>
        <time>2020-06-05T14:42:03.000Z</time>
      </trkpt>
      <trkpt lat="46.47462" lon="0.30556">
        <ele>82.199996948242</ele>
        <time>2020-06-05T14:42:05.000Z</time>
      </trkpt>
      <trkpt lat="46.47456" lon="0.30553">
        <ele>82.199996948242</ele>
        <time>2020-06-05T14:42:06.000Z</time>
      </trkpt>
      <trkpt lat="46.47448" lon="0.30548">
        <ele>82.199996948242</ele>
        <time>2020-06-05T14:42:07.000Z</time>
      </trkpt>
      <trkpt lat="46.47441" lon="0.30545">
        <ele>82</ele>
        <time>2020-06-05T14:42:08.000Z</time>
      </trkpt>
      <trkpt lat="46.47426" lon="0.30536">
        <ele>82</ele>
        <time>2020-06-05T14:42:10.000Z</time>
      </trkpt>
      <trkpt lat="46.47419" lon="0.30532">
        <ele>82</ele>
        <time>2020-06-05T14:42:11.000Z</time>
      </trkpt>
      <trkpt lat="46.47412" lon="0.30529">
        <ele>82.400001525879</ele>
        <time>2020-06-05T14:42:12.000Z</time>
      </trkpt>
      <trkpt lat="46.47382" lon="0.30511">
        <ele>82.599998474121</ele>
        <time>2020-06-05T14:42:16.000Z</time>
      </trkpt>
      <trkpt lat="46.47376" lon="0.30506">
        <ele>82.800003051758</ele>
        <time>2020-06-05T14:42:17.000Z</time>
      </trkpt>
      <trkpt lat="46.4737" lon="0.305">
        <ele>83</ele>
        <time>2020-06-05T14:42:18.000Z</time>
      </trkpt>
      <trkpt lat="46.47366" lon="0.30495">
        <ele>83.199996948242</ele>
        <time>2020-06-05T14:42:19.000Z</time>
      </trkpt>
      <trkpt lat="46.4736" lon="0.30491">
        <ele>83.400001525879</ele>
        <time>2020-06-05T14:42:20.000Z</time>
      </trkpt>
      <trkpt lat="46.47354" lon="0.30488">
        <ele>83.599998474121</ele>
        <time>2020-06-05T14:42:21.000Z</time>
      </trkpt>
      <trkpt lat="46.47347" lon="0.30485">
        <ele>83.800003051758</ele>
        <time>2020-06-05T14:42:22.000Z</time>
      </trkpt>
      <trkpt lat="46.47342" lon="0.30486">
        <ele>83.800003051758</ele>
        <time>2020-06-05T14:42:23.000Z</time>
      </trkpt>
      <trkpt lat="46.47336" lon="0.30485">
        <ele>83.800003051758</ele>
        <time>2020-06-05T14:42:24.000Z</time>
      </trkpt>
      <trkpt lat="46.47329" lon="0.30485">
        <ele>83.800003051758</ele>
        <time>2020-06-05T14:42:25.000Z</time>
      </trkpt>
      <trkpt lat="46.47322" lon="0.30484">
        <ele>83.800003051758</ele>
        <time>2020-06-05T14:42:26.000Z</time>
      </trkpt>
      <trkpt lat="46.47316" lon="0.30482">
        <ele>83.800003051758</ele>
        <time>2020-06-05T14:42:27.000Z</time>
      </trkpt>
      <trkpt lat="46.47309" lon="0.3048">
        <ele>83.800003051758</ele>
        <time>2020-06-05T14:42:28.000Z</time>
      </trkpt>
      <trkpt lat="46.47302" lon="0.30477">
        <ele>83.800003051758</ele>
        <time>2020-06-05T14:42:29.000Z</time>
      </trkpt>
      <trkpt lat="46.47296" lon="0.30474">
        <ele>83.800003051758</ele>
        <time>2020-06-05T14:42:30.000Z</time>
      </trkpt>
      <trkpt lat="46.47289" lon="0.30472">
        <ele>83.800003051758</ele>
        <time>2020-06-05T14:42:31.000Z</time>
      </trkpt>
      <trkpt lat="46.47264" lon="0.30462">
        <ele>83.800003051758</ele>
        <time>2020-06-05T14:42:35.000Z</time>
      </trkpt>
      <trkpt lat="46.47246" lon="0.30455">
        <ele>83.800003051758</ele>
        <time>2020-06-05T14:42:38.000Z</time>
      </trkpt>
      <trkpt lat="46.47239" lon="0.30453">
        <ele>83.800003051758</ele>
        <time>2020-06-05T14:42:39.000Z</time>
      </trkpt>
      <trkpt lat="46.47233" lon="0.3045">
        <ele>83.800003051758</ele>
        <time>2020-06-05T14:42:40.000Z</time>
      </trkpt>
      <trkpt lat="46.47227" lon="0.30448">
        <ele>83.800003051758</ele>
        <time>2020-06-05T14:42:41.000Z</time>
      </trkpt>
      <trkpt lat="46.4722" lon="0.30446">
        <ele>83.800003051758</ele>
        <time>2020-06-05T14:42:42.000Z</time>
      </trkpt>
      <trkpt lat="46.47214" lon="0.30443">
        <ele>83.800003051758</ele>
        <time>2020-06-05T14:42:43.000Z</time>
      </trkpt>
      <trkpt lat="46.47207" lon="0.30441">
        <ele>84</ele>
        <time>2020-06-05T14:42:44.000Z</time>
      </trkpt>
      <trkpt lat="46.47195" lon="0.30437">
        <ele>84.400001525879</ele>
        <time>2020-06-05T14:42:46.000Z</time>
      </trkpt>
      <trkpt lat="46.47182" lon="0.30432">
        <ele>85</ele>
        <time>2020-06-05T14:42:48.000Z</time>
      </trkpt>
      <trkpt lat="46.47177" lon="0.3043">
        <ele>85</ele>
        <time>2020-06-05T14:42:49.000Z</time>
      </trkpt>
      <trkpt lat="46.47172" lon="0.30431">
        <ele>85.199996948242</ele>
        <time>2020-06-05T14:42:50.000Z</time>
      </trkpt>
      <trkpt lat="46.47167" lon="0.30435">
        <ele>85.199996948242</ele>
        <time>2020-06-05T14:42:51.000Z</time>
      </trkpt>
      <trkpt lat="46.47164" lon="0.30438">
        <ele>85.400001525879</ele>
        <time>2020-06-05T14:42:52.000Z</time>
      </trkpt>
      <trkpt lat="46.47161" lon="0.30443">
        <ele>85.599998474121</ele>
        <time>2020-06-05T14:42:53.000Z</time>
      </trkpt>
      <trkpt lat="46.47158" lon="0.30448">
        <ele>85.599998474121</ele>
        <time>2020-06-05T14:42:54.000Z</time>
      </trkpt>
      <trkpt lat="46.47156" lon="0.30453">
        <ele>85.599998474121</ele>
        <time>2020-06-05T14:42:55.000Z</time>
      </trkpt>
      <trkpt lat="46.47156" lon="0.30458">
        <ele>85.800003051758</ele>
        <time>2020-06-05T14:42:56.000Z</time>
      </trkpt>
      <trkpt lat="46.47159" lon="0.3046">
        <ele>85.599998474121</ele>
        <time>2020-06-05T14:42:57.000Z</time>
      </trkpt>
      <trkpt lat="46.47162" lon="0.30462">
        <ele>85.400001525879</ele>
        <time>2020-06-05T14:42:58.000Z</time>
      </trkpt>
      <trkpt lat="46.47168" lon="0.30463">
        <ele>85.400001525879</ele>
        <time>2020-06-05T14:42:59.000Z</time>
      </trkpt>
      <trkpt lat="46.47188" lon="0.30471">
        <ele>85.199996948242</ele>
        <time>2020-06-05T14:43:03.000Z</time>
      </trkpt>
      <trkpt lat="46.47193" lon="0.30475">
        <ele>85.400001525879</ele>
        <time>2020-06-05T14:43:04.000Z</time>
      </trkpt>
      <trkpt lat="46.472" lon="0.3048">
        <ele>85.400001525879</ele>
        <time>2020-06-05T14:43:05.000Z</time>
      </trkpt>
      <trkpt lat="46.47204" lon="0.30484">
        <ele>85.400001525879</ele>
        <time>2020-06-05T14:43:06.000Z</time>
      </trkpt>
      <trkpt lat="46.4722" lon="0.305">
        <ele>85.199996948242</ele>
        <time>2020-06-05T14:43:09.000Z</time>
      </trkpt>
      <trkpt lat="46.47225" lon="0.30505">
        <ele>85.199996948242</ele>
        <time>2020-06-05T14:43:10.000Z</time>
      </trkpt>
      <trkpt lat="46.47247" lon="0.30525">
        <ele>84.800003051758</ele>
        <time>2020-06-05T14:43:14.000Z</time>
      </trkpt>
      <trkpt lat="46.47253" lon="0.30529">
        <ele>85</ele>
        <time>2020-06-05T14:43:15.000Z</time>
      </trkpt>
      <trkpt lat="46.47259" lon="0.30532">
        <ele>85.199996948242</ele>
        <time>2020-06-05T14:43:16.000Z</time>
      </trkpt>
      <trkpt lat="46.47284" lon="0.30538">
        <ele>86.599998474121</ele>
        <time>2020-06-05T14:43:20.000Z</time>
      </trkpt>
      <trkpt lat="46.4729" lon="0.30538">
        <ele>87</ele>
        <time>2020-06-05T14:43:21.000Z</time>
      </trkpt>
      <trkpt lat="46.47296" lon="0.30538">
        <ele>87</ele>
        <time>2020-06-05T14:43:22.000Z</time>
      </trkpt>
      <trkpt lat="46.47302" lon="0.30537">
        <ele>87.400001525879</ele>
        <time>2020-06-05T14:43:23.000Z</time>
      </trkpt>
      <trkpt lat="46.47308" lon="0.30535">
        <ele>87.599998474121</ele>
        <time>2020-06-05T14:43:24.000Z</time>
      </trkpt>
      <trkpt lat="46.47314" lon="0.30533">
        <ele>88.199996948242</ele>
        <time>2020-06-05T14:43:25.000Z</time>
      </trkpt>
      <trkpt lat="46.4732" lon="0.3053">
        <ele>88.599998474121</ele>
        <time>2020-06-05T14:43:26.000Z</time>
      </trkpt>
      <trkpt lat="46.47326" lon="0.30526">
        <ele>88.800003051758</ele>
        <time>2020-06-05T14:43:27.000Z</time>
      </trkpt>
      <trkpt lat="46.47332" lon="0.30522">
        <ele>89.199996948242</ele>
        <time>2020-06-05T14:43:28.000Z</time>
      </trkpt>
      <trkpt lat="46.47337" lon="0.30517">
        <ele>89.400001525879</ele>
        <time>2020-06-05T14:43:29.000Z</time>
      </trkpt>
      <trkpt lat="46.47342" lon="0.30513">
        <ele>89.800003051758</ele>
        <time>2020-06-05T14:43:30.000Z</time>
      </trkpt>
      <trkpt lat="46.47348" lon="0.30507">
        <ele>90</ele>
        <time>2020-06-05T14:43:31.000Z</time>
      </trkpt>
      <trkpt lat="46.47352" lon="0.30501">
        <ele>90.400001525879</ele>
        <time>2020-06-05T14:43:32.000Z</time>
      </trkpt>
      <trkpt lat="46.47357" lon="0.30495">
        <ele>90.599998474121</ele>
        <time>2020-06-05T14:43:33.000Z</time>
      </trkpt>
      <trkpt lat="46.47361" lon="0.30488">
        <ele>90.800003051758</ele>
        <time>2020-06-05T14:43:34.000Z</time>
      </trkpt>
      <trkpt lat="46.47366" lon="0.30482">
        <ele>91</ele>
        <time>2020-06-05T14:43:35.000Z</time>
      </trkpt>
      <trkpt lat="46.4737" lon="0.30476">
        <ele>91</ele>
        <time>2020-06-05T14:43:36.000Z</time>
      </trkpt>
      <trkpt lat="46.47374" lon="0.30469">
        <ele>91.400001525879</ele>
        <time>2020-06-05T14:43:37.000Z</time>
      </trkpt>
      <trkpt lat="46.47378" lon="0.30462">
        <ele>91.599998474121</ele>
        <time>2020-06-05T14:43:38.000Z</time>
      </trkpt>
      <trkpt lat="46.47382" lon="0.30456">
        <ele>91.800003051758</ele>
        <time>2020-06-05T14:43:39.000Z</time>
      </trkpt>
      <trkpt lat="46.47387" lon="0.30449">
        <ele>92</ele>
        <time>2020-06-05T14:43:40.000Z</time>
      </trkpt>
      <trkpt lat="46.47391" lon="0.30442">
        <ele>92.199996948242</ele>
        <time>2020-06-05T14:43:41.000Z</time>
      </trkpt>
      <trkpt lat="46.47395" lon="0.30436">
        <ele>92.400001525879</ele>
        <time>2020-06-05T14:43:42.000Z</time>
      </trkpt>
      <trkpt lat="46.474" lon="0.3043">
        <ele>92.400001525879</ele>
        <time>2020-06-05T14:43:43.000Z</time>
      </trkpt>
      <trkpt lat="46.47404" lon="0.30423">
        <ele>92.800003051758</ele>
        <time>2020-06-05T14:43:44.000Z</time>
      </trkpt>
      <trkpt lat="46.47408" lon="0.30417">
        <ele>93</ele>
        <time>2020-06-05T14:43:45.000Z</time>
      </trkpt>
      <trkpt lat="46.47412" lon="0.3041">
        <ele>93.199996948242</ele>
        <time>2020-06-05T14:43:46.000Z</time>
      </trkpt>
      <trkpt lat="46.47414" lon="0.30403">
        <ele>93.400001525879</ele>
        <time>2020-06-05T14:43:47.000Z</time>
      </trkpt>
      <trkpt lat="46.47414" lon="0.30396">
        <ele>93.599998474121</ele>
        <time>2020-06-05T14:43:48.000Z</time>
      </trkpt>
      <trkpt lat="46.47412" lon="0.30389">
        <ele>93.800003051758</ele>
        <time>2020-06-05T14:43:49.000Z</time>
      </trkpt>
      <trkpt lat="46.47408" lon="0.30384">
        <ele>93.800003051758</ele>
        <time>2020-06-05T14:43:50.000Z</time>
      </trkpt>
      <trkpt lat="46.47402" lon="0.30379">
        <ele>93.800003051758</ele>
        <time>2020-06-05T14:43:51.000Z</time>
      </trkpt>
      <trkpt lat="46.47396" lon="0.30376">
        <ele>93.800003051758</ele>
        <time>2020-06-05T14:43:52.000Z</time>
      </trkpt>
      <trkpt lat="46.47389" lon="0.30373">
        <ele>93.800003051758</ele>
        <time>2020-06-05T14:43:53.000Z</time>
      </trkpt>
      <trkpt lat="46.47381" lon="0.30372">
        <ele>93.800003051758</ele>
        <time>2020-06-05T14:43:54.000Z</time>
      </trkpt>
      <trkpt lat="46.47337" lon="0.30366">
        <ele>91.599998474121</ele>
        <time>2020-06-05T14:43:59.000Z</time>
      </trkpt>
      <trkpt lat="46.47328" lon="0.30364">
        <ele>91.199996948242</ele>
        <time>2020-06-05T14:44:00.000Z</time>
      </trkpt>
      <trkpt lat="46.47319" lon="0.30363">
        <ele>90.599998474121</ele>
        <time>2020-06-05T14:44:01.000Z</time>
      </trkpt>
      <trkpt lat="46.4731" lon="0.30361">
        <ele>90.199996948242</ele>
        <time>2020-06-05T14:44:02.000Z</time>
      </trkpt>
      <trkpt lat="46.473" lon="0.3036">
        <ele>89.400001525879</ele>
        <time>2020-06-05T14:44:03.000Z</time>
      </trkpt>
      <trkpt lat="46.47291" lon="0.30359">
        <ele>88.800003051758</ele>
        <time>2020-06-05T14:44:04.000Z</time>
      </trkpt>
      <trkpt lat="46.47281" lon="0.30358">
        <ele>87.800003051758</ele>
        <time>2020-06-05T14:44:05.000Z</time>
      </trkpt>
      <trkpt lat="46.47272" lon="0.30358">
        <ele>87.400001525879</ele>
        <time>2020-06-05T14:44:06.000Z</time>
      </trkpt>
      <trkpt lat="46.47262" lon="0.3036">
        <ele>87.199996948242</ele>
        <time>2020-06-05T14:44:07.000Z</time>
      </trkpt>
      <trkpt lat="46.47253" lon="0.30363">
        <ele>86.400001525879</ele>
        <time>2020-06-05T14:44:08.000Z</time>
      </trkpt>
      <trkpt lat="46.47244" lon="0.30366">
        <ele>86.199996948242</ele>
        <time>2020-06-05T14:44:09.000Z</time>
      </trkpt>
      <trkpt lat="46.47236" lon="0.3037">
        <ele>85.800003051758</ele>
        <time>2020-06-05T14:44:10.000Z</time>
      </trkpt>
      <trkpt lat="46.47219" lon="0.30374">
        <ele>85.400001525879</ele>
        <time>2020-06-05T14:44:12.000Z</time>
      </trkpt>
      <trkpt lat="46.47211" lon="0.30376">
        <ele>85.199996948242</ele>
        <time>2020-06-05T14:44:13.000Z</time>
      </trkpt>
      <trkpt lat="46.47204" lon="0.30378">
        <ele>85.199996948242</ele>
        <time>2020-06-05T14:44:14.000Z</time>
      </trkpt>
      <trkpt lat="46.47204" lon="0.30378">
        <ele>85.199996948242</ele>
        <time>2020-06-05T14:44:15.000Z</time>
      </trkpt>
      <trkpt lat="46.4719" lon="0.30381">
        <ele>85.199996948242</ele>
        <time>2020-06-05T14:44:16.000Z</time>
      </trkpt>
      <trkpt lat="46.47183" lon="0.30381">
        <ele>85.199996948242</ele>
        <time>2020-06-05T14:44:17.000Z</time>
      </trkpt>
      <trkpt lat="46.47177" lon="0.30381">
        <ele>85.199996948242</ele>
        <time>2020-06-05T14:44:18.000Z</time>
      </trkpt>
      <trkpt lat="46.47171" lon="0.30379">
        <ele>85.199996948242</ele>
        <time>2020-06-05T14:44:19.000Z</time>
      </trkpt>
      <trkpt lat="46.47164" lon="0.30377">
        <ele>85.199996948242</ele>
        <time>2020-06-05T14:44:20.000Z</time>
      </trkpt>
      <trkpt lat="46.47157" lon="0.30375">
        <ele>85.400001525879</ele>
        <time>2020-06-05T14:44:21.000Z</time>
      </trkpt>
      <trkpt lat="46.47145" lon="0.30371">
        <ele>85.800003051758</ele>
        <time>2020-06-05T14:44:23.000Z</time>
      </trkpt>
      <trkpt lat="46.47138" lon="0.30368">
        <ele>86</ele>
        <time>2020-06-05T14:44:24.000Z</time>
      </trkpt>
      <trkpt lat="46.47132" lon="0.30365">
        <ele>86</ele>
        <time>2020-06-05T14:44:25.000Z</time>
      </trkpt>
      <trkpt lat="46.47126" lon="0.30363">
        <ele>86</ele>
        <time>2020-06-05T14:44:26.000Z</time>
      </trkpt>
      <trkpt lat="46.47121" lon="0.30362">
        <ele>86.199996948242</ele>
        <time>2020-06-05T14:44:27.000Z</time>
      </trkpt>
      <trkpt lat="46.47115" lon="0.3036">
        <ele>86.199996948242</ele>
        <time>2020-06-05T14:44:28.000Z</time>
      </trkpt>
      <trkpt lat="46.47109" lon="0.30358">
        <ele>86.400001525879</ele>
        <time>2020-06-05T14:44:29.000Z</time>
      </trkpt>
      <trkpt lat="46.47103" lon="0.30356">
        <ele>86.400001525879</ele>
        <time>2020-06-05T14:44:30.000Z</time>
      </trkpt>
      <trkpt lat="46.47067" lon="0.30345">
        <ele>85.800003051758</ele>
        <time>2020-06-05T14:44:35.000Z</time>
      </trkpt>
      <trkpt lat="46.47062" lon="0.30343">
        <ele>85.400001525879</ele>
        <time>2020-06-05T14:44:36.000Z</time>
      </trkpt>
      <trkpt lat="46.47048" lon="0.30338">
        <ele>85</ele>
        <time>2020-06-05T14:44:38.000Z</time>
      </trkpt>
      <trkpt lat="46.47009" lon="0.30325">
        <ele>84.400001525879</ele>
        <time>2020-06-05T14:44:44.000Z</time>
      </trkpt>
      <trkpt lat="46.47002" lon="0.30323">
        <ele>84.400001525879</ele>
        <time>2020-06-05T14:44:45.000Z</time>
      </trkpt>
      <trkpt lat="46.46995" lon="0.30321">
        <ele>84.400001525879</ele>
        <time>2020-06-05T14:44:46.000Z</time>
      </trkpt>
      <trkpt lat="46.46989" lon="0.30319">
        <ele>84.400001525879</ele>
        <time>2020-06-05T14:44:47.000Z</time>
      </trkpt>
      <trkpt lat="46.46983" lon="0.30318">
        <ele>84.400001525879</ele>
        <time>2020-06-05T14:44:48.000Z</time>
      </trkpt>
      <trkpt lat="46.46976" lon="0.30316">
        <ele>84.400001525879</ele>
        <time>2020-06-05T14:44:49.000Z</time>
      </trkpt>
      <trkpt lat="46.46969" lon="0.30313">
        <ele>84.400001525879</ele>
        <time>2020-06-05T14:44:50.000Z</time>
      </trkpt>
      <trkpt lat="46.46963" lon="0.30311">
        <ele>84.400001525879</ele>
        <time>2020-06-05T14:44:51.000Z</time>
      </trkpt>
      <trkpt lat="46.46956" lon="0.30309">
        <ele>84.400001525879</ele>
        <time>2020-06-05T14:44:52.000Z</time>
      </trkpt>
      <trkpt lat="46.46949" lon="0.30307">
        <ele>84.400001525879</ele>
        <time>2020-06-05T14:44:53.000Z</time>
      </trkpt>
      <trkpt lat="46.46915" lon="0.30297">
        <ele>84</ele>
        <time>2020-06-05T14:44:58.000Z</time>
      </trkpt>
      <trkpt lat="46.46909" lon="0.30295">
        <ele>84</ele>
        <time>2020-06-05T14:44:59.000Z</time>
      </trkpt>
      <trkpt lat="46.46876" lon="0.30284">
        <ele>83.800003051758</ele>
        <time>2020-06-05T14:45:04.000Z</time>
      </trkpt>
      <trkpt lat="46.4687" lon="0.30283">
        <ele>83.800003051758</ele>
        <time>2020-06-05T14:45:05.000Z</time>
      </trkpt>
      <trkpt lat="46.46864" lon="0.3028">
        <ele>83.800003051758</ele>
        <time>2020-06-05T14:45:06.000Z</time>
      </trkpt>
      <trkpt lat="46.46857" lon="0.30278">
        <ele>83.800003051758</ele>
        <time>2020-06-05T14:45:07.000Z</time>
      </trkpt>
      <trkpt lat="46.46851" lon="0.30276">
        <ele>83.800003051758</ele>
        <time>2020-06-05T14:45:08.000Z</time>
      </trkpt>
      <trkpt lat="46.46851" lon="0.30276">
        <ele>83.800003051758</ele>
        <time>2020-06-05T14:45:09.000Z</time>
      </trkpt>
      <trkpt lat="46.46838" lon="0.30272">
        <ele>83.599998474121</ele>
        <time>2020-06-05T14:45:10.000Z</time>
      </trkpt>
      <trkpt lat="46.46832" lon="0.3027">
        <ele>83.599998474121</ele>
        <time>2020-06-05T14:45:11.000Z</time>
      </trkpt>
      <trkpt lat="46.46825" lon="0.30268">
        <ele>83.599998474121</ele>
        <time>2020-06-05T14:45:12.000Z</time>
      </trkpt>
      <trkpt lat="46.46819" lon="0.30266">
        <ele>83.599998474121</ele>
        <time>2020-06-05T14:45:13.000Z</time>
      </trkpt>
      <trkpt lat="46.46813" lon="0.30264">
        <ele>83.800003051758</ele>
        <time>2020-06-05T14:45:14.000Z</time>
      </trkpt>
      <trkpt lat="46.46807" lon="0.30261">
        <ele>83.800003051758</ele>
        <time>2020-06-05T14:45:15.000Z</time>
      </trkpt>
      <trkpt lat="46.46801" lon="0.30259">
        <ele>84</ele>
        <time>2020-06-05T14:45:16.000Z</time>
      </trkpt>
      <trkpt lat="46.46795" lon="0.30257">
        <ele>84</ele>
        <time>2020-06-05T14:45:17.000Z</time>
      </trkpt>
      <trkpt lat="46.4679" lon="0.30254">
        <ele>84.199996948242</ele>
        <time>2020-06-05T14:45:18.000Z</time>
      </trkpt>
      <trkpt lat="46.46784" lon="0.30251">
        <ele>84.199996948242</ele>
        <time>2020-06-05T14:45:19.000Z</time>
      </trkpt>
      <trkpt lat="46.46779" lon="0.30249">
        <ele>84.400001525879</ele>
        <time>2020-06-05T14:45:20.000Z</time>
      </trkpt>
      <trkpt lat="46.46773" lon="0.30245">
        <ele>84.800003051758</ele>
        <time>2020-06-05T14:45:21.000Z</time>
      </trkpt>
      <trkpt lat="46.46768" lon="0.3024">
        <ele>84.800003051758</ele>
        <time>2020-06-05T14:45:22.000Z</time>
      </trkpt>
      <trkpt lat="46.46766" lon="0.30232">
        <ele>85</ele>
        <time>2020-06-05T14:45:23.000Z</time>
      </trkpt>
      <trkpt lat="46.46765" lon="0.30224">
        <ele>85</ele>
        <time>2020-06-05T14:45:24.000Z</time>
      </trkpt>
      <trkpt lat="46.46766" lon="0.30216">
        <ele>85</ele>
        <time>2020-06-05T14:45:25.000Z</time>
      </trkpt>
      <trkpt lat="46.46766" lon="0.30208">
        <ele>85</ele>
        <time>2020-06-05T14:45:26.000Z</time>
      </trkpt>
      <trkpt lat="46.46767" lon="0.30199">
        <ele>85</ele>
        <time>2020-06-05T14:45:27.000Z</time>
      </trkpt>
      <trkpt lat="46.46767" lon="0.30199">
        <ele>85.199996948242</ele>
        <time>2020-06-05T14:45:28.000Z</time>
      </trkpt>
      <trkpt lat="46.46769" lon="0.30181">
        <ele>85.199996948242</ele>
        <time>2020-06-05T14:45:29.000Z</time>
      </trkpt>
      <trkpt lat="46.46774" lon="0.30153">
        <ele>85</ele>
        <time>2020-06-05T14:45:32.000Z</time>
      </trkpt>
      <trkpt lat="46.46776" lon="0.30145">
        <ele>84.800003051758</ele>
        <time>2020-06-05T14:45:33.000Z</time>
      </trkpt>
      <trkpt lat="46.46779" lon="0.30137">
        <ele>84.599998474121</ele>
        <time>2020-06-05T14:45:34.000Z</time>
      </trkpt>
      <trkpt lat="46.46789" lon="0.30114">
        <ele>83.800003051758</ele>
        <time>2020-06-05T14:45:37.000Z</time>
      </trkpt>
      <trkpt lat="46.46795" lon="0.301">
        <ele>83</ele>
        <time>2020-06-05T14:45:39.000Z</time>
      </trkpt>
      <trkpt lat="46.46795" lon="0.301">
        <ele>83</ele>
        <time>2020-06-05T14:45:40.000Z</time>
      </trkpt>
      <trkpt lat="46.46801" lon="0.30087">
        <ele>83</ele>
        <time>2020-06-05T14:45:41.000Z</time>
      </trkpt>
      <trkpt lat="46.46805" lon="0.3008">
        <ele>83</ele>
        <time>2020-06-05T14:45:42.000Z</time>
      </trkpt>
      <trkpt lat="46.46808" lon="0.30073">
        <ele>83</ele>
        <time>2020-06-05T14:45:43.000Z</time>
      </trkpt>
      <trkpt lat="46.46811" lon="0.30068">
        <ele>83</ele>
        <time>2020-06-05T14:45:44.000Z</time>
      </trkpt>
      <trkpt lat="46.46814" lon="0.30061">
        <ele>83</ele>
        <time>2020-06-05T14:45:45.000Z</time>
      </trkpt>
      <trkpt lat="46.46817" lon="0.30055">
        <ele>83</ele>
        <time>2020-06-05T14:45:46.000Z</time>
      </trkpt>
      <trkpt lat="46.4682" lon="0.30049">
        <ele>83</ele>
        <time>2020-06-05T14:45:47.000Z</time>
      </trkpt>
      <trkpt lat="46.46823" lon="0.30043">
        <ele>83.199996948242</ele>
        <time>2020-06-05T14:45:48.000Z</time>
      </trkpt>
      <trkpt lat="46.46825" lon="0.30036">
        <ele>83</ele>
        <time>2020-06-05T14:45:49.000Z</time>
      </trkpt>
      <trkpt lat="46.46829" lon="0.30029">
        <ele>83</ele>
        <time>2020-06-05T14:45:50.000Z</time>
      </trkpt>
      <trkpt lat="46.46831" lon="0.30024">
        <ele>83.199996948242</ele>
        <time>2020-06-05T14:45:51.000Z</time>
      </trkpt>
      <trkpt lat="46.46831" lon="0.30024">
        <ele>83.199996948242</ele>
        <time>2020-06-05T14:45:52.000Z</time>
      </trkpt>
      <trkpt lat="46.46836" lon="0.30012">
        <ele>83.199996948242</ele>
        <time>2020-06-05T14:45:53.000Z</time>
      </trkpt>
      <trkpt lat="46.46838" lon="0.30006">
        <ele>83.199996948242</ele>
        <time>2020-06-05T14:45:54.000Z</time>
      </trkpt>
      <trkpt lat="46.4684" lon="0.3">
        <ele>83.199996948242</ele>
        <time>2020-06-05T14:45:55.000Z</time>
      </trkpt>
      <trkpt lat="46.46843" lon="0.29995">
        <ele>83.199996948242</ele>
        <time>2020-06-05T14:45:56.000Z</time>
      </trkpt>
      <trkpt lat="46.46846" lon="0.29989">
        <ele>83.199996948242</ele>
        <time>2020-06-05T14:45:57.000Z</time>
      </trkpt>
      <trkpt lat="46.46849" lon="0.29984">
        <ele>83.199996948242</ele>
        <time>2020-06-05T14:45:58.000Z</time>
      </trkpt>
      <trkpt lat="46.46851" lon="0.29978">
        <ele>83.199996948242</ele>
        <time>2020-06-05T14:45:59.000Z</time>
      </trkpt>
      <trkpt lat="46.46853" lon="0.29974">
        <ele>83.199996948242</ele>
        <time>2020-06-05T14:46:00.000Z</time>
      </trkpt>
      <trkpt lat="46.46855" lon="0.2997">
        <ele>83.199996948242</ele>
        <time>2020-06-05T14:46:01.000Z</time>
      </trkpt>
      <trkpt lat="46.46857" lon="0.29967">
        <ele>83.400001525879</ele>
        <time>2020-06-05T14:46:02.000Z</time>
      </trkpt>
      <trkpt lat="46.4686" lon="0.29963">
        <ele>83.599998474121</ele>
        <time>2020-06-05T14:46:03.000Z</time>
      </trkpt>
      <trkpt lat="46.46863" lon="0.29958">
        <ele>83.599998474121</ele>
        <time>2020-06-05T14:46:04.000Z</time>
      </trkpt>
      <trkpt lat="46.46866" lon="0.29953">
        <ele>83.800003051758</ele>
        <time>2020-06-05T14:46:05.000Z</time>
      </trkpt>
      <trkpt lat="46.46892" lon="0.2991">
        <ele>83.199996948242</ele>
        <time>2020-06-05T14:46:13.000Z</time>
      </trkpt>
      <trkpt lat="46.46896" lon="0.29904">
        <ele>83.199996948242</ele>
        <time>2020-06-05T14:46:14.000Z</time>
      </trkpt>
      <trkpt lat="46.46899" lon="0.29898">
        <ele>83</ele>
        <time>2020-06-05T14:46:15.000Z</time>
      </trkpt>
      <trkpt lat="46.46901" lon="0.29891">
        <ele>82.800003051758</ele>
        <time>2020-06-05T14:46:16.000Z</time>
      </trkpt>
      <trkpt lat="46.46903" lon="0.29884">
        <ele>82.800003051758</ele>
        <time>2020-06-05T14:46:17.000Z</time>
      </trkpt>
      <trkpt lat="46.46905" lon="0.29877">
        <ele>82.599998474121</ele>
        <time>2020-06-05T14:46:18.000Z</time>
      </trkpt>
      <trkpt lat="46.46905" lon="0.2987">
        <ele>82.599998474121</ele>
        <time>2020-06-05T14:46:19.000Z</time>
      </trkpt>
      <trkpt lat="46.46905" lon="0.29862">
        <ele>82.599998474121</ele>
        <time>2020-06-05T14:46:20.000Z</time>
      </trkpt>
      <trkpt lat="46.46904" lon="0.29855">
        <ele>82.599998474121</ele>
        <time>2020-06-05T14:46:21.000Z</time>
      </trkpt>
      <trkpt lat="46.46904" lon="0.29847">
        <ele>83</ele>
        <time>2020-06-05T14:46:22.000Z</time>
      </trkpt>
      <trkpt lat="46.46903" lon="0.29839">
        <ele>82.800003051758</ele>
        <time>2020-06-05T14:46:23.000Z</time>
      </trkpt>
      <trkpt lat="46.46903" lon="0.29792">
        <ele>82.800003051758</ele>
        <time>2020-06-05T14:46:29.000Z</time>
      </trkpt>
      <trkpt lat="46.46904" lon="0.29785">
        <ele>82.800003051758</ele>
        <time>2020-06-05T14:46:30.000Z</time>
      </trkpt>
      <trkpt lat="46.46907" lon="0.29778">
        <ele>83</ele>
        <time>2020-06-05T14:46:31.000Z</time>
      </trkpt>
      <trkpt lat="46.46911" lon="0.29773">
        <ele>83</ele>
        <time>2020-06-05T14:46:32.000Z</time>
      </trkpt>
      <trkpt lat="46.46914" lon="0.29769">
        <ele>83.199996948242</ele>
        <time>2020-06-05T14:46:33.000Z</time>
      </trkpt>
      <trkpt lat="46.46919" lon="0.29765">
        <ele>83.400001525879</ele>
        <time>2020-06-05T14:46:34.000Z</time>
      </trkpt>
      <trkpt lat="46.46924" lon="0.2976">
        <ele>83.400001525879</ele>
        <time>2020-06-05T14:46:35.000Z</time>
      </trkpt>
      <trkpt lat="46.46929" lon="0.29756">
        <ele>83.400001525879</ele>
        <time>2020-06-05T14:46:36.000Z</time>
      </trkpt>
      <trkpt lat="46.46934" lon="0.29751">
        <ele>83.599998474121</ele>
        <time>2020-06-05T14:46:37.000Z</time>
      </trkpt>
      <trkpt lat="46.46938" lon="0.29748">
        <ele>83.800003051758</ele>
        <time>2020-06-05T14:46:38.000Z</time>
      </trkpt>
      <trkpt lat="46.46943" lon="0.29743">
        <ele>83.800003051758</ele>
        <time>2020-06-05T14:46:39.000Z</time>
      </trkpt>
      <trkpt lat="46.46952" lon="0.29734">
        <ele>84</ele>
        <time>2020-06-05T14:46:41.000Z</time>
      </trkpt>
      <trkpt lat="46.46967" lon="0.29721">
        <ele>84</ele>
        <time>2020-06-05T14:46:44.000Z</time>
      </trkpt>
      <trkpt lat="46.47013" lon="0.29682">
        <ele>84.400001525879</ele>
        <time>2020-06-05T14:46:53.000Z</time>
      </trkpt>
      <trkpt lat="46.47018" lon="0.29677">
        <ele>84.400001525879</ele>
        <time>2020-06-05T14:46:54.000Z</time>
      </trkpt>
      <trkpt lat="46.47022" lon="0.29672">
        <ele>84.599998474121</ele>
        <time>2020-06-05T14:46:55.000Z</time>
      </trkpt>
      <trkpt lat="46.47027" lon="0.29668">
        <ele>84.800003051758</ele>
        <time>2020-06-05T14:46:56.000Z</time>
      </trkpt>
      <trkpt lat="46.47033" lon="0.29663">
        <ele>85</ele>
        <time>2020-06-05T14:46:57.000Z</time>
      </trkpt>
      <trkpt lat="46.47038" lon="0.29659">
        <ele>85</ele>
        <time>2020-06-05T14:46:58.000Z</time>
      </trkpt>
      <trkpt lat="46.47043" lon="0.29654">
        <ele>85</ele>
        <time>2020-06-05T14:46:59.000Z</time>
      </trkpt>
      <trkpt lat="46.47048" lon="0.2965">
        <ele>85.199996948242</ele>
        <time>2020-06-05T14:47:00.000Z</time>
      </trkpt>
      <trkpt lat="46.47053" lon="0.29646">
        <ele>85.199996948242</ele>
        <time>2020-06-05T14:47:01.000Z</time>
      </trkpt>
      <trkpt lat="46.47058" lon="0.29641">
        <ele>85.400001525879</ele>
        <time>2020-06-05T14:47:02.000Z</time>
      </trkpt>
      <trkpt lat="46.47063" lon="0.29637">
        <ele>85.400001525879</ele>
        <time>2020-06-05T14:47:03.000Z</time>
      </trkpt>
      <trkpt lat="46.47068" lon="0.29632">
        <ele>85.400001525879</ele>
        <time>2020-06-05T14:47:04.000Z</time>
      </trkpt>
      <trkpt lat="46.47073" lon="0.29627">
        <ele>85.400001525879</ele>
        <time>2020-06-05T14:47:05.000Z</time>
      </trkpt>
      <trkpt lat="46.47073" lon="0.29627">
        <ele>85.400001525879</ele>
        <time>2020-06-05T14:47:06.000Z</time>
      </trkpt>
      <trkpt lat="46.47083" lon="0.29618">
        <ele>85.599998474121</ele>
        <time>2020-06-05T14:47:07.000Z</time>
      </trkpt>
      <trkpt lat="46.47088" lon="0.29614">
        <ele>85.599998474121</ele>
        <time>2020-06-05T14:47:08.000Z</time>
      </trkpt>
      <trkpt lat="46.47093" lon="0.29609">
        <ele>85.599998474121</ele>
        <time>2020-06-05T14:47:09.000Z</time>
      </trkpt>
      <trkpt lat="46.47098" lon="0.29605">
        <ele>85.599998474121</ele>
        <time>2020-06-05T14:47:10.000Z</time>
      </trkpt>
      <trkpt lat="46.47102" lon="0.29601">
        <ele>85.800003051758</ele>
        <time>2020-06-05T14:47:11.000Z</time>
      </trkpt>
      <trkpt lat="46.47107" lon="0.29596">
        <ele>86.199996948242</ele>
        <time>2020-06-05T14:47:12.000Z</time>
      </trkpt>
      <trkpt lat="46.47111" lon="0.29592">
        <ele>86.199996948242</ele>
        <time>2020-06-05T14:47:13.000Z</time>
      </trkpt>
      <trkpt lat="46.47116" lon="0.29588">
        <ele>86.400001525879</ele>
        <time>2020-06-05T14:47:14.000Z</time>
      </trkpt>
      <trkpt lat="46.4712" lon="0.29583">
        <ele>86.599998474121</ele>
        <time>2020-06-05T14:47:15.000Z</time>
      </trkpt>
      <trkpt lat="46.47125" lon="0.29579">
        <ele>86.800003051758</ele>
        <time>2020-06-05T14:47:16.000Z</time>
      </trkpt>
      <trkpt lat="46.47129" lon="0.29575">
        <ele>87</ele>
        <time>2020-06-05T14:47:17.000Z</time>
      </trkpt>
      <trkpt lat="46.47134" lon="0.29571">
        <ele>87</ele>
        <time>2020-06-05T14:47:18.000Z</time>
      </trkpt>
      <trkpt lat="46.47138" lon="0.29567">
        <ele>87.400001525879</ele>
        <time>2020-06-05T14:47:19.000Z</time>
      </trkpt>
      <trkpt lat="46.47142" lon="0.29563">
        <ele>87.599998474121</ele>
        <time>2020-06-05T14:47:20.000Z</time>
      </trkpt>
      <trkpt lat="46.47146" lon="0.29559">
        <ele>87.800003051758</ele>
        <time>2020-06-05T14:47:21.000Z</time>
      </trkpt>
      <trkpt lat="46.4715" lon="0.29555">
        <ele>88</ele>
        <time>2020-06-05T14:47:22.000Z</time>
      </trkpt>
      <trkpt lat="46.47154" lon="0.29551">
        <ele>88.400001525879</ele>
        <time>2020-06-05T14:47:23.000Z</time>
      </trkpt>
      <trkpt lat="46.47158" lon="0.29547">
        <ele>88.599998474121</ele>
        <time>2020-06-05T14:47:24.000Z</time>
      </trkpt>
      <trkpt lat="46.47162" lon="0.29544">
        <ele>89</ele>
        <time>2020-06-05T14:47:25.000Z</time>
      </trkpt>
      <trkpt lat="46.47165" lon="0.2954">
        <ele>89.400001525879</ele>
        <time>2020-06-05T14:47:26.000Z</time>
      </trkpt>
      <trkpt lat="46.47169" lon="0.29537">
        <ele>89.599998474121</ele>
        <time>2020-06-05T14:47:27.000Z</time>
      </trkpt>
      <trkpt lat="46.47171" lon="0.29533">
        <ele>90.199996948242</ele>
        <time>2020-06-05T14:47:28.000Z</time>
      </trkpt>
      <trkpt lat="46.47174" lon="0.29529">
        <ele>90.599998474121</ele>
        <time>2020-06-05T14:47:29.000Z</time>
      </trkpt>
      <trkpt lat="46.47177" lon="0.29524">
        <ele>91.599998474121</ele>
        <time>2020-06-05T14:47:30.000Z</time>
      </trkpt>
      <trkpt lat="46.47178" lon="0.29519">
        <ele>92.199996948242</ele>
        <time>2020-06-05T14:47:31.000Z</time>
      </trkpt>
      <trkpt lat="46.47178" lon="0.29513">
        <ele>92.400001525879</ele>
        <time>2020-06-05T14:47:32.000Z</time>
      </trkpt>
      <trkpt lat="46.47178" lon="0.29507">
        <ele>93</ele>
        <time>2020-06-05T14:47:33.000Z</time>
      </trkpt>
      <trkpt lat="46.47178" lon="0.29501">
        <ele>93.199996948242</ele>
        <time>2020-06-05T14:47:34.000Z</time>
      </trkpt>
      <trkpt lat="46.4718" lon="0.29497">
        <ele>93.599998474121</ele>
        <time>2020-06-05T14:47:35.000Z</time>
      </trkpt>
      <trkpt lat="46.47183" lon="0.29496">
        <ele>94.199996948242</ele>
        <time>2020-06-05T14:47:36.000Z</time>
      </trkpt>
      <trkpt lat="46.47186" lon="0.29498">
        <ele>95</ele>
        <time>2020-06-05T14:47:37.000Z</time>
      </trkpt>
      <trkpt lat="46.47189" lon="0.29503">
        <ele>95.400001525879</ele>
        <time>2020-06-05T14:47:38.000Z</time>
      </trkpt>
      <trkpt lat="46.47191" lon="0.29508">
        <ele>96</ele>
        <time>2020-06-05T14:47:39.000Z</time>
      </trkpt>
      <trkpt lat="46.47194" lon="0.29513">
        <ele>96.800003051758</ele>
        <time>2020-06-05T14:47:40.000Z</time>
      </trkpt>
      <trkpt lat="46.47197" lon="0.29518">
        <ele>97</ele>
        <time>2020-06-05T14:47:41.000Z</time>
      </trkpt>
      <trkpt lat="46.472" lon="0.29523">
        <ele>97.400001525879</ele>
        <time>2020-06-05T14:47:42.000Z</time>
      </trkpt>
      <trkpt lat="46.47202" lon="0.29529">
        <ele>97.599998474121</ele>
        <time>2020-06-05T14:47:43.000Z</time>
      </trkpt>
      <trkpt lat="46.47204" lon="0.29535">
        <ele>97.800003051758</ele>
        <time>2020-06-05T14:47:44.000Z</time>
      </trkpt>
      <trkpt lat="46.47206" lon="0.29541">
        <ele>98.199996948242</ele>
        <time>2020-06-05T14:47:45.000Z</time>
      </trkpt>
      <trkpt lat="46.47208" lon="0.29546">
        <ele>98.199996948242</ele>
        <time>2020-06-05T14:47:46.000Z</time>
      </trkpt>
      <trkpt lat="46.47209" lon="0.29552">
        <ele>98.599998474121</ele>
        <time>2020-06-05T14:47:47.000Z</time>
      </trkpt>
      <trkpt lat="46.4721" lon="0.29558">
        <ele>98.800003051758</ele>
        <time>2020-06-05T14:47:48.000Z</time>
      </trkpt>
      <trkpt lat="46.47211" lon="0.29564">
        <ele>99.199996948242</ele>
        <time>2020-06-05T14:47:49.000Z</time>
      </trkpt>
      <trkpt lat="46.47212" lon="0.2957">
        <ele>99.400001525879</ele>
        <time>2020-06-05T14:47:50.000Z</time>
      </trkpt>
      <trkpt lat="46.47213" lon="0.29576">
        <ele>99.800003051758</ele>
        <time>2020-06-05T14:47:51.000Z</time>
      </trkpt>
      <trkpt lat="46.47214" lon="0.29582">
        <ele>100.19999694824</ele>
        <time>2020-06-05T14:47:52.000Z</time>
      </trkpt>
      <trkpt lat="46.47215" lon="0.29588">
        <ele>100.40000152588</ele>
        <time>2020-06-05T14:47:53.000Z</time>
      </trkpt>
      <trkpt lat="46.47216" lon="0.29594">
        <ele>100.59999847412</ele>
        <time>2020-06-05T14:47:54.000Z</time>
      </trkpt>
      <trkpt lat="46.47216" lon="0.29594">
        <ele>100.80000305176</ele>
        <time>2020-06-05T14:47:55.000Z</time>
      </trkpt>
      <trkpt lat="46.47218" lon="0.29607">
        <ele>101</ele>
        <time>2020-06-05T14:47:56.000Z</time>
      </trkpt>
      <trkpt lat="46.47219" lon="0.29613">
        <ele>101.19999694824</ele>
        <time>2020-06-05T14:47:57.000Z</time>
      </trkpt>
      <trkpt lat="46.47221" lon="0.29619">
        <ele>101.59999847412</ele>
        <time>2020-06-05T14:47:58.000Z</time>
      </trkpt>
      <trkpt lat="46.47222" lon="0.29625">
        <ele>102</ele>
        <time>2020-06-05T14:47:59.000Z</time>
      </trkpt>
      <trkpt lat="46.47224" lon="0.29631">
        <ele>102.19999694824</ele>
        <time>2020-06-05T14:48:00.000Z</time>
      </trkpt>
      <trkpt lat="46.47225" lon="0.29637">
        <ele>102.40000152588</ele>
        <time>2020-06-05T14:48:01.000Z</time>
      </trkpt>
      <trkpt lat="46.47226" lon="0.29643">
        <ele>102.59999847412</ele>
        <time>2020-06-05T14:48:02.000Z</time>
      </trkpt>
      <trkpt lat="46.47228" lon="0.29648">
        <ele>102.80000305176</ele>
        <time>2020-06-05T14:48:03.000Z</time>
      </trkpt>
      <trkpt lat="46.4723" lon="0.29652">
        <ele>103.40000152588</ele>
        <time>2020-06-05T14:48:04.000Z</time>
      </trkpt>
      <trkpt lat="46.47232" lon="0.29654">
        <ele>103.59999847412</ele>
        <time>2020-06-05T14:48:05.000Z</time>
      </trkpt>
      <trkpt lat="46.47235" lon="0.29655">
        <ele>104</ele>
        <time>2020-06-05T14:48:06.000Z</time>
      </trkpt>
      <trkpt lat="46.47238" lon="0.29656">
        <ele>104.19999694824</ele>
        <time>2020-06-05T14:48:07.000Z</time>
      </trkpt>
      <trkpt lat="46.47241" lon="0.29657">
        <ele>104.59999847412</ele>
        <time>2020-06-05T14:48:08.000Z</time>
      </trkpt>
      <trkpt lat="46.47243" lon="0.29658">
        <ele>104.59999847412</ele>
        <time>2020-06-05T14:48:09.000Z</time>
      </trkpt>
      <trkpt lat="46.47246" lon="0.29659">
        <ele>105</ele>
        <time>2020-06-05T14:48:10.000Z</time>
      </trkpt>
      <trkpt lat="46.47249" lon="0.29661">
        <ele>105.40000152588</ele>
        <time>2020-06-05T14:48:11.000Z</time>
      </trkpt>
      <trkpt lat="46.47252" lon="0.29662">
        <ele>105.59999847412</ele>
        <time>2020-06-05T14:48:12.000Z</time>
      </trkpt>
      <trkpt lat="46.47255" lon="0.29663">
        <ele>106</ele>
        <time>2020-06-05T14:48:13.000Z</time>
      </trkpt>
      <trkpt lat="46.47258" lon="0.29664">
        <ele>106</ele>
        <time>2020-06-05T14:48:14.000Z</time>
      </trkpt>
      <trkpt lat="46.47258" lon="0.29664">
        <ele>106.19999694824</ele>
        <time>2020-06-05T14:48:15.000Z</time>
      </trkpt>
      <trkpt lat="46.47264" lon="0.29666">
        <ele>106.40000152588</ele>
        <time>2020-06-05T14:48:16.000Z</time>
      </trkpt>
      <trkpt lat="46.47267" lon="0.29667">
        <ele>106.80000305176</ele>
        <time>2020-06-05T14:48:17.000Z</time>
      </trkpt>
      <trkpt lat="46.47271" lon="0.29668">
        <ele>107</ele>
        <time>2020-06-05T14:48:18.000Z</time>
      </trkpt>
      <trkpt lat="46.47274" lon="0.29669">
        <ele>107.19999694824</ele>
        <time>2020-06-05T14:48:19.000Z</time>
      </trkpt>
      <trkpt lat="46.47277" lon="0.29669">
        <ele>107.80000305176</ele>
        <time>2020-06-05T14:48:20.000Z</time>
      </trkpt>
      <trkpt lat="46.4728" lon="0.29669">
        <ele>108</ele>
        <time>2020-06-05T14:48:21.000Z</time>
      </trkpt>
      <trkpt lat="46.47282" lon="0.2967">
        <ele>108.59999847412</ele>
        <time>2020-06-05T14:48:22.000Z</time>
      </trkpt>
      <trkpt lat="46.47284" lon="0.2967">
        <ele>108.80000305176</ele>
        <time>2020-06-05T14:48:23.000Z</time>
      </trkpt>
      <trkpt lat="46.47286" lon="0.29671">
        <ele>109.19999694824</ele>
        <time>2020-06-05T14:48:24.000Z</time>
      </trkpt>
      <trkpt lat="46.47289" lon="0.29673">
        <ele>109.59999847412</ele>
        <time>2020-06-05T14:48:25.000Z</time>
      </trkpt>
      <trkpt lat="46.47291" lon="0.29675">
        <ele>109.80000305176</ele>
        <time>2020-06-05T14:48:26.000Z</time>
      </trkpt>
      <trkpt lat="46.47293" lon="0.29677">
        <ele>110</ele>
        <time>2020-06-05T14:48:27.000Z</time>
      </trkpt>
      <trkpt lat="46.47296" lon="0.2968">
        <ele>110.19999694824</ele>
        <time>2020-06-05T14:48:28.000Z</time>
      </trkpt>
      <trkpt lat="46.47299" lon="0.29683">
        <ele>110.40000152588</ele>
        <time>2020-06-05T14:48:29.000Z</time>
      </trkpt>
      <trkpt lat="46.47302" lon="0.29686">
        <ele>110.59999847412</ele>
        <time>2020-06-05T14:48:30.000Z</time>
      </trkpt>
      <trkpt lat="46.47306" lon="0.29688">
        <ele>110.59999847412</ele>
        <time>2020-06-05T14:48:31.000Z</time>
      </trkpt>
      <trkpt lat="46.47309" lon="0.29692">
        <ele>110.59999847412</ele>
        <time>2020-06-05T14:48:32.000Z</time>
      </trkpt>
      <trkpt lat="46.47312" lon="0.29695">
        <ele>110.59999847412</ele>
        <time>2020-06-05T14:48:33.000Z</time>
      </trkpt>
      <trkpt lat="46.47316" lon="0.29698">
        <ele>110.59999847412</ele>
        <time>2020-06-05T14:48:34.000Z</time>
      </trkpt>
      <trkpt lat="46.47319" lon="0.29702">
        <ele>110.59999847412</ele>
        <time>2020-06-05T14:48:35.000Z</time>
      </trkpt>
      <trkpt lat="46.47323" lon="0.29706">
        <ele>110.59999847412</ele>
        <time>2020-06-05T14:48:36.000Z</time>
      </trkpt>
      <trkpt lat="46.47327" lon="0.2971">
        <ele>110.59999847412</ele>
        <time>2020-06-05T14:48:37.000Z</time>
      </trkpt>
      <trkpt lat="46.47331" lon="0.29714">
        <ele>110.59999847412</ele>
        <time>2020-06-05T14:48:38.000Z</time>
      </trkpt>
      <trkpt lat="46.47335" lon="0.29718">
        <ele>110.59999847412</ele>
        <time>2020-06-05T14:48:39.000Z</time>
      </trkpt>
      <trkpt lat="46.47339" lon="0.29722">
        <ele>110.59999847412</ele>
        <time>2020-06-05T14:48:40.000Z</time>
      </trkpt>
      <trkpt lat="46.47347" lon="0.29729">
        <ele>110.40000152588</ele>
        <time>2020-06-05T14:48:42.000Z</time>
      </trkpt>
      <trkpt lat="46.4736" lon="0.29742">
        <ele>110.59999847412</ele>
        <time>2020-06-05T14:48:45.000Z</time>
      </trkpt>
      <trkpt lat="46.47376" lon="0.29759">
        <ele>110.40000152588</ele>
        <time>2020-06-05T14:48:48.000Z</time>
      </trkpt>
      <trkpt lat="46.4738" lon="0.29764">
        <ele>110.40000152588</ele>
        <time>2020-06-05T14:48:49.000Z</time>
      </trkpt>
      <trkpt lat="46.47398" lon="0.29788">
        <ele>110.59999847412</ele>
        <time>2020-06-05T14:48:53.000Z</time>
      </trkpt>
      <trkpt lat="46.47403" lon="0.29793">
        <ele>110.80000305176</ele>
        <time>2020-06-05T14:48:54.000Z</time>
      </trkpt>
      <trkpt lat="46.47407" lon="0.29799">
        <ele>110.80000305176</ele>
        <time>2020-06-05T14:48:55.000Z</time>
      </trkpt>
      <trkpt lat="46.47412" lon="0.29805">
        <ele>110.80000305176</ele>
        <time>2020-06-05T14:48:56.000Z</time>
      </trkpt>
      <trkpt lat="46.47417" lon="0.29816">
        <ele>110.80000305176</ele>
        <time>2020-06-05T14:48:58.000Z</time>
      </trkpt>
      <trkpt lat="46.47422" lon="0.29822">
        <ele>110.80000305176</ele>
        <time>2020-06-05T14:48:59.000Z</time>
      </trkpt>
      <trkpt lat="46.47427" lon="0.29828">
        <ele>110.80000305176</ele>
        <time>2020-06-05T14:49:00.000Z</time>
      </trkpt>
      <trkpt lat="46.47431" lon="0.2983">
        <ele>110.80000305176</ele>
        <time>2020-06-05T14:49:01.000Z</time>
      </trkpt>
      <trkpt lat="46.47436" lon="0.29835">
        <ele>110.80000305176</ele>
        <time>2020-06-05T14:49:02.000Z</time>
      </trkpt>
      <trkpt lat="46.47441" lon="0.2984">
        <ele>110.80000305176</ele>
        <time>2020-06-05T14:49:03.000Z</time>
      </trkpt>
      <trkpt lat="46.4745" lon="0.29849">
        <ele>111</ele>
        <time>2020-06-05T14:49:05.000Z</time>
      </trkpt>
      <trkpt lat="46.47454" lon="0.29852">
        <ele>111</ele>
        <time>2020-06-05T14:49:06.000Z</time>
      </trkpt>
      <trkpt lat="46.47458" lon="0.29855">
        <ele>111</ele>
        <time>2020-06-05T14:49:07.000Z</time>
      </trkpt>
      <trkpt lat="46.47458" lon="0.29855">
        <ele>111</ele>
        <time>2020-06-05T14:49:08.000Z</time>
      </trkpt>
      <trkpt lat="46.47467" lon="0.29861">
        <ele>111.40000152588</ele>
        <time>2020-06-05T14:49:09.000Z</time>
      </trkpt>
      <trkpt lat="46.47471" lon="0.29864">
        <ele>111.59999847412</ele>
        <time>2020-06-05T14:49:10.000Z</time>
      </trkpt>
      <trkpt lat="46.47475" lon="0.29867">
        <ele>111.59999847412</ele>
        <time>2020-06-05T14:49:11.000Z</time>
      </trkpt>
      <trkpt lat="46.4748" lon="0.2987">
        <ele>111.59999847412</ele>
        <time>2020-06-05T14:49:12.000Z</time>
      </trkpt>
      <trkpt lat="46.47486" lon="0.29873">
        <ele>111.59999847412</ele>
        <time>2020-06-05T14:49:13.000Z</time>
      </trkpt>
      <trkpt lat="46.47492" lon="0.29877">
        <ele>111.80000305176</ele>
        <time>2020-06-05T14:49:14.000Z</time>
      </trkpt>
      <trkpt lat="46.47505" lon="0.29884">
        <ele>111.59999847412</ele>
        <time>2020-06-05T14:49:16.000Z</time>
      </trkpt>
      <trkpt lat="46.47522" lon="0.29896">
        <ele>110.80000305176</ele>
        <time>2020-06-05T14:49:19.000Z</time>
      </trkpt>
      <trkpt lat="46.47527" lon="0.29898">
        <ele>110.80000305176</ele>
        <time>2020-06-05T14:49:20.000Z</time>
      </trkpt>
      <trkpt lat="46.4753" lon="0.29899">
        <ele>110.19999694824</ele>
        <time>2020-06-05T14:49:21.000Z</time>
      </trkpt>
      <trkpt lat="46.47533" lon="0.29899">
        <ele>109.80000305176</ele>
        <time>2020-06-05T14:49:22.000Z</time>
      </trkpt>
      <trkpt lat="46.47536" lon="0.29896">
        <ele>109.59999847412</ele>
        <time>2020-06-05T14:49:23.000Z</time>
      </trkpt>
      <trkpt lat="46.47538" lon="0.29892">
        <ele>109.40000152588</ele>
        <time>2020-06-05T14:49:24.000Z</time>
      </trkpt>
      <trkpt lat="46.4754" lon="0.29887">
        <ele>109.19999694824</ele>
        <time>2020-06-05T14:49:25.000Z</time>
      </trkpt>
      <trkpt lat="46.47544" lon="0.29878">
        <ele>109</ele>
        <time>2020-06-05T14:49:27.000Z</time>
      </trkpt>
      <trkpt lat="46.47548" lon="0.29869">
        <ele>109</ele>
        <time>2020-06-05T14:49:29.000Z</time>
      </trkpt>
      <trkpt lat="46.47551" lon="0.29868">
        <ele>109</ele>
        <time>2020-06-05T14:49:30.000Z</time>
      </trkpt>
      <trkpt lat="46.47553" lon="0.29869">
        <ele>109</ele>
        <time>2020-06-05T14:49:31.000Z</time>
      </trkpt>
      <trkpt lat="46.47555" lon="0.29872">
        <ele>109</ele>
        <time>2020-06-05T14:49:32.000Z</time>
      </trkpt>
      <trkpt lat="46.47558" lon="0.29876">
        <ele>109</ele>
        <time>2020-06-05T14:49:33.000Z</time>
      </trkpt>
      <trkpt lat="46.47566" lon="0.29884">
        <ele>109</ele>
        <time>2020-06-05T14:49:35.000Z</time>
      </trkpt>
      <trkpt lat="46.47569" lon="0.2989">
        <ele>109</ele>
        <time>2020-06-05T14:49:36.000Z</time>
      </trkpt>
      <trkpt lat="46.47573" lon="0.29894">
        <ele>109</ele>
        <time>2020-06-05T14:49:37.000Z</time>
      </trkpt>
      <trkpt lat="46.47577" lon="0.29903">
        <ele>109</ele>
        <time>2020-06-05T14:49:39.000Z</time>
      </trkpt>
      <trkpt lat="46.4758" lon="0.29906">
        <ele>108.59999847412</ele>
        <time>2020-06-05T14:49:40.000Z</time>
      </trkpt>
      <trkpt lat="46.47582" lon="0.2991">
        <ele>108.40000152588</ele>
        <time>2020-06-05T14:49:41.000Z</time>
      </trkpt>
      <trkpt lat="46.47584" lon="0.29914">
        <ele>107.80000305176</ele>
        <time>2020-06-05T14:49:42.000Z</time>
      </trkpt>
      <trkpt lat="46.47588" lon="0.29921">
        <ele>106.80000305176</ele>
        <time>2020-06-05T14:49:44.000Z</time>
      </trkpt>
      <trkpt lat="46.47592" lon="0.29929">
        <ele>105.59999847412</ele>
        <time>2020-06-05T14:49:46.000Z</time>
      </trkpt>
      <trkpt lat="46.47593" lon="0.29933">
        <ele>105</ele>
        <time>2020-06-05T14:49:47.000Z</time>
      </trkpt>
      <trkpt lat="46.47594" lon="0.29939">
        <ele>104</ele>
        <time>2020-06-05T14:49:48.000Z</time>
      </trkpt>
      <trkpt lat="46.47594" lon="0.29944">
        <ele>103.19999694824</ele>
        <time>2020-06-05T14:49:49.000Z</time>
      </trkpt>
      <trkpt lat="46.47594" lon="0.29948">
        <ele>102.19999694824</ele>
        <time>2020-06-05T14:49:50.000Z</time>
      </trkpt>
      <trkpt lat="46.47596" lon="0.29951">
        <ele>102</ele>
        <time>2020-06-05T14:49:51.000Z</time>
      </trkpt>
      <trkpt lat="46.47598" lon="0.29952">
        <ele>101.59999847412</ele>
        <time>2020-06-05T14:49:52.000Z</time>
      </trkpt>
      <trkpt lat="46.47601" lon="0.29953">
        <ele>101.19999694824</ele>
        <time>2020-06-05T14:49:53.000Z</time>
      </trkpt>
      <trkpt lat="46.47603" lon="0.29952">
        <ele>101</ele>
        <time>2020-06-05T14:49:54.000Z</time>
      </trkpt>
      <trkpt lat="46.4761" lon="0.29955">
        <ele>99.6</ele>
      </trkpt>
      <trkpt lat="46.47609" lon="0.29958">
        <ele>100</ele>
        <time>2020-06-05T14:50:56.000Z</time>
      </trkpt>
      <trkpt lat="46.47607" lon="0.29967">
        <ele>98.199996948242</ele>
        <time>2020-06-05T14:50:58.000Z</time>
      </trkpt>
      <trkpt lat="46.47604" lon="0.29983">
        <ele>97.800003051758</ele>
        <time>2020-06-05T14:50:59.000Z</time>
      </trkpt>
      <trkpt lat="46.47603" lon="0.29989">
        <ele>97</ele>
        <time>2020-06-05T14:51:00.000Z</time>
      </trkpt>
      <trkpt lat="46.47603" lon="0.29995">
        <ele>96.599998474121</ele>
        <time>2020-06-05T14:51:01.000Z</time>
      </trkpt>
      <trkpt lat="46.47605" lon="0.30002">
        <ele>96.400001525879</ele>
        <time>2020-06-05T14:51:02.000Z</time>
      </trkpt>
      <trkpt lat="46.47606" lon="0.30008">
        <ele>95.800003051758</ele>
        <time>2020-06-05T14:51:03.000Z</time>
      </trkpt>
      <trkpt lat="46.47609" lon="0.30013">
        <ele>95.599998474121</ele>
        <time>2020-06-05T14:51:04.000Z</time>
      </trkpt>
      <trkpt lat="46.47612" lon="0.30018">
        <ele>95.199996948242</ele>
        <time>2020-06-05T14:51:05.000Z</time>
      </trkpt>
      <trkpt lat="46.47615" lon="0.30024">
        <ele>95.199996948242</ele>
        <time>2020-06-05T14:51:06.000Z</time>
      </trkpt>
      <trkpt lat="46.47618" lon="0.3003">
        <ele>95</ele>
        <time>2020-06-05T14:51:07.000Z</time>
      </trkpt>
      <trkpt lat="46.47628" lon="0.30046">
        <ele>95</ele>
        <time>2020-06-05T14:51:10.000Z</time>
      </trkpt>
      <trkpt lat="46.47631" lon="0.30052">
        <ele>94.800003051758</ele>
        <time>2020-06-05T14:51:11.000Z</time>
      </trkpt>
      <trkpt lat="46.47633" lon="0.30058">
        <ele>94.800003051758</ele>
        <time>2020-06-05T14:51:12.000Z</time>
      </trkpt>
      <trkpt lat="46.47635" lon="0.30065">
        <ele>94.599998474121</ele>
        <time>2020-06-05T14:51:13.000Z</time>
      </trkpt>
      <trkpt lat="46.47638" lon="0.30071">
        <ele>94.400001525879</ele>
        <time>2020-06-05T14:51:14.000Z</time>
      </trkpt>
      <trkpt lat="46.47641" lon="0.3008">
        <ele>93.800003051758</ele>
        <time>2020-06-05T14:51:16.000Z</time>
      </trkpt>
      <trkpt lat="46.47641" lon="0.30081">
        <ele>93.400001525879</ele>
        <time>2020-06-05T14:51:17.000Z</time>
      </trkpt>
      <trkpt lat="46.47641" lon="0.30081">
        <ele>93.199996948242</ele>
        <time>2020-06-05T14:51:18.000Z</time>
      </trkpt>
      <trkpt lat="46.47641" lon="0.30081">
        <ele>92.800003051758</ele>
        <time>2020-06-05T14:51:19.000Z</time>
      </trkpt>
      <trkpt lat="46.47645" lon="0.30085">
        <ele>92.400001525879</ele>
        <time>2020-06-05T14:51:29.000Z</time>
      </trkpt>
      <trkpt lat="46.47652" lon="0.30089">
        <ele>92.400001525879</ele>
        <time>2020-06-05T14:51:31.000Z</time>
      </trkpt>
      <trkpt lat="46.47657" lon="0.3009">
        <ele>92.400001525879</ele>
        <time>2020-06-05T14:51:32.000Z</time>
      </trkpt>
      <trkpt lat="46.47668" lon="0.30092">
        <ele>92.400001525879</ele>
        <time>2020-06-05T14:51:34.000Z</time>
      </trkpt>
      <trkpt lat="46.47689" lon="0.30096">
        <ele>92</ele>
        <time>2020-06-05T14:51:37.000Z</time>
      </trkpt>
      <trkpt lat="46.47709" lon="0.30101">
        <ele>91</ele>
        <time>2020-06-05T14:51:40.000Z</time>
      </trkpt>
      <trkpt lat="46.47732" lon="0.30106">
        <ele>90.199996948242</ele>
        <time>2020-06-05T14:51:43.000Z</time>
      </trkpt>
      <trkpt lat="46.47739" lon="0.30107">
        <ele>90</ele>
        <time>2020-06-05T14:51:44.000Z</time>
      </trkpt>
      <trkpt lat="46.47745" lon="0.30108">
        <ele>89.800003051758</ele>
        <time>2020-06-05T14:51:45.000Z</time>
      </trkpt>
      <trkpt lat="46.47787" lon="0.30116">
        <ele>89.199996948242</ele>
        <time>2020-06-05T14:51:51.000Z</time>
      </trkpt>
      <trkpt lat="46.47793" lon="0.30118">
        <ele>89.199996948242</ele>
        <time>2020-06-05T14:51:52.000Z</time>
      </trkpt>
      <trkpt lat="46.47797" lon="0.3012">
        <ele>89.199996948242</ele>
        <time>2020-06-05T14:51:53.000Z</time>
      </trkpt>
      <trkpt lat="46.47802" lon="0.30125">
        <ele>89.199996948242</ele>
        <time>2020-06-05T14:51:54.000Z</time>
      </trkpt>
      <trkpt lat="46.47806" lon="0.30131">
        <ele>89.400001525879</ele>
        <time>2020-06-05T14:51:55.000Z</time>
      </trkpt>
      <trkpt lat="46.47809" lon="0.30139">
        <ele>89.400001525879</ele>
        <time>2020-06-05T14:51:56.000Z</time>
      </trkpt>
      <trkpt lat="46.47812" lon="0.30146">
        <ele>89.400001525879</ele>
        <time>2020-06-05T14:51:57.000Z</time>
      </trkpt>
      <trkpt lat="46.47814" lon="0.30153">
        <ele>89.400001525879</ele>
        <time>2020-06-05T14:51:58.000Z</time>
      </trkpt>
      <trkpt lat="46.47817" lon="0.3016">
        <ele>89.599998474121</ele>
        <time>2020-06-05T14:51:59.000Z</time>
      </trkpt>
      <trkpt lat="46.4782" lon="0.30167">
        <ele>89.599998474121</ele>
        <time>2020-06-05T14:52:00.000Z</time>
      </trkpt>
      <trkpt lat="46.47822" lon="0.30173">
        <ele>89.599998474121</ele>
        <time>2020-06-05T14:52:01.000Z</time>
      </trkpt>
      <trkpt lat="46.47824" lon="0.30177">
        <ele>89.800003051758</ele>
        <time>2020-06-05T14:52:02.000Z</time>
      </trkpt>
      <trkpt lat="46.47826" lon="0.3018">
        <ele>90</ele>
        <time>2020-06-05T14:52:03.000Z</time>
      </trkpt>
      <trkpt lat="46.47829" lon="0.30183">
        <ele>90.199996948242</ele>
        <time>2020-06-05T14:52:04.000Z</time>
      </trkpt>
      <trkpt lat="46.47831" lon="0.30183">
        <ele>90.400001525879</ele>
        <time>2020-06-05T14:52:05.000Z</time>
      </trkpt>
      <trkpt lat="46.47834" lon="0.30182">
        <ele>91</ele>
        <time>2020-06-05T14:52:06.000Z</time>
      </trkpt>
      <trkpt lat="46.47838" lon="0.30181">
        <ele>91.400001525879</ele>
        <time>2020-06-05T14:52:07.000Z</time>
      </trkpt>
      <trkpt lat="46.47842" lon="0.30178">
        <ele>91.599998474121</ele>
        <time>2020-06-05T14:52:08.000Z</time>
      </trkpt>
      <trkpt lat="46.47845" lon="0.30176">
        <ele>91.599998474121</ele>
        <time>2020-06-05T14:52:09.000Z</time>
      </trkpt>
      <trkpt lat="46.47847" lon="0.30173">
        <ele>91.800003051758</ele>
        <time>2020-06-05T14:52:10.000Z</time>
      </trkpt>
      <trkpt lat="46.47851" lon="0.30169">
        <ele>92</ele>
        <time>2020-06-05T14:52:11.000Z</time>
      </trkpt>
      <trkpt lat="46.47853" lon="0.30166">
        <ele>92.199996948242</ele>
        <time>2020-06-05T14:52:12.000Z</time>
      </trkpt>
      <trkpt lat="46.47855" lon="0.30162">
        <ele>92.400001525879</ele>
        <time>2020-06-05T14:52:13.000Z</time>
      </trkpt>
      <trkpt lat="46.47857" lon="0.30159">
        <ele>92.800003051758</ele>
        <time>2020-06-05T14:52:14.000Z</time>
      </trkpt>
      <trkpt lat="46.4786" lon="0.30158">
        <ele>93.400001525879</ele>
        <time>2020-06-05T14:52:15.000Z</time>
      </trkpt>
      <trkpt lat="46.47862" lon="0.30159">
        <ele>94</ele>
        <time>2020-06-05T14:52:16.000Z</time>
      </trkpt>
      <trkpt lat="46.47864" lon="0.30161">
        <ele>94.400001525879</ele>
        <time>2020-06-05T14:52:17.000Z</time>
      </trkpt>
      <trkpt lat="46.47866" lon="0.30165">
        <ele>95.199996948242</ele>
        <time>2020-06-05T14:52:18.000Z</time>
      </trkpt>
      <trkpt lat="46.4787" lon="0.3017">
        <ele>96</ele>
        <time>2020-06-05T14:52:19.000Z</time>
      </trkpt>
      <trkpt lat="46.47874" lon="0.30173">
        <ele>96.199996948242</ele>
        <time>2020-06-05T14:52:20.000Z</time>
      </trkpt>
      <trkpt lat="46.47876" lon="0.30175">
        <ele>96.599998474121</ele>
        <time>2020-06-05T14:52:21.000Z</time>
      </trkpt>
      <trkpt lat="46.47879" lon="0.30176">
        <ele>96.800003051758</ele>
        <time>2020-06-05T14:52:22.000Z</time>
      </trkpt>
      <trkpt lat="46.47881" lon="0.30175">
        <ele>97</ele>
        <time>2020-06-05T14:52:23.000Z</time>
      </trkpt>
      <trkpt lat="46.47883" lon="0.30175">
        <ele>97.199996948242</ele>
        <time>2020-06-05T14:52:24.000Z</time>
      </trkpt>
      <trkpt lat="46.47884" lon="0.30174">
        <ele>97.400001525879</ele>
        <time>2020-06-05T14:52:25.000Z</time>
      </trkpt>
      <trkpt lat="46.47884" lon="0.30172">
        <ele>97.599998474121</ele>
        <time>2020-06-05T14:52:26.000Z</time>
      </trkpt>
      <trkpt lat="46.47885" lon="0.30171">
        <ele>97.599998474121</ele>
        <time>2020-06-05T14:52:27.000Z</time>
      </trkpt>
      <trkpt lat="46.47886" lon="0.30169">
        <ele>97.800003051758</ele>
        <time>2020-06-05T14:52:28.000Z</time>
      </trkpt>
      <trkpt lat="46.47887" lon="0.30167">
        <ele>98</ele>
        <time>2020-06-05T14:52:29.000Z</time>
      </trkpt>
      <trkpt lat="46.47889" lon="0.30166">
        <ele>98.199996948242</ele>
        <time>2020-06-05T14:52:30.000Z</time>
      </trkpt>
      <trkpt lat="46.4789" lon="0.30165">
        <ele>98.199996948242</ele>
        <time>2020-06-05T14:52:31.000Z</time>
      </trkpt>
      <trkpt lat="46.47892" lon="0.30165">
        <ele>98.400001525879</ele>
        <time>2020-06-05T14:52:32.000Z</time>
      </trkpt>
      <trkpt lat="46.47894" lon="0.30166">
        <ele>98.400001525879</ele>
        <time>2020-06-05T14:52:33.000Z</time>
      </trkpt>
      <trkpt lat="46.47896" lon="0.30166">
        <ele>98.599998474121</ele>
        <time>2020-06-05T14:52:34.000Z</time>
      </trkpt>
      <trkpt lat="46.47898" lon="0.30167">
        <ele>99.199996948242</ele>
        <time>2020-06-05T14:52:35.000Z</time>
      </trkpt>
      <trkpt lat="46.47901" lon="0.30168">
        <ele>99.800003051758</ele>
        <time>2020-06-05T14:52:36.000Z</time>
      </trkpt>
      <trkpt lat="46.47903" lon="0.30167">
        <ele>100.40000152588</ele>
        <time>2020-06-05T14:52:37.000Z</time>
      </trkpt>
      <trkpt lat="46.47905" lon="0.30165">
        <ele>100.80000305176</ele>
        <time>2020-06-05T14:52:38.000Z</time>
      </trkpt>
      <trkpt lat="46.47908" lon="0.30162">
        <ele>101.19999694824</ele>
        <time>2020-06-05T14:52:39.000Z</time>
      </trkpt>
      <trkpt lat="46.47909" lon="0.3016">
        <ele>101.59999847412</ele>
        <time>2020-06-05T14:52:40.000Z</time>
      </trkpt>
      <trkpt lat="46.4791" lon="0.30156">
        <ele>102</ele>
        <time>2020-06-05T14:52:41.000Z</time>
      </trkpt>
      <trkpt lat="46.4791" lon="0.30153">
        <ele>102.59999847412</ele>
        <time>2020-06-05T14:52:42.000Z</time>
      </trkpt>
      <trkpt lat="46.4791" lon="0.30151">
        <ele>102.80000305176</ele>
        <time>2020-06-05T14:52:43.000Z</time>
      </trkpt>
      <trkpt lat="46.4791" lon="0.30148">
        <ele>103</ele>
        <time>2020-06-05T14:52:44.000Z</time>
      </trkpt>
      <trkpt lat="46.47909" lon="0.30145">
        <ele>103.40000152588</ele>
        <time>2020-06-05T14:52:45.000Z</time>
      </trkpt>
      <trkpt lat="46.47908" lon="0.30142">
        <ele>103.40000152588</ele>
        <time>2020-06-05T14:52:46.000Z</time>
      </trkpt>
      <trkpt lat="46.47908" lon="0.30139">
        <ele>103.59999847412</ele>
        <time>2020-06-05T14:52:47.000Z</time>
      </trkpt>
      <trkpt lat="46.47907" lon="0.30137">
        <ele>103.59999847412</ele>
        <time>2020-06-05T14:52:48.000Z</time>
      </trkpt>
      <trkpt lat="46.47907" lon="0.30133">
        <ele>104.40000152588</ele>
        <time>2020-06-05T14:52:49.000Z</time>
      </trkpt>
      <trkpt lat="46.47906" lon="0.3013">
        <ele>105</ele>
        <time>2020-06-05T14:52:50.000Z</time>
      </trkpt>
      <trkpt lat="46.47906" lon="0.30127">
        <ele>105.80000305176</ele>
        <time>2020-06-05T14:52:51.000Z</time>
      </trkpt>
      <trkpt lat="46.47906" lon="0.30124">
        <ele>106.19999694824</ele>
        <time>2020-06-05T14:52:52.000Z</time>
      </trkpt>
      <trkpt lat="46.47905" lon="0.30121">
        <ele>106.40000152588</ele>
        <time>2020-06-05T14:52:53.000Z</time>
      </trkpt>
      <trkpt lat="46.47905" lon="0.30117">
        <ele>107.19999694824</ele>
        <time>2020-06-05T14:52:54.000Z</time>
      </trkpt>
      <trkpt lat="46.47905" lon="0.30113">
        <ele>107.40000152588</ele>
        <time>2020-06-05T14:52:55.000Z</time>
      </trkpt>
      <trkpt lat="46.47906" lon="0.30111">
        <ele>108.19999694824</ele>
        <time>2020-06-05T14:52:56.000Z</time>
      </trkpt>
      <trkpt lat="46.47906" lon="0.30109">
        <ele>108.40000152588</ele>
        <time>2020-06-05T14:52:57.000Z</time>
      </trkpt>
      <trkpt lat="46.47906" lon="0.30106">
        <ele>108.80000305176</ele>
        <time>2020-06-05T14:52:58.000Z</time>
      </trkpt>
      <trkpt lat="46.47907" lon="0.30103">
        <ele>109</ele>
        <time>2020-06-05T14:52:59.000Z</time>
      </trkpt>
      <trkpt lat="46.47908" lon="0.301">
        <ele>109.19999694824</ele>
        <time>2020-06-05T14:53:00.000Z</time>
      </trkpt>
      <trkpt lat="46.47909" lon="0.30098">
        <ele>110</ele>
        <time>2020-06-05T14:53:01.000Z</time>
      </trkpt>
      <trkpt lat="46.47911" lon="0.30096">
        <ele>110.40000152588</ele>
        <time>2020-06-05T14:53:02.000Z</time>
      </trkpt>
      <trkpt lat="46.47914" lon="0.30095">
        <ele>111</ele>
        <time>2020-06-05T14:53:03.000Z</time>
      </trkpt>
      <trkpt lat="46.47916" lon="0.30096">
        <ele>111.40000152588</ele>
        <time>2020-06-05T14:53:04.000Z</time>
      </trkpt>
      <trkpt lat="46.47919" lon="0.30098">
        <ele>111.59999847412</ele>
        <time>2020-06-05T14:53:05.000Z</time>
      </trkpt>
      <trkpt lat="46.47921" lon="0.301">
        <ele>112.59999847412</ele>
        <time>2020-06-05T14:53:06.000Z</time>
      </trkpt>
      <trkpt lat="46.47924" lon="0.30102">
        <ele>113</ele>
        <time>2020-06-05T14:53:07.000Z</time>
      </trkpt>
      <trkpt lat="46.47926" lon="0.30103">
        <ele>113.40000152588</ele>
        <time>2020-06-05T14:53:08.000Z</time>
      </trkpt>
      <trkpt lat="46.47928" lon="0.30105">
        <ele>113.80000305176</ele>
        <time>2020-06-05T14:53:09.000Z</time>
      </trkpt>
      <trkpt lat="46.4793" lon="0.30106">
        <ele>114.19999694824</ele>
        <time>2020-06-05T14:53:10.000Z</time>
      </trkpt>
      <trkpt lat="46.47931" lon="0.30107">
        <ele>114.59999847412</ele>
        <time>2020-06-05T14:53:11.000Z</time>
      </trkpt>
      <trkpt lat="46.47931" lon="0.30107">
        <ele>114.80000305176</ele>
        <time>2020-06-05T14:53:12.000Z</time>
      </trkpt>
      <trkpt lat="46.47931" lon="0.30107">
        <ele>115.19999694824</ele>
        <time>2020-06-05T14:53:13.000Z</time>
      </trkpt>
      <trkpt lat="46.47931" lon="0.30107">
        <ele>115.19999694824</ele>
        <time>2020-06-05T14:53:14.000Z</time>
      </trkpt>
      <trkpt lat="46.47935" lon="0.3011">
        <ele>115.19999694824</ele>
        <time>2020-06-05T14:53:40.000Z</time>
      </trkpt>
      <trkpt lat="46.47938" lon="0.30112">
        <ele>115.19999694824</ele>
        <time>2020-06-05T14:53:41.000Z</time>
      </trkpt>
      <trkpt lat="46.47941" lon="0.30114">
        <ele>115.19999694824</ele>
        <time>2020-06-05T14:53:42.000Z</time>
      </trkpt>
      <trkpt lat="46.47945" lon="0.30115">
        <ele>115.40000152588</ele>
        <time>2020-06-05T14:53:43.000Z</time>
      </trkpt>
      <trkpt lat="46.47949" lon="0.30116">
        <ele>115.40000152588</ele>
        <time>2020-06-05T14:53:44.000Z</time>
      </trkpt>
      <trkpt lat="46.47958" lon="0.30119">
        <ele>115.59999847412</ele>
        <time>2020-06-05T14:53:46.000Z</time>
      </trkpt>
      <trkpt lat="46.47963" lon="0.3012">
        <ele>115.80000305176</ele>
        <time>2020-06-05T14:53:47.000Z</time>
      </trkpt>
      <trkpt lat="46.47971" lon="0.30123">
        <ele>116.40000152588</ele>
        <time>2020-06-05T14:53:49.000Z</time>
      </trkpt>
      <trkpt lat="46.47975" lon="0.30125">
        <ele>116.59999847412</ele>
        <time>2020-06-05T14:53:50.000Z</time>
      </trkpt>
      <trkpt lat="46.47979" lon="0.30126">
        <ele>116.80000305176</ele>
        <time>2020-06-05T14:53:51.000Z</time>
      </trkpt>
      <trkpt lat="46.47983" lon="0.30127">
        <ele>117</ele>
        <time>2020-06-05T14:53:52.000Z</time>
      </trkpt>
      <trkpt lat="46.47988" lon="0.30129">
        <ele>117.40000152588</ele>
        <time>2020-06-05T14:53:53.000Z</time>
      </trkpt>
      <trkpt lat="46.47992" lon="0.3013">
        <ele>117.40000152588</ele>
        <time>2020-06-05T14:53:54.000Z</time>
      </trkpt>
      <trkpt lat="46.47996" lon="0.30132">
        <ele>117.59999847412</ele>
        <time>2020-06-05T14:53:55.000Z</time>
      </trkpt>
      <trkpt lat="46.48001" lon="0.30132">
        <ele>117.80000305176</ele>
        <time>2020-06-05T14:53:56.000Z</time>
      </trkpt>
      <trkpt lat="46.48005" lon="0.30132">
        <ele>117.80000305176</ele>
        <time>2020-06-05T14:53:57.000Z</time>
      </trkpt>
      <trkpt lat="46.48009" lon="0.30129">
        <ele>117.80000305176</ele>
        <time>2020-06-05T14:53:58.000Z</time>
      </trkpt>
      <trkpt lat="46.48013" lon="0.30126">
        <ele>117.80000305176</ele>
        <time>2020-06-05T14:53:59.000Z</time>
      </trkpt>
      <trkpt lat="46.48018" lon="0.30122">
        <ele>118</ele>
        <time>2020-06-05T14:54:00.000Z</time>
      </trkpt>
      <trkpt lat="46.48022" lon="0.30118">
        <ele>118</ele>
        <time>2020-06-05T14:54:01.000Z</time>
      </trkpt>
      <trkpt lat="46.48026" lon="0.30114">
        <ele>118.19999694824</ele>
        <time>2020-06-05T14:54:02.000Z</time>
      </trkpt>
      <trkpt lat="46.4803" lon="0.3011">
        <ele>118.40000152588</ele>
        <time>2020-06-05T14:54:03.000Z</time>
      </trkpt>
      <trkpt lat="46.48033" lon="0.30106">
        <ele>118.40000152588</ele>
        <time>2020-06-05T14:54:04.000Z</time>
      </trkpt>
      <trkpt lat="46.48037" lon="0.30102">
        <ele>118.40000152588</ele>
        <time>2020-06-05T14:54:05.000Z</time>
      </trkpt>
      <trkpt lat="46.48041" lon="0.30098">
        <ele>118.59999847412</ele>
        <time>2020-06-05T14:54:06.000Z</time>
      </trkpt>
      <trkpt lat="46.48045" lon="0.30094">
        <ele>118.59999847412</ele>
        <time>2020-06-05T14:54:07.000Z</time>
      </trkpt>
      <trkpt lat="46.48053" lon="0.30087">
        <ele>118.80000305176</ele>
        <time>2020-06-05T14:54:09.000Z</time>
      </trkpt>
      <trkpt lat="46.4806" lon="0.30078">
        <ele>119</ele>
        <time>2020-06-05T14:54:11.000Z</time>
      </trkpt>
      <trkpt lat="46.48064" lon="0.30073">
        <ele>119.40000152588</ele>
        <time>2020-06-05T14:54:12.000Z</time>
      </trkpt>
      <trkpt lat="46.48069" lon="0.30068">
        <ele>119.59999847412</ele>
        <time>2020-06-05T14:54:13.000Z</time>
      </trkpt>
      <trkpt lat="46.48074" lon="0.30062">
        <ele>120</ele>
        <time>2020-06-05T14:54:14.000Z</time>
      </trkpt>
      <trkpt lat="46.48074" lon="0.30062">
        <ele>120.19999694824</ele>
        <time>2020-06-05T14:54:15.000Z</time>
      </trkpt>
      <trkpt lat="46.48082" lon="0.30053">
        <ele>120.40000152588</ele>
        <time>2020-06-05T14:54:16.000Z</time>
      </trkpt>
      <trkpt lat="46.48086" lon="0.30047">
        <ele>120.59999847412</ele>
        <time>2020-06-05T14:54:17.000Z</time>
      </trkpt>
      <trkpt lat="46.48089" lon="0.30042">
        <ele>120.59999847412</ele>
        <time>2020-06-05T14:54:18.000Z</time>
      </trkpt>
      <trkpt lat="46.48093" lon="0.30038">
        <ele>121</ele>
        <time>2020-06-05T14:54:19.000Z</time>
      </trkpt>
      <trkpt lat="46.48096" lon="0.30033">
        <ele>121</ele>
        <time>2020-06-05T14:54:20.000Z</time>
      </trkpt>
      <trkpt lat="46.481" lon="0.30027">
        <ele>121.19999694824</ele>
        <time>2020-06-05T14:54:21.000Z</time>
      </trkpt>
      <trkpt lat="46.48103" lon="0.30023">
        <ele>121.40000152588</ele>
        <time>2020-06-05T14:54:22.000Z</time>
      </trkpt>
      <trkpt lat="46.48107" lon="0.30019">
        <ele>121.40000152588</ele>
        <time>2020-06-05T14:54:23.000Z</time>
      </trkpt>
      <trkpt lat="46.4811" lon="0.30014">
        <ele>121.40000152588</ele>
        <time>2020-06-05T14:54:24.000Z</time>
      </trkpt>
      <trkpt lat="46.48113" lon="0.3001">
        <ele>121.59999847412</ele>
        <time>2020-06-05T14:54:25.000Z</time>
      </trkpt>
      <trkpt lat="46.48118" lon="0.30006">
        <ele>121.59999847412</ele>
        <time>2020-06-05T14:54:26.000Z</time>
      </trkpt>
      <trkpt lat="46.48122" lon="0.30002">
        <ele>121.59999847412</ele>
        <time>2020-06-05T14:54:27.000Z</time>
      </trkpt>
      <trkpt lat="46.48127" lon="0.29997">
        <ele>121.59999847412</ele>
        <time>2020-06-05T14:54:28.000Z</time>
      </trkpt>
      <trkpt lat="46.48132" lon="0.29991">
        <ele>121.59999847412</ele>
        <time>2020-06-05T14:54:29.000Z</time>
      </trkpt>
      <trkpt lat="46.48137" lon="0.29984">
        <ele>121.59999847412</ele>
        <time>2020-06-05T14:54:30.000Z</time>
      </trkpt>
      <trkpt lat="46.48148" lon="0.29973">
        <ele>121.59999847412</ele>
        <time>2020-06-05T14:54:32.000Z</time>
      </trkpt>
      <trkpt lat="46.48153" lon="0.29967">
        <ele>121.59999847412</ele>
        <time>2020-06-05T14:54:33.000Z</time>
      </trkpt>
      <trkpt lat="46.48158" lon="0.2996">
        <ele>121.59999847412</ele>
        <time>2020-06-05T14:54:34.000Z</time>
      </trkpt>
      <trkpt lat="46.48174" lon="0.29938">
        <ele>121.19999694824</ele>
        <time>2020-06-05T14:54:37.000Z</time>
      </trkpt>
      <trkpt lat="46.48183" lon="0.2993">
        <ele>121</ele>
        <time>2020-06-05T14:54:38.000Z</time>
      </trkpt>
      <trkpt lat="46.48187" lon="0.29923">
        <ele>120.80000305176</ele>
        <time>2020-06-05T14:54:39.000Z</time>
      </trkpt>
      <trkpt lat="46.48194" lon="0.29914">
        <ele>120.59999847412</ele>
        <time>2020-06-05T14:54:40.000Z</time>
      </trkpt>
      <trkpt lat="46.48201" lon="0.29906">
        <ele>120.19999694824</ele>
        <time>2020-06-05T14:54:41.000Z</time>
      </trkpt>
      <trkpt lat="46.48205" lon="0.29898">
        <ele>120</ele>
        <time>2020-06-05T14:54:42.000Z</time>
      </trkpt>
      <trkpt lat="46.4821" lon="0.2989">
        <ele>119.59999847412</ele>
        <time>2020-06-05T14:54:43.000Z</time>
      </trkpt>
      <trkpt lat="46.48216" lon="0.29881">
        <ele>119.19999694824</ele>
        <time>2020-06-05T14:54:44.000Z</time>
      </trkpt>
      <trkpt lat="46.48221" lon="0.29873">
        <ele>118.59999847412</ele>
        <time>2020-06-05T14:54:45.000Z</time>
      </trkpt>
      <trkpt lat="46.48221" lon="0.29873">
        <ele>118.19999694824</ele>
        <time>2020-06-05T14:54:46.000Z</time>
      </trkpt>
      <trkpt lat="46.48232" lon="0.29857">
        <ele>117.59999847412</ele>
        <time>2020-06-05T14:54:47.000Z</time>
      </trkpt>
      <trkpt lat="46.48236" lon="0.29847">
        <ele>117.19999694824</ele>
        <time>2020-06-05T14:54:48.000Z</time>
      </trkpt>
      <trkpt lat="46.48242" lon="0.29835">
        <ele>117</ele>
        <time>2020-06-05T14:54:49.000Z</time>
      </trkpt>
      <trkpt lat="46.48245" lon="0.29825">
        <ele>116.59999847412</ele>
        <time>2020-06-05T14:54:50.000Z</time>
      </trkpt>
      <trkpt lat="46.48248" lon="0.29815">
        <ele>116.40000152588</ele>
        <time>2020-06-05T14:54:51.000Z</time>
      </trkpt>
      <trkpt lat="46.48251" lon="0.29805">
        <ele>116</ele>
        <time>2020-06-05T14:54:52.000Z</time>
      </trkpt>
      <trkpt lat="46.48254" lon="0.29795">
        <ele>115.80000305176</ele>
        <time>2020-06-05T14:54:53.000Z</time>
      </trkpt>
      <trkpt lat="46.48258" lon="0.29785">
        <ele>115.40000152588</ele>
        <time>2020-06-05T14:54:54.000Z</time>
      </trkpt>
      <trkpt lat="46.48263" lon="0.29773">
        <ele>115.19999694824</ele>
        <time>2020-06-05T14:54:55.000Z</time>
      </trkpt>
      <trkpt lat="46.48269" lon="0.29761">
        <ele>115</ele>
        <time>2020-06-05T14:54:56.000Z</time>
      </trkpt>
      <trkpt lat="46.48272" lon="0.29753">
        <ele>115</ele>
        <time>2020-06-05T14:54:57.000Z</time>
      </trkpt>
      <trkpt lat="46.48283" lon="0.2973">
        <ele>115</ele>
        <time>2020-06-05T14:55:00.000Z</time>
      </trkpt>
      <trkpt lat="46.48286" lon="0.29724">
        <ele>115</ele>
        <time>2020-06-05T14:55:01.000Z</time>
      </trkpt>
      <trkpt lat="46.4829" lon="0.29718">
        <ele>114.80000305176</ele>
        <time>2020-06-05T14:55:02.000Z</time>
      </trkpt>
      <trkpt lat="46.48294" lon="0.29713">
        <ele>114.80000305176</ele>
        <time>2020-06-05T14:55:03.000Z</time>
      </trkpt>
      <trkpt lat="46.48297" lon="0.29708">
        <ele>114.80000305176</ele>
        <time>2020-06-05T14:55:04.000Z</time>
      </trkpt>
      <trkpt lat="46.483" lon="0.29704">
        <ele>114.80000305176</ele>
        <time>2020-06-05T14:55:05.000Z</time>
      </trkpt>
      <trkpt lat="46.48302" lon="0.29702">
        <ele>114.59999847412</ele>
        <time>2020-06-05T14:55:06.000Z</time>
      </trkpt>
      <trkpt lat="46.48303" lon="0.29701">
        <ele>114.59999847412</ele>
        <time>2020-06-05T14:55:07.000Z</time>
      </trkpt>
      <trkpt lat="46.48303" lon="0.297">
        <ele>114.59999847412</ele>
        <time>2020-06-05T14:55:08.000Z</time>
      </trkpt>
      <trkpt lat="46.48303" lon="0.297">
        <ele>114.59999847412</ele>
        <time>2020-06-05T14:55:09.000Z</time>
      </trkpt>
      <trkpt lat="46.4831" lon="0.29693">
        <ele>114.19999694824</ele>
        <time>2020-06-05T14:55:17.000Z</time>
      </trkpt>
      <trkpt lat="46.48311" lon="0.29692">
        <ele>114.19999694824</ele>
        <time>2020-06-05T14:55:18.000Z</time>
      </trkpt>
      <trkpt lat="46.48311" lon="0.29691">
        <ele>114</ele>
        <time>2020-06-05T14:55:19.000Z</time>
      </trkpt>
      <trkpt lat="46.48311" lon="0.29691">
        <ele>113.80000305176</ele>
        <time>2020-06-05T14:55:20.000Z</time>
      </trkpt>
      <trkpt lat="46.48311" lon="0.29691">
        <ele>113.59999847412</ele>
        <time>2020-06-05T14:55:21.000Z</time>
      </trkpt>
      <trkpt lat="46.48314" lon="0.29688">
        <ele>113</ele>
        <time>2020-06-05T14:55:59.000Z</time>
      </trkpt>
      <trkpt lat="46.48317" lon="0.29684">
        <ele>113</ele>
        <time>2020-06-05T14:56:00.000Z</time>
      </trkpt>
      <trkpt lat="46.48321" lon="0.29681">
        <ele>113</ele>
        <time>2020-06-05T14:56:01.000Z</time>
      </trkpt>
      <trkpt lat="46.4833" lon="0.29671">
        <ele>112.59999847412</ele>
        <time>2020-06-05T14:56:04.000Z</time>
      </trkpt>
      <trkpt lat="46.48332" lon="0.29667">
        <ele>112</ele>
        <time>2020-06-05T14:56:05.000Z</time>
      </trkpt>
      <trkpt lat="46.48334" lon="0.29664">
        <ele>111.80000305176</ele>
        <time>2020-06-05T14:56:06.000Z</time>
      </trkpt>
      <trkpt lat="46.48335" lon="0.2966">
        <ele>111.40000152588</ele>
        <time>2020-06-05T14:56:07.000Z</time>
      </trkpt>
      <trkpt lat="46.48335" lon="0.29657">
        <ele>111</ele>
        <time>2020-06-05T14:56:08.000Z</time>
      </trkpt>
      <trkpt lat="46.48334" lon="0.29655">
        <ele>110.59999847412</ele>
        <time>2020-06-05T14:56:09.000Z</time>
      </trkpt>
      <trkpt lat="46.48334" lon="0.29653">
        <ele>110</ele>
        <time>2020-06-05T14:56:10.000Z</time>
      </trkpt>
      <trkpt lat="46.48334" lon="0.29652">
        <ele>109.59999847412</ele>
        <time>2020-06-05T14:56:11.000Z</time>
      </trkpt>
      <trkpt lat="46.48334" lon="0.29652">
        <ele>108.80000305176</ele>
        <time>2020-06-05T14:56:12.000Z</time>
      </trkpt>
      <trkpt lat="46.48334" lon="0.29651">
        <ele>108</ele>
        <time>2020-06-05T14:56:13.000Z</time>
      </trkpt>
      <trkpt lat="46.48322" lon="0.29626">
        <ele>105.40000152588</ele>
        <time>2020-06-05T14:57:23.000Z</time>
      </trkpt>
      <trkpt lat="46.48317" lon="0.29619">
        <ele>104.80000305176</ele>
        <time>2020-06-05T14:57:24.000Z</time>
      </trkpt>
      <trkpt lat="46.48307" lon="0.29607">
        <ele>104.19999694824</ele>
        <time>2020-06-05T14:57:26.000Z</time>
      </trkpt>
      <trkpt lat="46.48301" lon="0.29601">
        <ele>104.19999694824</ele>
        <time>2020-06-05T14:57:27.000Z</time>
      </trkpt>
      <trkpt lat="46.48292" lon="0.2959">
        <ele>104</ele>
        <time>2020-06-05T14:57:29.000Z</time>
      </trkpt>
      <trkpt lat="46.48288" lon="0.29585">
        <ele>103.80000305176</ele>
        <time>2020-06-05T14:57:30.000Z</time>
      </trkpt>
      <trkpt lat="46.48285" lon="0.29578">
        <ele>103.80000305176</ele>
        <time>2020-06-05T14:57:31.000Z</time>
      </trkpt>
      <trkpt lat="46.48282" lon="0.2957">
        <ele>103.59999847412</ele>
        <time>2020-06-05T14:57:32.000Z</time>
      </trkpt>
      <trkpt lat="46.48282" lon="0.29561">
        <ele>103.40000152588</ele>
        <time>2020-06-05T14:57:33.000Z</time>
      </trkpt>
      <trkpt lat="46.48284" lon="0.2955">
        <ele>103.40000152588</ele>
        <time>2020-06-05T14:57:34.000Z</time>
      </trkpt>
      <trkpt lat="46.48285" lon="0.29543">
        <ele>103.19999694824</ele>
        <time>2020-06-05T14:57:35.000Z</time>
      </trkpt>
      <trkpt lat="46.48289" lon="0.29533">
        <ele>103.19999694824</ele>
        <time>2020-06-05T14:57:36.000Z</time>
      </trkpt>
      <trkpt lat="46.48293" lon="0.29521">
        <ele>103.19999694824</ele>
        <time>2020-06-05T14:57:37.000Z</time>
      </trkpt>
      <trkpt lat="46.48296" lon="0.29514">
        <ele>103</ele>
        <time>2020-06-05T14:57:38.000Z</time>
      </trkpt>
      <trkpt lat="46.48301" lon="0.29506">
        <ele>103</ele>
        <time>2020-06-05T14:57:39.000Z</time>
      </trkpt>
      <trkpt lat="46.483" lon="0.29497">
        <ele>103</ele>
        <time>2020-06-05T14:57:40.000Z</time>
      </trkpt>
      <trkpt lat="46.48302" lon="0.29489">
        <ele>103</ele>
        <time>2020-06-05T14:57:41.000Z</time>
      </trkpt>
      <trkpt lat="46.48304" lon="0.29478">
        <ele>103</ele>
        <time>2020-06-05T14:57:42.000Z</time>
      </trkpt>
      <trkpt lat="46.48303" lon="0.29469">
        <ele>103</ele>
        <time>2020-06-05T14:57:43.000Z</time>
      </trkpt>
      <trkpt lat="46.48302" lon="0.29462">
        <ele>103</ele>
        <time>2020-06-05T14:57:44.000Z</time>
      </trkpt>
      <trkpt lat="46.48299" lon="0.29456">
        <ele>103.19999694824</ele>
        <time>2020-06-05T14:57:45.000Z</time>
      </trkpt>
      <trkpt lat="46.48293" lon="0.29449">
        <ele>103.19999694824</ele>
        <time>2020-06-05T14:57:46.000Z</time>
      </trkpt>
      <trkpt lat="46.48287" lon="0.29445">
        <ele>103.19999694824</ele>
        <time>2020-06-05T14:57:47.000Z</time>
      </trkpt>
      <trkpt lat="46.48281" lon="0.2944">
        <ele>103.19999694824</ele>
        <time>2020-06-05T14:57:48.000Z</time>
      </trkpt>
      <trkpt lat="46.48274" lon="0.29438">
        <ele>103.19999694824</ele>
        <time>2020-06-05T14:57:49.000Z</time>
      </trkpt>
      <trkpt lat="46.48269" lon="0.29435">
        <ele>103.19999694824</ele>
        <time>2020-06-05T14:57:50.000Z</time>
      </trkpt>
      <trkpt lat="46.48269" lon="0.29435">
        <ele>103</ele>
        <time>2020-06-05T14:57:51.000Z</time>
      </trkpt>
      <trkpt lat="46.48258" lon="0.29426">
        <ele>103</ele>
        <time>2020-06-05T14:57:52.000Z</time>
      </trkpt>
      <trkpt lat="46.48258" lon="0.29426">
        <ele>103</ele>
        <time>2020-06-05T14:57:53.000Z</time>
      </trkpt>
      <trkpt lat="46.48245" lon="0.29418">
        <ele>102.80000305176</ele>
        <time>2020-06-05T14:57:54.000Z</time>
      </trkpt>
      <trkpt lat="46.48231" lon="0.29416">
        <ele>102.19999694824</ele>
        <time>2020-06-05T14:57:56.000Z</time>
      </trkpt>
      <trkpt lat="46.48224" lon="0.29415">
        <ele>102</ele>
        <time>2020-06-05T14:57:57.000Z</time>
      </trkpt>
      <trkpt lat="46.48217" lon="0.29414">
        <ele>101.80000305176</ele>
        <time>2020-06-05T14:57:58.000Z</time>
      </trkpt>
      <trkpt lat="46.48201" lon="0.29412">
        <ele>101.80000305176</ele>
        <time>2020-06-05T14:58:00.000Z</time>
      </trkpt>
      <trkpt lat="46.48195" lon="0.29411">
        <ele>101.80000305176</ele>
        <time>2020-06-05T14:58:01.000Z</time>
      </trkpt>
      <trkpt lat="46.48188" lon="0.29409">
        <ele>101.80000305176</ele>
        <time>2020-06-05T14:58:02.000Z</time>
      </trkpt>
      <trkpt lat="46.48183" lon="0.2941">
        <ele>101.80000305176</ele>
        <time>2020-06-05T14:58:03.000Z</time>
      </trkpt>
      <trkpt lat="46.48177" lon="0.2941">
        <ele>101.80000305176</ele>
        <time>2020-06-05T14:58:04.000Z</time>
      </trkpt>
      <trkpt lat="46.48177" lon="0.2941">
        <ele>101.80000305176</ele>
        <time>2020-06-05T14:58:05.000Z</time>
      </trkpt>
      <trkpt lat="46.48163" lon="0.29409">
        <ele>101.80000305176</ele>
        <time>2020-06-05T14:58:06.000Z</time>
      </trkpt>
      <trkpt lat="46.48156" lon="0.29408">
        <ele>101.80000305176</ele>
        <time>2020-06-05T14:58:07.000Z</time>
      </trkpt>
      <trkpt lat="46.4815" lon="0.29407">
        <ele>101.80000305176</ele>
        <time>2020-06-05T14:58:08.000Z</time>
      </trkpt>
      <trkpt lat="46.48142" lon="0.29409">
        <ele>101.80000305176</ele>
        <time>2020-06-05T14:58:09.000Z</time>
      </trkpt>
      <trkpt lat="46.48135" lon="0.29413">
        <ele>101.80000305176</ele>
        <time>2020-06-05T14:58:10.000Z</time>
      </trkpt>
      <trkpt lat="46.48128" lon="0.29416">
        <ele>101.59999847412</ele>
        <time>2020-06-05T14:58:11.000Z</time>
      </trkpt>
      <trkpt lat="46.4812" lon="0.29418">
        <ele>101.40000152588</ele>
        <time>2020-06-05T14:58:12.000Z</time>
      </trkpt>
      <trkpt lat="46.48107" lon="0.29422">
        <ele>101.40000152588</ele>
        <time>2020-06-05T14:58:13.000Z</time>
      </trkpt>
      <trkpt lat="46.481" lon="0.29428">
        <ele>101.19999694824</ele>
        <time>2020-06-05T14:58:14.000Z</time>
      </trkpt>
      <trkpt lat="46.48096" lon="0.29433">
        <ele>101</ele>
        <time>2020-06-05T14:58:15.000Z</time>
      </trkpt>
      <trkpt lat="46.48091" lon="0.29437">
        <ele>101</ele>
        <time>2020-06-05T14:58:16.000Z</time>
      </trkpt>
      <trkpt lat="46.48086" lon="0.29445">
        <ele>100.80000305176</ele>
        <time>2020-06-05T14:58:17.000Z</time>
      </trkpt>
      <trkpt lat="46.48081" lon="0.29452">
        <ele>100.59999847412</ele>
        <time>2020-06-05T14:58:18.000Z</time>
      </trkpt>
      <trkpt lat="46.48077" lon="0.29459">
        <ele>100.40000152588</ele>
        <time>2020-06-05T14:58:19.000Z</time>
      </trkpt>
      <trkpt lat="46.48074" lon="0.29466">
        <ele>100.19999694824</ele>
        <time>2020-06-05T14:58:20.000Z</time>
      </trkpt>
      <trkpt lat="46.4807" lon="0.29479">
        <ele>99.800003051758</ele>
        <time>2020-06-05T14:58:22.000Z</time>
      </trkpt>
      <trkpt lat="46.48067" lon="0.2949">
        <ele>99.199996948242</ele>
        <time>2020-06-05T14:58:23.000Z</time>
      </trkpt>
      <trkpt lat="46.48064" lon="0.29503">
        <ele>99.199996948242</ele>
        <time>2020-06-05T14:58:24.000Z</time>
      </trkpt>
      <trkpt lat="46.48055" lon="0.29532">
        <ele>98.400001525879</ele>
        <time>2020-06-05T14:58:27.000Z</time>
      </trkpt>
      <trkpt lat="46.48052" lon="0.29541">
        <ele>98.400001525879</ele>
        <time>2020-06-05T14:58:28.000Z</time>
      </trkpt>
      <trkpt lat="46.48049" lon="0.29552">
        <ele>98</ele>
        <time>2020-06-05T14:58:30.000Z</time>
      </trkpt>
      <trkpt lat="46.48046" lon="0.29564">
        <ele>97.800003051758</ele>
        <time>2020-06-05T14:58:31.000Z</time>
      </trkpt>
      <trkpt lat="46.48042" lon="0.29573">
        <ele>97.599998474121</ele>
        <time>2020-06-05T14:58:32.000Z</time>
      </trkpt>
      <trkpt lat="46.48038" lon="0.29582">
        <ele>97.599998474121</ele>
        <time>2020-06-05T14:58:33.000Z</time>
      </trkpt>
      <trkpt lat="46.48034" lon="0.29591">
        <ele>97.599998474121</ele>
        <time>2020-06-05T14:58:34.000Z</time>
      </trkpt>
      <trkpt lat="46.48032" lon="0.29596">
        <ele>97.599998474121</ele>
        <time>2020-06-05T14:58:35.000Z</time>
      </trkpt>
      <trkpt lat="46.48029" lon="0.29603">
        <ele>97.599998474121</ele>
        <time>2020-06-05T14:58:36.000Z</time>
      </trkpt>
      <trkpt lat="46.48027" lon="0.2961">
        <ele>97.599998474121</ele>
        <time>2020-06-05T14:58:37.000Z</time>
      </trkpt>
      <trkpt lat="46.48025" lon="0.29616">
        <ele>97.599998474121</ele>
        <time>2020-06-05T14:58:38.000Z</time>
      </trkpt>
      <trkpt lat="46.48022" lon="0.29623">
        <ele>97.599998474121</ele>
        <time>2020-06-05T14:58:39.000Z</time>
      </trkpt>
      <trkpt lat="46.48021" lon="0.29631">
        <ele>97.599998474121</ele>
        <time>2020-06-05T14:58:40.000Z</time>
      </trkpt>
      <trkpt lat="46.48019" lon="0.29639">
        <ele>97.599998474121</ele>
        <time>2020-06-05T14:58:41.000Z</time>
      </trkpt>
      <trkpt lat="46.48017" lon="0.29649">
        <ele>97.800003051758</ele>
        <time>2020-06-05T14:58:42.000Z</time>
      </trkpt>
      <trkpt lat="46.48014" lon="0.29659">
        <ele>97.800003051758</ele>
        <time>2020-06-05T14:58:43.000Z</time>
      </trkpt>
      <trkpt lat="46.48009" lon="0.29668">
        <ele>97.800003051758</ele>
        <time>2020-06-05T14:58:44.000Z</time>
      </trkpt>
      <trkpt lat="46.48006" lon="0.29677">
        <ele>97.800003051758</ele>
        <time>2020-06-05T14:58:45.000Z</time>
      </trkpt>
      <trkpt lat="46.48003" lon="0.29684">
        <ele>97.800003051758</ele>
        <time>2020-06-05T14:58:46.000Z</time>
      </trkpt>
      <trkpt lat="46.47993" lon="0.29694">
        <ele>97.800003051758</ele>
        <time>2020-06-05T14:58:48.000Z</time>
      </trkpt>
      <trkpt lat="46.47985" lon="0.29695">
        <ele>97.800003051758</ele>
        <time>2020-06-05T14:58:49.000Z</time>
      </trkpt>
      <trkpt lat="46.47979" lon="0.29694">
        <ele>97.599998474121</ele>
        <time>2020-06-05T14:58:50.000Z</time>
      </trkpt>
      <trkpt lat="46.47979" lon="0.29694">
        <ele>97.599998474121</ele>
        <time>2020-06-05T14:58:51.000Z</time>
      </trkpt>
      <trkpt lat="46.47966" lon="0.29692">
        <ele>97.599998474121</ele>
        <time>2020-06-05T14:58:52.000Z</time>
      </trkpt>
      <trkpt lat="46.47966" lon="0.29692">
        <ele>97.400001525879</ele>
        <time>2020-06-05T14:58:53.000Z</time>
      </trkpt>
      <trkpt lat="46.47956" lon="0.29688">
        <ele>97.199996948242</ele>
        <time>2020-06-05T14:58:54.000Z</time>
      </trkpt>
      <trkpt lat="46.47952" lon="0.29685">
        <ele>97.199996948242</ele>
        <time>2020-06-05T14:58:55.000Z</time>
      </trkpt>
      <trkpt lat="46.47947" lon="0.29681">
        <ele>97.199996948242</ele>
        <time>2020-06-05T14:58:56.000Z</time>
      </trkpt>
      <trkpt lat="46.47943" lon="0.29676">
        <ele>97.400001525879</ele>
        <time>2020-06-05T14:58:57.000Z</time>
      </trkpt>
      <trkpt lat="46.47943" lon="0.29676">
        <ele>97.400001525879</ele>
        <time>2020-06-05T14:58:58.000Z</time>
      </trkpt>
      <trkpt lat="46.47938" lon="0.29664">
        <ele>97.199996948242</ele>
        <time>2020-06-05T14:58:59.000Z</time>
      </trkpt>
      <trkpt lat="46.47936" lon="0.29656">
        <ele>97.199996948242</ele>
        <time>2020-06-05T14:59:00.000Z</time>
      </trkpt>
      <trkpt lat="46.47934" lon="0.29648">
        <ele>97.400001525879</ele>
        <time>2020-06-05T14:59:01.000Z</time>
      </trkpt>
      <trkpt lat="46.47931" lon="0.2964">
        <ele>97.400001525879</ele>
        <time>2020-06-05T14:59:02.000Z</time>
      </trkpt>
      <trkpt lat="46.47929" lon="0.29632">
        <ele>97.599998474121</ele>
        <time>2020-06-05T14:59:03.000Z</time>
      </trkpt>
      <trkpt lat="46.47926" lon="0.29624">
        <ele>97.800003051758</ele>
        <time>2020-06-05T14:59:04.000Z</time>
      </trkpt>
      <trkpt lat="46.47925" lon="0.29616">
        <ele>97.800003051758</ele>
        <time>2020-06-05T14:59:05.000Z</time>
      </trkpt>
      <trkpt lat="46.47924" lon="0.29608">
        <ele>98</ele>
        <time>2020-06-05T14:59:06.000Z</time>
      </trkpt>
      <trkpt lat="46.47922" lon="0.29601">
        <ele>98</ele>
        <time>2020-06-05T14:59:07.000Z</time>
      </trkpt>
      <trkpt lat="46.47921" lon="0.29595">
        <ele>98</ele>
        <time>2020-06-05T14:59:08.000Z</time>
      </trkpt>
      <trkpt lat="46.47919" lon="0.29588">
        <ele>98.199996948242</ele>
        <time>2020-06-05T14:59:09.000Z</time>
      </trkpt>
      <trkpt lat="46.47918" lon="0.29577">
        <ele>98.400001525879</ele>
        <time>2020-06-05T14:59:10.000Z</time>
      </trkpt>
      <trkpt lat="46.47915" lon="0.29565">
        <ele>99.199996948242</ele>
        <time>2020-06-05T14:59:11.000Z</time>
      </trkpt>
      <trkpt lat="46.47914" lon="0.29554">
        <ele>99.599998474121</ele>
        <time>2020-06-05T14:59:12.000Z</time>
      </trkpt>
      <trkpt lat="46.47912" lon="0.29544">
        <ele>100.19999694824</ele>
        <time>2020-06-05T14:59:13.000Z</time>
      </trkpt>
      <trkpt lat="46.47911" lon="0.29538">
        <ele>100.40000152588</ele>
        <time>2020-06-05T14:59:14.000Z</time>
      </trkpt>
      <trkpt lat="46.47909" lon="0.2953">
        <ele>100.80000305176</ele>
        <time>2020-06-05T14:59:15.000Z</time>
      </trkpt>
      <trkpt lat="46.47907" lon="0.29519">
        <ele>100.80000305176</ele>
        <time>2020-06-05T14:59:16.000Z</time>
      </trkpt>
      <trkpt lat="46.47905" lon="0.29511">
        <ele>101.19999694824</ele>
        <time>2020-06-05T14:59:17.000Z</time>
      </trkpt>
      <trkpt lat="46.47903" lon="0.29504">
        <ele>101.40000152588</ele>
        <time>2020-06-05T14:59:18.000Z</time>
      </trkpt>
      <trkpt lat="46.47901" lon="0.29496">
        <ele>101.59999847412</ele>
        <time>2020-06-05T14:59:19.000Z</time>
      </trkpt>
      <trkpt lat="46.47898" lon="0.29489">
        <ele>102</ele>
        <time>2020-06-05T14:59:20.000Z</time>
      </trkpt>
      <trkpt lat="46.47896" lon="0.29482">
        <ele>102</ele>
        <time>2020-06-05T14:59:21.000Z</time>
      </trkpt>
      <trkpt lat="46.47894" lon="0.29467">
        <ele>102.19999694824</ele>
        <time>2020-06-05T14:59:22.000Z</time>
      </trkpt>
      <trkpt lat="46.47891" lon="0.29457">
        <ele>102.19999694824</ele>
        <time>2020-06-05T14:59:23.000Z</time>
      </trkpt>
      <trkpt lat="46.47888" lon="0.29448">
        <ele>102.19999694824</ele>
        <time>2020-06-05T14:59:24.000Z</time>
      </trkpt>
      <trkpt lat="46.47887" lon="0.2944">
        <ele>102.19999694824</ele>
        <time>2020-06-05T14:59:25.000Z</time>
      </trkpt>
      <trkpt lat="46.47885" lon="0.29432">
        <ele>102.19999694824</ele>
        <time>2020-06-05T14:59:26.000Z</time>
      </trkpt>
      <trkpt lat="46.47884" lon="0.29423">
        <ele>102</ele>
        <time>2020-06-05T14:59:27.000Z</time>
      </trkpt>
      <trkpt lat="46.47883" lon="0.29411">
        <ele>102</ele>
        <time>2020-06-05T14:59:28.000Z</time>
      </trkpt>
      <trkpt lat="46.47883" lon="0.29401">
        <ele>101.80000305176</ele>
        <time>2020-06-05T14:59:29.000Z</time>
      </trkpt>
      <trkpt lat="46.47881" lon="0.29384">
        <ele>101.59999847412</ele>
        <time>2020-06-05T14:59:31.000Z</time>
      </trkpt>
      <trkpt lat="46.47875" lon="0.29367">
        <ele>101.59999847412</ele>
        <time>2020-06-05T14:59:33.000Z</time>
      </trkpt>
      <trkpt lat="46.47873" lon="0.29357">
        <ele>101.40000152588</ele>
        <time>2020-06-05T14:59:34.000Z</time>
      </trkpt>
      <trkpt lat="46.47873" lon="0.29348">
        <ele>101.59999847412</ele>
        <time>2020-06-05T14:59:35.000Z</time>
      </trkpt>
      <trkpt lat="46.4787" lon="0.29338">
        <ele>102</ele>
        <time>2020-06-05T14:59:36.000Z</time>
      </trkpt>
      <trkpt lat="46.47869" lon="0.29328">
        <ele>102.19999694824</ele>
        <time>2020-06-05T14:59:37.000Z</time>
      </trkpt>
      <trkpt lat="46.47868" lon="0.2932">
        <ele>102.40000152588</ele>
        <time>2020-06-05T14:59:38.000Z</time>
      </trkpt>
      <trkpt lat="46.47866" lon="0.29313">
        <ele>102.59999847412</ele>
        <time>2020-06-05T14:59:39.000Z</time>
      </trkpt>
      <trkpt lat="46.47864" lon="0.29306">
        <ele>102.80000305176</ele>
        <time>2020-06-05T14:59:40.000Z</time>
      </trkpt>
      <trkpt lat="46.47864" lon="0.293">
        <ele>102.59999847412</ele>
        <time>2020-06-05T14:59:41.000Z</time>
      </trkpt>
      <trkpt lat="46.47863" lon="0.29293">
        <ele>102.59999847412</ele>
        <time>2020-06-05T14:59:42.000Z</time>
      </trkpt>
      <trkpt lat="46.4786" lon="0.29286">
        <ele>103</ele>
        <time>2020-06-05T14:59:43.000Z</time>
      </trkpt>
      <trkpt lat="46.47858" lon="0.29278">
        <ele>103.19999694824</ele>
        <time>2020-06-05T14:59:44.000Z</time>
      </trkpt>
      <trkpt lat="46.47854" lon="0.29267">
        <ele>103.40000152588</ele>
        <time>2020-06-05T14:59:45.000Z</time>
      </trkpt>
      <trkpt lat="46.4785" lon="0.29257">
        <ele>103.59999847412</ele>
        <time>2020-06-05T14:59:46.000Z</time>
      </trkpt>
      <trkpt lat="46.47846" lon="0.29246">
        <ele>103.59999847412</ele>
        <time>2020-06-05T14:59:47.000Z</time>
      </trkpt>
      <trkpt lat="46.47841" lon="0.29234">
        <ele>103.80000305176</ele>
        <time>2020-06-05T14:59:48.000Z</time>
      </trkpt>
      <trkpt lat="46.47837" lon="0.29225">
        <ele>103.80000305176</ele>
        <time>2020-06-05T14:59:49.000Z</time>
      </trkpt>
      <trkpt lat="46.47834" lon="0.29219">
        <ele>104</ele>
        <time>2020-06-05T14:59:50.000Z</time>
      </trkpt>
      <trkpt lat="46.47831" lon="0.29213">
        <ele>104</ele>
        <time>2020-06-05T14:59:51.000Z</time>
      </trkpt>
      <trkpt lat="46.47829" lon="0.29208">
        <ele>104</ele>
        <time>2020-06-05T14:59:52.000Z</time>
      </trkpt>
      <trkpt lat="46.47826" lon="0.29201">
        <ele>104</ele>
        <time>2020-06-05T14:59:53.000Z</time>
      </trkpt>
      <trkpt lat="46.47823" lon="0.29195">
        <ele>104</ele>
        <time>2020-06-05T14:59:54.000Z</time>
      </trkpt>
      <trkpt lat="46.47819" lon="0.29189">
        <ele>104</ele>
        <time>2020-06-05T14:59:55.000Z</time>
      </trkpt>
      <trkpt lat="46.47814" lon="0.29182">
        <ele>104</ele>
        <time>2020-06-05T14:59:56.000Z</time>
      </trkpt>
      <trkpt lat="46.47808" lon="0.29176">
        <ele>104</ele>
        <time>2020-06-05T14:59:57.000Z</time>
      </trkpt>
      <trkpt lat="46.47797" lon="0.29164">
        <ele>103.80000305176</ele>
        <time>2020-06-05T14:59:59.000Z</time>
      </trkpt>
      <trkpt lat="46.47794" lon="0.29161">
        <ele>103.59999847412</ele>
        <time>2020-06-05T15:00:00.000Z</time>
      </trkpt>
      <trkpt lat="46.47788" lon="0.29159">
        <ele>103.40000152588</ele>
        <time>2020-06-05T15:00:02.000Z</time>
      </trkpt>
      <trkpt lat="46.47786" lon="0.29158">
        <ele>103.19999694824</ele>
        <time>2020-06-05T15:00:03.000Z</time>
      </trkpt>
      <trkpt lat="46.47784" lon="0.29155">
        <ele>103.19999694824</ele>
        <time>2020-06-05T15:00:04.000Z</time>
      </trkpt>
      <trkpt lat="46.47781" lon="0.29152">
        <ele>103</ele>
        <time>2020-06-05T15:00:05.000Z</time>
      </trkpt>
      <trkpt lat="46.47778" lon="0.2915">
        <ele>102.80000305176</ele>
        <time>2020-06-05T15:00:06.000Z</time>
      </trkpt>
      <trkpt lat="46.47773" lon="0.29148">
        <ele>102.59999847412</ele>
        <time>2020-06-05T15:00:07.000Z</time>
      </trkpt>
      <trkpt lat="46.47769" lon="0.29147">
        <ele>102.59999847412</ele>
        <time>2020-06-05T15:00:08.000Z</time>
      </trkpt>
      <trkpt lat="46.47751" lon="0.29144">
        <ele>102.19999694824</ele>
        <time>2020-06-05T15:00:12.000Z</time>
      </trkpt>
      <trkpt lat="46.47747" lon="0.29142">
        <ele>102.19999694824</ele>
        <time>2020-06-05T15:00:13.000Z</time>
      </trkpt>
      <trkpt lat="46.47745" lon="0.29142">
        <ele>102.19999694824</ele>
        <time>2020-06-05T15:00:14.000Z</time>
      </trkpt>
      <trkpt lat="46.47742" lon="0.29142">
        <ele>102.19999694824</ele>
        <time>2020-06-05T15:00:15.000Z</time>
      </trkpt>
      <trkpt lat="46.4774" lon="0.29142">
        <ele>102.40000152588</ele>
        <time>2020-06-05T15:00:16.000Z</time>
      </trkpt>
      <trkpt lat="46.4774" lon="0.29142">
        <ele>102.59999847412</ele>
        <time>2020-06-05T15:00:17.000Z</time>
      </trkpt>
      <trkpt lat="46.47736" lon="0.2914">
        <ele>102.59999847412</ele>
        <time>2020-06-05T15:00:18.000Z</time>
      </trkpt>
      <trkpt lat="46.47733" lon="0.29138">
        <ele>102.80000305176</ele>
        <time>2020-06-05T15:00:19.000Z</time>
      </trkpt>
      <trkpt lat="46.47731" lon="0.29136">
        <ele>102.80000305176</ele>
        <time>2020-06-05T15:00:20.000Z</time>
      </trkpt>
      <trkpt lat="46.47729" lon="0.29133">
        <ele>103.40000152588</ele>
        <time>2020-06-05T15:00:21.000Z</time>
      </trkpt>
      <trkpt lat="46.47727" lon="0.29128">
        <ele>103.59999847412</ele>
        <time>2020-06-05T15:00:22.000Z</time>
      </trkpt>
      <trkpt lat="46.47725" lon="0.29123">
        <ele>104</ele>
        <time>2020-06-05T15:00:23.000Z</time>
      </trkpt>
      <trkpt lat="46.47724" lon="0.29117">
        <ele>104.59999847412</ele>
        <time>2020-06-05T15:00:24.000Z</time>
      </trkpt>
      <trkpt lat="46.47722" lon="0.29111">
        <ele>104.59999847412</ele>
        <time>2020-06-05T15:00:25.000Z</time>
      </trkpt>
      <trkpt lat="46.47721" lon="0.29105">
        <ele>104.80000305176</ele>
        <time>2020-06-05T15:00:26.000Z</time>
      </trkpt>
      <trkpt lat="46.47719" lon="0.29098">
        <ele>104.80000305176</ele>
        <time>2020-06-05T15:00:27.000Z</time>
      </trkpt>
      <trkpt lat="46.47718" lon="0.29092">
        <ele>104.80000305176</ele>
        <time>2020-06-05T15:00:28.000Z</time>
      </trkpt>
      <trkpt lat="46.47716" lon="0.29085">
        <ele>104.80000305176</ele>
        <time>2020-06-05T15:00:29.000Z</time>
      </trkpt>
      <trkpt lat="46.47715" lon="0.29078">
        <ele>105</ele>
        <time>2020-06-05T15:00:30.000Z</time>
      </trkpt>
      <trkpt lat="46.47714" lon="0.29071">
        <ele>105</ele>
        <time>2020-06-05T15:00:31.000Z</time>
      </trkpt>
      <trkpt lat="46.47714" lon="0.29063">
        <ele>105</ele>
        <time>2020-06-05T15:00:32.000Z</time>
      </trkpt>
      <trkpt lat="46.47714" lon="0.29048">
        <ele>105</ele>
        <time>2020-06-05T15:00:34.000Z</time>
      </trkpt>
      <trkpt lat="46.47716" lon="0.29041">
        <ele>104.59999847412</ele>
        <time>2020-06-05T15:00:35.000Z</time>
      </trkpt>
      <trkpt lat="46.47718" lon="0.29034">
        <ele>104.59999847412</ele>
        <time>2020-06-05T15:00:36.000Z</time>
      </trkpt>
      <trkpt lat="46.47721" lon="0.29027">
        <ele>104.80000305176</ele>
        <time>2020-06-05T15:00:37.000Z</time>
      </trkpt>
      <trkpt lat="46.47724" lon="0.2902">
        <ele>104.59999847412</ele>
        <time>2020-06-05T15:00:38.000Z</time>
      </trkpt>
      <trkpt lat="46.47735" lon="0.29003">
        <ele>104.80000305176</ele>
        <time>2020-06-05T15:00:41.000Z</time>
      </trkpt>
      <trkpt lat="46.47751" lon="0.28983">
        <ele>105.19999694824</ele>
        <time>2020-06-05T15:00:45.000Z</time>
      </trkpt>
      <trkpt lat="46.47756" lon="0.28979">
        <ele>105.19999694824</ele>
        <time>2020-06-05T15:00:46.000Z</time>
      </trkpt>
      <trkpt lat="46.4776" lon="0.28976">
        <ele>105.40000152588</ele>
        <time>2020-06-05T15:00:47.000Z</time>
      </trkpt>
      <trkpt lat="46.47765" lon="0.28972">
        <ele>105.59999847412</ele>
        <time>2020-06-05T15:00:48.000Z</time>
      </trkpt>
      <trkpt lat="46.4777" lon="0.28969">
        <ele>105.80000305176</ele>
        <time>2020-06-05T15:00:49.000Z</time>
      </trkpt>
      <trkpt lat="46.47775" lon="0.28966">
        <ele>106.40000152588</ele>
        <time>2020-06-05T15:00:50.000Z</time>
      </trkpt>
      <trkpt lat="46.47779" lon="0.28962">
        <ele>106.59999847412</ele>
        <time>2020-06-05T15:00:51.000Z</time>
      </trkpt>
      <trkpt lat="46.47783" lon="0.28957">
        <ele>106.80000305176</ele>
        <time>2020-06-05T15:00:52.000Z</time>
      </trkpt>
      <trkpt lat="46.47787" lon="0.28951">
        <ele>107</ele>
        <time>2020-06-05T15:00:53.000Z</time>
      </trkpt>
      <trkpt lat="46.47787" lon="0.28951">
        <ele>107.19999694824</ele>
        <time>2020-06-05T15:00:54.000Z</time>
      </trkpt>
      <trkpt lat="46.47795" lon="0.2894">
        <ele>107.19999694824</ele>
        <time>2020-06-05T15:00:55.000Z</time>
      </trkpt>
      <trkpt lat="46.47799" lon="0.28934">
        <ele>107.59999847412</ele>
        <time>2020-06-05T15:00:56.000Z</time>
      </trkpt>
      <trkpt lat="46.47802" lon="0.28929">
        <ele>107.59999847412</ele>
        <time>2020-06-05T15:00:57.000Z</time>
      </trkpt>
      <trkpt lat="46.47806" lon="0.28923">
        <ele>107.80000305176</ele>
        <time>2020-06-05T15:00:58.000Z</time>
      </trkpt>
      <trkpt lat="46.4781" lon="0.28917">
        <ele>107.80000305176</ele>
        <time>2020-06-05T15:00:59.000Z</time>
      </trkpt>
      <trkpt lat="46.47813" lon="0.28912">
        <ele>108</ele>
        <time>2020-06-05T15:01:00.000Z</time>
      </trkpt>
      <trkpt lat="46.47817" lon="0.28906">
        <ele>108.19999694824</ele>
        <time>2020-06-05T15:01:01.000Z</time>
      </trkpt>
      <trkpt lat="46.47821" lon="0.28901">
        <ele>108.40000152588</ele>
        <time>2020-06-05T15:01:02.000Z</time>
      </trkpt>
      <trkpt lat="46.47831" lon="0.28902">
        <ele>113.1</ele>
      </trkpt>
      <trkpt lat="46.47832" lon="0.28903">
        <ele>111.19999694824</ele>
        <time>2020-06-05T15:01:21.000Z</time>
      </trkpt>
      <trkpt lat="46.47835" lon="0.28904">
        <ele>111</ele>
        <time>2020-06-05T15:01:22.000Z</time>
      </trkpt>
      <trkpt lat="46.47842" lon="0.28906">
        <ele>109.80000305176</ele>
        <time>2020-06-05T15:01:25.000Z</time>
      </trkpt>
      <trkpt lat="46.47851" lon="0.28907">
        <ele>109.59999847412</ele>
        <time>2020-06-05T15:01:26.000Z</time>
      </trkpt>
      <trkpt lat="46.47856" lon="0.28906">
        <ele>109.19999694824</ele>
        <time>2020-06-05T15:01:27.000Z</time>
      </trkpt>
      <trkpt lat="46.47861" lon="0.28905">
        <ele>109.19999694824</ele>
        <time>2020-06-05T15:01:28.000Z</time>
      </trkpt>
      <trkpt lat="46.47861" lon="0.28905">
        <ele>108.59999847412</ele>
        <time>2020-06-05T15:01:29.000Z</time>
      </trkpt>
      <trkpt lat="46.4787" lon="0.28903">
        <ele>108.40000152588</ele>
        <time>2020-06-05T15:01:30.000Z</time>
      </trkpt>
      <trkpt lat="46.4787" lon="0.28903">
        <ele>108.19999694824</ele>
        <time>2020-06-05T15:01:31.000Z</time>
      </trkpt>
      <trkpt lat="46.47882" lon="0.28902">
        <ele>107.80000305176</ele>
        <time>2020-06-05T15:01:32.000Z</time>
      </trkpt>
      <trkpt lat="46.47888" lon="0.28902">
        <ele>107.80000305176</ele>
        <time>2020-06-05T15:01:33.000Z</time>
      </trkpt>
      <trkpt lat="46.47893" lon="0.289">
        <ele>107.59999847412</ele>
        <time>2020-06-05T15:01:34.000Z</time>
      </trkpt>
      <trkpt lat="46.47898" lon="0.28896">
        <ele>107.59999847412</ele>
        <time>2020-06-05T15:01:35.000Z</time>
      </trkpt>
      <trkpt lat="46.47903" lon="0.28892">
        <ele>107.40000152588</ele>
        <time>2020-06-05T15:01:36.000Z</time>
      </trkpt>
      <trkpt lat="46.47919" lon="0.28875">
        <ele>107.40000152588</ele>
        <time>2020-06-05T15:01:40.000Z</time>
      </trkpt>
      <trkpt lat="46.47922" lon="0.28871">
        <ele>107.40000152588</ele>
        <time>2020-06-05T15:01:41.000Z</time>
      </trkpt>
      <trkpt lat="46.47925" lon="0.28867">
        <ele>107.40000152588</ele>
        <time>2020-06-05T15:01:42.000Z</time>
      </trkpt>
      <trkpt lat="46.47929" lon="0.28862">
        <ele>107.40000152588</ele>
        <time>2020-06-05T15:01:43.000Z</time>
      </trkpt>
      <trkpt lat="46.47933" lon="0.28858">
        <ele>107.59999847412</ele>
        <time>2020-06-05T15:01:44.000Z</time>
      </trkpt>
      <trkpt lat="46.47942" lon="0.28849">
        <ele>108</ele>
        <time>2020-06-05T15:01:46.000Z</time>
      </trkpt>
      <trkpt lat="46.47946" lon="0.28847">
        <ele>108.19999694824</ele>
        <time>2020-06-05T15:01:47.000Z</time>
      </trkpt>
      <trkpt lat="46.4795" lon="0.28843">
        <ele>108.19999694824</ele>
        <time>2020-06-05T15:01:48.000Z</time>
      </trkpt>
      <trkpt lat="46.47954" lon="0.2884">
        <ele>108.40000152588</ele>
        <time>2020-06-05T15:01:49.000Z</time>
      </trkpt>
      <trkpt lat="46.47957" lon="0.28838">
        <ele>108.59999847412</ele>
        <time>2020-06-05T15:01:50.000Z</time>
      </trkpt>
      <trkpt lat="46.47957" lon="0.28838">
        <ele>109</ele>
        <time>2020-06-05T15:01:51.000Z</time>
      </trkpt>
      <trkpt lat="46.47966" lon="0.28834">
        <ele>109.19999694824</ele>
        <time>2020-06-05T15:01:52.000Z</time>
      </trkpt>
      <trkpt lat="46.47966" lon="0.28834">
        <ele>110</ele>
        <time>2020-06-05T15:01:53.000Z</time>
      </trkpt>
      <trkpt lat="46.47977" lon="0.28831">
        <ele>110.19999694824</ele>
        <time>2020-06-05T15:01:54.000Z</time>
      </trkpt>
      <trkpt lat="46.47977" lon="0.28831">
        <ele>110.59999847412</ele>
        <time>2020-06-05T15:01:55.000Z</time>
      </trkpt>
      <trkpt lat="46.47984" lon="0.28829">
        <ele>111.59999847412</ele>
        <time>2020-06-05T15:01:56.000Z</time>
      </trkpt>
      <trkpt lat="46.47994" lon="0.28828">
        <ele>112</ele>
        <time>2020-06-05T15:01:57.000Z</time>
      </trkpt>
      <trkpt lat="46.47994" lon="0.28828">
        <ele>112.59999847412</ele>
        <time>2020-06-05T15:01:58.000Z</time>
      </trkpt>
      <trkpt lat="46.48002" lon="0.28826">
        <ele>113</ele>
        <time>2020-06-05T15:01:59.000Z</time>
      </trkpt>
      <trkpt lat="46.48002" lon="0.28826">
        <ele>113.40000152588</ele>
        <time>2020-06-05T15:02:00.000Z</time>
      </trkpt>
      <trkpt lat="46.48008" lon="0.28826">
        <ele>113.80000305176</ele>
        <time>2020-06-05T15:02:01.000Z</time>
      </trkpt>
      <trkpt lat="46.48013" lon="0.28825">
        <ele>115</ele>
        <time>2020-06-05T15:02:02.000Z</time>
      </trkpt>
      <trkpt lat="46.48017" lon="0.28825">
        <ele>115.80000305176</ele>
        <time>2020-06-05T15:02:03.000Z</time>
      </trkpt>
      <trkpt lat="46.48024" lon="0.28827">
        <ele>116</ele>
        <time>2020-06-05T15:02:04.000Z</time>
      </trkpt>
      <trkpt lat="46.48028" lon="0.28827">
        <ele>116.40000152588</ele>
        <time>2020-06-05T15:02:05.000Z</time>
      </trkpt>
      <trkpt lat="46.48028" lon="0.28827">
        <ele>116.59999847412</ele>
        <time>2020-06-05T15:02:06.000Z</time>
      </trkpt>
      <trkpt lat="46.48033" lon="0.28829">
        <ele>116.80000305176</ele>
        <time>2020-06-05T15:02:07.000Z</time>
      </trkpt>
      <trkpt lat="46.48039" lon="0.28833">
        <ele>117</ele>
        <time>2020-06-05T15:02:08.000Z</time>
      </trkpt>
      <trkpt lat="46.48042" lon="0.28835">
        <ele>117.59999847412</ele>
        <time>2020-06-05T15:02:09.000Z</time>
      </trkpt>
      <trkpt lat="46.48046" lon="0.28838">
        <ele>118.19999694824</ele>
        <time>2020-06-05T15:02:10.000Z</time>
      </trkpt>
      <trkpt lat="46.48046" lon="0.28838">
        <ele>118.59999847412</ele>
        <time>2020-06-05T15:02:11.000Z</time>
      </trkpt>
      <trkpt lat="46.48051" lon="0.2884">
        <ele>119.40000152588</ele>
        <time>2020-06-05T15:02:12.000Z</time>
      </trkpt>
      <trkpt lat="46.4806" lon="0.28845">
        <ele>119.80000305176</ele>
        <time>2020-06-05T15:02:13.000Z</time>
      </trkpt>
      <trkpt lat="46.48065" lon="0.28847">
        <ele>120.19999694824</ele>
        <time>2020-06-05T15:02:14.000Z</time>
      </trkpt>
      <trkpt lat="46.48069" lon="0.2885">
        <ele>120.59999847412</ele>
        <time>2020-06-05T15:02:15.000Z</time>
      </trkpt>
      <trkpt lat="46.48069" lon="0.2885">
        <ele>121</ele>
        <time>2020-06-05T15:02:16.000Z</time>
      </trkpt>
      <trkpt lat="46.48076" lon="0.28853">
        <ele>121.40000152588</ele>
        <time>2020-06-05T15:02:17.000Z</time>
      </trkpt>
      <trkpt lat="46.48081" lon="0.28855">
        <ele>121.59999847412</ele>
        <time>2020-06-05T15:02:18.000Z</time>
      </trkpt>
      <trkpt lat="46.48081" lon="0.28855">
        <ele>122</ele>
        <time>2020-06-05T15:02:19.000Z</time>
      </trkpt>
      <trkpt lat="46.48091" lon="0.28858">
        <ele>122.40000152588</ele>
        <time>2020-06-05T15:02:20.000Z</time>
      </trkpt>
      <trkpt lat="46.48095" lon="0.28859">
        <ele>122.80000305176</ele>
        <time>2020-06-05T15:02:21.000Z</time>
      </trkpt>
      <trkpt lat="46.48099" lon="0.28859">
        <ele>123.19999694824</ele>
        <time>2020-06-05T15:02:22.000Z</time>
      </trkpt>
      <trkpt lat="46.48102" lon="0.2886">
        <ele>123.40000152588</ele>
        <time>2020-06-05T15:02:23.000Z</time>
      </trkpt>
      <trkpt lat="46.48102" lon="0.2886">
        <ele>124</ele>
        <time>2020-06-05T15:02:24.000Z</time>
      </trkpt>
      <trkpt lat="46.4811" lon="0.28861">
        <ele>124.19999694824</ele>
        <time>2020-06-05T15:02:25.000Z</time>
      </trkpt>
      <trkpt lat="46.48114" lon="0.28862">
        <ele>124.80000305176</ele>
        <time>2020-06-05T15:02:26.000Z</time>
      </trkpt>
      <trkpt lat="46.48114" lon="0.28862">
        <ele>125</ele>
        <time>2020-06-05T15:02:27.000Z</time>
      </trkpt>
      <trkpt lat="46.48119" lon="0.28862">
        <ele>125.19999694824</ele>
        <time>2020-06-05T15:02:28.000Z</time>
      </trkpt>
      <trkpt lat="46.48126" lon="0.28862">
        <ele>125.40000152588</ele>
        <time>2020-06-05T15:02:29.000Z</time>
      </trkpt>
      <trkpt lat="46.48126" lon="0.28862">
        <ele>125.40000152588</ele>
        <time>2020-06-05T15:02:30.000Z</time>
      </trkpt>
      <trkpt lat="46.48133" lon="0.28861">
        <ele>125.19999694824</ele>
        <time>2020-06-05T15:02:31.000Z</time>
      </trkpt>
      <trkpt lat="46.48138" lon="0.28862">
        <ele>125</ele>
        <time>2020-06-05T15:02:32.000Z</time>
      </trkpt>
      <trkpt lat="46.48142" lon="0.28862">
        <ele>125.19999694824</ele>
        <time>2020-06-05T15:02:33.000Z</time>
      </trkpt>
      <trkpt lat="46.48147" lon="0.28862">
        <ele>125.40000152588</ele>
        <time>2020-06-05T15:02:34.000Z</time>
      </trkpt>
      <trkpt lat="46.48153" lon="0.28863">
        <ele>125.80000305176</ele>
        <time>2020-06-05T15:02:35.000Z</time>
      </trkpt>
      <trkpt lat="46.48159" lon="0.28866">
        <ele>126.19999694824</ele>
        <time>2020-06-05T15:02:36.000Z</time>
      </trkpt>
      <trkpt lat="46.48164" lon="0.28868">
        <ele>126.19999694824</ele>
        <time>2020-06-05T15:02:37.000Z</time>
      </trkpt>
      <trkpt lat="46.48168" lon="0.28869">
        <ele>126.80000305176</ele>
        <time>2020-06-05T15:02:38.000Z</time>
      </trkpt>
      <trkpt lat="46.48179" lon="0.28868">
        <ele>127</ele>
        <time>2020-06-05T15:02:39.000Z</time>
      </trkpt>
      <trkpt lat="46.48179" lon="0.28868">
        <ele>127.19999694824</ele>
        <time>2020-06-05T15:02:40.000Z</time>
      </trkpt>
      <trkpt lat="46.48186" lon="0.28865">
        <ele>127.40000152588</ele>
        <time>2020-06-05T15:02:41.000Z</time>
      </trkpt>
      <trkpt lat="46.4819" lon="0.28861">
        <ele>127.40000152588</ele>
        <time>2020-06-05T15:02:42.000Z</time>
      </trkpt>
      <trkpt lat="46.48193" lon="0.28857">
        <ele>127.40000152588</ele>
        <time>2020-06-05T15:02:43.000Z</time>
      </trkpt>
      <trkpt lat="46.48202" lon="0.28851">
        <ele>127.40000152588</ele>
        <time>2020-06-05T15:02:44.000Z</time>
      </trkpt>
      <trkpt lat="46.48202" lon="0.28851">
        <ele>127.80000305176</ele>
        <time>2020-06-05T15:02:45.000Z</time>
      </trkpt>
      <trkpt lat="46.48212" lon="0.28856">
        <ele>127.80000305176</ele>
        <time>2020-06-05T15:02:46.000Z</time>
      </trkpt>
      <trkpt lat="46.48212" lon="0.28856">
        <ele>128</ele>
        <time>2020-06-05T15:02:47.000Z</time>
      </trkpt>
      <trkpt lat="46.48218" lon="0.2886">
        <ele>128</ele>
        <time>2020-06-05T15:02:48.000Z</time>
      </trkpt>
      <trkpt lat="46.48228" lon="0.28868">
        <ele>127.59999847412</ele>
        <time>2020-06-05T15:02:49.000Z</time>
      </trkpt>
      <trkpt lat="46.48228" lon="0.28868">
        <ele>127.19999694824</ele>
        <time>2020-06-05T15:02:50.000Z</time>
      </trkpt>
      <trkpt lat="46.48247" lon="0.28884">
        <ele>127.19999694824</ele>
        <time>2020-06-05T15:02:54.000Z</time>
      </trkpt>
      <trkpt lat="46.48251" lon="0.28884">
        <ele>127.19999694824</ele>
        <time>2020-06-05T15:02:55.000Z</time>
      </trkpt>
      <trkpt lat="46.4826" lon="0.28875">
        <ele>127</ele>
        <time>2020-06-05T15:02:56.000Z</time>
      </trkpt>
      <trkpt lat="46.4826" lon="0.28875">
        <ele>127</ele>
        <time>2020-06-05T15:02:57.000Z</time>
      </trkpt>
      <trkpt lat="46.48262" lon="0.28868">
        <ele>127</ele>
        <time>2020-06-05T15:02:58.000Z</time>
      </trkpt>
      <trkpt lat="46.48264" lon="0.28863">
        <ele>127</ele>
        <time>2020-06-05T15:02:59.000Z</time>
      </trkpt>
      <trkpt lat="46.4827" lon="0.28849">
        <ele>127</ele>
        <time>2020-06-05T15:03:00.000Z</time>
      </trkpt>
      <trkpt lat="46.48274" lon="0.2884">
        <ele>127.40000152588</ele>
        <time>2020-06-05T15:03:02.000Z</time>
      </trkpt>
      <trkpt lat="46.48279" lon="0.28827">
        <ele>127.80000305176</ele>
        <time>2020-06-05T15:03:04.000Z</time>
      </trkpt>
      <trkpt lat="46.48285" lon="0.28813">
        <ele>127.59999847412</ele>
        <time>2020-06-05T15:03:05.000Z</time>
      </trkpt>
      <trkpt lat="46.48288" lon="0.28803">
        <ele>127.40000152588</ele>
        <time>2020-06-05T15:03:07.000Z</time>
      </trkpt>
      <trkpt lat="46.48291" lon="0.28796">
        <ele>127.19999694824</ele>
        <time>2020-06-05T15:03:08.000Z</time>
      </trkpt>
      <trkpt lat="46.48307" lon="0.28762">
        <ele>127</ele>
        <time>2020-06-05T15:03:12.000Z</time>
      </trkpt>
      <trkpt lat="46.48307" lon="0.28762">
        <ele>126.80000305176</ele>
        <time>2020-06-05T15:03:13.000Z</time>
      </trkpt>
      <trkpt lat="46.48312" lon="0.28759">
        <ele>126.80000305176</ele>
        <time>2020-06-05T15:03:14.000Z</time>
      </trkpt>
      <trkpt lat="46.48323" lon="0.28755">
        <ele>126.59999847412</ele>
        <time>2020-06-05T15:03:16.000Z</time>
      </trkpt>
      <trkpt lat="46.48336" lon="0.28752">
        <ele>126.59999847412</ele>
        <time>2020-06-05T15:03:18.000Z</time>
      </trkpt>
      <trkpt lat="46.48341" lon="0.28751">
        <ele>126.59999847412</ele>
        <time>2020-06-05T15:03:19.000Z</time>
      </trkpt>
      <trkpt lat="46.48347" lon="0.2875">
        <ele>126.59999847412</ele>
        <time>2020-06-05T15:03:20.000Z</time>
      </trkpt>
      <trkpt lat="46.48352" lon="0.28748">
        <ele>126.59999847412</ele>
        <time>2020-06-05T15:03:21.000Z</time>
      </trkpt>
      <trkpt lat="46.48368" lon="0.28745">
        <ele>126.59999847412</ele>
        <time>2020-06-05T15:03:23.000Z</time>
      </trkpt>
      <trkpt lat="46.4838" lon="0.28741">
        <ele>126.40000152588</ele>
        <time>2020-06-05T15:03:25.000Z</time>
      </trkpt>
      <trkpt lat="46.48392" lon="0.28739">
        <ele>126.40000152588</ele>
        <time>2020-06-05T15:03:26.000Z</time>
      </trkpt>
      <trkpt lat="46.48413" lon="0.28735">
        <ele>126.19999694824</ele>
        <time>2020-06-05T15:03:30.000Z</time>
      </trkpt>
      <trkpt lat="46.48424" lon="0.2873">
        <ele>126.19999694824</ele>
        <time>2020-06-05T15:03:31.000Z</time>
      </trkpt>
      <trkpt lat="46.48428" lon="0.28725">
        <ele>125.80000305176</ele>
        <time>2020-06-05T15:03:32.000Z</time>
      </trkpt>
      <trkpt lat="46.48432" lon="0.28718">
        <ele>125.59999847412</ele>
        <time>2020-06-05T15:03:33.000Z</time>
      </trkpt>
      <trkpt lat="46.48435" lon="0.2871">
        <ele>125.19999694824</ele>
        <time>2020-06-05T15:03:34.000Z</time>
      </trkpt>
      <trkpt lat="46.48438" lon="0.28702">
        <ele>125.19999694824</ele>
        <time>2020-06-05T15:03:35.000Z</time>
      </trkpt>
      <trkpt lat="46.48441" lon="0.28695">
        <ele>125.19999694824</ele>
        <time>2020-06-05T15:03:36.000Z</time>
      </trkpt>
      <trkpt lat="46.48441" lon="0.28695">
        <ele>125.40000152588</ele>
        <time>2020-06-05T15:03:37.000Z</time>
      </trkpt>
      <trkpt lat="46.48446" lon="0.28679">
        <ele>125.40000152588</ele>
        <time>2020-06-05T15:03:38.000Z</time>
      </trkpt>
      <trkpt lat="46.48446" lon="0.28679">
        <ele>125.59999847412</ele>
        <time>2020-06-05T15:03:39.000Z</time>
      </trkpt>
      <trkpt lat="46.48448" lon="0.28671">
        <ele>125.59999847412</ele>
        <time>2020-06-05T15:03:40.000Z</time>
      </trkpt>
      <trkpt lat="46.48454" lon="0.28657">
        <ele>125.80000305176</ele>
        <time>2020-06-05T15:03:41.000Z</time>
      </trkpt>
      <trkpt lat="46.48457" lon="0.2865">
        <ele>126</ele>
        <time>2020-06-05T15:03:42.000Z</time>
      </trkpt>
      <trkpt lat="46.4846" lon="0.28643">
        <ele>126</ele>
        <time>2020-06-05T15:03:43.000Z</time>
      </trkpt>
      <trkpt lat="46.4846" lon="0.28643">
        <ele>126.19999694824</ele>
        <time>2020-06-05T15:03:44.000Z</time>
      </trkpt>
      <trkpt lat="46.48463" lon="0.28637">
        <ele>127.19999694824</ele>
        <time>2020-06-05T15:03:45.000Z</time>
      </trkpt>
      <trkpt lat="46.4847" lon="0.28626">
        <ele>128.19999694824</ele>
        <time>2020-06-05T15:03:46.000Z</time>
      </trkpt>
      <trkpt lat="46.4847" lon="0.28626">
        <ele>128.39999389648</ele>
        <time>2020-06-05T15:03:47.000Z</time>
      </trkpt>
      <trkpt lat="46.48478" lon="0.28612">
        <ele>128.80000305176</ele>
        <time>2020-06-05T15:03:48.000Z</time>
      </trkpt>
      <trkpt lat="46.48478" lon="0.28612">
        <ele>128.80000305176</ele>
        <time>2020-06-05T15:03:49.000Z</time>
      </trkpt>
      <trkpt lat="46.48482" lon="0.28605">
        <ele>128.80000305176</ele>
        <time>2020-06-05T15:03:50.000Z</time>
      </trkpt>
      <trkpt lat="46.48486" lon="0.28598">
        <ele>128.80000305176</ele>
        <time>2020-06-05T15:03:51.000Z</time>
      </trkpt>
      <trkpt lat="46.48489" lon="0.28591">
        <ele>129</ele>
        <time>2020-06-05T15:03:52.000Z</time>
      </trkpt>
      <trkpt lat="46.48495" lon="0.28576">
        <ele>129</ele>
        <time>2020-06-05T15:03:53.000Z</time>
      </trkpt>
      <trkpt lat="46.48495" lon="0.28576">
        <ele>129.19999694824</ele>
        <time>2020-06-05T15:03:54.000Z</time>
      </trkpt>
      <trkpt lat="46.48498" lon="0.28568">
        <ele>129.19999694824</ele>
        <time>2020-06-05T15:03:55.000Z</time>
      </trkpt>
      <trkpt lat="46.485" lon="0.28562">
        <ele>128.80000305176</ele>
        <time>2020-06-05T15:03:56.000Z</time>
      </trkpt>
      <trkpt lat="46.48503" lon="0.28554">
        <ele>128.80000305176</ele>
        <time>2020-06-05T15:03:57.000Z</time>
      </trkpt>
      <trkpt lat="46.48507" lon="0.28536">
        <ele>128.60000610352</ele>
        <time>2020-06-05T15:03:58.000Z</time>
      </trkpt>
      <trkpt lat="46.48507" lon="0.28536">
        <ele>129</ele>
        <time>2020-06-05T15:03:59.000Z</time>
      </trkpt>
      <trkpt lat="46.48511" lon="0.28522">
        <ele>129.39999389648</ele>
        <time>2020-06-05T15:04:00.000Z</time>
      </trkpt>
      <trkpt lat="46.48511" lon="0.28522">
        <ele>129.39999389648</ele>
        <time>2020-06-05T15:04:01.000Z</time>
      </trkpt>
      <trkpt lat="46.48518" lon="0.28508">
        <ele>129.39999389648</ele>
        <time>2020-06-05T15:04:02.000Z</time>
      </trkpt>
      <trkpt lat="46.48521" lon="0.28502">
        <ele>129.60000610352</ele>
        <time>2020-06-05T15:04:03.000Z</time>
      </trkpt>
      <trkpt lat="46.48521" lon="0.28502">
        <ele>129.60000610352</ele>
        <time>2020-06-05T15:04:04.000Z</time>
      </trkpt>
      <trkpt lat="46.48527" lon="0.28486">
        <ele>129.60000610352</ele>
        <time>2020-06-05T15:04:05.000Z</time>
      </trkpt>
      <trkpt lat="46.4853" lon="0.28479">
        <ele>129.39999389648</ele>
        <time>2020-06-05T15:04:06.000Z</time>
      </trkpt>
      <trkpt lat="46.48533" lon="0.28471">
        <ele>129.39999389648</ele>
        <time>2020-06-05T15:04:07.000Z</time>
      </trkpt>
      <trkpt lat="46.48535" lon="0.28463">
        <ele>129.39999389648</ele>
        <time>2020-06-05T15:04:08.000Z</time>
      </trkpt>
      <trkpt lat="46.48559" lon="0.2839">
        <ele>128.19999694824</ele>
        <time>2020-06-05T15:04:17.000Z</time>
      </trkpt>
      <trkpt lat="46.48559" lon="0.2839">
        <ele>128</ele>
        <time>2020-06-05T15:04:18.000Z</time>
      </trkpt>
      <trkpt lat="46.48563" lon="0.28375">
        <ele>128.19999694824</ele>
        <time>2020-06-05T15:04:19.000Z</time>
      </trkpt>
      <trkpt lat="46.48563" lon="0.28375">
        <ele>128.19999694824</ele>
        <time>2020-06-05T15:04:20.000Z</time>
      </trkpt>
      <trkpt lat="46.48571" lon="0.28362">
        <ele>128.19999694824</ele>
        <time>2020-06-05T15:04:21.000Z</time>
      </trkpt>
      <trkpt lat="46.48576" lon="0.28357">
        <ele>128.19999694824</ele>
        <time>2020-06-05T15:04:22.000Z</time>
      </trkpt>
      <trkpt lat="46.48581" lon="0.28353">
        <ele>128</ele>
        <time>2020-06-05T15:04:23.000Z</time>
      </trkpt>
      <trkpt lat="46.48586" lon="0.28352">
        <ele>128</ele>
        <time>2020-06-05T15:04:24.000Z</time>
      </trkpt>
      <trkpt lat="46.48591" lon="0.28352">
        <ele>128.19999694824</ele>
        <time>2020-06-05T15:04:25.000Z</time>
      </trkpt>
      <trkpt lat="46.48596" lon="0.28354">
        <ele>128.80000305176</ele>
        <time>2020-06-05T15:04:26.000Z</time>
      </trkpt>
      <trkpt lat="46.48601" lon="0.28356">
        <ele>129</ele>
        <time>2020-06-05T15:04:27.000Z</time>
      </trkpt>
      <trkpt lat="46.48601" lon="0.28356">
        <ele>128.60000610352</ele>
        <time>2020-06-05T15:04:28.000Z</time>
      </trkpt>
      <trkpt lat="46.48613" lon="0.28359">
        <ele>128.39999389648</ele>
        <time>2020-06-05T15:04:29.000Z</time>
      </trkpt>
      <trkpt lat="46.48619" lon="0.2836">
        <ele>128.39999389648</ele>
        <time>2020-06-05T15:04:30.000Z</time>
      </trkpt>
      <trkpt lat="46.48626" lon="0.2836">
        <ele>128.19999694824</ele>
        <time>2020-06-05T15:04:31.000Z</time>
      </trkpt>
      <trkpt lat="46.48632" lon="0.28359">
        <ele>128</ele>
        <time>2020-06-05T15:04:32.000Z</time>
      </trkpt>
      <trkpt lat="46.48639" lon="0.28355">
        <ele>127.40000152588</ele>
        <time>2020-06-05T15:04:33.000Z</time>
      </trkpt>
      <trkpt lat="46.48645" lon="0.28351">
        <ele>126.59999847412</ele>
        <time>2020-06-05T15:04:34.000Z</time>
      </trkpt>
      <trkpt lat="46.48652" lon="0.28347">
        <ele>125.59999847412</ele>
        <time>2020-06-05T15:04:35.000Z</time>
      </trkpt>
      <trkpt lat="46.48666" lon="0.28338">
        <ele>124.19999694824</ele>
        <time>2020-06-05T15:04:37.000Z</time>
      </trkpt>
      <trkpt lat="46.48679" lon="0.28332">
        <ele>122.80000305176</ele>
        <time>2020-06-05T15:04:39.000Z</time>
      </trkpt>
      <trkpt lat="46.48684" lon="0.28329">
        <ele>121.80000305176</ele>
        <time>2020-06-05T15:04:40.000Z</time>
      </trkpt>
      <trkpt lat="46.48689" lon="0.28326">
        <ele>121.19999694824</ele>
        <time>2020-06-05T15:04:41.000Z</time>
      </trkpt>
      <trkpt lat="46.48694" lon="0.28324">
        <ele>120.19999694824</ele>
        <time>2020-06-05T15:04:42.000Z</time>
      </trkpt>
      <trkpt lat="46.48697" lon="0.28322">
        <ele>119.40000152588</ele>
        <time>2020-06-05T15:04:43.000Z</time>
      </trkpt>
      <trkpt lat="46.48701" lon="0.28322">
        <ele>119.19999694824</ele>
        <time>2020-06-05T15:04:44.000Z</time>
      </trkpt>
      <trkpt lat="46.48703" lon="0.28321">
        <ele>118.80000305176</ele>
        <time>2020-06-05T15:04:45.000Z</time>
      </trkpt>
      <trkpt lat="46.48703" lon="0.28321">
        <ele>118.59999847412</ele>
        <time>2020-06-05T15:04:46.000Z</time>
      </trkpt>
      <trkpt lat="46.48703" lon="0.28321">
        <ele>117.80000305176</ele>
        <time>2020-06-05T15:04:47.000Z</time>
      </trkpt>
      <trkpt lat="46.48703" lon="0.28321">
        <ele>117.19999694824</ele>
        <time>2020-06-05T15:04:48.000Z</time>
      </trkpt>
      <trkpt lat="46.48709" lon="0.28323">
        <ele>116.59999847412</ele>
        <time>2020-06-05T15:04:53.000Z</time>
      </trkpt>
      <trkpt lat="46.48709" lon="0.28323">
        <ele>116.40000152588</ele>
        <time>2020-06-05T15:04:54.000Z</time>
      </trkpt>
      <trkpt lat="46.48716" lon="0.28327">
        <ele>116.40000152588</ele>
        <time>2020-06-05T15:04:55.000Z</time>
      </trkpt>
      <trkpt lat="46.4872" lon="0.2833">
        <ele>116.40000152588</ele>
        <time>2020-06-05T15:04:56.000Z</time>
      </trkpt>
      <trkpt lat="46.48725" lon="0.28334">
        <ele>116.40000152588</ele>
        <time>2020-06-05T15:04:57.000Z</time>
      </trkpt>
      <trkpt lat="46.4873" lon="0.28338">
        <ele>116.40000152588</ele>
        <time>2020-06-05T15:04:58.000Z</time>
      </trkpt>
      <trkpt lat="46.48735" lon="0.28342">
        <ele>116.19999694824</ele>
        <time>2020-06-05T15:04:59.000Z</time>
      </trkpt>
      <trkpt lat="46.48749" lon="0.28355">
        <ele>115.40000152588</ele>
        <time>2020-06-05T15:05:02.000Z</time>
      </trkpt>
      <trkpt lat="46.48749" lon="0.28355">
        <ele>115.19999694824</ele>
        <time>2020-06-05T15:05:03.000Z</time>
      </trkpt>
      <trkpt lat="46.48755" lon="0.28359">
        <ele>114.40000152588</ele>
        <time>2020-06-05T15:05:04.000Z</time>
      </trkpt>
      <trkpt lat="46.48759" lon="0.28361">
        <ele>114</ele>
        <time>2020-06-05T15:05:05.000Z</time>
      </trkpt>
      <trkpt lat="46.48763" lon="0.28361">
        <ele>113</ele>
        <time>2020-06-05T15:05:06.000Z</time>
      </trkpt>
      <trkpt lat="46.48767" lon="0.28359">
        <ele>112.80000305176</ele>
        <time>2020-06-05T15:05:07.000Z</time>
      </trkpt>
      <trkpt lat="46.48771" lon="0.28357">
        <ele>112.40000152588</ele>
        <time>2020-06-05T15:05:08.000Z</time>
      </trkpt>
      <trkpt lat="46.48776" lon="0.28355">
        <ele>112</ele>
        <time>2020-06-05T15:05:09.000Z</time>
      </trkpt>
      <trkpt lat="46.48795" lon="0.28342">
        <ele>111.19999694824</ele>
        <time>2020-06-05T15:05:13.000Z</time>
      </trkpt>
      <trkpt lat="46.488" lon="0.28338">
        <ele>111.19999694824</ele>
        <time>2020-06-05T15:05:14.000Z</time>
      </trkpt>
      <trkpt lat="46.48805" lon="0.28335">
        <ele>111.19999694824</ele>
        <time>2020-06-05T15:05:15.000Z</time>
      </trkpt>
      <trkpt lat="46.4882" lon="0.28324">
        <ele>111</ele>
        <time>2020-06-05T15:05:18.000Z</time>
      </trkpt>
      <trkpt lat="46.48826" lon="0.28321">
        <ele>111</ele>
        <time>2020-06-05T15:05:19.000Z</time>
      </trkpt>
      <trkpt lat="46.48843" lon="0.28312">
        <ele>112</ele>
        <time>2020-06-05T15:05:22.000Z</time>
      </trkpt>
      <trkpt lat="46.48849" lon="0.2831">
        <ele>112.19999694824</ele>
        <time>2020-06-05T15:05:23.000Z</time>
      </trkpt>
      <trkpt lat="46.48855" lon="0.28309">
        <ele>112.40000152588</ele>
        <time>2020-06-05T15:05:24.000Z</time>
      </trkpt>
      <trkpt lat="46.48861" lon="0.28309">
        <ele>112.80000305176</ele>
        <time>2020-06-05T15:05:25.000Z</time>
      </trkpt>
      <trkpt lat="46.48867" lon="0.2831">
        <ele>113</ele>
        <time>2020-06-05T15:05:26.000Z</time>
      </trkpt>
      <trkpt lat="46.48873" lon="0.28311">
        <ele>113.19999694824</ele>
        <time>2020-06-05T15:05:27.000Z</time>
      </trkpt>
      <trkpt lat="46.48878" lon="0.28313">
        <ele>113.40000152588</ele>
        <time>2020-06-05T15:05:28.000Z</time>
      </trkpt>
      <trkpt lat="46.48883" lon="0.28314">
        <ele>113.59999847412</ele>
        <time>2020-06-05T15:05:29.000Z</time>
      </trkpt>
      <trkpt lat="46.48887" lon="0.28316">
        <ele>113.80000305176</ele>
        <time>2020-06-05T15:05:30.000Z</time>
      </trkpt>
      <trkpt lat="46.48891" lon="0.28318">
        <ele>113.80000305176</ele>
        <time>2020-06-05T15:05:31.000Z</time>
      </trkpt>
      <trkpt lat="46.48896" lon="0.28322">
        <ele>114</ele>
        <time>2020-06-05T15:05:32.000Z</time>
      </trkpt>
      <trkpt lat="46.48901" lon="0.28327">
        <ele>114.19999694824</ele>
        <time>2020-06-05T15:05:33.000Z</time>
      </trkpt>
      <trkpt lat="46.48904" lon="0.28334">
        <ele>114.19999694824</ele>
        <time>2020-06-05T15:05:34.000Z</time>
      </trkpt>
      <trkpt lat="46.48904" lon="0.28342">
        <ele>114.19999694824</ele>
        <time>2020-06-05T15:05:35.000Z</time>
      </trkpt>
      <trkpt lat="46.48903" lon="0.2835">
        <ele>114.19999694824</ele>
        <time>2020-06-05T15:05:36.000Z</time>
      </trkpt>
      <trkpt lat="46.489" lon="0.28357">
        <ele>114.19999694824</ele>
        <time>2020-06-05T15:05:37.000Z</time>
      </trkpt>
      <trkpt lat="46.48898" lon="0.28365">
        <ele>114.19999694824</ele>
        <time>2020-06-05T15:05:38.000Z</time>
      </trkpt>
      <trkpt lat="46.48895" lon="0.28373">
        <ele>114.19999694824</ele>
        <time>2020-06-05T15:05:39.000Z</time>
      </trkpt>
      <trkpt lat="46.48893" lon="0.2838">
        <ele>114.40000152588</ele>
        <time>2020-06-05T15:05:40.000Z</time>
      </trkpt>
      <trkpt lat="46.4889" lon="0.28387">
        <ele>114.40000152588</ele>
        <time>2020-06-05T15:05:42.000Z</time>
      </trkpt>
      <trkpt lat="46.48884" lon="0.28401">
        <ele>114.40000152588</ele>
        <time>2020-06-05T15:05:43.000Z</time>
      </trkpt>
      <trkpt lat="46.48884" lon="0.28401">
        <ele>114.40000152588</ele>
        <time>2020-06-05T15:05:44.000Z</time>
      </trkpt>
      <trkpt lat="46.48877" lon="0.28414">
        <ele>114.40000152588</ele>
        <time>2020-06-05T15:05:45.000Z</time>
      </trkpt>
      <trkpt lat="46.48875" lon="0.28421">
        <ele>114.80000305176</ele>
        <time>2020-06-05T15:05:46.000Z</time>
      </trkpt>
      <trkpt lat="46.48872" lon="0.28426">
        <ele>115</ele>
        <time>2020-06-05T15:05:47.000Z</time>
      </trkpt>
      <trkpt lat="46.48871" lon="0.28433">
        <ele>115.40000152588</ele>
        <time>2020-06-05T15:05:48.000Z</time>
      </trkpt>
      <trkpt lat="46.4887" lon="0.28442">
        <ele>115.80000305176</ele>
        <time>2020-06-05T15:05:49.000Z</time>
      </trkpt>
      <trkpt lat="46.48868" lon="0.2845">
        <ele>116</ele>
        <time>2020-06-05T15:05:50.000Z</time>
      </trkpt>
      <trkpt lat="46.48869" lon="0.28458">
        <ele>116.59999847412</ele>
        <time>2020-06-05T15:05:51.000Z</time>
      </trkpt>
      <trkpt lat="46.48868" lon="0.28467">
        <ele>117.19999694824</ele>
        <time>2020-06-05T15:05:52.000Z</time>
      </trkpt>
      <trkpt lat="46.48868" lon="0.28475">
        <ele>118</ele>
        <time>2020-06-05T15:05:53.000Z</time>
      </trkpt>
      <trkpt lat="46.48867" lon="0.28483">
        <ele>118.59999847412</ele>
        <time>2020-06-05T15:05:54.000Z</time>
      </trkpt>
      <trkpt lat="46.48865" lon="0.28492">
        <ele>119.40000152588</ele>
        <time>2020-06-05T15:05:55.000Z</time>
      </trkpt>
      <trkpt lat="46.48866" lon="0.28501">
        <ele>120.59999847412</ele>
        <time>2020-06-05T15:05:56.000Z</time>
      </trkpt>
      <trkpt lat="46.48866" lon="0.28509">
        <ele>121</ele>
        <time>2020-06-05T15:05:57.000Z</time>
      </trkpt>
      <trkpt lat="46.48865" lon="0.28515">
        <ele>122.19999694824</ele>
        <time>2020-06-05T15:05:58.000Z</time>
      </trkpt>
      <trkpt lat="46.48865" lon="0.28515">
        <ele>122.59999847412</ele>
        <time>2020-06-05T15:05:59.000Z</time>
      </trkpt>
      <trkpt lat="46.48865" lon="0.28529">
        <ele>123.59999847412</ele>
        <time>2020-06-05T15:06:00.000Z</time>
      </trkpt>
      <trkpt lat="46.48865" lon="0.28536">
        <ele>124.40000152588</ele>
        <time>2020-06-05T15:06:01.000Z</time>
      </trkpt>
      <trkpt lat="46.48865" lon="0.28543">
        <ele>124.80000305176</ele>
        <time>2020-06-05T15:06:02.000Z</time>
      </trkpt>
      <trkpt lat="46.48865" lon="0.2855">
        <ele>125.59999847412</ele>
        <time>2020-06-05T15:06:03.000Z</time>
      </trkpt>
      <trkpt lat="46.48865" lon="0.28556">
        <ele>126</ele>
        <time>2020-06-05T15:06:04.000Z</time>
      </trkpt>
      <trkpt lat="46.48866" lon="0.28562">
        <ele>126.80000305176</ele>
        <time>2020-06-05T15:06:05.000Z</time>
      </trkpt>
      <trkpt lat="46.48867" lon="0.28568">
        <ele>127</ele>
        <time>2020-06-05T15:06:06.000Z</time>
      </trkpt>
      <trkpt lat="46.48867" lon="0.28574">
        <ele>127.80000305176</ele>
        <time>2020-06-05T15:06:07.000Z</time>
      </trkpt>
      <trkpt lat="46.48868" lon="0.28581">
        <ele>128.80000305176</ele>
        <time>2020-06-05T15:06:08.000Z</time>
      </trkpt>
      <trkpt lat="46.48869" lon="0.28588">
        <ele>129</ele>
        <time>2020-06-05T15:06:09.000Z</time>
      </trkpt>
      <trkpt lat="46.4887" lon="0.28595">
        <ele>129.60000610352</ele>
        <time>2020-06-05T15:06:10.000Z</time>
      </trkpt>
      <trkpt lat="46.4887" lon="0.28595">
        <ele>130</ele>
        <time>2020-06-05T15:06:11.000Z</time>
      </trkpt>
      <trkpt lat="46.48872" lon="0.28608">
        <ele>130.39999389648</ele>
        <time>2020-06-05T15:06:12.000Z</time>
      </trkpt>
      <trkpt lat="46.48872" lon="0.28608">
        <ele>130.80000305176</ele>
        <time>2020-06-05T15:06:13.000Z</time>
      </trkpt>
      <trkpt lat="46.48874" lon="0.28615">
        <ele>131.19999694824</ele>
        <time>2020-06-05T15:06:14.000Z</time>
      </trkpt>
      <trkpt lat="46.48879" lon="0.28627">
        <ele>131.60000610352</ele>
        <time>2020-06-05T15:06:15.000Z</time>
      </trkpt>
      <trkpt lat="46.48882" lon="0.28636">
        <ele>131.80000305176</ele>
        <time>2020-06-05T15:06:16.000Z</time>
      </trkpt>
      <trkpt lat="46.48885" lon="0.28643">
        <ele>132</ele>
        <time>2020-06-05T15:06:17.000Z</time>
      </trkpt>
      <trkpt lat="46.48887" lon="0.2865">
        <ele>132.19999694824</ele>
        <time>2020-06-05T15:06:18.000Z</time>
      </trkpt>
      <trkpt lat="46.4889" lon="0.28657">
        <ele>132.39999389648</ele>
        <time>2020-06-05T15:06:19.000Z</time>
      </trkpt>
      <trkpt lat="46.48893" lon="0.28664">
        <ele>132.39999389648</ele>
        <time>2020-06-05T15:06:20.000Z</time>
      </trkpt>
      <trkpt lat="46.48896" lon="0.28671">
        <ele>132.60000610352</ele>
        <time>2020-06-05T15:06:21.000Z</time>
      </trkpt>
      <trkpt lat="46.48899" lon="0.28677">
        <ele>133</ele>
        <time>2020-06-05T15:06:22.000Z</time>
      </trkpt>
      <trkpt lat="46.48899" lon="0.28677">
        <ele>133</ele>
        <time>2020-06-05T15:06:23.000Z</time>
      </trkpt>
      <trkpt lat="46.48902" lon="0.28684">
        <ele>133.39999389648</ele>
        <time>2020-06-05T15:06:24.000Z</time>
      </trkpt>
      <trkpt lat="46.48908" lon="0.28696">
        <ele>133.39999389648</ele>
        <time>2020-06-05T15:06:25.000Z</time>
      </trkpt>
      <trkpt lat="46.48908" lon="0.28696">
        <ele>133.60000610352</ele>
        <time>2020-06-05T15:06:26.000Z</time>
      </trkpt>
      <trkpt lat="46.48915" lon="0.28709">
        <ele>133.60000610352</ele>
        <time>2020-06-05T15:06:27.000Z</time>
      </trkpt>
      <trkpt lat="46.48919" lon="0.28715">
        <ele>133.80000305176</ele>
        <time>2020-06-05T15:06:28.000Z</time>
      </trkpt>
      <trkpt lat="46.48923" lon="0.2872">
        <ele>134</ele>
        <time>2020-06-05T15:06:29.000Z</time>
      </trkpt>
      <trkpt lat="46.48928" lon="0.28726">
        <ele>134.19999694824</ele>
        <time>2020-06-05T15:06:30.000Z</time>
      </trkpt>
      <trkpt lat="46.48928" lon="0.28726">
        <ele>134.19999694824</ele>
        <time>2020-06-05T15:06:31.000Z</time>
      </trkpt>
      <trkpt lat="46.48938" lon="0.28736">
        <ele>134.19999694824</ele>
        <time>2020-06-05T15:06:32.000Z</time>
      </trkpt>
      <trkpt lat="46.48943" lon="0.28741">
        <ele>134.39999389648</ele>
        <time>2020-06-05T15:06:33.000Z</time>
      </trkpt>
      <trkpt lat="46.48948" lon="0.28746">
        <ele>134.39999389648</ele>
        <time>2020-06-05T15:06:34.000Z</time>
      </trkpt>
      <trkpt lat="46.48953" lon="0.28752">
        <ele>134.39999389648</ele>
        <time>2020-06-05T15:06:35.000Z</time>
      </trkpt>
      <trkpt lat="46.48963" lon="0.28762">
        <ele>134.39999389648</ele>
        <time>2020-06-05T15:06:37.000Z</time>
      </trkpt>
      <trkpt lat="46.48968" lon="0.28767">
        <ele>134.19999694824</ele>
        <time>2020-06-05T15:06:38.000Z</time>
      </trkpt>
      <trkpt lat="46.48983" lon="0.28783">
        <ele>134</ele>
        <time>2020-06-05T15:06:41.000Z</time>
      </trkpt>
      <trkpt lat="46.48988" lon="0.28788">
        <ele>134</ele>
        <time>2020-06-05T15:06:42.000Z</time>
      </trkpt>
      <trkpt lat="46.49" lon="0.28801">
        <ele>133.80000305176</ele>
        <time>2020-06-05T15:06:44.000Z</time>
      </trkpt>
      <trkpt lat="46.49005" lon="0.28807">
        <ele>133.80000305176</ele>
        <time>2020-06-05T15:06:45.000Z</time>
      </trkpt>
      <trkpt lat="46.49012" lon="0.28812">
        <ele>133.80000305176</ele>
        <time>2020-06-05T15:06:46.000Z</time>
      </trkpt>
      <trkpt lat="46.49025" lon="0.28821">
        <ele>134</ele>
        <time>2020-06-05T15:06:48.000Z</time>
      </trkpt>
      <trkpt lat="46.49033" lon="0.28825">
        <ele>134</ele>
        <time>2020-06-05T15:06:49.000Z</time>
      </trkpt>
      <trkpt lat="46.49075" lon="0.28844">
        <ele>133.60000610352</ele>
        <time>2020-06-05T15:06:55.000Z</time>
      </trkpt>
      <trkpt lat="46.4909" lon="0.28851">
        <ele>133</ele>
        <time>2020-06-05T15:06:57.000Z</time>
      </trkpt>
      <trkpt lat="46.49098" lon="0.28855">
        <ele>132.80000305176</ele>
        <time>2020-06-05T15:06:58.000Z</time>
      </trkpt>
      <trkpt lat="46.49104" lon="0.28858">
        <ele>132.60000610352</ele>
        <time>2020-06-05T15:06:59.000Z</time>
      </trkpt>
      <trkpt lat="46.49117" lon="0.28863">
        <ele>132.39999389648</ele>
        <time>2020-06-05T15:07:02.000Z</time>
      </trkpt>
      <trkpt lat="46.49132" lon="0.28866">
        <ele>132.39999389648</ele>
        <time>2020-06-05T15:07:03.000Z</time>
      </trkpt>
      <trkpt lat="46.49139" lon="0.28867">
        <ele>132.60000610352</ele>
        <time>2020-06-05T15:07:04.000Z</time>
      </trkpt>
      <trkpt lat="46.49159" lon="0.28869">
        <ele>133.19999694824</ele>
        <time>2020-06-05T15:07:07.000Z</time>
      </trkpt>
      <trkpt lat="46.49165" lon="0.2887">
        <ele>133.39999389648</ele>
        <time>2020-06-05T15:07:08.000Z</time>
      </trkpt>
      <trkpt lat="46.49172" lon="0.28871">
        <ele>133.60000610352</ele>
        <time>2020-06-05T15:07:09.000Z</time>
      </trkpt>
      <trkpt lat="46.49178" lon="0.28872">
        <ele>133.80000305176</ele>
        <time>2020-06-05T15:07:10.000Z</time>
      </trkpt>
      <trkpt lat="46.49185" lon="0.28874">
        <ele>134</ele>
        <time>2020-06-05T15:07:11.000Z</time>
      </trkpt>
      <trkpt lat="46.49192" lon="0.28877">
        <ele>134</ele>
        <time>2020-06-05T15:07:12.000Z</time>
      </trkpt>
      <trkpt lat="46.49198" lon="0.28879">
        <ele>134.60000610352</ele>
        <time>2020-06-05T15:07:13.000Z</time>
      </trkpt>
      <trkpt lat="46.49205" lon="0.28881">
        <ele>135</ele>
        <time>2020-06-05T15:07:14.000Z</time>
      </trkpt>
      <trkpt lat="46.49212" lon="0.28883">
        <ele>135.39999389648</ele>
        <time>2020-06-05T15:07:15.000Z</time>
      </trkpt>
      <trkpt lat="46.49219" lon="0.28885">
        <ele>135.60000610352</ele>
        <time>2020-06-05T15:07:16.000Z</time>
      </trkpt>
      <trkpt lat="46.49226" lon="0.28887">
        <ele>135.60000610352</ele>
        <time>2020-06-05T15:07:17.000Z</time>
      </trkpt>
      <trkpt lat="46.49233" lon="0.28889">
        <ele>135.80000305176</ele>
        <time>2020-06-05T15:07:18.000Z</time>
      </trkpt>
      <trkpt lat="46.49239" lon="0.28892">
        <ele>135.80000305176</ele>
        <time>2020-06-05T15:07:19.000Z</time>
      </trkpt>
      <trkpt lat="46.49246" lon="0.28894">
        <ele>135.80000305176</ele>
        <time>2020-06-05T15:07:20.000Z</time>
      </trkpt>
      <trkpt lat="46.49253" lon="0.28896">
        <ele>135.80000305176</ele>
        <time>2020-06-05T15:07:21.000Z</time>
      </trkpt>
      <trkpt lat="46.4926" lon="0.28897">
        <ele>135.80000305176</ele>
        <time>2020-06-05T15:07:22.000Z</time>
      </trkpt>
      <trkpt lat="46.49267" lon="0.28899">
        <ele>135.80000305176</ele>
        <time>2020-06-05T15:07:23.000Z</time>
      </trkpt>
      <trkpt lat="46.49286" lon="0.28907">
        <ele>135.80000305176</ele>
        <time>2020-06-05T15:07:26.000Z</time>
      </trkpt>
      <trkpt lat="46.49292" lon="0.28909">
        <ele>135.80000305176</ele>
        <time>2020-06-05T15:07:27.000Z</time>
      </trkpt>
      <trkpt lat="46.49298" lon="0.28912">
        <ele>135.80000305176</ele>
        <time>2020-06-05T15:07:28.000Z</time>
      </trkpt>
      <trkpt lat="46.49305" lon="0.28915">
        <ele>135.80000305176</ele>
        <time>2020-06-05T15:07:29.000Z</time>
      </trkpt>
      <trkpt lat="46.49311" lon="0.28918">
        <ele>135.80000305176</ele>
        <time>2020-06-05T15:07:30.000Z</time>
      </trkpt>
      <trkpt lat="46.49317" lon="0.2892">
        <ele>135.80000305176</ele>
        <time>2020-06-05T15:07:31.000Z</time>
      </trkpt>
      <trkpt lat="46.49344" lon="0.28935">
        <ele>135.19999694824</ele>
        <time>2020-06-05T15:07:35.000Z</time>
      </trkpt>
      <trkpt lat="46.49357" lon="0.28943">
        <ele>135.19999694824</ele>
        <time>2020-06-05T15:07:37.000Z</time>
      </trkpt>
      <trkpt lat="46.49363" lon="0.28947">
        <ele>135</ele>
        <time>2020-06-05T15:07:38.000Z</time>
      </trkpt>
      <trkpt lat="46.49369" lon="0.28951">
        <ele>135</ele>
        <time>2020-06-05T15:07:39.000Z</time>
      </trkpt>
      <trkpt lat="46.49375" lon="0.28956">
        <ele>135</ele>
        <time>2020-06-05T15:07:40.000Z</time>
      </trkpt>
      <trkpt lat="46.49381" lon="0.28961">
        <ele>135</ele>
        <time>2020-06-05T15:07:41.000Z</time>
      </trkpt>
      <trkpt lat="46.49397" lon="0.28979">
        <ele>134.80000305176</ele>
        <time>2020-06-05T15:07:44.000Z</time>
      </trkpt>
      <trkpt lat="46.49397" lon="0.28979">
        <ele>135</ele>
        <time>2020-06-05T15:07:45.000Z</time>
      </trkpt>
      <trkpt lat="46.49406" lon="0.28991">
        <ele>135</ele>
        <time>2020-06-05T15:07:46.000Z</time>
      </trkpt>
      <trkpt lat="46.4941" lon="0.28997">
        <ele>135.19999694824</ele>
        <time>2020-06-05T15:07:47.000Z</time>
      </trkpt>
      <trkpt lat="46.49414" lon="0.29002">
        <ele>135.19999694824</ele>
        <time>2020-06-05T15:07:48.000Z</time>
      </trkpt>
      <trkpt lat="46.49418" lon="0.29007">
        <ele>135.39999389648</ele>
        <time>2020-06-05T15:07:49.000Z</time>
      </trkpt>
      <trkpt lat="46.49422" lon="0.29013">
        <ele>135.39999389648</ele>
        <time>2020-06-05T15:07:50.000Z</time>
      </trkpt>
      <trkpt lat="46.49426" lon="0.29019">
        <ele>135.39999389648</ele>
        <time>2020-06-05T15:07:51.000Z</time>
      </trkpt>
      <trkpt lat="46.4943" lon="0.29026">
        <ele>135.39999389648</ele>
        <time>2020-06-05T15:07:52.000Z</time>
      </trkpt>
      <trkpt lat="46.49432" lon="0.29034">
        <ele>135.60000610352</ele>
        <time>2020-06-05T15:07:53.000Z</time>
      </trkpt>
      <trkpt lat="46.49433" lon="0.29043">
        <ele>135.80000305176</ele>
        <time>2020-06-05T15:07:54.000Z</time>
      </trkpt>
      <trkpt lat="46.49438" lon="0.29071">
        <ele>136.19999694824</ele>
        <time>2020-06-05T15:07:57.000Z</time>
      </trkpt>
      <trkpt lat="46.4944" lon="0.2908">
        <ele>136.19999694824</ele>
        <time>2020-06-05T15:07:58.000Z</time>
      </trkpt>
      <trkpt lat="46.49442" lon="0.2909">
        <ele>136.19999694824</ele>
        <time>2020-06-05T15:07:59.000Z</time>
      </trkpt>
      <trkpt lat="46.49445" lon="0.291">
        <ele>136</ele>
        <time>2020-06-05T15:08:00.000Z</time>
      </trkpt>
      <trkpt lat="46.49453" lon="0.29132">
        <ele>135.60000610352</ele>
        <time>2020-06-05T15:08:03.000Z</time>
      </trkpt>
      <trkpt lat="46.49455" lon="0.29144">
        <ele>135.19999694824</ele>
        <time>2020-06-05T15:08:04.000Z</time>
      </trkpt>
      <trkpt lat="46.49456" lon="0.29152">
        <ele>134.39999389648</ele>
        <time>2020-06-05T15:08:05.000Z</time>
      </trkpt>
      <trkpt lat="46.49458" lon="0.29161">
        <ele>134</ele>
        <time>2020-06-05T15:08:06.000Z</time>
      </trkpt>
      <trkpt lat="46.49459" lon="0.29171">
        <ele>133.60000610352</ele>
        <time>2020-06-05T15:08:07.000Z</time>
      </trkpt>
      <trkpt lat="46.49462" lon="0.2918">
        <ele>133.39999389648</ele>
        <time>2020-06-05T15:08:08.000Z</time>
      </trkpt>
      <trkpt lat="46.49465" lon="0.29192">
        <ele>133.19999694824</ele>
        <time>2020-06-05T15:08:09.000Z</time>
      </trkpt>
      <trkpt lat="46.49468" lon="0.29201">
        <ele>132.60000610352</ele>
        <time>2020-06-05T15:08:10.000Z</time>
      </trkpt>
      <trkpt lat="46.4947" lon="0.29212">
        <ele>132.19999694824</ele>
        <time>2020-06-05T15:08:11.000Z</time>
      </trkpt>
      <trkpt lat="46.49477" lon="0.29245">
        <ele>131</ele>
        <time>2020-06-05T15:08:14.000Z</time>
      </trkpt>
      <trkpt lat="46.49482" lon="0.29277">
        <ele>130.80000305176</ele>
        <time>2020-06-05T15:08:17.000Z</time>
      </trkpt>
      <trkpt lat="46.49483" lon="0.29286">
        <ele>130.80000305176</ele>
        <time>2020-06-05T15:08:18.000Z</time>
      </trkpt>
      <trkpt lat="46.49484" lon="0.29295">
        <ele>130.80000305176</ele>
        <time>2020-06-05T15:08:19.000Z</time>
      </trkpt>
      <trkpt lat="46.49486" lon="0.29304">
        <ele>131.60000610352</ele>
        <time>2020-06-05T15:08:20.000Z</time>
      </trkpt>
      <trkpt lat="46.49487" lon="0.29313">
        <ele>132</ele>
        <time>2020-06-05T15:08:21.000Z</time>
      </trkpt>
      <trkpt lat="46.49488" lon="0.29322">
        <ele>132.39999389648</ele>
        <time>2020-06-05T15:08:22.000Z</time>
      </trkpt>
      <trkpt lat="46.49489" lon="0.2933">
        <ele>132.60000610352</ele>
        <time>2020-06-05T15:08:23.000Z</time>
      </trkpt>
      <trkpt lat="46.49491" lon="0.29339">
        <ele>133.39999389648</ele>
        <time>2020-06-05T15:08:24.000Z</time>
      </trkpt>
      <trkpt lat="46.49492" lon="0.29348">
        <ele>133.80000305176</ele>
        <time>2020-06-05T15:08:25.000Z</time>
      </trkpt>
      <trkpt lat="46.49492" lon="0.29348">
        <ele>134.60000610352</ele>
        <time>2020-06-05T15:08:26.000Z</time>
      </trkpt>
      <trkpt lat="46.49494" lon="0.29358">
        <ele>135.19999694824</ele>
        <time>2020-06-05T15:08:27.000Z</time>
      </trkpt>
      <trkpt lat="46.49495" lon="0.29376">
        <ele>135.39999389648</ele>
        <time>2020-06-05T15:08:28.000Z</time>
      </trkpt>
      <trkpt lat="46.49496" lon="0.29385">
        <ele>136</ele>
        <time>2020-06-05T15:08:29.000Z</time>
      </trkpt>
      <trkpt lat="46.49496" lon="0.29394">
        <ele>136.19999694824</ele>
        <time>2020-06-05T15:08:30.000Z</time>
      </trkpt>
      <trkpt lat="46.49496" lon="0.29394">
        <ele>136.60000610352</ele>
        <time>2020-06-05T15:08:31.000Z</time>
      </trkpt>
      <trkpt lat="46.49498" lon="0.29412">
        <ele>136.80000305176</ele>
        <time>2020-06-05T15:08:32.000Z</time>
      </trkpt>
      <trkpt lat="46.49499" lon="0.29421">
        <ele>137.19999694824</ele>
        <time>2020-06-05T15:08:33.000Z</time>
      </trkpt>
      <trkpt lat="46.49499" lon="0.2943">
        <ele>137.60000610352</ele>
        <time>2020-06-05T15:08:34.000Z</time>
      </trkpt>
      <trkpt lat="46.49499" lon="0.29439">
        <ele>137.80000305176</ele>
        <time>2020-06-05T15:08:35.000Z</time>
      </trkpt>
      <trkpt lat="46.49499" lon="0.29448">
        <ele>138.39999389648</ele>
        <time>2020-06-05T15:08:36.000Z</time>
      </trkpt>
      <trkpt lat="46.49498" lon="0.29457">
        <ele>138.60000610352</ele>
        <time>2020-06-05T15:08:37.000Z</time>
      </trkpt>
      <trkpt lat="46.49497" lon="0.29465">
        <ele>139.19999694824</ele>
        <time>2020-06-05T15:08:38.000Z</time>
      </trkpt>
      <trkpt lat="46.49496" lon="0.29474">
        <ele>139.39999389648</ele>
        <time>2020-06-05T15:08:39.000Z</time>
      </trkpt>
      <trkpt lat="46.49495" lon="0.29482">
        <ele>139.60000610352</ele>
        <time>2020-06-05T15:08:40.000Z</time>
      </trkpt>
      <trkpt lat="46.49494" lon="0.29491">
        <ele>139.80000305176</ele>
        <time>2020-06-05T15:08:41.000Z</time>
      </trkpt>
      <trkpt lat="46.49493" lon="0.295">
        <ele>140</ele>
        <time>2020-06-05T15:08:42.000Z</time>
      </trkpt>
      <trkpt lat="46.49493" lon="0.2951">
        <ele>140</ele>
        <time>2020-06-05T15:08:43.000Z</time>
      </trkpt>
      <trkpt lat="46.49492" lon="0.2952">
        <ele>140</ele>
        <time>2020-06-05T15:08:44.000Z</time>
      </trkpt>
      <trkpt lat="46.49491" lon="0.29531">
        <ele>140.19999694824</ele>
        <time>2020-06-05T15:08:45.000Z</time>
      </trkpt>
      <trkpt lat="46.4949" lon="0.29541">
        <ele>140.19999694824</ele>
        <time>2020-06-05T15:08:46.000Z</time>
      </trkpt>
      <trkpt lat="46.49489" lon="0.2955">
        <ele>140.39999389648</ele>
        <time>2020-06-05T15:08:47.000Z</time>
      </trkpt>
      <trkpt lat="46.49487" lon="0.29558">
        <ele>140.39999389648</ele>
        <time>2020-06-05T15:08:48.000Z</time>
      </trkpt>
      <trkpt lat="46.49486" lon="0.29567">
        <ele>140.39999389648</ele>
        <time>2020-06-05T15:08:49.000Z</time>
      </trkpt>
      <trkpt lat="46.49485" lon="0.29575">
        <ele>140.39999389648</ele>
        <time>2020-06-05T15:08:50.000Z</time>
      </trkpt>
      <trkpt lat="46.49483" lon="0.29585">
        <ele>140.39999389648</ele>
        <time>2020-06-05T15:08:51.000Z</time>
      </trkpt>
      <trkpt lat="46.49479" lon="0.29617">
        <ele>140.39999389648</ele>
        <time>2020-06-05T15:08:54.000Z</time>
      </trkpt>
      <trkpt lat="46.49477" lon="0.2964">
        <ele>140.19999694824</ele>
        <time>2020-06-05T15:08:56.000Z</time>
      </trkpt>
      <trkpt lat="46.49473" lon="0.29685">
        <ele>139.19999694824</ele>
        <time>2020-06-05T15:09:00.000Z</time>
      </trkpt>
      <trkpt lat="46.49468" lon="0.29719">
        <ele>138.19999694824</ele>
        <time>2020-06-05T15:09:03.000Z</time>
      </trkpt>
      <trkpt lat="46.49466" lon="0.29729">
        <ele>137.39999389648</ele>
        <time>2020-06-05T15:09:04.000Z</time>
      </trkpt>
      <trkpt lat="46.49463" lon="0.29749">
        <ele>137</ele>
        <time>2020-06-05T15:09:06.000Z</time>
      </trkpt>
      <trkpt lat="46.49459" lon="0.29772">
        <ele>136.60000610352</ele>
        <time>2020-06-05T15:09:08.000Z</time>
      </trkpt>
      <trkpt lat="46.49459" lon="0.29784">
        <ele>136.19999694824</ele>
        <time>2020-06-05T15:09:09.000Z</time>
      </trkpt>
      <trkpt lat="46.49457" lon="0.29794">
        <ele>136</ele>
        <time>2020-06-05T15:09:10.000Z</time>
      </trkpt>
      <trkpt lat="46.49456" lon="0.29804">
        <ele>135.60000610352</ele>
        <time>2020-06-05T15:09:11.000Z</time>
      </trkpt>
      <trkpt lat="46.49455" lon="0.29815">
        <ele>135.60000610352</ele>
        <time>2020-06-05T15:09:12.000Z</time>
      </trkpt>
      <trkpt lat="46.49455" lon="0.29827">
        <ele>135.39999389648</ele>
        <time>2020-06-05T15:09:13.000Z</time>
      </trkpt>
      <trkpt lat="46.49454" lon="0.29838">
        <ele>135.39999389648</ele>
        <time>2020-06-05T15:09:14.000Z</time>
      </trkpt>
      <trkpt lat="46.49453" lon="0.29851">
        <ele>135.39999389648</ele>
        <time>2020-06-05T15:09:15.000Z</time>
      </trkpt>
      <trkpt lat="46.4945" lon="0.29872">
        <ele>135.39999389648</ele>
        <time>2020-06-05T15:09:17.000Z</time>
      </trkpt>
      <trkpt lat="46.49445" lon="0.29905">
        <ele>135.19999694824</ele>
        <time>2020-06-05T15:09:20.000Z</time>
      </trkpt>
      <trkpt lat="46.49442" lon="0.29923">
        <ele>135.19999694824</ele>
        <time>2020-06-05T15:09:22.000Z</time>
      </trkpt>
      <trkpt lat="46.4944" lon="0.29933">
        <ele>135.19999694824</ele>
        <time>2020-06-05T15:09:23.000Z</time>
      </trkpt>
      <trkpt lat="46.49438" lon="0.29941">
        <ele>135.19999694824</ele>
        <time>2020-06-05T15:09:24.000Z</time>
      </trkpt>
      <trkpt lat="46.49435" lon="0.29949">
        <ele>135.19999694824</ele>
        <time>2020-06-05T15:09:25.000Z</time>
      </trkpt>
      <trkpt lat="46.49433" lon="0.29956">
        <ele>135.39999389648</ele>
        <time>2020-06-05T15:09:26.000Z</time>
      </trkpt>
      <trkpt lat="46.49431" lon="0.29964">
        <ele>135.60000610352</ele>
        <time>2020-06-05T15:09:27.000Z</time>
      </trkpt>
      <trkpt lat="46.49429" lon="0.29971">
        <ele>136.19999694824</ele>
        <time>2020-06-05T15:09:28.000Z</time>
      </trkpt>
      <trkpt lat="46.49427" lon="0.29978">
        <ele>136.60000610352</ele>
        <time>2020-06-05T15:09:29.000Z</time>
      </trkpt>
      <trkpt lat="46.49424" lon="0.29984">
        <ele>137</ele>
        <time>2020-06-05T15:09:30.000Z</time>
      </trkpt>
      <trkpt lat="46.49421" lon="0.2999">
        <ele>137.19999694824</ele>
        <time>2020-06-05T15:09:31.000Z</time>
      </trkpt>
      <trkpt lat="46.49421" lon="0.2999">
        <ele>137.39999389648</ele>
        <time>2020-06-05T15:09:32.000Z</time>
      </trkpt>
      <trkpt lat="46.49415" lon="0.30005">
        <ele>137.60000610352</ele>
        <time>2020-06-05T15:09:33.000Z</time>
      </trkpt>
      <trkpt lat="46.49412" lon="0.30012">
        <ele>137.80000305176</ele>
        <time>2020-06-05T15:09:34.000Z</time>
      </trkpt>
      <trkpt lat="46.49409" lon="0.30019">
        <ele>138</ele>
        <time>2020-06-05T15:09:35.000Z</time>
      </trkpt>
      <trkpt lat="46.49409" lon="0.30019">
        <ele>138.19999694824</ele>
        <time>2020-06-05T15:09:36.000Z</time>
      </trkpt>
      <trkpt lat="46.49403" lon="0.30032">
        <ele>138.60000610352</ele>
        <time>2020-06-05T15:09:37.000Z</time>
      </trkpt>
      <trkpt lat="46.494" lon="0.30038">
        <ele>138.80000305176</ele>
        <time>2020-06-05T15:09:38.000Z</time>
      </trkpt>
      <trkpt lat="46.49399" lon="0.30044">
        <ele>139</ele>
        <time>2020-06-05T15:09:39.000Z</time>
      </trkpt>
      <trkpt lat="46.49399" lon="0.30048">
        <ele>139.19999694824</ele>
        <time>2020-06-05T15:09:40.000Z</time>
      </trkpt>
      <trkpt lat="46.494" lon="0.30051">
        <ele>139.39999389648</ele>
        <time>2020-06-05T15:09:41.000Z</time>
      </trkpt>
      <trkpt lat="46.49403" lon="0.30052">
        <ele>139.39999389648</ele>
        <time>2020-06-05T15:09:42.000Z</time>
      </trkpt>
      <trkpt lat="46.49406" lon="0.30052">
        <ele>139.60000610352</ele>
        <time>2020-06-05T15:09:43.000Z</time>
      </trkpt>
      <trkpt lat="46.49408" lon="0.30054">
        <ele>139.80000305176</ele>
        <time>2020-06-05T15:09:44.000Z</time>
      </trkpt>
      <trkpt lat="46.4941" lon="0.30058">
        <ele>140</ele>
        <time>2020-06-05T15:09:45.000Z</time>
      </trkpt>
      <trkpt lat="46.49413" lon="0.30062">
        <ele>140.19999694824</ele>
        <time>2020-06-05T15:09:46.000Z</time>
      </trkpt>
      <trkpt lat="46.49413" lon="0.30062">
        <ele>140.19999694824</ele>
        <time>2020-06-05T15:09:47.000Z</time>
      </trkpt>
      <trkpt lat="46.4942" lon="0.30062">
        <ele>140.19999694824</ele>
        <time>2020-06-05T15:09:48.000Z</time>
      </trkpt>
      <trkpt lat="46.49425" lon="0.30061">
        <ele>140.19999694824</ele>
        <time>2020-06-05T15:09:49.000Z</time>
      </trkpt>
      <trkpt lat="46.49431" lon="0.30059">
        <ele>140.19999694824</ele>
        <time>2020-06-05T15:09:50.000Z</time>
      </trkpt>
      <trkpt lat="46.49437" lon="0.30058">
        <ele>140.19999694824</ele>
        <time>2020-06-05T15:09:51.000Z</time>
      </trkpt>
      <trkpt lat="46.4945" lon="0.30058">
        <ele>140</ele>
        <time>2020-06-05T15:09:53.000Z</time>
      </trkpt>
      <trkpt lat="46.49464" lon="0.30057">
        <ele>140</ele>
        <time>2020-06-05T15:09:55.000Z</time>
      </trkpt>
      <trkpt lat="46.49471" lon="0.30056">
        <ele>140</ele>
        <time>2020-06-05T15:09:56.000Z</time>
      </trkpt>
      <trkpt lat="46.49485" lon="0.30056">
        <ele>140</ele>
        <time>2020-06-05T15:09:58.000Z</time>
      </trkpt>
      <trkpt lat="46.4949" lon="0.30056">
        <ele>140</ele>
        <time>2020-06-05T15:09:59.000Z</time>
      </trkpt>
      <trkpt lat="46.49548" lon="0.30056">
        <ele>140.19999694824</ele>
        <time>2020-06-05T15:10:07.000Z</time>
      </trkpt>
      <trkpt lat="46.49556" lon="0.30057">
        <ele>140.19999694824</ele>
        <time>2020-06-05T15:10:08.000Z</time>
      </trkpt>
      <trkpt lat="46.49595" lon="0.30068">
        <ele>140.19999694824</ele>
        <time>2020-06-05T15:10:13.000Z</time>
      </trkpt>
      <trkpt lat="46.49603" lon="0.3007">
        <ele>140.39999389648</ele>
        <time>2020-06-05T15:10:14.000Z</time>
      </trkpt>
      <trkpt lat="46.49618" lon="0.30075">
        <ele>140.39999389648</ele>
        <time>2020-06-05T15:10:16.000Z</time>
      </trkpt>
      <trkpt lat="46.49647" lon="0.30084">
        <ele>140.39999389648</ele>
        <time>2020-06-05T15:10:20.000Z</time>
      </trkpt>
      <trkpt lat="46.49654" lon="0.30086">
        <ele>140.39999389648</ele>
        <time>2020-06-05T15:10:21.000Z</time>
      </trkpt>
      <trkpt lat="46.49661" lon="0.30087">
        <ele>140.39999389648</ele>
        <time>2020-06-05T15:10:22.000Z</time>
      </trkpt>
      <trkpt lat="46.49668" lon="0.30087">
        <ele>140.39999389648</ele>
        <time>2020-06-05T15:10:23.000Z</time>
      </trkpt>
      <trkpt lat="46.49676" lon="0.30085">
        <ele>140.39999389648</ele>
        <time>2020-06-05T15:10:24.000Z</time>
      </trkpt>
      <trkpt lat="46.49683" lon="0.30083">
        <ele>140.39999389648</ele>
        <time>2020-06-05T15:10:25.000Z</time>
      </trkpt>
      <trkpt lat="46.49689" lon="0.3008">
        <ele>140.39999389648</ele>
        <time>2020-06-05T15:10:26.000Z</time>
      </trkpt>
      <trkpt lat="46.49695" lon="0.30077">
        <ele>140.60000610352</ele>
        <time>2020-06-05T15:10:27.000Z</time>
      </trkpt>
      <trkpt lat="46.49702" lon="0.30073">
        <ele>140.80000305176</ele>
        <time>2020-06-05T15:10:28.000Z</time>
      </trkpt>
      <trkpt lat="46.49724" lon="0.30095">
        <ele>141.8</ele>
      </trkpt>
      <trkpt lat="46.49725" lon="0.30096">
        <ele>142.19999694824</ele>
        <time>2020-06-05T15:10:52.000Z</time>
      </trkpt>
      <trkpt lat="46.49727" lon="0.30099">
        <ele>142</ele>
        <time>2020-06-05T15:10:53.000Z</time>
      </trkpt>
      <trkpt lat="46.4973" lon="0.30102">
        <ele>142</ele>
        <time>2020-06-05T15:10:54.000Z</time>
      </trkpt>
      <trkpt lat="46.49733" lon="0.30105">
        <ele>142</ele>
        <time>2020-06-05T15:10:55.000Z</time>
      </trkpt>
      <trkpt lat="46.49736" lon="0.30107">
        <ele>142</ele>
        <time>2020-06-05T15:10:56.000Z</time>
      </trkpt>
      <trkpt lat="46.49743" lon="0.30112">
        <ele>142</ele>
        <time>2020-06-05T15:10:58.000Z</time>
      </trkpt>
      <trkpt lat="46.49747" lon="0.30113">
        <ele>142</ele>
        <time>2020-06-05T15:10:59.000Z</time>
      </trkpt>
      <trkpt lat="46.4975" lon="0.30115">
        <ele>142</ele>
        <time>2020-06-05T15:11:00.000Z</time>
      </trkpt>
      <trkpt lat="46.49753" lon="0.30116">
        <ele>142</ele>
        <time>2020-06-05T15:11:01.000Z</time>
      </trkpt>
      <trkpt lat="46.49756" lon="0.30115">
        <ele>142</ele>
        <time>2020-06-05T15:11:02.000Z</time>
      </trkpt>
      <trkpt lat="46.49759" lon="0.30113">
        <ele>142</ele>
        <time>2020-06-05T15:11:03.000Z</time>
      </trkpt>
      <trkpt lat="46.49763" lon="0.30111">
        <ele>142.19999694824</ele>
        <time>2020-06-05T15:11:04.000Z</time>
      </trkpt>
      <trkpt lat="46.49766" lon="0.30108">
        <ele>142.19999694824</ele>
        <time>2020-06-05T15:11:05.000Z</time>
      </trkpt>
      <trkpt lat="46.49771" lon="0.30107">
        <ele>142.39999389648</ele>
        <time>2020-06-05T15:11:06.000Z</time>
      </trkpt>
      <trkpt lat="46.49775" lon="0.30107">
        <ele>142.60000610352</ele>
        <time>2020-06-05T15:11:07.000Z</time>
      </trkpt>
      <trkpt lat="46.4978" lon="0.30109">
        <ele>142.60000610352</ele>
        <time>2020-06-05T15:11:08.000Z</time>
      </trkpt>
      <trkpt lat="46.49784" lon="0.30111">
        <ele>143</ele>
        <time>2020-06-05T15:11:09.000Z</time>
      </trkpt>
      <trkpt lat="46.49788" lon="0.30114">
        <ele>143</ele>
        <time>2020-06-05T15:11:10.000Z</time>
      </trkpt>
      <trkpt lat="46.49793" lon="0.30116">
        <ele>143.19999694824</ele>
        <time>2020-06-05T15:11:11.000Z</time>
      </trkpt>
      <trkpt lat="46.49798" lon="0.30119">
        <ele>143.39999389648</ele>
        <time>2020-06-05T15:11:12.000Z</time>
      </trkpt>
      <trkpt lat="46.49803" lon="0.30123">
        <ele>143.39999389648</ele>
        <time>2020-06-05T15:11:13.000Z</time>
      </trkpt>
      <trkpt lat="46.49809" lon="0.30126">
        <ele>143.39999389648</ele>
        <time>2020-06-05T15:11:14.000Z</time>
      </trkpt>
      <trkpt lat="46.49814" lon="0.30129">
        <ele>143.60000610352</ele>
        <time>2020-06-05T15:11:15.000Z</time>
      </trkpt>
      <trkpt lat="46.4982" lon="0.30133">
        <ele>143.60000610352</ele>
        <time>2020-06-05T15:11:16.000Z</time>
      </trkpt>
      <trkpt lat="46.49825" lon="0.30136">
        <ele>143.60000610352</ele>
        <time>2020-06-05T15:11:17.000Z</time>
      </trkpt>
      <trkpt lat="46.49831" lon="0.30139">
        <ele>144</ele>
        <time>2020-06-05T15:11:18.000Z</time>
      </trkpt>
      <trkpt lat="46.49837" lon="0.30141">
        <ele>144</ele>
        <time>2020-06-05T15:11:19.000Z</time>
      </trkpt>
      <trkpt lat="46.49843" lon="0.30145">
        <ele>144.19999694824</ele>
        <time>2020-06-05T15:11:20.000Z</time>
      </trkpt>
      <trkpt lat="46.49848" lon="0.30148">
        <ele>144.39999389648</ele>
        <time>2020-06-05T15:11:21.000Z</time>
      </trkpt>
      <trkpt lat="46.49854" lon="0.30152">
        <ele>144.39999389648</ele>
        <time>2020-06-05T15:11:22.000Z</time>
      </trkpt>
      <trkpt lat="46.4986" lon="0.30156">
        <ele>144.60000610352</ele>
        <time>2020-06-05T15:11:23.000Z</time>
      </trkpt>
      <trkpt lat="46.49865" lon="0.30159">
        <ele>144.60000610352</ele>
        <time>2020-06-05T15:11:24.000Z</time>
      </trkpt>
      <trkpt lat="46.49871" lon="0.30163">
        <ele>144.60000610352</ele>
        <time>2020-06-05T15:11:25.000Z</time>
      </trkpt>
      <trkpt lat="46.49876" lon="0.30166">
        <ele>144.80000305176</ele>
        <time>2020-06-05T15:11:26.000Z</time>
      </trkpt>
      <trkpt lat="46.49887" lon="0.30173">
        <ele>144.80000305176</ele>
        <time>2020-06-05T15:11:28.000Z</time>
      </trkpt>
      <trkpt lat="46.49893" lon="0.30176">
        <ele>144.80000305176</ele>
        <time>2020-06-05T15:11:29.000Z</time>
      </trkpt>
      <trkpt lat="46.49898" lon="0.30179">
        <ele>144.80000305176</ele>
        <time>2020-06-05T15:11:30.000Z</time>
      </trkpt>
      <trkpt lat="46.49903" lon="0.30182">
        <ele>144.60000610352</ele>
        <time>2020-06-05T15:11:31.000Z</time>
      </trkpt>
      <trkpt lat="46.49908" lon="0.30185">
        <ele>144.60000610352</ele>
        <time>2020-06-05T15:11:32.000Z</time>
      </trkpt>
      <trkpt lat="46.49914" lon="0.30187">
        <ele>144.60000610352</ele>
        <time>2020-06-05T15:11:33.000Z</time>
      </trkpt>
      <trkpt lat="46.49919" lon="0.3019">
        <ele>144.60000610352</ele>
        <time>2020-06-05T15:11:34.000Z</time>
      </trkpt>
      <trkpt lat="46.49926" lon="0.30194">
        <ele>144.60000610352</ele>
        <time>2020-06-05T15:11:35.000Z</time>
      </trkpt>
      <trkpt lat="46.49931" lon="0.30197">
        <ele>144.19999694824</ele>
        <time>2020-06-05T15:11:36.000Z</time>
      </trkpt>
      <trkpt lat="46.49937" lon="0.302">
        <ele>143.80000305176</ele>
        <time>2020-06-05T15:11:37.000Z</time>
      </trkpt>
      <trkpt lat="46.49942" lon="0.30204">
        <ele>143.60000610352</ele>
        <time>2020-06-05T15:11:38.000Z</time>
      </trkpt>
      <trkpt lat="46.49949" lon="0.30209">
        <ele>143.60000610352</ele>
        <time>2020-06-05T15:11:39.000Z</time>
      </trkpt>
      <trkpt lat="46.49954" lon="0.30213">
        <ele>143.60000610352</ele>
        <time>2020-06-05T15:11:40.000Z</time>
      </trkpt>
      <trkpt lat="46.49964" lon="0.3022">
        <ele>143.19999694824</ele>
        <time>2020-06-05T15:11:42.000Z</time>
      </trkpt>
      <trkpt lat="46.49983" lon="0.30233">
        <ele>142</ele>
        <time>2020-06-05T15:11:45.000Z</time>
      </trkpt>
      <trkpt lat="46.50008" lon="0.30244">
        <ele>141.60000610352</ele>
        <time>2020-06-05T15:11:49.000Z</time>
      </trkpt>
      <trkpt lat="46.50013" lon="0.30245">
        <ele>141.60000610352</ele>
        <time>2020-06-05T15:11:50.000Z</time>
      </trkpt>
      <trkpt lat="46.50019" lon="0.30246">
        <ele>141.39999389648</ele>
        <time>2020-06-05T15:11:51.000Z</time>
      </trkpt>
      <trkpt lat="46.50025" lon="0.30247">
        <ele>141.19999694824</ele>
        <time>2020-06-05T15:11:52.000Z</time>
      </trkpt>
      <trkpt lat="46.50033" lon="0.30248">
        <ele>140.80000305176</ele>
        <time>2020-06-05T15:11:53.000Z</time>
      </trkpt>
      <trkpt lat="46.50039" lon="0.30248">
        <ele>140.39999389648</ele>
        <time>2020-06-05T15:11:54.000Z</time>
      </trkpt>
      <trkpt lat="46.50044" lon="0.30249">
        <ele>140.39999389648</ele>
        <time>2020-06-05T15:11:55.000Z</time>
      </trkpt>
      <trkpt lat="46.5005" lon="0.30249">
        <ele>140.39999389648</ele>
        <time>2020-06-05T15:11:56.000Z</time>
      </trkpt>
      <trkpt lat="46.50057" lon="0.3025">
        <ele>140.39999389648</ele>
        <time>2020-06-05T15:11:57.000Z</time>
      </trkpt>
      <trkpt lat="46.50063" lon="0.3025">
        <ele>140.19999694824</ele>
        <time>2020-06-05T15:11:58.000Z</time>
      </trkpt>
      <trkpt lat="46.50069" lon="0.3025">
        <ele>140.19999694824</ele>
        <time>2020-06-05T15:11:59.000Z</time>
      </trkpt>
      <trkpt lat="46.50075" lon="0.30251">
        <ele>140</ele>
        <time>2020-06-05T15:12:00.000Z</time>
      </trkpt>
      <trkpt lat="46.50081" lon="0.30251">
        <ele>140</ele>
        <time>2020-06-05T15:12:01.000Z</time>
      </trkpt>
      <trkpt lat="46.50101" lon="0.30253">
        <ele>140</ele>
        <time>2020-06-05T15:12:04.000Z</time>
      </trkpt>
      <trkpt lat="46.50105" lon="0.30254">
        <ele>139.80000305176</ele>
        <time>2020-06-05T15:12:05.000Z</time>
      </trkpt>
      <trkpt lat="46.50111" lon="0.30254">
        <ele>139.80000305176</ele>
        <time>2020-06-05T15:12:06.000Z</time>
      </trkpt>
      <trkpt lat="46.50118" lon="0.30255">
        <ele>139.60000610352</ele>
        <time>2020-06-05T15:12:07.000Z</time>
      </trkpt>
      <trkpt lat="46.50124" lon="0.30256">
        <ele>139.39999389648</ele>
        <time>2020-06-05T15:12:08.000Z</time>
      </trkpt>
      <trkpt lat="46.50129" lon="0.30256">
        <ele>139.19999694824</ele>
        <time>2020-06-05T15:12:09.000Z</time>
      </trkpt>
      <trkpt lat="46.50135" lon="0.30258">
        <ele>139.39999389648</ele>
        <time>2020-06-05T15:12:10.000Z</time>
      </trkpt>
      <trkpt lat="46.50142" lon="0.30259">
        <ele>139.60000610352</ele>
        <time>2020-06-05T15:12:11.000Z</time>
      </trkpt>
      <trkpt lat="46.50147" lon="0.30261">
        <ele>139.60000610352</ele>
        <time>2020-06-05T15:12:12.000Z</time>
      </trkpt>
      <trkpt lat="46.50153" lon="0.30264">
        <ele>139.60000610352</ele>
        <time>2020-06-05T15:12:13.000Z</time>
      </trkpt>
      <trkpt lat="46.50157" lon="0.30266">
        <ele>139.60000610352</ele>
        <time>2020-06-05T15:12:14.000Z</time>
      </trkpt>
      <trkpt lat="46.50162" lon="0.30268">
        <ele>139.39999389648</ele>
        <time>2020-06-05T15:12:15.000Z</time>
      </trkpt>
      <trkpt lat="46.50167" lon="0.3027">
        <ele>139.19999694824</ele>
        <time>2020-06-05T15:12:16.000Z</time>
      </trkpt>
      <trkpt lat="46.50171" lon="0.30272">
        <ele>139.39999389648</ele>
        <time>2020-06-05T15:12:17.000Z</time>
      </trkpt>
      <trkpt lat="46.50176" lon="0.30273">
        <ele>139.39999389648</ele>
        <time>2020-06-05T15:12:18.000Z</time>
      </trkpt>
      <trkpt lat="46.50179" lon="0.30274">
        <ele>139.39999389648</ele>
        <time>2020-06-05T15:12:19.000Z</time>
      </trkpt>
      <trkpt lat="46.50183" lon="0.30274">
        <ele>139.39999389648</ele>
        <time>2020-06-05T15:12:20.000Z</time>
      </trkpt>
      <trkpt lat="46.50189" lon="0.30275">
        <ele>139.19999694824</ele>
        <time>2020-06-05T15:12:21.000Z</time>
      </trkpt>
      <trkpt lat="46.50194" lon="0.30276">
        <ele>139.19999694824</ele>
        <time>2020-06-05T15:12:22.000Z</time>
      </trkpt>
      <trkpt lat="46.502" lon="0.30276">
        <ele>139</ele>
        <time>2020-06-05T15:12:23.000Z</time>
      </trkpt>
      <trkpt lat="46.50219" lon="0.30278">
        <ele>138.80000305176</ele>
        <time>2020-06-05T15:12:26.000Z</time>
      </trkpt>
      <trkpt lat="46.50226" lon="0.30277">
        <ele>139</ele>
        <time>2020-06-05T15:12:27.000Z</time>
      </trkpt>
      <trkpt lat="46.50237" lon="0.30275">
        <ele>138.80000305176</ele>
        <time>2020-06-05T15:12:29.000Z</time>
      </trkpt>
      <trkpt lat="46.50244" lon="0.30274">
        <ele>138.80000305176</ele>
        <time>2020-06-05T15:12:30.000Z</time>
      </trkpt>
      <trkpt lat="46.50249" lon="0.30273">
        <ele>138.80000305176</ele>
        <time>2020-06-05T15:12:31.000Z</time>
      </trkpt>
      <trkpt lat="46.50257" lon="0.30274">
        <ele>138.80000305176</ele>
        <time>2020-06-05T15:12:32.000Z</time>
      </trkpt>
      <trkpt lat="46.50262" lon="0.30274">
        <ele>138.80000305176</ele>
        <time>2020-06-05T15:12:33.000Z</time>
      </trkpt>
      <trkpt lat="46.50269" lon="0.30275">
        <ele>138.60000610352</ele>
        <time>2020-06-05T15:12:34.000Z</time>
      </trkpt>
      <trkpt lat="46.50278" lon="0.30274">
        <ele>138.60000610352</ele>
        <time>2020-06-05T15:12:35.000Z</time>
      </trkpt>
      <trkpt lat="46.50291" lon="0.30276">
        <ele>138.60000610352</ele>
        <time>2020-06-05T15:12:37.000Z</time>
      </trkpt>
      <trkpt lat="46.50296" lon="0.30276">
        <ele>138.60000610352</ele>
        <time>2020-06-05T15:12:38.000Z</time>
      </trkpt>
      <trkpt lat="46.50301" lon="0.30276">
        <ele>138.60000610352</ele>
        <time>2020-06-05T15:12:39.000Z</time>
      </trkpt>
      <trkpt lat="46.50309" lon="0.30275">
        <ele>138.60000610352</ele>
        <time>2020-06-05T15:12:40.000Z</time>
      </trkpt>
      <trkpt lat="46.50314" lon="0.30275">
        <ele>138.60000610352</ele>
        <time>2020-06-05T15:12:41.000Z</time>
      </trkpt>
      <trkpt lat="46.50319" lon="0.30274">
        <ele>138.39999389648</ele>
        <time>2020-06-05T15:12:42.000Z</time>
      </trkpt>
      <trkpt lat="46.50325" lon="0.30273">
        <ele>138.39999389648</ele>
        <time>2020-06-05T15:12:43.000Z</time>
      </trkpt>
      <trkpt lat="46.50333" lon="0.30272">
        <ele>138.19999694824</ele>
        <time>2020-06-05T15:12:44.000Z</time>
      </trkpt>
      <trkpt lat="46.5034" lon="0.30271">
        <ele>138.19999694824</ele>
        <time>2020-06-05T15:12:45.000Z</time>
      </trkpt>
      <trkpt lat="46.50347" lon="0.30269">
        <ele>138.19999694824</ele>
        <time>2020-06-05T15:12:46.000Z</time>
      </trkpt>
      <trkpt lat="46.50351" lon="0.30267">
        <ele>138.19999694824</ele>
        <time>2020-06-05T15:12:47.000Z</time>
      </trkpt>
      <trkpt lat="46.50357" lon="0.30265">
        <ele>138.19999694824</ele>
        <time>2020-06-05T15:12:48.000Z</time>
      </trkpt>
      <trkpt lat="46.50363" lon="0.30261">
        <ele>138.19999694824</ele>
        <time>2020-06-05T15:12:49.000Z</time>
      </trkpt>
      <trkpt lat="46.50369" lon="0.30258">
        <ele>138.19999694824</ele>
        <time>2020-06-05T15:12:50.000Z</time>
      </trkpt>
      <trkpt lat="46.50376" lon="0.30255">
        <ele>138.19999694824</ele>
        <time>2020-06-05T15:12:51.000Z</time>
      </trkpt>
      <trkpt lat="46.50387" lon="0.30249">
        <ele>138</ele>
        <time>2020-06-05T15:12:53.000Z</time>
      </trkpt>
      <trkpt lat="46.50393" lon="0.30246">
        <ele>137.80000305176</ele>
        <time>2020-06-05T15:12:54.000Z</time>
      </trkpt>
      <trkpt lat="46.50398" lon="0.30242">
        <ele>137.60000610352</ele>
        <time>2020-06-05T15:12:55.000Z</time>
      </trkpt>
      <trkpt lat="46.50406" lon="0.30237">
        <ele>137.39999389648</ele>
        <time>2020-06-05T15:12:56.000Z</time>
      </trkpt>
      <trkpt lat="46.5041" lon="0.30234">
        <ele>137.19999694824</ele>
        <time>2020-06-05T15:12:57.000Z</time>
      </trkpt>
      <trkpt lat="46.50415" lon="0.30231">
        <ele>137</ele>
        <time>2020-06-05T15:12:58.000Z</time>
      </trkpt>
      <trkpt lat="46.50422" lon="0.30227">
        <ele>136.60000610352</ele>
        <time>2020-06-05T15:12:59.000Z</time>
      </trkpt>
      <trkpt lat="46.50428" lon="0.30223">
        <ele>136.19999694824</ele>
        <time>2020-06-05T15:13:00.000Z</time>
      </trkpt>
      <trkpt lat="46.50433" lon="0.3022">
        <ele>136.19999694824</ele>
        <time>2020-06-05T15:13:01.000Z</time>
      </trkpt>
      <trkpt lat="46.50443" lon="0.30215">
        <ele>136</ele>
        <time>2020-06-05T15:13:02.000Z</time>
      </trkpt>
      <trkpt lat="46.50452" lon="0.3021">
        <ele>136</ele>
        <time>2020-06-05T15:13:03.000Z</time>
      </trkpt>
      <trkpt lat="46.50457" lon="0.30208">
        <ele>135.80000305176</ele>
        <time>2020-06-05T15:13:04.000Z</time>
      </trkpt>
      <trkpt lat="46.50467" lon="0.30204">
        <ele>135.39999389648</ele>
        <time>2020-06-05T15:13:06.000Z</time>
      </trkpt>
      <trkpt lat="46.50472" lon="0.30202">
        <ele>135</ele>
        <time>2020-06-05T15:13:07.000Z</time>
      </trkpt>
      <trkpt lat="46.50479" lon="0.30201">
        <ele>134.80000305176</ele>
        <time>2020-06-05T15:13:08.000Z</time>
      </trkpt>
      <trkpt lat="46.50487" lon="0.302">
        <ele>134</ele>
        <time>2020-06-05T15:13:09.000Z</time>
      </trkpt>
      <trkpt lat="46.50504" lon="0.30198">
        <ele>133.19999694824</ele>
        <time>2020-06-05T15:13:11.000Z</time>
      </trkpt>
      <trkpt lat="46.50511" lon="0.30197">
        <ele>133.19999694824</ele>
        <time>2020-06-05T15:13:12.000Z</time>
      </trkpt>
      <trkpt lat="46.5052" lon="0.30196">
        <ele>132.60000610352</ele>
        <time>2020-06-05T15:13:13.000Z</time>
      </trkpt>
      <trkpt lat="46.50536" lon="0.30193">
        <ele>132</ele>
        <time>2020-06-05T15:13:15.000Z</time>
      </trkpt>
      <trkpt lat="46.50541" lon="0.30192">
        <ele>131.39999389648</ele>
        <time>2020-06-05T15:13:16.000Z</time>
      </trkpt>
      <trkpt lat="46.50548" lon="0.30191">
        <ele>131.19999694824</ele>
        <time>2020-06-05T15:13:17.000Z</time>
      </trkpt>
      <trkpt lat="46.50558" lon="0.30191">
        <ele>130.80000305176</ele>
        <time>2020-06-05T15:13:18.000Z</time>
      </trkpt>
      <trkpt lat="46.50564" lon="0.3019">
        <ele>130.19999694824</ele>
        <time>2020-06-05T15:13:19.000Z</time>
      </trkpt>
      <trkpt lat="46.5057" lon="0.30188">
        <ele>130</ele>
        <time>2020-06-05T15:13:20.000Z</time>
      </trkpt>
      <trkpt lat="46.50576" lon="0.30184">
        <ele>129.60000610352</ele>
        <time>2020-06-05T15:13:21.000Z</time>
      </trkpt>
      <trkpt lat="46.50585" lon="0.3018">
        <ele>129.60000610352</ele>
        <time>2020-06-05T15:13:22.000Z</time>
      </trkpt>
      <trkpt lat="46.50591" lon="0.30177">
        <ele>129.19999694824</ele>
        <time>2020-06-05T15:13:23.000Z</time>
      </trkpt>
      <trkpt lat="46.50607" lon="0.30171">
        <ele>128.39999389648</ele>
        <time>2020-06-05T15:13:25.000Z</time>
      </trkpt>
      <trkpt lat="46.50616" lon="0.30167">
        <ele>127.59999847412</ele>
        <time>2020-06-05T15:13:26.000Z</time>
      </trkpt>
      <trkpt lat="46.50624" lon="0.30162">
        <ele>127.40000152588</ele>
        <time>2020-06-05T15:13:27.000Z</time>
      </trkpt>
      <trkpt lat="46.5063" lon="0.30158">
        <ele>126.40000152588</ele>
        <time>2020-06-05T15:13:28.000Z</time>
      </trkpt>
      <trkpt lat="46.50637" lon="0.30154">
        <ele>126</ele>
        <time>2020-06-05T15:13:29.000Z</time>
      </trkpt>
      <trkpt lat="46.50643" lon="0.30151">
        <ele>125.40000152588</ele>
        <time>2020-06-05T15:13:30.000Z</time>
      </trkpt>
      <trkpt lat="46.50666" lon="0.3014">
        <ele>123.59999847412</ele>
        <time>2020-06-05T15:13:33.000Z</time>
      </trkpt>
      <trkpt lat="46.50674" lon="0.30139">
        <ele>123.19999694824</ele>
        <time>2020-06-05T15:13:34.000Z</time>
      </trkpt>
      <trkpt lat="46.50683" lon="0.30136">
        <ele>122.40000152588</ele>
        <time>2020-06-05T15:13:35.000Z</time>
      </trkpt>
      <trkpt lat="46.5069" lon="0.30134">
        <ele>122.19999694824</ele>
        <time>2020-06-05T15:13:36.000Z</time>
      </trkpt>
      <trkpt lat="46.50698" lon="0.30132">
        <ele>122</ele>
        <time>2020-06-05T15:13:37.000Z</time>
      </trkpt>
      <trkpt lat="46.50705" lon="0.3013">
        <ele>122</ele>
        <time>2020-06-05T15:13:38.000Z</time>
      </trkpt>
      <trkpt lat="46.50712" lon="0.30128">
        <ele>121.59999847412</ele>
        <time>2020-06-05T15:13:39.000Z</time>
      </trkpt>
      <trkpt lat="46.5072" lon="0.30125">
        <ele>120.80000305176</ele>
        <time>2020-06-05T15:13:40.000Z</time>
      </trkpt>
      <trkpt lat="46.5073" lon="0.30122">
        <ele>120.59999847412</ele>
        <time>2020-06-05T15:13:41.000Z</time>
      </trkpt>
      <trkpt lat="46.50745" lon="0.30119">
        <ele>119.80000305176</ele>
        <time>2020-06-05T15:13:44.000Z</time>
      </trkpt>
      <trkpt lat="46.50771" lon="0.30114">
        <ele>119.40000152588</ele>
        <time>2020-06-05T15:13:47.000Z</time>
      </trkpt>
      <trkpt lat="46.50777" lon="0.30111">
        <ele>119.19999694824</ele>
        <time>2020-06-05T15:13:48.000Z</time>
      </trkpt>
      <trkpt lat="46.50782" lon="0.30108">
        <ele>118.80000305176</ele>
        <time>2020-06-05T15:13:49.000Z</time>
      </trkpt>
      <trkpt lat="46.50787" lon="0.30105">
        <ele>118.19999694824</ele>
        <time>2020-06-05T15:13:50.000Z</time>
      </trkpt>
      <trkpt lat="46.50793" lon="0.30103">
        <ele>117.59999847412</ele>
        <time>2020-06-05T15:13:51.000Z</time>
      </trkpt>
      <trkpt lat="46.50799" lon="0.30102">
        <ele>117.40000152588</ele>
        <time>2020-06-05T15:13:52.000Z</time>
      </trkpt>
      <trkpt lat="46.50805" lon="0.30104">
        <ele>117.40000152588</ele>
        <time>2020-06-05T15:13:53.000Z</time>
      </trkpt>
      <trkpt lat="46.50812" lon="0.30107">
        <ele>117.19999694824</ele>
        <time>2020-06-05T15:13:54.000Z</time>
      </trkpt>
      <trkpt lat="46.50826" lon="0.3011">
        <ele>117.19999694824</ele>
        <time>2020-06-05T15:13:56.000Z</time>
      </trkpt>
      <trkpt lat="46.50831" lon="0.3011">
        <ele>117.19999694824</ele>
        <time>2020-06-05T15:13:57.000Z</time>
      </trkpt>
      <trkpt lat="46.50836" lon="0.30107">
        <ele>117.19999694824</ele>
        <time>2020-06-05T15:13:58.000Z</time>
      </trkpt>
      <trkpt lat="46.50839" lon="0.30105">
        <ele>117.19999694824</ele>
        <time>2020-06-05T15:13:59.000Z</time>
      </trkpt>
      <trkpt lat="46.50844" lon="0.30101">
        <ele>117.19999694824</ele>
        <time>2020-06-05T15:14:00.000Z</time>
      </trkpt>
      <trkpt lat="46.50849" lon="0.30093">
        <ele>117.40000152588</ele>
        <time>2020-06-05T15:14:01.000Z</time>
      </trkpt>
      <trkpt lat="46.50853" lon="0.30088">
        <ele>117.59999847412</ele>
        <time>2020-06-05T15:14:02.000Z</time>
      </trkpt>
      <trkpt lat="46.50856" lon="0.30083">
        <ele>118.19999694824</ele>
        <time>2020-06-05T15:14:03.000Z</time>
      </trkpt>
      <trkpt lat="46.50858" lon="0.30079">
        <ele>118.59999847412</ele>
        <time>2020-06-05T15:14:04.000Z</time>
      </trkpt>
      <trkpt lat="46.50862" lon="0.30073">
        <ele>119.59999847412</ele>
        <time>2020-06-05T15:14:05.000Z</time>
      </trkpt>
      <trkpt lat="46.50865" lon="0.30068">
        <ele>120.59999847412</ele>
        <time>2020-06-05T15:14:06.000Z</time>
      </trkpt>
      <trkpt lat="46.50868" lon="0.30062">
        <ele>121</ele>
        <time>2020-06-05T15:14:07.000Z</time>
      </trkpt>
      <trkpt lat="46.5087" lon="0.30058">
        <ele>121.80000305176</ele>
        <time>2020-06-05T15:14:08.000Z</time>
      </trkpt>
      <trkpt lat="46.50872" lon="0.30053">
        <ele>122</ele>
        <time>2020-06-05T15:14:09.000Z</time>
      </trkpt>
      <trkpt lat="46.50875" lon="0.30047">
        <ele>122.59999847412</ele>
        <time>2020-06-05T15:14:10.000Z</time>
      </trkpt>
      <trkpt lat="46.50877" lon="0.30042">
        <ele>123</ele>
        <time>2020-06-05T15:14:11.000Z</time>
      </trkpt>
      <trkpt lat="46.50879" lon="0.30037">
        <ele>123.59999847412</ele>
        <time>2020-06-05T15:14:12.000Z</time>
      </trkpt>
      <trkpt lat="46.50882" lon="0.30032">
        <ele>124.19999694824</ele>
        <time>2020-06-05T15:14:13.000Z</time>
      </trkpt>
      <trkpt lat="46.50885" lon="0.30027">
        <ele>124.59999847412</ele>
        <time>2020-06-05T15:14:14.000Z</time>
      </trkpt>
      <trkpt lat="46.50888" lon="0.30022">
        <ele>125.19999694824</ele>
        <time>2020-06-05T15:14:15.000Z</time>
      </trkpt>
      <trkpt lat="46.50891" lon="0.30015">
        <ele>125.40000152588</ele>
        <time>2020-06-05T15:14:16.000Z</time>
      </trkpt>
      <trkpt lat="46.50895" lon="0.3001">
        <ele>125.80000305176</ele>
        <time>2020-06-05T15:14:17.000Z</time>
      </trkpt>
      <trkpt lat="46.50898" lon="0.30004">
        <ele>126</ele>
        <time>2020-06-05T15:14:18.000Z</time>
      </trkpt>
      <trkpt lat="46.50902" lon="0.29999">
        <ele>126.40000152588</ele>
        <time>2020-06-05T15:14:19.000Z</time>
      </trkpt>
      <trkpt lat="46.50906" lon="0.29993">
        <ele>126.59999847412</ele>
        <time>2020-06-05T15:14:20.000Z</time>
      </trkpt>
      <trkpt lat="46.50909" lon="0.29988">
        <ele>126.80000305176</ele>
        <time>2020-06-05T15:14:21.000Z</time>
      </trkpt>
      <trkpt lat="46.50912" lon="0.29983">
        <ele>127</ele>
        <time>2020-06-05T15:14:22.000Z</time>
      </trkpt>
      <trkpt lat="46.50915" lon="0.29977">
        <ele>127.19999694824</ele>
        <time>2020-06-05T15:14:23.000Z</time>
      </trkpt>
      <trkpt lat="46.50919" lon="0.29971">
        <ele>127.59999847412</ele>
        <time>2020-06-05T15:14:24.000Z</time>
      </trkpt>
      <trkpt lat="46.50923" lon="0.29965">
        <ele>128</ele>
        <time>2020-06-05T15:14:25.000Z</time>
      </trkpt>
      <trkpt lat="46.50927" lon="0.2996">
        <ele>128.60000610352</ele>
        <time>2020-06-05T15:14:26.000Z</time>
      </trkpt>
      <trkpt lat="46.5093" lon="0.29954">
        <ele>128.80000305176</ele>
        <time>2020-06-05T15:14:27.000Z</time>
      </trkpt>
      <trkpt lat="46.50933" lon="0.29948">
        <ele>129</ele>
        <time>2020-06-05T15:14:28.000Z</time>
      </trkpt>
      <trkpt lat="46.50936" lon="0.29943">
        <ele>129.39999389648</ele>
        <time>2020-06-05T15:14:29.000Z</time>
      </trkpt>
      <trkpt lat="46.5094" lon="0.29937">
        <ele>129.39999389648</ele>
        <time>2020-06-05T15:14:30.000Z</time>
      </trkpt>
      <trkpt lat="46.50943" lon="0.29932">
        <ele>130</ele>
        <time>2020-06-05T15:14:31.000Z</time>
      </trkpt>
      <trkpt lat="46.50946" lon="0.29928">
        <ele>130.19999694824</ele>
        <time>2020-06-05T15:14:32.000Z</time>
      </trkpt>
      <trkpt lat="46.5095" lon="0.29922">
        <ele>130.19999694824</ele>
        <time>2020-06-05T15:14:33.000Z</time>
      </trkpt>
      <trkpt lat="46.50954" lon="0.29915">
        <ele>130.60000610352</ele>
        <time>2020-06-05T15:14:34.000Z</time>
      </trkpt>
      <trkpt lat="46.50957" lon="0.29909">
        <ele>130.60000610352</ele>
        <time>2020-06-05T15:14:35.000Z</time>
      </trkpt>
      <trkpt lat="46.50961" lon="0.29904">
        <ele>131</ele>
        <time>2020-06-05T15:14:36.000Z</time>
      </trkpt>
      <trkpt lat="46.50964" lon="0.29901">
        <ele>131</ele>
        <time>2020-06-05T15:14:37.000Z</time>
      </trkpt>
      <trkpt lat="46.50968" lon="0.29895">
        <ele>131.19999694824</ele>
        <time>2020-06-05T15:14:38.000Z</time>
      </trkpt>
      <trkpt lat="46.50972" lon="0.29889">
        <ele>131.39999389648</ele>
        <time>2020-06-05T15:14:39.000Z</time>
      </trkpt>
      <trkpt lat="46.50976" lon="0.29884">
        <ele>131.60000610352</ele>
        <time>2020-06-05T15:14:40.000Z</time>
      </trkpt>
      <trkpt lat="46.5098" lon="0.29878">
        <ele>131.80000305176</ele>
        <time>2020-06-05T15:14:41.000Z</time>
      </trkpt>
      <trkpt lat="46.50984" lon="0.29873">
        <ele>132</ele>
        <time>2020-06-05T15:14:42.000Z</time>
      </trkpt>
      <trkpt lat="46.50987" lon="0.29867">
        <ele>132.39999389648</ele>
        <time>2020-06-05T15:14:43.000Z</time>
      </trkpt>
      <trkpt lat="46.5099" lon="0.29861">
        <ele>132.39999389648</ele>
        <time>2020-06-05T15:14:44.000Z</time>
      </trkpt>
      <trkpt lat="46.50993" lon="0.29855">
        <ele>132.39999389648</ele>
        <time>2020-06-05T15:14:45.000Z</time>
      </trkpt>
      <trkpt lat="46.50996" lon="0.29851">
        <ele>132.60000610352</ele>
        <time>2020-06-05T15:14:46.000Z</time>
      </trkpt>
      <trkpt lat="46.50999" lon="0.29847">
        <ele>132.60000610352</ele>
        <time>2020-06-05T15:14:47.000Z</time>
      </trkpt>
      <trkpt lat="46.51004" lon="0.2984">
        <ele>132.80000305176</ele>
        <time>2020-06-05T15:14:48.000Z</time>
      </trkpt>
      <trkpt lat="46.51007" lon="0.29835">
        <ele>132.80000305176</ele>
        <time>2020-06-05T15:14:49.000Z</time>
      </trkpt>
      <trkpt lat="46.51011" lon="0.29829">
        <ele>133</ele>
        <time>2020-06-05T15:14:50.000Z</time>
      </trkpt>
      <trkpt lat="46.51013" lon="0.29825">
        <ele>133</ele>
        <time>2020-06-05T15:14:51.000Z</time>
      </trkpt>
      <trkpt lat="46.51016" lon="0.2982">
        <ele>133</ele>
        <time>2020-06-05T15:14:52.000Z</time>
      </trkpt>
      <trkpt lat="46.51019" lon="0.29812">
        <ele>133.19999694824</ele>
        <time>2020-06-05T15:14:53.000Z</time>
      </trkpt>
      <trkpt lat="46.51022" lon="0.29806">
        <ele>133.19999694824</ele>
        <time>2020-06-05T15:14:54.000Z</time>
      </trkpt>
      <trkpt lat="46.51025" lon="0.29799">
        <ele>133.19999694824</ele>
        <time>2020-06-05T15:14:55.000Z</time>
      </trkpt>
      <trkpt lat="46.51026" lon="0.29793">
        <ele>133.19999694824</ele>
        <time>2020-06-05T15:14:56.000Z</time>
      </trkpt>
      <trkpt lat="46.51032" lon="0.29771">
        <ele>133.39999389648</ele>
        <time>2020-06-05T15:14:59.000Z</time>
      </trkpt>
      <trkpt lat="46.51034" lon="0.29763">
        <ele>133.80000305176</ele>
        <time>2020-06-05T15:15:00.000Z</time>
      </trkpt>
      <trkpt lat="46.51036" lon="0.29757">
        <ele>134</ele>
        <time>2020-06-05T15:15:01.000Z</time>
      </trkpt>
      <trkpt lat="46.51038" lon="0.2975">
        <ele>134</ele>
        <time>2020-06-05T15:15:02.000Z</time>
      </trkpt>
      <trkpt lat="46.51041" lon="0.29742">
        <ele>134</ele>
        <time>2020-06-05T15:15:03.000Z</time>
      </trkpt>
      <trkpt lat="46.51043" lon="0.29736">
        <ele>134.19999694824</ele>
        <time>2020-06-05T15:15:04.000Z</time>
      </trkpt>
      <trkpt lat="46.51046" lon="0.2973">
        <ele>134.39999389648</ele>
        <time>2020-06-05T15:15:05.000Z</time>
      </trkpt>
      <trkpt lat="46.51048" lon="0.29724">
        <ele>134.60000610352</ele>
        <time>2020-06-05T15:15:06.000Z</time>
      </trkpt>
      <trkpt lat="46.51052" lon="0.29717">
        <ele>134.80000305176</ele>
        <time>2020-06-05T15:15:07.000Z</time>
      </trkpt>
      <trkpt lat="46.51055" lon="0.29712">
        <ele>134.80000305176</ele>
        <time>2020-06-05T15:15:08.000Z</time>
      </trkpt>
      <trkpt lat="46.51059" lon="0.29705">
        <ele>134.80000305176</ele>
        <time>2020-06-05T15:15:09.000Z</time>
      </trkpt>
      <trkpt lat="46.51062" lon="0.297">
        <ele>135</ele>
        <time>2020-06-05T15:15:10.000Z</time>
      </trkpt>
      <trkpt lat="46.51065" lon="0.29693">
        <ele>135</ele>
        <time>2020-06-05T15:15:11.000Z</time>
      </trkpt>
      <trkpt lat="46.51069" lon="0.29684">
        <ele>135.19999694824</ele>
        <time>2020-06-05T15:15:12.000Z</time>
      </trkpt>
      <trkpt lat="46.51071" lon="0.29676">
        <ele>135.19999694824</ele>
        <time>2020-06-05T15:15:13.000Z</time>
      </trkpt>
      <trkpt lat="46.51075" lon="0.29662">
        <ele>135.60000610352</ele>
        <time>2020-06-05T15:15:15.000Z</time>
      </trkpt>
      <trkpt lat="46.51078" lon="0.29654">
        <ele>135.60000610352</ele>
        <time>2020-06-05T15:15:16.000Z</time>
      </trkpt>
      <trkpt lat="46.5108" lon="0.29646">
        <ele>135.60000610352</ele>
        <time>2020-06-05T15:15:17.000Z</time>
      </trkpt>
      <trkpt lat="46.51082" lon="0.29639">
        <ele>135.60000610352</ele>
        <time>2020-06-05T15:15:18.000Z</time>
      </trkpt>
      <trkpt lat="46.51092" lon="0.29601">
        <ele>135.80000305176</ele>
        <time>2020-06-05T15:15:23.000Z</time>
      </trkpt>
      <trkpt lat="46.51095" lon="0.29594">
        <ele>135.80000305176</ele>
        <time>2020-06-05T15:15:24.000Z</time>
      </trkpt>
      <trkpt lat="46.51098" lon="0.29587">
        <ele>136</ele>
        <time>2020-06-05T15:15:25.000Z</time>
      </trkpt>
      <trkpt lat="46.51102" lon="0.2958">
        <ele>136</ele>
        <time>2020-06-05T15:15:26.000Z</time>
      </trkpt>
      <trkpt lat="46.51105" lon="0.29574">
        <ele>136</ele>
        <time>2020-06-05T15:15:27.000Z</time>
      </trkpt>
      <trkpt lat="46.51109" lon="0.29567">
        <ele>136</ele>
        <time>2020-06-05T15:15:28.000Z</time>
      </trkpt>
      <trkpt lat="46.51112" lon="0.29561">
        <ele>136.19999694824</ele>
        <time>2020-06-05T15:15:29.000Z</time>
      </trkpt>
      <trkpt lat="46.51116" lon="0.29554">
        <ele>136.60000610352</ele>
        <time>2020-06-05T15:15:30.000Z</time>
      </trkpt>
      <trkpt lat="46.51124" lon="0.2954">
        <ele>137</ele>
        <time>2020-06-05T15:15:32.000Z</time>
      </trkpt>
      <trkpt lat="46.51128" lon="0.29533">
        <ele>137</ele>
        <time>2020-06-05T15:15:33.000Z</time>
      </trkpt>
      <trkpt lat="46.51132" lon="0.29526">
        <ele>137</ele>
        <time>2020-06-05T15:15:34.000Z</time>
      </trkpt>
      <trkpt lat="46.51135" lon="0.2952">
        <ele>137</ele>
        <time>2020-06-05T15:15:35.000Z</time>
      </trkpt>
      <trkpt lat="46.5114" lon="0.29514">
        <ele>137</ele>
        <time>2020-06-05T15:15:36.000Z</time>
      </trkpt>
      <trkpt lat="46.51146" lon="0.2951">
        <ele>137.19999694824</ele>
        <time>2020-06-05T15:15:37.000Z</time>
      </trkpt>
      <trkpt lat="46.51152" lon="0.29508">
        <ele>137.19999694824</ele>
        <time>2020-06-05T15:15:38.000Z</time>
      </trkpt>
      <trkpt lat="46.51158" lon="0.29508">
        <ele>137.19999694824</ele>
        <time>2020-06-05T15:15:39.000Z</time>
      </trkpt>
      <trkpt lat="46.51164" lon="0.29511">
        <ele>137.19999694824</ele>
        <time>2020-06-05T15:15:40.000Z</time>
      </trkpt>
      <trkpt lat="46.51169" lon="0.29516">
        <ele>137</ele>
        <time>2020-06-05T15:15:41.000Z</time>
      </trkpt>
      <trkpt lat="46.51175" lon="0.2952">
        <ele>136.80000305176</ele>
        <time>2020-06-05T15:15:42.000Z</time>
      </trkpt>
      <trkpt lat="46.51181" lon="0.29522">
        <ele>136.80000305176</ele>
        <time>2020-06-05T15:15:43.000Z</time>
      </trkpt>
      <trkpt lat="46.51187" lon="0.29521">
        <ele>136.60000610352</ele>
        <time>2020-06-05T15:15:44.000Z</time>
      </trkpt>
      <trkpt lat="46.51194" lon="0.29518">
        <ele>136.39999389648</ele>
        <time>2020-06-05T15:15:45.000Z</time>
      </trkpt>
      <trkpt lat="46.51199" lon="0.29513">
        <ele>136.39999389648</ele>
        <time>2020-06-05T15:15:46.000Z</time>
      </trkpt>
      <trkpt lat="46.51203" lon="0.29506">
        <ele>136.39999389648</ele>
        <time>2020-06-05T15:15:47.000Z</time>
      </trkpt>
      <trkpt lat="46.51225" lon="0.29473">
        <ele>135.80000305176</ele>
        <time>2020-06-05T15:15:52.000Z</time>
      </trkpt>
      <trkpt lat="46.51229" lon="0.2947">
        <ele>135.80000305176</ele>
        <time>2020-06-05T15:15:53.000Z</time>
      </trkpt>
      <trkpt lat="46.51233" lon="0.2947">
        <ele>135.80000305176</ele>
        <time>2020-06-05T15:15:54.000Z</time>
      </trkpt>
      <trkpt lat="46.51236" lon="0.29471">
        <ele>135.60000610352</ele>
        <time>2020-06-05T15:15:55.000Z</time>
      </trkpt>
      <trkpt lat="46.51239" lon="0.29474">
        <ele>135.60000610352</ele>
        <time>2020-06-05T15:15:56.000Z</time>
      </trkpt>
      <trkpt lat="46.51243" lon="0.29478">
        <ele>135.60000610352</ele>
        <time>2020-06-05T15:15:57.000Z</time>
      </trkpt>
      <trkpt lat="46.51246" lon="0.29484">
        <ele>135.39999389648</ele>
        <time>2020-06-05T15:15:58.000Z</time>
      </trkpt>
      <trkpt lat="46.5125" lon="0.29489">
        <ele>135.39999389648</ele>
        <time>2020-06-05T15:15:59.000Z</time>
      </trkpt>
      <trkpt lat="46.51253" lon="0.29495">
        <ele>135.39999389648</ele>
        <time>2020-06-05T15:16:00.000Z</time>
      </trkpt>
      <trkpt lat="46.51269" lon="0.29519">
        <ele>135.80000305176</ele>
        <time>2020-06-05T15:16:04.000Z</time>
      </trkpt>
      <trkpt lat="46.51273" lon="0.29526">
        <ele>135.80000305176</ele>
        <time>2020-06-05T15:16:05.000Z</time>
      </trkpt>
      <trkpt lat="46.51277" lon="0.29532">
        <ele>136</ele>
        <time>2020-06-05T15:16:06.000Z</time>
      </trkpt>
      <trkpt lat="46.51283" lon="0.29539">
        <ele>136.19999694824</ele>
        <time>2020-06-05T15:16:07.000Z</time>
      </trkpt>
      <trkpt lat="46.51286" lon="0.29545">
        <ele>136.19999694824</ele>
        <time>2020-06-05T15:16:08.000Z</time>
      </trkpt>
      <trkpt lat="46.51295" lon="0.29557">
        <ele>136.39999389648</ele>
        <time>2020-06-05T15:16:10.000Z</time>
      </trkpt>
      <trkpt lat="46.51301" lon="0.29565">
        <ele>136.39999389648</ele>
        <time>2020-06-05T15:16:11.000Z</time>
      </trkpt>
      <trkpt lat="46.51305" lon="0.29571">
        <ele>136.39999389648</ele>
        <time>2020-06-05T15:16:12.000Z</time>
      </trkpt>
      <trkpt lat="46.5131" lon="0.29577">
        <ele>136.39999389648</ele>
        <time>2020-06-05T15:16:13.000Z</time>
      </trkpt>
      <trkpt lat="46.51338" lon="0.29612">
        <ele>136.80000305176</ele>
        <time>2020-06-05T15:16:19.000Z</time>
      </trkpt>
      <trkpt lat="46.5135" lon="0.29625">
        <ele>136.80000305176</ele>
        <time>2020-06-05T15:16:21.000Z</time>
      </trkpt>
      <trkpt lat="46.51371" lon="0.2965">
        <ele>137</ele>
        <time>2020-06-05T15:16:25.000Z</time>
      </trkpt>
      <trkpt lat="46.51376" lon="0.29657">
        <ele>137</ele>
        <time>2020-06-05T15:16:26.000Z</time>
      </trkpt>
      <trkpt lat="46.51408" lon="0.29709">
        <ele>136.80000305176</ele>
        <time>2020-06-05T15:16:33.000Z</time>
      </trkpt>
      <trkpt lat="46.51419" lon="0.29724">
        <ele>136.80000305176</ele>
        <time>2020-06-05T15:16:35.000Z</time>
      </trkpt>
      <trkpt lat="46.51432" lon="0.29741">
        <ele>137</ele>
        <time>2020-06-05T15:16:38.000Z</time>
      </trkpt>
      <trkpt lat="46.51436" lon="0.29747">
        <ele>137</ele>
        <time>2020-06-05T15:16:39.000Z</time>
      </trkpt>
      <trkpt lat="46.51441" lon="0.29754">
        <ele>137</ele>
        <time>2020-06-05T15:16:40.000Z</time>
      </trkpt>
      <trkpt lat="46.51444" lon="0.2976">
        <ele>137.19999694824</ele>
        <time>2020-06-05T15:16:41.000Z</time>
      </trkpt>
      <trkpt lat="46.51447" lon="0.29766">
        <ele>137.19999694824</ele>
        <time>2020-06-05T15:16:42.000Z</time>
      </trkpt>
      <trkpt lat="46.5145" lon="0.29773">
        <ele>137.19999694824</ele>
        <time>2020-06-05T15:16:43.000Z</time>
      </trkpt>
      <trkpt lat="46.51454" lon="0.29781">
        <ele>137.39999389648</ele>
        <time>2020-06-05T15:16:44.000Z</time>
      </trkpt>
      <trkpt lat="46.51457" lon="0.29785">
        <ele>137.39999389648</ele>
        <time>2020-06-05T15:16:45.000Z</time>
      </trkpt>
      <trkpt lat="46.5146" lon="0.29786">
        <ele>137.39999389648</ele>
        <time>2020-06-05T15:16:46.000Z</time>
      </trkpt>
      <trkpt lat="46.51464" lon="0.29785">
        <ele>137.39999389648</ele>
        <time>2020-06-05T15:16:47.000Z</time>
      </trkpt>
      <trkpt lat="46.51469" lon="0.29784">
        <ele>137.60000610352</ele>
        <time>2020-06-05T15:16:48.000Z</time>
      </trkpt>
      <trkpt lat="46.51476" lon="0.29783">
        <ele>137.80000305176</ele>
        <time>2020-06-05T15:16:49.000Z</time>
      </trkpt>
      <trkpt lat="46.515" lon="0.29781">
        <ele>137.80000305176</ele>
        <time>2020-06-05T15:16:53.000Z</time>
      </trkpt>
      <trkpt lat="46.51548" lon="0.29776">
        <ele>137.19999694824</ele>
        <time>2020-06-05T15:17:00.000Z</time>
      </trkpt>
      <trkpt lat="46.51598" lon="0.29773">
        <ele>136.19999694824</ele>
        <time>2020-06-05T15:17:07.000Z</time>
      </trkpt>
      <trkpt lat="46.51612" lon="0.29771">
        <ele>135.80000305176</ele>
        <time>2020-06-05T15:17:09.000Z</time>
      </trkpt>
      <trkpt lat="46.51618" lon="0.2977">
        <ele>135.80000305176</ele>
        <time>2020-06-05T15:17:10.000Z</time>
      </trkpt>
      <trkpt lat="46.51621" lon="0.2977">
        <ele>135.80000305176</ele>
        <time>2020-06-05T15:17:11.000Z</time>
      </trkpt>
      <trkpt lat="46.51625" lon="0.2977">
        <ele>135.60000610352</ele>
        <time>2020-06-05T15:17:12.000Z</time>
      </trkpt>
      <trkpt lat="46.51627" lon="0.2977">
        <ele>135.60000610352</ele>
        <time>2020-06-05T15:17:13.000Z</time>
      </trkpt>
      <trkpt lat="46.51627" lon="0.2977">
        <ele>135.60000610352</ele>
        <time>2020-06-05T15:17:14.000Z</time>
      </trkpt>
      <trkpt lat="46.51627" lon="0.2977">
        <ele>135.60000610352</ele>
        <time>2020-06-05T15:17:15.000Z</time>
      </trkpt>
      <trkpt lat="46.51627" lon="0.2977">
        <ele>135.39999389648</ele>
        <time>2020-06-05T15:17:16.000Z</time>
      </trkpt>
      <trkpt lat="46.51634" lon="0.29781">
        <ele>135</ele>
        <time>2020-06-05T15:17:30.000Z</time>
      </trkpt>
      <trkpt lat="46.51636" lon="0.29785">
        <ele>135</ele>
        <time>2020-06-05T15:17:31.000Z</time>
      </trkpt>
      <trkpt lat="46.51639" lon="0.29795">
        <ele>134.80000305176</ele>
        <time>2020-06-05T15:17:33.000Z</time>
      </trkpt>
      <trkpt lat="46.51639" lon="0.298">
        <ele>134.80000305176</ele>
        <time>2020-06-05T15:17:34.000Z</time>
      </trkpt>
      <trkpt lat="46.5164" lon="0.29804">
        <ele>134.80000305176</ele>
        <time>2020-06-05T15:17:35.000Z</time>
      </trkpt>
      <trkpt lat="46.51641" lon="0.29809">
        <ele>134.80000305176</ele>
        <time>2020-06-05T15:17:36.000Z</time>
      </trkpt>
      <trkpt lat="46.51642" lon="0.29815">
        <ele>134.80000305176</ele>
        <time>2020-06-05T15:17:37.000Z</time>
      </trkpt>
      <trkpt lat="46.51644" lon="0.2982">
        <ele>134.80000305176</ele>
        <time>2020-06-05T15:17:38.000Z</time>
      </trkpt>
      <trkpt lat="46.51646" lon="0.29824">
        <ele>134.80000305176</ele>
        <time>2020-06-05T15:17:39.000Z</time>
      </trkpt>
      <trkpt lat="46.51648" lon="0.29829">
        <ele>135</ele>
        <time>2020-06-05T15:17:40.000Z</time>
      </trkpt>
      <trkpt lat="46.51651" lon="0.29834">
        <ele>135</ele>
        <time>2020-06-05T15:17:41.000Z</time>
      </trkpt>
      <trkpt lat="46.51653" lon="0.29838">
        <ele>135.19999694824</ele>
        <time>2020-06-05T15:17:42.000Z</time>
      </trkpt>
      <trkpt lat="46.51658" lon="0.29844">
        <ele>135.39999389648</ele>
        <time>2020-06-05T15:17:44.000Z</time>
      </trkpt>
      <trkpt lat="46.51666" lon="0.29851">
        <ele>135.39999389648</ele>
        <time>2020-06-05T15:17:46.000Z</time>
      </trkpt>
      <trkpt lat="46.5167" lon="0.29855">
        <ele>135.39999389648</ele>
        <time>2020-06-05T15:17:47.000Z</time>
      </trkpt>
      <trkpt lat="46.51684" lon="0.29866">
        <ele>135.60000610352</ele>
        <time>2020-06-05T15:17:50.000Z</time>
      </trkpt>
      <trkpt lat="46.517" lon="0.29876">
        <ele>135.60000610352</ele>
        <time>2020-06-05T15:17:53.000Z</time>
      </trkpt>
      <trkpt lat="46.51704" lon="0.29878">
        <ele>135.39999389648</ele>
        <time>2020-06-05T15:17:54.000Z</time>
      </trkpt>
      <trkpt lat="46.51719" lon="0.29885">
        <ele>135</ele>
        <time>2020-06-05T15:17:57.000Z</time>
      </trkpt>
      <trkpt lat="46.51723" lon="0.29886">
        <ele>134.80000305176</ele>
        <time>2020-06-05T15:17:58.000Z</time>
      </trkpt>
      <trkpt lat="46.51727" lon="0.29886">
        <ele>134.80000305176</ele>
        <time>2020-06-05T15:17:59.000Z</time>
      </trkpt>
      <trkpt lat="46.51734" lon="0.29887">
        <ele>134.80000305176</ele>
        <time>2020-06-05T15:18:00.000Z</time>
      </trkpt>
      <trkpt lat="46.51755" lon="0.29887">
        <ele>135</ele>
        <time>2020-06-05T15:18:04.000Z</time>
      </trkpt>
      <trkpt lat="46.51798" lon="0.29885">
        <ele>135.39999389648</ele>
        <time>2020-06-05T15:18:11.000Z</time>
      </trkpt>
      <trkpt lat="46.51803" lon="0.29886">
        <ele>135.39999389648</ele>
        <time>2020-06-05T15:18:12.000Z</time>
      </trkpt>
      <trkpt lat="46.5182" lon="0.29893">
        <ele>135.39999389648</ele>
        <time>2020-06-05T15:18:15.000Z</time>
      </trkpt>
      <trkpt lat="46.51826" lon="0.29896">
        <ele>135.39999389648</ele>
        <time>2020-06-05T15:18:16.000Z</time>
      </trkpt>
      <trkpt lat="46.5183" lon="0.29898">
        <ele>135.19999694824</ele>
        <time>2020-06-05T15:18:17.000Z</time>
      </trkpt>
      <trkpt lat="46.51835" lon="0.29902">
        <ele>135.19999694824</ele>
        <time>2020-06-05T15:18:18.000Z</time>
      </trkpt>
      <trkpt lat="46.5184" lon="0.29905">
        <ele>135.19999694824</ele>
        <time>2020-06-05T15:18:19.000Z</time>
      </trkpt>
      <trkpt lat="46.51845" lon="0.29908">
        <ele>135</ele>
        <time>2020-06-05T15:18:20.000Z</time>
      </trkpt>
      <trkpt lat="46.51851" lon="0.29911">
        <ele>135</ele>
        <time>2020-06-05T15:18:21.000Z</time>
      </trkpt>
      <trkpt lat="46.51855" lon="0.29913">
        <ele>135</ele>
        <time>2020-06-05T15:18:22.000Z</time>
      </trkpt>
      <trkpt lat="46.5186" lon="0.29916">
        <ele>135.19999694824</ele>
        <time>2020-06-05T15:18:23.000Z</time>
      </trkpt>
      <trkpt lat="46.51865" lon="0.29918">
        <ele>135.19999694824</ele>
        <time>2020-06-05T15:18:24.000Z</time>
      </trkpt>
      <trkpt lat="46.51872" lon="0.29922">
        <ele>135</ele>
        <time>2020-06-05T15:18:25.000Z</time>
      </trkpt>
      <trkpt lat="46.51877" lon="0.29924">
        <ele>134.60000610352</ele>
        <time>2020-06-05T15:18:26.000Z</time>
      </trkpt>
      <trkpt lat="46.51883" lon="0.29926">
        <ele>134.19999694824</ele>
        <time>2020-06-05T15:18:27.000Z</time>
      </trkpt>
      <trkpt lat="46.51889" lon="0.29929">
        <ele>134.60000610352</ele>
        <time>2020-06-05T15:18:28.000Z</time>
      </trkpt>
      <trkpt lat="46.51912" lon="0.29938">
        <ele>134.19999694824</ele>
        <time>2020-06-05T15:18:32.000Z</time>
      </trkpt>
      <trkpt lat="46.51918" lon="0.2994">
        <ele>134.19999694824</ele>
        <time>2020-06-05T15:18:33.000Z</time>
      </trkpt>
      <trkpt lat="46.51939" lon="0.29949">
        <ele>134.19999694824</ele>
        <time>2020-06-05T15:18:37.000Z</time>
      </trkpt>
      <trkpt lat="46.51946" lon="0.29953">
        <ele>134.19999694824</ele>
        <time>2020-06-05T15:18:38.000Z</time>
      </trkpt>
      <trkpt lat="46.51951" lon="0.29956">
        <ele>134.19999694824</ele>
        <time>2020-06-05T15:18:39.000Z</time>
      </trkpt>
      <trkpt lat="46.51957" lon="0.29959">
        <ele>134</ele>
        <time>2020-06-05T15:18:40.000Z</time>
      </trkpt>
      <trkpt lat="46.51961" lon="0.29962">
        <ele>134</ele>
        <time>2020-06-05T15:18:41.000Z</time>
      </trkpt>
      <trkpt lat="46.51967" lon="0.29965">
        <ele>134</ele>
        <time>2020-06-05T15:18:42.000Z</time>
      </trkpt>
      <trkpt lat="46.51988" lon="0.29977">
        <ele>134.19999694824</ele>
        <time>2020-06-05T15:18:46.000Z</time>
      </trkpt>
      <trkpt lat="46.52" lon="0.29984">
        <ele>134.39999389648</ele>
        <time>2020-06-05T15:18:48.000Z</time>
      </trkpt>
      <trkpt lat="46.52005" lon="0.29987">
        <ele>134.39999389648</ele>
        <time>2020-06-05T15:18:49.000Z</time>
      </trkpt>
      <trkpt lat="46.52009" lon="0.2999">
        <ele>134.39999389648</ele>
        <time>2020-06-05T15:18:50.000Z</time>
      </trkpt>
      <trkpt lat="46.52015" lon="0.29992">
        <ele>134.60000610352</ele>
        <time>2020-06-05T15:18:51.000Z</time>
      </trkpt>
      <trkpt lat="46.52022" lon="0.29995">
        <ele>134.60000610352</ele>
        <time>2020-06-05T15:18:52.000Z</time>
      </trkpt>
      <trkpt lat="46.52033" lon="0.29999">
        <ele>134.60000610352</ele>
        <time>2020-06-05T15:18:54.000Z</time>
      </trkpt>
      <trkpt lat="46.52042" lon="0.30003">
        <ele>134.60000610352</ele>
        <time>2020-06-05T15:18:56.000Z</time>
      </trkpt>
      <trkpt lat="46.52049" lon="0.30005">
        <ele>134.60000610352</ele>
        <time>2020-06-05T15:18:57.000Z</time>
      </trkpt>
      <trkpt lat="46.52054" lon="0.30006">
        <ele>134.19999694824</ele>
        <time>2020-06-05T15:18:58.000Z</time>
      </trkpt>
      <trkpt lat="46.52059" lon="0.30008">
        <ele>134</ele>
        <time>2020-06-05T15:18:59.000Z</time>
      </trkpt>
      <trkpt lat="46.52064" lon="0.30009">
        <ele>133.60000610352</ele>
        <time>2020-06-05T15:19:00.000Z</time>
      </trkpt>
      <trkpt lat="46.52069" lon="0.30012">
        <ele>133.19999694824</ele>
        <time>2020-06-05T15:19:01.000Z</time>
      </trkpt>
      <trkpt lat="46.52076" lon="0.30014">
        <ele>133</ele>
        <time>2020-06-05T15:19:02.000Z</time>
      </trkpt>
      <trkpt lat="46.52081" lon="0.30016">
        <ele>133</ele>
        <time>2020-06-05T15:19:03.000Z</time>
      </trkpt>
      <trkpt lat="46.52085" lon="0.30018">
        <ele>132.80000305176</ele>
        <time>2020-06-05T15:19:04.000Z</time>
      </trkpt>
      <trkpt lat="46.52089" lon="0.30019">
        <ele>132.80000305176</ele>
        <time>2020-06-05T15:19:05.000Z</time>
      </trkpt>
      <trkpt lat="46.52095" lon="0.30022">
        <ele>132.80000305176</ele>
        <time>2020-06-05T15:19:06.000Z</time>
      </trkpt>
      <trkpt lat="46.52099" lon="0.30023">
        <ele>132.80000305176</ele>
        <time>2020-06-05T15:19:07.000Z</time>
      </trkpt>
      <trkpt lat="46.52103" lon="0.30024">
        <ele>132.80000305176</ele>
        <time>2020-06-05T15:19:08.000Z</time>
      </trkpt>
      <trkpt lat="46.52107" lon="0.30025">
        <ele>132.80000305176</ele>
        <time>2020-06-05T15:19:09.000Z</time>
      </trkpt>
      <trkpt lat="46.52112" lon="0.30025">
        <ele>132.80000305176</ele>
        <time>2020-06-05T15:19:10.000Z</time>
      </trkpt>
      <trkpt lat="46.52116" lon="0.30024">
        <ele>132.80000305176</ele>
        <time>2020-06-05T15:19:11.000Z</time>
      </trkpt>
      <trkpt lat="46.52126" lon="0.30022">
        <ele>133</ele>
        <time>2020-06-05T15:19:13.000Z</time>
      </trkpt>
      <trkpt lat="46.52129" lon="0.30021">
        <ele>133</ele>
        <time>2020-06-05T15:19:14.000Z</time>
      </trkpt>
      <trkpt lat="46.52133" lon="0.30021">
        <ele>133.19999694824</ele>
        <time>2020-06-05T15:19:15.000Z</time>
      </trkpt>
      <trkpt lat="46.52138" lon="0.30022">
        <ele>133.19999694824</ele>
        <time>2020-06-05T15:19:16.000Z</time>
      </trkpt>
      <trkpt lat="46.52143" lon="0.30025">
        <ele>133.19999694824</ele>
        <time>2020-06-05T15:19:17.000Z</time>
      </trkpt>
      <trkpt lat="46.52147" lon="0.30027">
        <ele>133</ele>
        <time>2020-06-05T15:19:18.000Z</time>
      </trkpt>
      <trkpt lat="46.52152" lon="0.30029">
        <ele>133</ele>
        <time>2020-06-05T15:19:19.000Z</time>
      </trkpt>
      <trkpt lat="46.52175" lon="0.3004">
        <ele>132.80000305176</ele>
        <time>2020-06-05T15:19:23.000Z</time>
      </trkpt>
      <trkpt lat="46.5218" lon="0.30044">
        <ele>132.80000305176</ele>
        <time>2020-06-05T15:19:24.000Z</time>
      </trkpt>
      <trkpt lat="46.52186" lon="0.30049">
        <ele>132.80000305176</ele>
        <time>2020-06-05T15:19:25.000Z</time>
      </trkpt>
      <trkpt lat="46.52192" lon="0.30053">
        <ele>132.80000305176</ele>
        <time>2020-06-05T15:19:26.000Z</time>
      </trkpt>
      <trkpt lat="46.52207" lon="0.30068">
        <ele>132.80000305176</ele>
        <time>2020-06-05T15:19:29.000Z</time>
      </trkpt>
      <trkpt lat="46.52221" lon="0.30085">
        <ele>132.80000305176</ele>
        <time>2020-06-05T15:19:32.000Z</time>
      </trkpt>
      <trkpt lat="46.52225" lon="0.30092">
        <ele>132.80000305176</ele>
        <time>2020-06-05T15:19:33.000Z</time>
      </trkpt>
      <trkpt lat="46.52232" lon="0.30105">
        <ele>132.80000305176</ele>
        <time>2020-06-05T15:19:35.000Z</time>
      </trkpt>
      <trkpt lat="46.52238" lon="0.30114">
        <ele>132.80000305176</ele>
        <time>2020-06-05T15:19:37.000Z</time>
      </trkpt>
      <trkpt lat="46.5224" lon="0.30117">
        <ele>132.80000305176</ele>
        <time>2020-06-05T15:19:38.000Z</time>
      </trkpt>
      <trkpt lat="46.52242" lon="0.30121">
        <ele>132.80000305176</ele>
        <time>2020-06-05T15:19:39.000Z</time>
      </trkpt>
      <trkpt lat="46.52244" lon="0.30124">
        <ele>132.80000305176</ele>
        <time>2020-06-05T15:19:40.000Z</time>
      </trkpt>
      <trkpt lat="46.52247" lon="0.3013">
        <ele>132.80000305176</ele>
        <time>2020-06-05T15:19:41.000Z</time>
      </trkpt>
      <trkpt lat="46.52249" lon="0.30136">
        <ele>132.80000305176</ele>
        <time>2020-06-05T15:19:42.000Z</time>
      </trkpt>
      <trkpt lat="46.52252" lon="0.30143">
        <ele>132.80000305176</ele>
        <time>2020-06-05T15:19:43.000Z</time>
      </trkpt>
      <trkpt lat="46.52255" lon="0.30151">
        <ele>132.60000610352</ele>
        <time>2020-06-05T15:19:44.000Z</time>
      </trkpt>
      <trkpt lat="46.52257" lon="0.30157">
        <ele>132.60000610352</ele>
        <time>2020-06-05T15:19:45.000Z</time>
      </trkpt>
      <trkpt lat="46.52259" lon="0.30164">
        <ele>132.60000610352</ele>
        <time>2020-06-05T15:19:46.000Z</time>
      </trkpt>
      <trkpt lat="46.52261" lon="0.30172">
        <ele>132.39999389648</ele>
        <time>2020-06-05T15:19:47.000Z</time>
      </trkpt>
      <trkpt lat="46.52263" lon="0.30179">
        <ele>132</ele>
        <time>2020-06-05T15:19:48.000Z</time>
      </trkpt>
      <trkpt lat="46.52269" lon="0.3021">
        <ele>131</ele>
        <time>2020-06-05T15:19:51.000Z</time>
      </trkpt>
      <trkpt lat="46.52271" lon="0.3022">
        <ele>130.80000305176</ele>
        <time>2020-06-05T15:19:52.000Z</time>
      </trkpt>
      <trkpt lat="46.52275" lon="0.30229">
        <ele>130.39999389648</ele>
        <time>2020-06-05T15:19:53.000Z</time>
      </trkpt>
      <trkpt lat="46.5228" lon="0.30237">
        <ele>130</ele>
        <time>2020-06-05T15:19:54.000Z</time>
      </trkpt>
      <trkpt lat="46.52286" lon="0.30244">
        <ele>129</ele>
        <time>2020-06-05T15:19:55.000Z</time>
      </trkpt>
      <trkpt lat="46.52292" lon="0.3025">
        <ele>128.19999694824</ele>
        <time>2020-06-05T15:19:56.000Z</time>
      </trkpt>
      <trkpt lat="46.52297" lon="0.30254">
        <ele>127.59999847412</ele>
        <time>2020-06-05T15:19:57.000Z</time>
      </trkpt>
      <trkpt lat="46.52302" lon="0.30258">
        <ele>126.40000152588</ele>
        <time>2020-06-05T15:19:58.000Z</time>
      </trkpt>
      <trkpt lat="46.52306" lon="0.3026">
        <ele>126</ele>
        <time>2020-06-05T15:19:59.000Z</time>
      </trkpt>
      <trkpt lat="46.5231" lon="0.30261">
        <ele>124.40000152588</ele>
        <time>2020-06-05T15:20:00.000Z</time>
      </trkpt>
      <trkpt lat="46.52316" lon="0.3026">
        <ele>123.80000305176</ele>
        <time>2020-06-05T15:20:01.000Z</time>
      </trkpt>
      <trkpt lat="46.5232" lon="0.3026">
        <ele>122.19999694824</ele>
        <time>2020-06-05T15:20:02.000Z</time>
      </trkpt>
      <trkpt lat="46.52326" lon="0.30258">
        <ele>121.19999694824</ele>
        <time>2020-06-05T15:20:03.000Z</time>
      </trkpt>
      <trkpt lat="46.52343" lon="0.30253">
        <ele>119.19999694824</ele>
        <time>2020-06-05T15:20:05.000Z</time>
      </trkpt>
      <trkpt lat="46.52352" lon="0.30252">
        <ele>118.80000305176</ele>
        <time>2020-06-05T15:20:06.000Z</time>
      </trkpt>
      <trkpt lat="46.52361" lon="0.3025">
        <ele>118.19999694824</ele>
        <time>2020-06-05T15:20:07.000Z</time>
      </trkpt>
      <trkpt lat="46.52376" lon="0.30249">
        <ele>117.40000152588</ele>
        <time>2020-06-05T15:20:09.000Z</time>
      </trkpt>
      <trkpt lat="46.52383" lon="0.30248">
        <ele>116.19999694824</ele>
        <time>2020-06-05T15:20:10.000Z</time>
      </trkpt>
      <trkpt lat="46.52389" lon="0.30249">
        <ele>115.80000305176</ele>
        <time>2020-06-05T15:20:11.000Z</time>
      </trkpt>
      <trkpt lat="46.52395" lon="0.30252">
        <ele>115.19999694824</ele>
        <time>2020-06-05T15:20:12.000Z</time>
      </trkpt>
      <trkpt lat="46.52401" lon="0.30254">
        <ele>114.80000305176</ele>
        <time>2020-06-05T15:20:13.000Z</time>
      </trkpt>
      <trkpt lat="46.52406" lon="0.30258">
        <ele>114</ele>
        <time>2020-06-05T15:20:14.000Z</time>
      </trkpt>
      <trkpt lat="46.52409" lon="0.30261">
        <ele>113.59999847412</ele>
        <time>2020-06-05T15:20:15.000Z</time>
      </trkpt>
      <trkpt lat="46.52409" lon="0.30261">
        <ele>113</ele>
        <time>2020-06-05T15:20:16.000Z</time>
      </trkpt>
      <trkpt lat="46.52409" lon="0.30261">
        <ele>112.40000152588</ele>
        <time>2020-06-05T15:20:17.000Z</time>
      </trkpt>
      <trkpt lat="46.52409" lon="0.30261">
        <ele>111.80000305176</ele>
        <time>2020-06-05T15:20:18.000Z</time>
      </trkpt>
      <trkpt lat="46.52412" lon="0.30264">
        <ele>109.19999694824</ele>
        <time>2020-06-05T15:20:29.000Z</time>
      </trkpt>
      <trkpt lat="46.52415" lon="0.30264">
        <ele>109.19999694824</ele>
        <time>2020-06-05T15:20:30.000Z</time>
      </trkpt>
      <trkpt lat="46.52418" lon="0.30263">
        <ele>109</ele>
        <time>2020-06-05T15:20:31.000Z</time>
      </trkpt>
      <trkpt lat="46.5242" lon="0.30262">
        <ele>109</ele>
        <time>2020-06-05T15:20:32.000Z</time>
      </trkpt>
      <trkpt lat="46.52423" lon="0.3026">
        <ele>109</ele>
        <time>2020-06-05T15:20:33.000Z</time>
      </trkpt>
      <trkpt lat="46.52427" lon="0.30259">
        <ele>109</ele>
        <time>2020-06-05T15:20:34.000Z</time>
      </trkpt>
      <trkpt lat="46.52432" lon="0.30257">
        <ele>108.59999847412</ele>
        <time>2020-06-05T15:20:35.000Z</time>
      </trkpt>
      <trkpt lat="46.52439" lon="0.30252">
        <ele>108.19999694824</ele>
        <time>2020-06-05T15:20:37.000Z</time>
      </trkpt>
      <trkpt lat="46.52442" lon="0.30249">
        <ele>107.59999847412</ele>
        <time>2020-06-05T15:20:38.000Z</time>
      </trkpt>
      <trkpt lat="46.52446" lon="0.30246">
        <ele>107.40000152588</ele>
        <time>2020-06-05T15:20:39.000Z</time>
      </trkpt>
      <trkpt lat="46.52449" lon="0.30243">
        <ele>106.59999847412</ele>
        <time>2020-06-05T15:20:40.000Z</time>
      </trkpt>
      <trkpt lat="46.52451" lon="0.30242">
        <ele>106.40000152588</ele>
        <time>2020-06-05T15:20:41.000Z</time>
      </trkpt>
      <trkpt lat="46.52452" lon="0.30242">
        <ele>105.59999847412</ele>
        <time>2020-06-05T15:20:42.000Z</time>
      </trkpt>
      <trkpt lat="46.52453" lon="0.30243">
        <ele>105</ele>
        <time>2020-06-05T15:20:43.000Z</time>
      </trkpt>
      <trkpt lat="46.52455" lon="0.30243">
        <ele>104.59999847412</ele>
        <time>2020-06-05T15:20:44.000Z</time>
      </trkpt>
      <trkpt lat="46.52456" lon="0.30242">
        <ele>104.19999694824</ele>
        <time>2020-06-05T15:20:45.000Z</time>
      </trkpt>
      <trkpt lat="46.52458" lon="0.30241">
        <ele>104.19999694824</ele>
        <time>2020-06-05T15:20:46.000Z</time>
      </trkpt>
      <trkpt lat="46.52461" lon="0.30241">
        <ele>104</ele>
        <time>2020-06-05T15:20:47.000Z</time>
      </trkpt>
      <trkpt lat="46.52466" lon="0.30241">
        <ele>104</ele>
        <time>2020-06-05T15:20:48.000Z</time>
      </trkpt>
      <trkpt lat="46.52472" lon="0.30241">
        <ele>104</ele>
        <time>2020-06-05T15:20:49.000Z</time>
      </trkpt>
      <trkpt lat="46.52478" lon="0.30242">
        <ele>104</ele>
        <time>2020-06-05T15:20:50.000Z</time>
      </trkpt>
      <trkpt lat="46.52485" lon="0.30243">
        <ele>104</ele>
        <time>2020-06-05T15:20:52.000Z</time>
      </trkpt>
      <trkpt lat="46.5249" lon="0.30243">
        <ele>104.19999694824</ele>
        <time>2020-06-05T15:20:54.000Z</time>
      </trkpt>
      <trkpt lat="46.52494" lon="0.30243">
        <ele>104.59999847412</ele>
        <time>2020-06-05T15:20:55.000Z</time>
      </trkpt>
      <trkpt lat="46.52496" lon="0.30242">
        <ele>105.19999694824</ele>
        <time>2020-06-05T15:20:56.000Z</time>
      </trkpt>
      <trkpt lat="46.52499" lon="0.30242">
        <ele>105.80000305176</ele>
        <time>2020-06-05T15:20:57.000Z</time>
      </trkpt>
      <trkpt lat="46.525" lon="0.30241">
        <ele>106</ele>
        <time>2020-06-05T15:20:58.000Z</time>
      </trkpt>
      <trkpt lat="46.52504" lon="0.3024">
        <ele>107.19999694824</ele>
        <time>2020-06-05T15:20:59.000Z</time>
      </trkpt>
      <trkpt lat="46.52507" lon="0.30239">
        <ele>107.59999847412</ele>
        <time>2020-06-05T15:21:00.000Z</time>
      </trkpt>
      <trkpt lat="46.5251" lon="0.30239">
        <ele>108.19999694824</ele>
        <time>2020-06-05T15:21:01.000Z</time>
      </trkpt>
      <trkpt lat="46.5251" lon="0.30238">
        <ele>108.59999847412</ele>
        <time>2020-06-05T15:21:02.000Z</time>
      </trkpt>
      <trkpt lat="46.52515" lon="0.30237">
        <ele>108.80000305176</ele>
        <time>2020-06-05T15:21:03.000Z</time>
      </trkpt>
      <trkpt lat="46.52518" lon="0.30236">
        <ele>109.19999694824</ele>
        <time>2020-06-05T15:21:04.000Z</time>
      </trkpt>
      <trkpt lat="46.52523" lon="0.30235">
        <ele>109.59999847412</ele>
        <time>2020-06-05T15:21:05.000Z</time>
      </trkpt>
      <trkpt lat="46.52528" lon="0.30233">
        <ele>110</ele>
        <time>2020-06-05T15:21:06.000Z</time>
      </trkpt>
      <trkpt lat="46.52534" lon="0.30232">
        <ele>110.19999694824</ele>
        <time>2020-06-05T15:21:07.000Z</time>
      </trkpt>
      <trkpt lat="46.52539" lon="0.3023">
        <ele>110.40000152588</ele>
        <time>2020-06-05T15:21:08.000Z</time>
      </trkpt>
      <trkpt lat="46.52544" lon="0.3023">
        <ele>110.59999847412</ele>
        <time>2020-06-05T15:21:09.000Z</time>
      </trkpt>
      <trkpt lat="46.5255" lon="0.30229">
        <ele>110.59999847412</ele>
        <time>2020-06-05T15:21:10.000Z</time>
      </trkpt>
      <trkpt lat="46.52552" lon="0.30229">
        <ele>110.80000305176</ele>
        <time>2020-06-05T15:21:11.000Z</time>
      </trkpt>
      <trkpt lat="46.52556" lon="0.3023">
        <ele>110.80000305176</ele>
        <time>2020-06-05T15:21:12.000Z</time>
      </trkpt>
      <trkpt lat="46.5256" lon="0.30233">
        <ele>110.80000305176</ele>
        <time>2020-06-05T15:21:13.000Z</time>
      </trkpt>
      <trkpt lat="46.52562" lon="0.30235">
        <ele>110.80000305176</ele>
        <time>2020-06-05T15:21:14.000Z</time>
      </trkpt>
      <trkpt lat="46.52564" lon="0.30237">
        <ele>110.80000305176</ele>
        <time>2020-06-05T15:21:15.000Z</time>
      </trkpt>
      <trkpt lat="46.52565" lon="0.30237">
        <ele>110.80000305176</ele>
        <time>2020-06-05T15:21:16.000Z</time>
      </trkpt>
      <trkpt lat="46.52567" lon="0.30239">
        <ele>110.80000305176</ele>
        <time>2020-06-05T15:21:17.000Z</time>
      </trkpt>
      <trkpt lat="46.52571" lon="0.30243">
        <ele>111.80000305176</ele>
        <time>2020-06-05T15:21:18.000Z</time>
      </trkpt>
      <trkpt lat="46.52575" lon="0.30244">
        <ele>112</ele>
        <time>2020-06-05T15:21:19.000Z</time>
      </trkpt>
      <trkpt lat="46.5258" lon="0.30245">
        <ele>112.19999694824</ele>
        <time>2020-06-05T15:21:20.000Z</time>
      </trkpt>
      <trkpt lat="46.52583" lon="0.30249">
        <ele>112.59999847412</ele>
        <time>2020-06-05T15:21:21.000Z</time>
      </trkpt>
      <trkpt lat="46.52585" lon="0.3025">
        <ele>113.19999694824</ele>
        <time>2020-06-05T15:21:22.000Z</time>
      </trkpt>
      <trkpt lat="46.52589" lon="0.30254">
        <ele>113.40000152588</ele>
        <time>2020-06-05T15:21:23.000Z</time>
      </trkpt>
      <trkpt lat="46.52593" lon="0.30258">
        <ele>113.40000152588</ele>
        <time>2020-06-05T15:21:24.000Z</time>
      </trkpt>
      <trkpt lat="46.52596" lon="0.3026">
        <ele>113.80000305176</ele>
        <time>2020-06-05T15:21:25.000Z</time>
      </trkpt>
      <trkpt lat="46.52601" lon="0.30263">
        <ele>114</ele>
        <time>2020-06-05T15:21:26.000Z</time>
      </trkpt>
      <trkpt lat="46.52607" lon="0.30266">
        <ele>114.19999694824</ele>
        <time>2020-06-05T15:21:27.000Z</time>
      </trkpt>
      <trkpt lat="46.5261" lon="0.30268">
        <ele>114.19999694824</ele>
        <time>2020-06-05T15:21:28.000Z</time>
      </trkpt>
      <trkpt lat="46.52613" lon="0.30271">
        <ele>114.19999694824</ele>
        <time>2020-06-05T15:21:29.000Z</time>
      </trkpt>
      <trkpt lat="46.52613" lon="0.30271">
        <ele>114.40000152588</ele>
        <time>2020-06-05T15:21:30.000Z</time>
      </trkpt>
      <trkpt lat="46.52621" lon="0.30277">
        <ele>114.40000152588</ele>
        <time>2020-06-05T15:21:31.000Z</time>
      </trkpt>
      <trkpt lat="46.52623" lon="0.30281">
        <ele>114.80000305176</ele>
        <time>2020-06-05T15:21:32.000Z</time>
      </trkpt>
      <trkpt lat="46.52625" lon="0.30285">
        <ele>114.80000305176</ele>
        <time>2020-06-05T15:21:33.000Z</time>
      </trkpt>
      <trkpt lat="46.52627" lon="0.30289">
        <ele>115</ele>
        <time>2020-06-05T15:21:34.000Z</time>
      </trkpt>
      <trkpt lat="46.52628" lon="0.30294">
        <ele>115</ele>
        <time>2020-06-05T15:21:35.000Z</time>
      </trkpt>
      <trkpt lat="46.52631" lon="0.30298">
        <ele>115.19999694824</ele>
        <time>2020-06-05T15:21:36.000Z</time>
      </trkpt>
      <trkpt lat="46.52633" lon="0.30302">
        <ele>115.19999694824</ele>
        <time>2020-06-05T15:21:37.000Z</time>
      </trkpt>
      <trkpt lat="46.52634" lon="0.30305">
        <ele>115.40000152588</ele>
        <time>2020-06-05T15:21:38.000Z</time>
      </trkpt>
      <trkpt lat="46.52635" lon="0.30309">
        <ele>115.59999847412</ele>
        <time>2020-06-05T15:21:39.000Z</time>
      </trkpt>
      <trkpt lat="46.52636" lon="0.30314">
        <ele>115.59999847412</ele>
        <time>2020-06-05T15:21:40.000Z</time>
      </trkpt>
      <trkpt lat="46.5264" lon="0.30319">
        <ele>116</ele>
        <time>2020-06-05T15:21:41.000Z</time>
      </trkpt>
      <trkpt lat="46.52641" lon="0.30324">
        <ele>116.19999694824</ele>
        <time>2020-06-05T15:21:42.000Z</time>
      </trkpt>
      <trkpt lat="46.52643" lon="0.30329">
        <ele>116.59999847412</ele>
        <time>2020-06-05T15:21:43.000Z</time>
      </trkpt>
      <trkpt lat="46.52644" lon="0.30335">
        <ele>116.80000305176</ele>
        <time>2020-06-05T15:21:44.000Z</time>
      </trkpt>
      <trkpt lat="46.52644" lon="0.30342">
        <ele>117</ele>
        <time>2020-06-05T15:21:45.000Z</time>
      </trkpt>
      <trkpt lat="46.52643" lon="0.3035">
        <ele>117</ele>
        <time>2020-06-05T15:21:46.000Z</time>
      </trkpt>
      <trkpt lat="46.52645" lon="0.30357">
        <ele>117</ele>
        <time>2020-06-05T15:21:47.000Z</time>
      </trkpt>
      <trkpt lat="46.52647" lon="0.30363">
        <ele>117</ele>
        <time>2020-06-05T15:21:48.000Z</time>
      </trkpt>
      <trkpt lat="46.52647" lon="0.30368">
        <ele>117</ele>
        <time>2020-06-05T15:21:49.000Z</time>
      </trkpt>
      <trkpt lat="46.52646" lon="0.30373">
        <ele>117.19999694824</ele>
        <time>2020-06-05T15:21:50.000Z</time>
      </trkpt>
      <trkpt lat="46.52645" lon="0.30378">
        <ele>117.59999847412</ele>
        <time>2020-06-05T15:21:51.000Z</time>
      </trkpt>
      <trkpt lat="46.52645" lon="0.30382">
        <ele>117.59999847412</ele>
        <time>2020-06-05T15:21:52.000Z</time>
      </trkpt>
      <trkpt lat="46.52645" lon="0.30386">
        <ele>117.59999847412</ele>
        <time>2020-06-05T15:21:53.000Z</time>
      </trkpt>
      <trkpt lat="46.52645" lon="0.3039">
        <ele>117.80000305176</ele>
        <time>2020-06-05T15:21:54.000Z</time>
      </trkpt>
      <trkpt lat="46.52645" lon="0.30394">
        <ele>118</ele>
        <time>2020-06-05T15:21:55.000Z</time>
      </trkpt>
      <trkpt lat="46.52646" lon="0.30398">
        <ele>118.19999694824</ele>
        <time>2020-06-05T15:21:56.000Z</time>
      </trkpt>
      <trkpt lat="46.52644" lon="0.30402">
        <ele>118.40000152588</ele>
        <time>2020-06-05T15:21:57.000Z</time>
      </trkpt>
      <trkpt lat="46.52644" lon="0.30405">
        <ele>118.40000152588</ele>
        <time>2020-06-05T15:21:58.000Z</time>
      </trkpt>
      <trkpt lat="46.52644" lon="0.30411">
        <ele>118.40000152588</ele>
        <time>2020-06-05T15:21:59.000Z</time>
      </trkpt>
      <trkpt lat="46.52644" lon="0.30417">
        <ele>118.59999847412</ele>
        <time>2020-06-05T15:22:00.000Z</time>
      </trkpt>
      <trkpt lat="46.52645" lon="0.30422">
        <ele>118.59999847412</ele>
        <time>2020-06-05T15:22:01.000Z</time>
      </trkpt>
      <trkpt lat="46.52643" lon="0.30427">
        <ele>118.59999847412</ele>
        <time>2020-06-05T15:22:02.000Z</time>
      </trkpt>
      <trkpt lat="46.52643" lon="0.30431">
        <ele>118.59999847412</ele>
        <time>2020-06-05T15:22:03.000Z</time>
      </trkpt>
      <trkpt lat="46.52643" lon="0.30436">
        <ele>118.59999847412</ele>
        <time>2020-06-05T15:22:04.000Z</time>
      </trkpt>
      <trkpt lat="46.52643" lon="0.30441">
        <ele>118.80000305176</ele>
        <time>2020-06-05T15:22:05.000Z</time>
      </trkpt>
      <trkpt lat="46.52642" lon="0.30446">
        <ele>118.80000305176</ele>
        <time>2020-06-05T15:22:06.000Z</time>
      </trkpt>
      <trkpt lat="46.52643" lon="0.30453">
        <ele>119</ele>
        <time>2020-06-05T15:22:07.000Z</time>
      </trkpt>
      <trkpt lat="46.52645" lon="0.30459">
        <ele>119</ele>
        <time>2020-06-05T15:22:08.000Z</time>
      </trkpt>
      <trkpt lat="46.52646" lon="0.30466">
        <ele>119.19999694824</ele>
        <time>2020-06-05T15:22:09.000Z</time>
      </trkpt>
      <trkpt lat="46.52645" lon="0.30472">
        <ele>119.40000152588</ele>
        <time>2020-06-05T15:22:10.000Z</time>
      </trkpt>
      <trkpt lat="46.52645" lon="0.30478">
        <ele>119.40000152588</ele>
        <time>2020-06-05T15:22:11.000Z</time>
      </trkpt>
      <trkpt lat="46.52646" lon="0.30484">
        <ele>119.59999847412</ele>
        <time>2020-06-05T15:22:12.000Z</time>
      </trkpt>
      <trkpt lat="46.52647" lon="0.3049">
        <ele>120</ele>
        <time>2020-06-05T15:22:13.000Z</time>
      </trkpt>
      <trkpt lat="46.52645" lon="0.30497">
        <ele>120.59999847412</ele>
        <time>2020-06-05T15:22:14.000Z</time>
      </trkpt>
      <trkpt lat="46.52645" lon="0.30503">
        <ele>120.59999847412</ele>
        <time>2020-06-05T15:22:15.000Z</time>
      </trkpt>
      <trkpt lat="46.52646" lon="0.30509">
        <ele>120.80000305176</ele>
        <time>2020-06-05T15:22:16.000Z</time>
      </trkpt>
      <trkpt lat="46.52647" lon="0.30514">
        <ele>121</ele>
        <time>2020-06-05T15:22:17.000Z</time>
      </trkpt>
      <trkpt lat="46.52647" lon="0.3052">
        <ele>121</ele>
        <time>2020-06-05T15:22:18.000Z</time>
      </trkpt>
      <trkpt lat="46.52646" lon="0.30525">
        <ele>121</ele>
        <time>2020-06-05T15:22:19.000Z</time>
      </trkpt>
      <trkpt lat="46.52646" lon="0.3053">
        <ele>121.19999694824</ele>
        <time>2020-06-05T15:22:20.000Z</time>
      </trkpt>
      <trkpt lat="46.52646" lon="0.30534">
        <ele>121.40000152588</ele>
        <time>2020-06-05T15:22:21.000Z</time>
      </trkpt>
      <trkpt lat="46.52645" lon="0.30538">
        <ele>121.40000152588</ele>
        <time>2020-06-05T15:22:22.000Z</time>
      </trkpt>
      <trkpt lat="46.52643" lon="0.30543">
        <ele>121.40000152588</ele>
        <time>2020-06-05T15:22:23.000Z</time>
      </trkpt>
      <trkpt lat="46.52641" lon="0.30548">
        <ele>121.59999847412</ele>
        <time>2020-06-05T15:22:24.000Z</time>
      </trkpt>
      <trkpt lat="46.52639" lon="0.30554">
        <ele>121.59999847412</ele>
        <time>2020-06-05T15:22:25.000Z</time>
      </trkpt>
      <trkpt lat="46.52638" lon="0.30559">
        <ele>121.59999847412</ele>
        <time>2020-06-05T15:22:26.000Z</time>
      </trkpt>
      <trkpt lat="46.52637" lon="0.30564">
        <ele>121.80000305176</ele>
        <time>2020-06-05T15:22:27.000Z</time>
      </trkpt>
      <trkpt lat="46.52636" lon="0.3057">
        <ele>121.80000305176</ele>
        <time>2020-06-05T15:22:28.000Z</time>
      </trkpt>
      <trkpt lat="46.52636" lon="0.30577">
        <ele>122.19999694824</ele>
        <time>2020-06-05T15:22:29.000Z</time>
      </trkpt>
      <trkpt lat="46.52635" lon="0.30583">
        <ele>122.59999847412</ele>
        <time>2020-06-05T15:22:30.000Z</time>
      </trkpt>
      <trkpt lat="46.52633" lon="0.30589">
        <ele>123.19999694824</ele>
        <time>2020-06-05T15:22:31.000Z</time>
      </trkpt>
      <trkpt lat="46.52631" lon="0.30594">
        <ele>123.40000152588</ele>
        <time>2020-06-05T15:22:32.000Z</time>
      </trkpt>
      <trkpt lat="46.5263" lon="0.30598">
        <ele>123.40000152588</ele>
        <time>2020-06-05T15:22:33.000Z</time>
      </trkpt>
      <trkpt lat="46.52629" lon="0.30604">
        <ele>123.59999847412</ele>
        <time>2020-06-05T15:22:34.000Z</time>
      </trkpt>
      <trkpt lat="46.52627" lon="0.3061">
        <ele>124</ele>
        <time>2020-06-05T15:22:35.000Z</time>
      </trkpt>
      <trkpt lat="46.52625" lon="0.30616">
        <ele>124.19999694824</ele>
        <time>2020-06-05T15:22:36.000Z</time>
      </trkpt>
      <trkpt lat="46.52623" lon="0.30621">
        <ele>124.59999847412</ele>
        <time>2020-06-05T15:22:37.000Z</time>
      </trkpt>
      <trkpt lat="46.52621" lon="0.30626">
        <ele>125.19999694824</ele>
        <time>2020-06-05T15:22:38.000Z</time>
      </trkpt>
      <trkpt lat="46.5262" lon="0.30631">
        <ele>125.40000152588</ele>
        <time>2020-06-05T15:22:39.000Z</time>
      </trkpt>
      <trkpt lat="46.52618" lon="0.30637">
        <ele>125.59999847412</ele>
        <time>2020-06-05T15:22:40.000Z</time>
      </trkpt>
      <trkpt lat="46.52617" lon="0.30642">
        <ele>125.59999847412</ele>
        <time>2020-06-05T15:22:41.000Z</time>
      </trkpt>
      <trkpt lat="46.52615" lon="0.30647">
        <ele>125.80000305176</ele>
        <time>2020-06-05T15:22:42.000Z</time>
      </trkpt>
      <trkpt lat="46.52614" lon="0.30652">
        <ele>125.80000305176</ele>
        <time>2020-06-05T15:22:43.000Z</time>
      </trkpt>
      <trkpt lat="46.52612" lon="0.30657">
        <ele>126</ele>
        <time>2020-06-05T15:22:44.000Z</time>
      </trkpt>
      <trkpt lat="46.5261" lon="0.30661">
        <ele>126</ele>
        <time>2020-06-05T15:22:45.000Z</time>
      </trkpt>
      <trkpt lat="46.52608" lon="0.30666">
        <ele>126</ele>
        <time>2020-06-05T15:22:46.000Z</time>
      </trkpt>
      <trkpt lat="46.52606" lon="0.30671">
        <ele>126.19999694824</ele>
        <time>2020-06-05T15:22:47.000Z</time>
      </trkpt>
      <trkpt lat="46.52604" lon="0.30676">
        <ele>126.40000152588</ele>
        <time>2020-06-05T15:22:48.000Z</time>
      </trkpt>
      <trkpt lat="46.52601" lon="0.30681">
        <ele>126.59999847412</ele>
        <time>2020-06-05T15:22:49.000Z</time>
      </trkpt>
      <trkpt lat="46.526" lon="0.30685">
        <ele>126.80000305176</ele>
        <time>2020-06-05T15:22:50.000Z</time>
      </trkpt>
      <trkpt lat="46.52597" lon="0.30689">
        <ele>127.19999694824</ele>
        <time>2020-06-05T15:22:51.000Z</time>
      </trkpt>
      <trkpt lat="46.52595" lon="0.30693">
        <ele>127.80000305176</ele>
        <time>2020-06-05T15:22:52.000Z</time>
      </trkpt>
      <trkpt lat="46.52594" lon="0.30697">
        <ele>128</ele>
        <time>2020-06-05T15:22:53.000Z</time>
      </trkpt>
      <trkpt lat="46.52596" lon="0.30701">
        <ele>128.39999389648</ele>
        <time>2020-06-05T15:22:54.000Z</time>
      </trkpt>
      <trkpt lat="46.52598" lon="0.30703">
        <ele>128.39999389648</ele>
        <time>2020-06-05T15:22:55.000Z</time>
      </trkpt>
      <trkpt lat="46.52601" lon="0.30703">
        <ele>128.80000305176</ele>
        <time>2020-06-05T15:22:56.000Z</time>
      </trkpt>
      <trkpt lat="46.52605" lon="0.30704">
        <ele>128.80000305176</ele>
        <time>2020-06-05T15:22:57.000Z</time>
      </trkpt>
      <trkpt lat="46.52609" lon="0.30705">
        <ele>129</ele>
        <time>2020-06-05T15:22:58.000Z</time>
      </trkpt>
    </trkseg>
  </trk>
</gpx>